GEFSMA_prec_meanprecacc_012.txt.gz
Total_Precipitation_Accumulation
0.02 0.02 0.01 0.01 0.00 0.00 0.00 0.00 0.01 0.01 0.02 0.04 0.05 0.05 0.07 0.09 0.09 0.08 0.05 0.00 0.00 0.01 0.03 0.02 0.01 0.01 0.00 0.01 0.02 0.02 0.00 0.01 0.03 0.03 0.02 0.02 0.07 0.15 0.20 0.21 0.35 0.44 0.38
0.01 0.02 0.01 0.01 0.01 0.00 0.00 0.00 0.01 0.01 0.02 0.03 0.04 0.04 0.05 0.05 0.04 0.04 0.03 0.01 0.00 0.01 0.03 0.02 0.02 0.01 0.01 0.00 0.01 0.02 0.01 0.02 0.04 0.11 0.08 0.07 0.09 0.13 0.20 0.23 0.19 0.21 0.21
0.00 0.01 0.01 0.01 0.01 0.02 0.02 0.02 0.02 0.02 0.03 0.04 0.06 0.06 0.05 0.04 0.03 0.03 0.03 0.01 0.00 0.00 0.01 0.02 0.02 0.02 0.02 0.01 0.01 0.03 0.03 0.04 0.08 0.14 0.12 0.12 0.12 0.12 0.14 0.20 0.23 0.22 0.19
0.01 0.02 0.02 0.02 0.01 0.02 0.05 0.05 0.05 0.05 0.05 0.06 0.08 0.10 0.09 0.07 0.05 0.04 0.06 0.03 0.02 0.01 0.00 0.00 0.01 0.01 0.02 0.01 0.01 0.04 0.04 0.08 0.13 0.12 0.11 0.10 0.11 0.15 0.15 0.17 0.20 0.22 0.24
0.02 0.02 0.03 0.04 0.05 0.06 0.08 0.10 0.08 0.10 0.10 0.08 0.10 0.14 0.14 0.16 0.16 0.12 0.12 0.10 0.07 0.03 0.01 0.01 0.00 0.00 0.01 0.00 0.01 0.03 0.07 0.12 0.13 0.16 0.13 0.10 0.09 0.11 0.15 0.17 0.21 0.23 0.24
0.01 0.01 0.01 0.03 0.05 0.09 0.13 0.14 0.12 0.12 0.14 0.15 0.20 0.21 0.25 0.26 0.22 0.16 0.16 0.16 0.13 0.07 0.04 0.02 0.00 0.00 0.00 0.00 0.00 0.01 0.05 0.09 0.11 0.17 0.20 0.18 0.14 0.12 0.12 0.12 0.15 0.20 0.23
0.00 0.00 0.00 0.01 0.01 0.03 0.05 0.07 0.09 0.09 0.09 0.10 0.15 0.18 0.19 0.21 0.19 0.15 0.16 0.20 0.23 0.19 0.13 0.07 0.02 0.00 0.00 0.00 0.00 0.00 0.01 0.05 0.08 0.09 0.13 0.16 0.15 0.14 0.13 0.11 0.11 0.12 0.16
0.00 0.00 0.00 0.00 0.00 0.00 0.00 0.01 0.02 0.04 0.03 0.03 0.07 0.10 0.11 0.13 0.12 0.11 0.12 0.17 0.22 0.21 0.16 0.11 0.06 0.02 0.01 0.00 0.00 0.00 0.00 0.02 0.05 0.07 0.06 0.07 0.09 0.12 0.14 0.14 0.13 0.11 0.10
0.00 0.00 0.00 0.00 0.00 0.00 0.00 0.00 0.00 0.01 0.01 0.01 0.02 0.03 0.04 0.06 0.09 0.06 0.07 0.10 0.12 0.11 0.09 0.07 0.05 0.03 0.01 0.00 0.00 0.00 0.00 0.00 0.01 0.04 0.06 0.06 0.07 0.11 0.16 0.18 0.17 0.14 0.12
0.00 0.00 0.00 0.00 0.00 0.00 0.00 0.00 0.00 0.00 0.00 0.00 0.00 0.00 0.01 0.01 0.02 0.02 0.02 0.03 0.03 0.02 0.02 0.01 0.01 0.01 0.00 0.00 0.00 0.00 0.00 0.00 0.00 0.01 0.02 0.03 0.05 0.12 0.20 0.23 0.22 0.18 0.16
0.00 0.00 0.00 0.00 0.00 0.00 0.00 0.00 0.00 0.00 0.00 0.00 0.00 0.00 0.00 0.00 0.00 0.00 0.00 0.00 0.00 0.00 0.00 0.00 0.00 0.00 0.00 0.00 0.00 0.00 0.00 0.00 0.00 0.00 0.01 0.01 0.02 0.07 0.17 0.25 0.27 0.25 0.21
0.00 0.00 0.00 0.00 0.00 0.00 0.00 0.00 0.00 0.00 0.00 0.00 0.00 0.00 0.00 0.00 0.00 0.00 0.00 0.00 0.00 0.00 0.00 0.00 0.00 0.00 0.00 0.00 0.00 0.00 0.00 0.00 0.01 0.02 0.03 0.02 0.01 0.02 0.07 0.17 0.26 0.30 0.27
0.00 0.00 0.00 0.00 0.00 0.00 0.00 0.00 0.00 0.00 0.00 0.00 0.00 0.00 0.00 0.00 0.00 0.00 0.00 0.00 0.00 0.00 0.00 0.00 0.00 0.00 0.00 0.00 0.00 0.00 0.00 0.00 0.01 0.02 0.03 0.03 0.02 0.01 0.01 0.05 0.14 0.25 0.30
0.00 0.00 0.00 0.00 0.00 0.00 0.00 0.00 0.00 0.00 0.00 0.00 0.00 0.00 0.00 0.00 0.00 0.00 0.00 0.00 0.00 0.00 0.00 0.00 0.00 0.00 0.00 0.00 0.00 0.00 0.00 0.01 0.01 0.02 0.02 0.02 0.02 0.01 0.01 0.01 0.05 0.13 0.26
0.00 0.00 0.00 0.00 0.00 0.00 0.00 0.00 0.00 0.00 0.00 0.00 0.00 0.00 0.00 0.00 0.00 0.00 0.00 0.00 0.00 0.00 0.00 0.00 0.00 0.00 0.00 0.00 0.00 0.00 0.01 0.02 0.01 0.01 0.02 0.03 0.03 0.03 0.02 0.02 0.02 0.05 0.15
0.01 0.01 0.00 0.00 0.00 0.00 0.00 0.00 0.00 0.00 0.00 0.00 0.00 0.00 0.00 0.00 0.00 0.00 0.00 0.00 0.00 0.00 0.00 0.00 0.00 0.00 0.00 0.00 0.00 0.01 0.00 0.01 0.02 0.04 0.04 0.04 0.04 0.05 0.04 0.02 0.02 0.03 0.09
0.02 0.02 0.01 0.01 0.00 0.00 0.00 0.00 0.00 0.00 0.00 0.00 0.00 0.00 0.00 0.00 0.00 0.00 0.00 0.00 0.01 0.01 0.01 0.00 0.00 0.00 0.00 0.00 0.00 0.01 0.01 0.01 0.02 0.03 0.03 0.02 0.02 0.03 0.03 0.02 0.02 0.04 0.08
0.04 0.03 0.02 0.02 0.01 0.00 0.00 0.00 0.00 0.00 0.00 0.00 0.00 0.00 0.00 0.00 0.00 0.00 0.00 0.01 0.01 0.01 0.02 0.01 0.00 0.00 0.00 0.00 0.00 0.00 0.00 0.00 0.01 0.01 0.01 0.02 0.02 0.03 0.04 0.04 0.02 0.03 0.04
0.06 0.05 0.04 0.03 0.02 0.01 0.00 0.00 0.00 0.00 0.00 0.00 0.00 0.00 0.00 0.00 0.00 0.00 0.00 0.01 0.01 0.02 0.02 0.02 0.02 0.01 0.01 0.00 0.00 0.00 0.00 0.00 0.00 0.00 0.01 0.03 0.05 0.06 0.06 0.06 0.04 0.04 0.03
0.12 0.10 0.09 0.06 0.04 0.02 0.01 0.00 0.00 0.00 0.00 0.00 0.00 0.00 0.00 0.00 0.00 0.00 0.00 0.00 0.01 0.01 0.02 0.03 0.03 0.03 0.03 0.01 0.00 0.00 0.00 0.00 0.00 0.00 0.00 0.01 0.03 0.06 0.07 0.07 0.06 0.05 0.05
0.20 0.18 0.15 0.10 0.06 0.03 0.01 0.00 0.00 0.01 0.01 0.00 0.00 0.00 0.01 0.02 0.02 0.02 0.01 0.01 0.01 0.01 0.01 0.02 0.02 0.01 0.01 0.01 0.00 0.00 0.00 0.00 0.00 0.00 0.00 0.00 0.02 0.02 0.04 0.08 0.11 0.11 0.10
0.26 0.22 0.17 0.12 0.08 0.04 0.03 0.00 0.00 0.00 0.00 0.00 0.01 0.01 0.01 0.02 0.03 0.04 0.04 0.03 0.02 0.01 0.01 0.01 0.01 0.01 0.01 0.00 0.00 0.00 0.00 0.00 0.00 0.00 0.01 0.01 0.01 0.01 0.02 0.05 0.09 0.13 0.16
0.18 0.13 0.10 0.08 0.05 0.04 0.03 0.01 0.00 0.00 0.00 0.00 0.00 0.00 0.00 0.00 0.01 0.01 0.01 0.01 0.01 0.00 0.00 0.00 0.01 0.01 0.01 0.00 0.00 0.00 0.00 0.01 0.01 0.00 0.02 0.01 0.00 0.00 0.00 0.02 0.06 0.08 0.12
0.09 0.05 0.03 0.02 0.01 0.01 0.01 0.01 0.00 0.00 0.00 0.00 0.00 0.00 0.00 0.00 0.00 0.00 0.00 0.00 0.00 0.00 0.00 0.00 0.00 0.00 0.00 0.00 0.00 0.00 0.01 0.01 0.01 0.00 0.01 0.02 0.01 0.01 0.00 0.00 0.01 0.03 0.05
0.04 0.02 0.01 0.01 0.00 0.00 0.00 0.00 0.00 0.00 0.00 0.00 0.00 0.00 0.00 0.00 0.00 0.00 0.00 0.00 0.00 0.00 0.00 0.00 0.00 0.00 0.00 0.00 0.00 0.00 0.01 0.01 0.01 0.00 0.01 0.02 0.01 0.01 0.01 0.00 0.00 0.00 0.01
0.02 0.01 0.00 0.00 0.00 0.00 0.00 0.00 0.00 0.00 0.00 0.00 0.00 0.00 0.00 0.00 0.00 0.00 0.00 0.00 0.00 0.00 0.00 0.00 0.00 0.00 0.00 0.00 0.00 0.00 0.01 0.02 0.02 0.01 0.01 0.02 0.02 0.03 0.02 0.01 0.01 0.01 0.01

GEFSMA_prec_meanprecacc_018.txt.gz
Total_Precipitation_Accumulation
0.04 0.04 0.03 0.02 0.01 0.01 0.01 0.01 0.01 0.02 0.02 0.04 0.05 0.05 0.07 0.09 0.09 0.08 0.05 0.00 0.00 0.04 0.09 0.08 0.06 0.04 0.02 0.01 0.02 0.02 0.01 0.01 0.03 0.03 0.02 0.02 0.07 0.15 0.20 0.21 0.35 0.44 0.38
0.02 0.02 0.02 0.02 0.01 0.01 0.01 0.00 0.01 0.02 0.02 0.03 0.04 0.04 0.06 0.05 0.04 0.05 0.04 0.02 0.01 0.02 0.07 0.08 0.07 0.06 0.04 0.01 0.02 0.02 0.01 0.02 0.04 0.11 0.08 0.07 0.09 0.13 0.20 0.23 0.19 0.21 0.21
0.01 0.01 0.01 0.01 0.01 0.02 0.02 0.02 0.02 0.03 0.03 0.05 0.07 0.07 0.06 0.06 0.05 0.07 0.08 0.06 0.03 0.02 0.03 0.07 0.09 0.08 0.07 0.04 0.02 0.04 0.03 0.04 0.08 0.14 0.12 0.12 0.12 0.12 0.14 0.20 0.23 0.22 0.19
0.01 0.02 0.02 0.02 0.01 0.02 0.05 0.05 0.05 0.06 0.06 0.07 0.09 0.12 0.12 0.11 0.10 0.10 0.14 0.11 0.07 0.03 0.02 0.03 0.08 0.12 0.13 0.10 0.06 0.06 0.05 0.09 0.13 0.13 0.11 0.10 0.11 0.15 0.15 0.17 0.20 0.22 0.24
0.02 0.02 0.03 0.04 0.05 0.06 0.09 0.11 0.10 0.12 0.11 0.10 0.11 0.15 0.17 0.19 0.21 0.19 0.21 0.20 0.14 0.08 0.05 0.03 0.04 0.08 0.13 0.16 0.16 0.15 0.14 0.15 0.14 0.17 0.13 0.10 0.09 0.11 0.15 0.17 0.21 0.23 0.25
0.01 0.01 0.01 0.03 0.06 0.10 0.13 0.15 0.13 0.13 0.15 0.16 0.21 0.23 0.27 0.28 0.25 0.21 0.23 0.26 0.24 0.17 0.12 0.08 0.04 0.04 0.07 0.11 0.16 0.18 0.19 0.16 0.14 0.17 0.20 0.18 0.14 0.12 0.12 0.12 0.15 0.21 0.24
0.00 0.00 0.00 0.01 0.01 0.03 0.05 0.08 0.10 0.10 0.10 0.12 0.16 0.18 0.20 0.23 0.21 0.18 0.20 0.27 0.34 0.35 0.30 0.22 0.13 0.07 0.07 0.07 0.08 0.09 0.11 0.12 0.11 0.10 0.13 0.16 0.15 0.14 0.13 0.11 0.11 0.12 0.16
0.00 0.00 0.00 0.00 0.00 0.00 0.01 0.01 0.03 0.04 0.04 0.05 0.09 0.12 0.12 0.14 0.13 0.13 0.16 0.22 0.30 0.36 0.38 0.35 0.28 0.20 0.14 0.09 0.05 0.04 0.05 0.06 0.07 0.08 0.06 0.08 0.09 0.12 0.14 0.14 0.13 0.11 0.11
0.00 0.00 0.00 0.00 0.00 0.00 0.00 0.00 0.00 0.01 0.01 0.01 0.03 0.04 0.04 0.06 0.09 0.07 0.09 0.12 0.16 0.20 0.24 0.28 0.29 0.28 0.24 0.17 0.09 0.04 0.02 0.02 0.02 0.04 0.06 0.06 0.07 0.11 0.16 0.18 0.17 0.14 0.12
0.00 0.00 0.00 0.00 0.00 0.01 0.01 0.00 0.00 0.00 0.00 0.00 0.00 0.01 0.01 0.01 0.02 0.02 0.02 0.03 0.04 0.06 0.08 0.12 0.15 0.17 0.19 0.16 0.11 0.06 0.03 0.02 0.01 0.01 0.02 0.03 0.05 0.12 0.21 0.23 0.22 0.18 0.16
0.00 0.00 0.00 0.00 0.01 0.01 0.01 0.01 0.00 0.00 0.00 0.00 0.00 0.00 0.00 0.00 0.00 0.00 0.00 0.00 0.00 0.01 0.02 0.04 0.04 0.05 0.07 0.08 0.06 0.04 0.02 0.01 0.01 0.00 0.01 0.01 0.02 0.07 0.17 0.25 0.27 0.25 0.22
0.00 0.01 0.01 0.01 0.01 0.01 0.01 0.01 0.01 0.01 0.00 0.00 0.00 0.00 0.00 0.00 0.00 0.00 0.00 0.00 0.00 0.00 0.00 0.00 0.01 0.01 0.02 0.03 0.03 0.03 0.02 0.01 0.01 0.02 0.03 0.02 0.01 0.02 0.07 0.17 0.26 0.30 0.27
0.01 0.01 0.02 0.02 0.03 0.03 0.03 0.02 0.02 0.02 0.01 0.01 0.00 0.00 0.00 0.00 0.00 0.00 0.00 0.00 0.00 0.00 0.00 0.00 0.00 0.00 0.00 0.00 0.00 0.01 0.00 0.00 0.01 0.02 0.03 0.03 0.02 0.01 0.01 0.05 0.14 0.25 0.30
0.01 0.01 0.02 0.03 0.04 0.05 0.04 0.03 0.02 0.02 0.02 0.01 0.01 0.01 0.00 0.00 0.00 0.00 0.00 0.00 0.00 0.00 0.00 0.00 0.00 0.00 0.00 0.00 0.00 0.00 0.00 0.01 0.01 0.02 0.02 0.02 0.02 0.01 0.01 0.01 0.05 0.13 0.26
0.01 0.02 0.03 0.05 0.06 0.06 0.06 0.04 0.03 0.02 0.01 0.01 0.00 0.01 0.00 0.00 0.00 0.00 0.00 0.00 0.00 0.00 0.00 0.00 0.00 0.00 0.00 0.00 0.00 0.00 0.01 0.02 0.01 0.01 0.02 0.03 0.03 0.03 0.02 0.02 0.02 0.05 0.15
0.02 0.03 0.05 0.07 0.08 0.08 0.07 0.06 0.04 0.02 0.01 0.00 0.00 0.00 0.00 0.00 0.00 0.00 0.00 0.00 0.00 0.00 0.00 0.00 0.00 0.00 0.00 0.00 0.00 0.01 0.00 0.01 0.02 0.04 0.04 0.04 0.04 0.05 0.04 0.02 0.02 0.03 0.09
0.04 0.05 0.06 0.06 0.06 0.08 0.08 0.06 0.05 0.03 0.01 0.00 0.00 0.00 0.00 0.00 0.00 0.00 0.00 0.00 0.01 0.01 0.01 0.00 0.00 0.00 0.00 0.00 0.00 0.01 0.01 0.01 0.02 0.03 0.03 0.02 0.02 0.03 0.03 0.02 0.02 0.04 0.08
0.08 0.09 0.09 0.09 0.08 0.07 0.06 0.06 0.05 0.03 0.02 0.01 0.01 0.01 0.00 0.00 0.00 0.00 0.00 0.01 0.01 0.01 0.02 0.01 0.00 0.00 0.00 0.00 0.00 0.00 0.00 0.00 0.01 0.01 0.01 0.02 0.02 0.03 0.04 0.04 0.02 0.03 0.04
0.17 0.17 0.16 0.15 0.14 0.11 0.08 0.07 0.06 0.05 0.04 0.04 0.03 0.03 0.03 0.02 0.01 0.00 0.00 0.01 0.01 0.02 0.02 0.03 0.02 0.02 0.02 0.01 0.00 0.00 0.00 0.00 0.00 0.00 0.01 0.03 0.05 0.06 0.06 0.06 0.04 0.04 0.03
0.27 0.29 0.30 0.29 0.26 0.23 0.19 0.16 0.14 0.11 0.10 0.09 0.07 0.07 0.06 0.04 0.02 0.01 0.00 0.00 0.01 0.02 0.02 0.03 0.04 0.04 0.04 0.01 0.01 0.01 0.00 0.00 0.00 0.01 0.00 0.01 0.03 0.06 0.07 0.07 0.06 0.05 0.05
0.36 0.38 0.39 0.38 0.35 0.32 0.28 0.23 0.21 0.19 0.18 0.15 0.13 0.11 0.09 0.08 0.06 0.04 0.02 0.01 0.01 0.01 0.01 0.02 0.03 0.02 0.02 0.03 0.03 0.02 0.02 0.01 0.01 0.01 0.00 0.00 0.02 0.02 0.04 0.08 0.11 0.11 0.10
0.38 0.38 0.39 0.38 0.34 0.31 0.25 0.17 0.14 0.14 0.14 0.13 0.12 0.09 0.08 0.07 0.06 0.06 0.06 0.03 0.02 0.01 0.02 0.02 0.01 0.01 0.01 0.02 0.03 0.04 0.04 0.04 0.03 0.02 0.01 0.01 0.01 0.01 0.02 0.05 0.09 0.13 0.16
0.26 0.24 0.24 0.23 0.20 0.18 0.15 0.09 0.06 0.04 0.04 0.04 0.04 0.04 0.03 0.03 0.02 0.02 0.02 0.01 0.02 0.02 0.02 0.03 0.04 0.04 0.02 0.02 0.03 0.04 0.05 0.05 0.05 0.04 0.03 0.02 0.00 0.00 0.00 0.02 0.06 0.08 0.12
0.15 0.12 0.10 0.08 0.07 0.07 0.07 0.05 0.02 0.01 0.01 0.01 0.01 0.01 0.01 0.01 0.01 0.01 0.00 0.00 0.00 0.00 0.01 0.02 0.04 0.06 0.06 0.05 0.04 0.04 0.05 0.05 0.05 0.02 0.02 0.02 0.01 0.01 0.00 0.00 0.01 0.03 0.05
0.09 0.07 0.04 0.03 0.02 0.02 0.03 0.03 0.01 0.00 0.00 0.00 0.00 0.00 0.00 0.00 0.00 0.00 0.00 0.00 0.00 0.00 0.00 0.00 0.01 0.03 0.03 0.04 0.03 0.03 0.03 0.03 0.03 0.01 0.01 0.02 0.01 0.01 0.01 0.00 0.00 0.00 0.01
0.05 0.03 0.02 0.01 0.00 0.00 0.02 0.02 0.01 0.00 0.00 0.00 0.00 0.00 0.00 0.00 0.00 0.00 0.00 0.00 0.00 0.00 0.00 0.00 0.00 0.00 0.00 0.01 0.01 0.01 0.02 0.03 0.02 0.01 0.01 0.02 0.02 0.03 0.02 0.01 0.01 0.01 0.01

GEFSMA_prec_meanprecacc_024.txt.gz
Total_Precipitation_Accumulation
0.06 0.06 0.05 0.04 0.04 0.04 0.05 0.05 0.04 0.04 0.04 0.05 0.06 0.05 0.07 0.09 0.09 0.08 0.05 0.00 0.01 0.05 0.13 0.16 0.15 0.15 0.14 0.10 0.07 0.04 0.01 0.01 0.03 0.03 0.02 0.02 0.07 0.15 0.20 0.21 0.35 0.44 0.38
0.03 0.03 0.03 0.03 0.02 0.02 0.02 0.02 0.03 0.03 0.03 0.04 0.04 0.04 0.06 0.05 0.04 0.05 0.05 0.02 0.01 0.02 0.11 0.15 0.15 0.14 0.14 0.09 0.07 0.05 0.02 0.02 0.04 0.11 0.08 0.07 0.09 0.13 0.20 0.23 0.19 0.21 0.21
0.01 0.01 0.01 0.01 0.01 0.02 0.03 0.03 0.02 0.03 0.03 0.05 0.07 0.07 0.06 0.06 0.05 0.07 0.08 0.06 0.04 0.04 0.07 0.16 0.19 0.19 0.18 0.13 0.09 0.07 0.05 0.05 0.08 0.15 0.12 0.12 0.12 0.12 0.14 0.20 0.23 0.22 0.19
0.01 0.02 0.02 0.02 0.01 0.02 0.05 0.06 0.06 0.06 0.06 0.07 0.09 0.12 0.12 0.11 0.10 0.11 0.14 0.12 0.08 0.06 0.05 0.10 0.19 0.23 0.25 0.22 0.16 0.12 0.08 0.10 0.13 0.13 0.11 0.10 0.11 0.15 0.15 0.17 0.20 0.22 0.24
0.02 0.02 0.03 0.04 0.05 0.06 0.09 0.11 0.10 0.12 0.11 0.10 0.12 0.15 0.17 0.19 0.21 0.19 0.22 0.21 0.16 0.10 0.07 0.07 0.11 0.17 0.26 0.31 0.32 0.28 0.21 0.18 0.16 0.17 0.13 0.10 0.09 0.11 0.15 0.17 0.21 0.23 0.25
0.01 0.01 0.01 0.03 0.06 0.10 0.13 0.15 0.13 0.13 0.15 0.16 0.21 0.23 0.27 0.29 0.26 0.21 0.23 0.27 0.25 0.18 0.14 0.09 0.07 0.08 0.14 0.23 0.34 0.40 0.37 0.29 0.21 0.20 0.21 0.19 0.14 0.12 0.12 0.12 0.15 0.21 0.24
0.00 0.00 0.00 0.01 0.01 0.03 0.05 0.08 0.10 0.10 0.10 0.12 0.17 0.18 0.20 0.23 0.21 0.18 0.21 0.28 0.35 0.36 0.31 0.24 0.15 0.10 0.11 0.15 0.19 0.28 0.36 0.38 0.32 0.21 0.19 0.18 0.15 0.14 0.13 0.11 0.11 0.12 0.16
0.00 0.00 0.00 0.00 0.00 0.00 0.01 0.01 0.03 0.05 0.04 0.06 0.10 0.12 0.12 0.14 0.13 0.13 0.16 0.22 0.30 0.37 0.39 0.36 0.29 0.22 0.17 0.15 0.10 0.13 0.19 0.30 0.35 0.31 0.20 0.13 0.12 0.12 0.14 0.14 0.13 0.11 0.11
0.00 0.00 0.00 0.00 0.00 0.00 0.00 0.01 0.01 0.02 0.02 0.03 0.05 0.06 0.05 0.06 0.09 0.07 0.09 0.12 0.17 0.20 0.25 0.29 0.31 0.30 0.27 0.22 0.18 0.13 0.11 0.17 0.24 0.27 0.25 0.17 0.12 0.14 0.17 0.18 0.17 0.14 0.12
0.00 0.00 0.00 0.00 0.00 0.01 0.01 0.01 0.01 0.01 0.02 0.02 0.02 0.03 0.02 0.01 0.02 0.02 0.02 0.04 0.04 0.06 0.09 0.12 0.16 0.20 0.23 0.22 0.21 0.20 0.18 0.14 0.17 0.19 0.19 0.15 0.11 0.15 0.23 0.24 0.23 0.18 0.16
0.00 0.00 0.00 0.00 0.01 0.01 0.01 0.01 0.01 0.02 0.02 0.02 0.02 0.02 0.03 0.01 0.01 0.01 0.01 0.00 0.01 0.01 0.02 0.05 0.07 0.10 0.13 0.16 0.17 0.17 0.19 0.17 0.15 0.15 0.14 0.12 0.08 0.11 0.20 0.27 0.27 0.25 0.22
0.00 0.01 0.01 0.01 0.02 0.02 0.02 0.02 0.03 0.03 0.03 0.03 0.03 0.03 0.02 0.01 0.01 0.00 0.00 0.00 0.01 0.01 0.01 0.02 0.03 0.06 0.09 0.13 0.16 0.19 0.19 0.18 0.16 0.14 0.13 0.09 0.05 0.04 0.09 0.17 0.26 0.30 0.27
0.01 0.01 0.02 0.02 0.03 0.04 0.04 0.05 0.06 0.07 0.06 0.06 0.05 0.04 0.03 0.02 0.01 0.01 0.01 0.01 0.01 0.01 0.01 0.02 0.03 0.04 0.07 0.09 0.11 0.14 0.15 0.15 0.14 0.12 0.11 0.08 0.04 0.02 0.02 0.05 0.14 0.25 0.30
0.01 0.01 0.02 0.04 0.05 0.06 0.06 0.07 0.08 0.09 0.10 0.10 0.10 0.08 0.06 0.04 0.03 0.02 0.01 0.01 0.01 0.01 0.01 0.01 0.02 0.03 0.05 0.06 0.09 0.10 0.09 0.09 0.09 0.09 0.08 0.06 0.04 0.02 0.01 0.02 0.05 0.13 0.26
0.01 0.02 0.04 0.06 0.08 0.09 0.10 0.10 0.11 0.12 0.12 0.12 0.13 0.12 0.11 0.09 0.06 0.03 0.02 0.01 0.01 0.01 0.01 0.00 0.01 0.02 0.03 0.04 0.06 0.05 0.05 0.06 0.05 0.05 0.06 0.07 0.06 0.04 0.03 0.02 0.02 0.05 0.15
0.03 0.04 0.06 0.08 0.11 0.13 0.15 0.16 0.15 0.15 0.15 0.14 0.13 0.13 0.13 0.12 0.09 0.06 0.03 0.02 0.01 0.01 0.00 0.00 0.01 0.01 0.01 0.02 0.02 0.02 0.02 0.02 0.03 0.05 0.06 0.05 0.06 0.06 0.05 0.03 0.02 0.03 0.09
0.05 0.06 0.07 0.08 0.10 0.14 0.17 0.18 0.19 0.20 0.21 0.19 0.16 0.14 0.13 0.12 0.11 0.08 0.06 0.03 0.01 0.01 0.01 0.00 0.00 0.01 0.01 0.01 0.01 0.01 0.01 0.02 0.03 0.04 0.04 0.03 0.03 0.03 0.04 0.02 0.02 0.04 0.08
0.09 0.10 0.11 0.12 0.13 0.14 0.16 0.19 0.21 0.21 0.22 0.23 0.20 0.18 0.16 0.14 0.11 0.08 0.06 0.04 0.03 0.02 0.02 0.01 0.01 0.01 0.01 0.01 0.01 0.00 0.00 0.01 0.01 0.01 0.02 0.02 0.02 0.03 0.04 0.04 0.02 0.03 0.04
0.18 0.19 0.20 0.22 0.21 0.20 0.19 0.20 0.23 0.25 0.25 0.24 0.22 0.20 0.18 0.16 0.12 0.08 0.04 0.03 0.04 0.03 0.03 0.03 0.02 0.02 0.02 0.01 0.00 0.00 0.00 0.00 0.01 0.01 0.02 0.03 0.05 0.06 0.06 0.06 0.04 0.04 0.03
0.28 0.31 0.34 0.35 0.34 0.32 0.31 0.29 0.29 0.29 0.29 0.29 0.27 0.23 0.20 0.18 0.14 0.11 0.07 0.05 0.04 0.03 0.03 0.04 0.04 0.04 0.04 0.02 0.02 0.02 0.01 0.00 0.01 0.01 0.01 0.01 0.03 0.06 0.07 0.07 0.06 0.05 0.05
0.37 0.40 0.41 0.42 0.40 0.40 0.40 0.34 0.31 0.32 0.33 0.33 0.32 0.31 0.28 0.26 0.22 0.16 0.11 0.07 0.05 0.04 0.03 0.03 0.03 0.03 0.03 0.04 0.04 0.04 0.04 0.02 0.01 0.01 0.01 0.01 0.02 0.02 0.04 0.08 0.11 0.11 0.10
0.39 0.39 0.41 0.40 0.37 0.36 0.38 0.28 0.21 0.22 0.24 0.26 0.27 0.27 0.25 0.23 0.22 0.22 0.17 0.10 0.07 0.05 0.04 0.04 0.03 0.03 0.03 0.04 0.06 0.07 0.08 0.08 0.05 0.03 0.03 0.02 0.02 0.02 0.02 0.05 0.09 0.13 0.16
0.27 0.25 0.26 0.24 0.21 0.21 0.27 0.18 0.09 0.09 0.10 0.12 0.14 0.15 0.13 0.12 0.11 0.11 0.10 0.07 0.05 0.05 0.05 0.06 0.08 0.07 0.04 0.03 0.05 0.07 0.11 0.12 0.10 0.07 0.06 0.05 0.03 0.02 0.01 0.02 0.06 0.08 0.12
0.15 0.13 0.11 0.09 0.08 0.09 0.17 0.14 0.04 0.03 0.04 0.05 0.06 0.06 0.06 0.06 0.05 0.06 0.04 0.03 0.02 0.03 0.04 0.05 0.09 0.13 0.12 0.09 0.07 0.09 0.11 0.13 0.12 0.09 0.08 0.08 0.06 0.04 0.02 0.01 0.02 0.03 0.05
0.09 0.07 0.05 0.03 0.02 0.03 0.10 0.15 0.06 0.01 0.02 0.02 0.02 0.02 0.02 0.02 0.03 0.02 0.03 0.03 0.03 0.04 0.05 0.05 0.08 0.12 0.14 0.13 0.11 0.11 0.13 0.14 0.14 0.13 0.10 0.10 0.08 0.06 0.03 0.01 0.00 0.01 0.01
0.05 0.03 0.02 0.01 0.00 0.01 0.04 0.13 0.11 0.02 0.01 0.01 0.01 0.01 0.01 0.02 0.02 0.01 0.02 0.03 0.03 0.03 0.02 0.01 0.02 0.03 0.04 0.06 0.07 0.11 0.14 0.15 0.13 0.13 0.09 0.08 0.08 0.07 0.06 0.02 0.01 0.01 0.01

GEFSMA_prec_meanprecacc_030.txt.gz
Total_Precipitation_Accumulation
0.06 0.06 0.06 0.05 0.04 0.05 0.06 0.06 0.06 0.07 0.08 0.10 0.10 0.09 0.10 0.10 0.09 0.08 0.05 0.00 0.01 0.05 0.13 0.19 0.25 0.33 0.38 0.34 0.29 0.21 0.14 0.07 0.04 0.04 0.02 0.02 0.07 0.15 0.20 0.21 0.35 0.45 0.39
0.03 0.03 0.03 0.03 0.02 0.02 0.03 0.03 0.03 0.04 0.05 0.07 0.07 0.07 0.09 0.07 0.05 0.05 0.05 0.02 0.01 0.02 0.11 0.16 0.19 0.23 0.32 0.37 0.31 0.23 0.17 0.11 0.08 0.12 0.08 0.07 0.09 0.13 0.20 0.23 0.19 0.21 0.21
0.01 0.01 0.01 0.01 0.01 0.02 0.03 0.03 0.03 0.03 0.04 0.05 0.07 0.08 0.08 0.07 0.06 0.07 0.09 0.07 0.04 0.04 0.07 0.16 0.19 0.22 0.28 0.33 0.33 0.28 0.20 0.15 0.15 0.18 0.13 0.12 0.12 0.12 0.14 0.20 0.23 0.22 0.19
0.01 0.02 0.02 0.02 0.01 0.02 0.05 0.06 0.06 0.06 0.06 0.07 0.09 0.12 0.12 0.11 0.10 0.11 0.15 0.12 0.09 0.06 0.05 0.10 0.19 0.24 0.30 0.32 0.34 0.33 0.25 0.22 0.21 0.18 0.13 0.11 0.11 0.15 0.15 0.17 0.20 0.22 0.24
0.02 0.02 0.03 0.04 0.05 0.06 0.09 0.11 0.10 0.12 0.11 0.10 0.12 0.15 0.17 0.19 0.21 0.19 0.22 0.21 0.16 0.10 0.07 0.07 0.11 0.18 0.27 0.37 0.43 0.43 0.38 0.32 0.25 0.23 0.17 0.12 0.09 0.11 0.15 0.17 0.21 0.23 0.25
0.01 0.01 0.01 0.03 0.06 0.10 0.13 0.15 0.13 0.13 0.15 0.16 0.21 0.23 0.27 0.29 0.26 0.21 0.23 0.27 0.26 0.18 0.14 0.09 0.07 0.08 0.14 0.25 0.40 0.50 0.50 0.43 0.32 0.29 0.26 0.21 0.15 0.12 0.12 0.12 0.15 0.21 0.24
0.00 0.00 0.00 0.01 0.01 0.03 0.05 0.08 0.10 0.10 0.10 0.12 0.17 0.19 0.20 0.23 0.21 0.18 0.21 0.28 0.35 0.36 0.31 0.24 0.15 0.10 0.11 0.15 0.20 0.32 0.43 0.48 0.43 0.31 0.27 0.23 0.17 0.15 0.13 0.12 0.11 0.12 0.16
0.00 0.00 0.00 0.00 0.00 0.00 0.01 0.01 0.03 0.05 0.04 0.06 0.10 0.13 0.12 0.14 0.13 0.13 0.16 0.22 0.30 0.37 0.39 0.36 0.30 0.23 0.17 0.15 0.11 0.14 0.23 0.36 0.45 0.43 0.31 0.22 0.17 0.15 0.15 0.14 0.13 0.11 0.11
0.00 0.00 0.00 0.00 0.00 0.00 0.01 0.01 0.01 0.02 0.02 0.03 0.05 0.08 0.06 0.06 0.09 0.07 0.09 0.12 0.17 0.20 0.25 0.29 0.31 0.30 0.27 0.23 0.18 0.14 0.13 0.22 0.32 0.38 0.39 0.29 0.22 0.19 0.20 0.19 0.18 0.14 0.12
0.00 0.00 0.00 0.00 0.00 0.01 0.01 0.01 0.01 0.01 0.02 0.02 0.03 0.04 0.04 0.03 0.04 0.03 0.02 0.04 0.04 0.06 0.09 0.13 0.17 0.20 0.23 0.23 0.21 0.20 0.19 0.17 0.27 0.29 0.31 0.30 0.24 0.26 0.29 0.28 0.25 0.19 0.17
0.00 0.00 0.00 0.00 0.01 0.01 0.01 0.01 0.02 0.02 0.03 0.03 0.03 0.03 0.04 0.03 0.03 0.03 0.02 0.01 0.01 0.01 0.02 0.05 0.07 0.10 0.13 0.17 0.17 0.18 0.20 0.19 0.24 0.28 0.29 0.29 0.25 0.26 0.31 0.34 0.31 0.26 0.22
0.01 0.01 0.01 0.01 0.02 0.02 0.02 0.03 0.04 0.04 0.04 0.04 0.04 0.04 0.04 0.03 0.03 0.03 0.03 0.02 0.01 0.01 0.02 0.02 0.03 0.06 0.09 0.13 0.17 0.20 0.21 0.21 0.24 0.28 0.29 0.30 0.27 0.25 0.27 0.27 0.31 0.32 0.29
0.01 0.01 0.02 0.03 0.03 0.04 0.04 0.06 0.07 0.08 0.08 0.08 0.07 0.06 0.05 0.04 0.03 0.04 0.04 0.03 0.02 0.01 0.02 0.02 0.03 0.04 0.07 0.10 0.12 0.16 0.18 0.20 0.23 0.28 0.29 0.25 0.24 0.24 0.24 0.20 0.20 0.28 0.32
0.01 0.02 0.03 0.04 0.05 0.06 0.07 0.08 0.10 0.11 0.12 0.12 0.12 0.11 0.09 0.07 0.05 0.04 0.04 0.04 0.04 0.02 0.01 0.01 0.02 0.04 0.06 0.07 0.10 0.12 0.12 0.14 0.16 0.20 0.24 0.24 0.22 0.19 0.18 0.16 0.14 0.19 0.29
0.01 0.02 0.04 0.07 0.09 0.10 0.10 0.11 0.13 0.14 0.14 0.15 0.16 0.16 0.15 0.13 0.11 0.08 0.05 0.05 0.05 0.04 0.02 0.01 0.01 0.02 0.05 0.07 0.10 0.10 0.10 0.12 0.11 0.12 0.18 0.22 0.23 0.21 0.18 0.14 0.10 0.11 0.17
0.03 0.04 0.06 0.08 0.11 0.14 0.16 0.17 0.17 0.16 0.16 0.16 0.17 0.18 0.18 0.18 0.16 0.13 0.10 0.07 0.05 0.05 0.03 0.02 0.02 0.02 0.05 0.07 0.10 0.10 0.10 0.11 0.11 0.13 0.14 0.16 0.20 0.22 0.20 0.15 0.11 0.09 0.11
0.05 0.06 0.07 0.08 0.11 0.14 0.18 0.19 0.20 0.21 0.23 0.22 0.21 0.21 0.21 0.20 0.21 0.20 0.17 0.13 0.09 0.07 0.05 0.03 0.02 0.03 0.06 0.09 0.09 0.09 0.09 0.09 0.10 0.12 0.12 0.12 0.12 0.15 0.16 0.14 0.11 0.09 0.11
0.09 0.10 0.12 0.13 0.13 0.14 0.17 0.20 0.22 0.23 0.26 0.29 0.29 0.28 0.28 0.27 0.26 0.24 0.24 0.22 0.17 0.12 0.09 0.06 0.02 0.04 0.07 0.11 0.10 0.09 0.08 0.07 0.06 0.08 0.09 0.10 0.10 0.11 0.12 0.12 0.10 0.08 0.08
0.18 0.19 0.20 0.22 0.22 0.20 0.21 0.23 0.25 0.27 0.29 0.31 0.34 0.36 0.36 0.34 0.32 0.30 0.29 0.29 0.26 0.19 0.14 0.10 0.06 0.05 0.08 0.11 0.12 0.09 0.08 0.07 0.06 0.07 0.08 0.09 0.11 0.12 0.11 0.11 0.09 0.07 0.06
0.28 0.31 0.34 0.36 0.34 0.33 0.34 0.38 0.34 0.31 0.32 0.36 0.38 0.40 0.41 0.40 0.39 0.36 0.33 0.32 0.31 0.27 0.21 0.15 0.12 0.10 0.10 0.13 0.14 0.12 0.09 0.09 0.09 0.08 0.05 0.05 0.07 0.09 0.10 0.11 0.09 0.07 0.06
0.37 0.40 0.41 0.42 0.40 0.41 0.47 0.51 0.40 0.34 0.35 0.38 0.40 0.42 0.44 0.45 0.46 0.43 0.35 0.31 0.31 0.31 0.28 0.21 0.16 0.13 0.12 0.16 0.20 0.17 0.14 0.10 0.09 0.08 0.06 0.04 0.04 0.05 0.06 0.09 0.12 0.12 0.11
0.39 0.39 0.41 0.40 0.37 0.37 0.44 0.45 0.31 0.24 0.26 0.29 0.32 0.33 0.34 0.37 0.41 0.45 0.41 0.32 0.28 0.28 0.29 0.25 0.20 0.17 0.14 0.16 0.22 0.25 0.22 0.17 0.12 0.08 0.05 0.04 0.03 0.03 0.03 0.05 0.10 0.14 0.16
0.27 0.25 0.26 0.24 0.21 0.21 0.30 0.31 0.19 0.10 0.11 0.14 0.17 0.18 0.18 0.20 0.23 0.26 0.27 0.23 0.21 0.22 0.25 0.27 0.27 0.23 0.17 0.16 0.20 0.25 0.28 0.26 0.16 0.10 0.08 0.07 0.04 0.03 0.02 0.03 0.06 0.08 0.12
0.15 0.13 0.11 0.09 0.08 0.09 0.19 0.25 0.15 0.04 0.05 0.06 0.07 0.09 0.10 0.11 0.12 0.15 0.15 0.13 0.13 0.15 0.18 0.21 0.27 0.30 0.26 0.21 0.20 0.25 0.28 0.29 0.27 0.20 0.14 0.13 0.09 0.06 0.03 0.02 0.02 0.03 0.05
0.09 0.07 0.05 0.03 0.02 0.03 0.11 0.23 0.18 0.03 0.03 0.04 0.03 0.04 0.06 0.06 0.07 0.07 0.10 0.12 0.11 0.14 0.15 0.17 0.20 0.23 0.25 0.24 0.22 0.23 0.28 0.31 0.32 0.30 0.26 0.22 0.16 0.12 0.07 0.03 0.02 0.01 0.01
0.05 0.03 0.02 0.01 0.00 0.01 0.05 0.20 0.26 0.06 0.02 0.02 0.02 0.04 0.09 0.09 0.07 0.04 0.07 0.10 0.10 0.11 0.08 0.08 0.08 0.08 0.09 0.12 0.15 0.21 0.26 0.28 0.30 0.31 0.28 0.27 0.26 0.21 0.16 0.08 0.03 0.02 0.01

GEFSMA_prec_meanprecacc_036.txt.gz
Total_Precipitation_Accumulation
0.06 0.06 0.06 0.05 0.04 0.05 0.06 0.06 0.07 0.08 0.10 0.13 0.17 0.18 0.22 0.22 0.18 0.16 0.12 0.08 0.04 0.07 0.16 0.22 0.30 0.41 0.49 0.46 0.43 0.32 0.23 0.12 0.06 0.04 0.02 0.02 0.07 0.15 0.20 0.22 0.36 0.46 0.40
0.03 0.03 0.03 0.03 0.02 0.02 0.03 0.03 0.04 0.05 0.06 0.08 0.09 0.12 0.15 0.15 0.13 0.14 0.15 0.13 0.07 0.05 0.12 0.17 0.20 0.26 0.40 0.48 0.47 0.39 0.30 0.20 0.14 0.15 0.10 0.08 0.09 0.13 0.20 0.23 0.20 0.22 0.22
0.01 0.01 0.01 0.01 0.01 0.02 0.03 0.03 0.03 0.03 0.04 0.06 0.08 0.10 0.11 0.11 0.11 0.14 0.16 0.15 0.13 0.08 0.09 0.17 0.20 0.23 0.31 0.40 0.48 0.50 0.37 0.27 0.24 0.25 0.17 0.13 0.12 0.12 0.14 0.20 0.23 0.22 0.20
0.01 0.02 0.02 0.02 0.01 0.02 0.05 0.06 0.06 0.06 0.06 0.07 0.10 0.13 0.13 0.13 0.12 0.14 0.19 0.17 0.15 0.11 0.08 0.11 0.20 0.24 0.31 0.35 0.41 0.52 0.46 0.37 0.32 0.28 0.20 0.15 0.13 0.16 0.15 0.17 0.20 0.22 0.24
0.02 0.02 0.03 0.04 0.05 0.06 0.09 0.11 0.10 0.12 0.11 0.10 0.12 0.16 0.18 0.20 0.22 0.21 0.25 0.24 0.19 0.14 0.11 0.09 0.12 0.18 0.28 0.38 0.45 0.53 0.58 0.53 0.40 0.35 0.26 0.20 0.14 0.13 0.15 0.17 0.21 0.23 0.25
0.01 0.01 0.01 0.03 0.06 0.10 0.13 0.15 0.13 0.13 0.15 0.16 0.22 0.24 0.28 0.29 0.27 0.22 0.24 0.28 0.27 0.19 0.16 0.11 0.08 0.09 0.14 0.26 0.41 0.53 0.60 0.59 0.49 0.42 0.36 0.29 0.22 0.15 0.13 0.12 0.15 0.21 0.24
0.00 0.00 0.01 0.01 0.01 0.03 0.05 0.08 0.10 0.11 0.10 0.12 0.17 0.19 0.20 0.23 0.22 0.19 0.21 0.29 0.36 0.37 0.32 0.25 0.16 0.10 0.11 0.16 0.20 0.33 0.46 0.55 0.54 0.45 0.39 0.32 0.23 0.19 0.15 0.12 0.11 0.12 0.16
0.00 0.00 0.00 0.00 0.00 0.01 0.01 0.01 0.03 0.05 0.05 0.06 0.11 0.13 0.12 0.14 0.13 0.13 0.16 0.23 0.30 0.37 0.40 0.37 0.30 0.23 0.18 0.16 0.11 0.14 0.24 0.38 0.49 0.51 0.44 0.34 0.26 0.21 0.18 0.15 0.14 0.11 0.11
0.00 0.00 0.00 0.00 0.00 0.00 0.01 0.01 0.01 0.03 0.03 0.03 0.05 0.09 0.08 0.07 0.10 0.07 0.09 0.13 0.17 0.20 0.25 0.29 0.32 0.31 0.28 0.24 0.20 0.15 0.13 0.24 0.36 0.43 0.46 0.40 0.33 0.29 0.26 0.22 0.19 0.15 0.12
0.00 0.00 0.00 0.00 0.01 0.01 0.01 0.01 0.01 0.02 0.03 0.04 0.04 0.05 0.06 0.04 0.06 0.03 0.03 0.04 0.05 0.07 0.09 0.13 0.17 0.20 0.23 0.23 0.22 0.22 0.20 0.19 0.32 0.37 0.38 0.37 0.33 0.36 0.39 0.34 0.27 0.20 0.17
0.00 0.00 0.00 0.01 0.01 0.01 0.02 0.02 0.02 0.03 0.04 0.05 0.05 0.05 0.05 0.05 0.04 0.05 0.03 0.01 0.02 0.02 0.04 0.06 0.08 0.10 0.13 0.17 0.18 0.19 0.21 0.21 0.30 0.38 0.39 0.40 0.34 0.35 0.41 0.42 0.34 0.27 0.23
0.01 0.01 0.01 0.01 0.02 0.02 0.03 0.03 0.04 0.05 0.05 0.06 0.06 0.06 0.07 0.07 0.05 0.06 0.05 0.02 0.02 0.02 0.03 0.03 0.04 0.07 0.10 0.14 0.17 0.21 0.22 0.23 0.27 0.37 0.40 0.42 0.42 0.41 0.41 0.37 0.35 0.34 0.29
0.01 0.01 0.02 0.03 0.03 0.04 0.05 0.06 0.08 0.09 0.09 0.10 0.09 0.08 0.08 0.08 0.07 0.07 0.07 0.05 0.03 0.02 0.02 0.03 0.03 0.05 0.08 0.11 0.13 0.16 0.18 0.20 0.25 0.33 0.37 0.34 0.33 0.40 0.47 0.43 0.31 0.33 0.34
0.01 0.02 0.03 0.04 0.05 0.06 0.07 0.09 0.10 0.12 0.13 0.14 0.14 0.13 0.12 0.10 0.09 0.08 0.08 0.08 0.06 0.03 0.02 0.01 0.02 0.04 0.07 0.09 0.11 0.13 0.12 0.14 0.16 0.21 0.28 0.31 0.29 0.28 0.33 0.39 0.36 0.34 0.39
0.01 0.02 0.04 0.07 0.09 0.10 0.11 0.12 0.14 0.15 0.15 0.16 0.17 0.18 0.18 0.16 0.15 0.12 0.10 0.10 0.10 0.07 0.03 0.01 0.02 0.03 0.06 0.08 0.11 0.11 0.11 0.12 0.11 0.13 0.19 0.26 0.29 0.29 0.29 0.30 0.29 0.31 0.37
0.03 0.04 0.06 0.08 0.11 0.14 0.16 0.18 0.18 0.17 0.17 0.17 0.18 0.20 0.21 0.21 0.20 0.18 0.15 0.12 0.11 0.10 0.06 0.03 0.03 0.03 0.06 0.08 0.12 0.12 0.11 0.12 0.11 0.13 0.15 0.18 0.25 0.31 0.34 0.34 0.31 0.28 0.30
0.05 0.06 0.07 0.08 0.11 0.14 0.18 0.20 0.21 0.22 0.24 0.23 0.22 0.22 0.23 0.24 0.25 0.25 0.22 0.18 0.14 0.12 0.09 0.04 0.03 0.04 0.08 0.12 0.11 0.12 0.12 0.11 0.10 0.13 0.13 0.14 0.17 0.23 0.29 0.32 0.33 0.32 0.33
0.09 0.10 0.12 0.13 0.13 0.14 0.17 0.21 0.24 0.25 0.28 0.31 0.31 0.30 0.30 0.29 0.29 0.29 0.29 0.28 0.23 0.17 0.13 0.09 0.04 0.05 0.08 0.14 0.15 0.13 0.11 0.09 0.08 0.10 0.11 0.13 0.15 0.18 0.23 0.29 0.31 0.32 0.32
0.18 0.19 0.20 0.22 0.22 0.20 0.21 0.24 0.27 0.30 0.31 0.33 0.35 0.38 0.39 0.37 0.36 0.34 0.34 0.34 0.31 0.24 0.18 0.14 0.10 0.08 0.10 0.15 0.18 0.16 0.14 0.12 0.10 0.11 0.12 0.14 0.18 0.20 0.21 0.24 0.26 0.29 0.29
0.28 0.31 0.34 0.36 0.34 0.33 0.34 0.39 0.38 0.36 0.35 0.37 0.40 0.43 0.45 0.46 0.45 0.42 0.39 0.38 0.37 0.33 0.26 0.20 0.17 0.15 0.15 0.18 0.23 0.20 0.16 0.15 0.15 0.13 0.12 0.12 0.15 0.19 0.21 0.21 0.20 0.21 0.25
0.37 0.40 0.41 0.42 0.40 0.41 0.47 0.54 0.49 0.41 0.38 0.39 0.40 0.44 0.46 0.51 0.55 0.54 0.48 0.40 0.38 0.38 0.35 0.30 0.25 0.21 0.21 0.26 0.32 0.29 0.24 0.18 0.18 0.18 0.13 0.09 0.10 0.11 0.16 0.22 0.26 0.27 0.26
0.39 0.40 0.41 0.40 0.37 0.37 0.45 0.49 0.41 0.31 0.29 0.30 0.33 0.35 0.36 0.41 0.47 0.55 0.55 0.45 0.38 0.38 0.40 0.39 0.36 0.34 0.31 0.32 0.40 0.44 0.39 0.30 0.25 0.20 0.16 0.14 0.11 0.11 0.12 0.15 0.25 0.29 0.30
0.27 0.25 0.26 0.24 0.21 0.21 0.31 0.36 0.29 0.17 0.14 0.16 0.19 0.21 0.22 0.25 0.29 0.33 0.36 0.35 0.33 0.35 0.40 0.45 0.49 0.47 0.43 0.41 0.46 0.51 0.53 0.45 0.31 0.24 0.20 0.25 0.22 0.17 0.15 0.19 0.26 0.25 0.27
0.15 0.13 0.11 0.09 0.08 0.09 0.20 0.31 0.26 0.08 0.07 0.10 0.11 0.13 0.16 0.17 0.19 0.22 0.23 0.24 0.25 0.27 0.34 0.40 0.52 0.57 0.53 0.51 0.55 0.62 0.67 0.65 0.56 0.40 0.26 0.30 0.33 0.27 0.22 0.21 0.21 0.19 0.19
0.09 0.07 0.05 0.03 0.02 0.03 0.12 0.31 0.29 0.06 0.05 0.08 0.09 0.12 0.15 0.15 0.15 0.13 0.17 0.20 0.20 0.23 0.27 0.33 0.40 0.47 0.51 0.57 0.62 0.68 0.73 0.75 0.80 0.75 0.53 0.39 0.37 0.33 0.29 0.27 0.21 0.15 0.12
0.05 0.04 0.02 0.01 0.00 0.01 0.07 0.28 0.37 0.11 0.05 0.06 0.07 0.12 0.22 0.21 0.13 0.08 0.12 0.15 0.16 0.17 0.16 0.16 0.17 0.23 0.32 0.43 0.56 0.69 0.77 0.77 0.80 0.85 0.73 0.56 0.46 0.38 0.37 0.29 0.19 0.13 0.09

GEFSMA_prec_meanprecacc_042.txt.gz
Total_Precipitation_Accumulation
0.06 0.06 0.06 0.05 0.04 0.05 0.06 0.06 0.07 0.08 0.10 0.13 0.17 0.18 0.23 0.24 0.21 0.20 0.17 0.13 0.11 0.15 0.25 0.33 0.43 0.57 0.69 0.71 0.67 0.54 0.41 0.24 0.12 0.07 0.04 0.03 0.08 0.16 0.21 0.23 0.37 0.47 0.42
0.03 0.03 0.03 0.03 0.02 0.02 0.03 0.03 0.04 0.05 0.06 0.08 0.09 0.12 0.16 0.16 0.15 0.18 0.19 0.19 0.16 0.15 0.23 0.28 0.31 0.38 0.55 0.68 0.71 0.63 0.52 0.40 0.28 0.22 0.12 0.09 0.09 0.13 0.20 0.24 0.21 0.23 0.25
0.01 0.01 0.01 0.01 0.01 0.02 0.03 0.03 0.03 0.03 0.04 0.06 0.08 0.10 0.11 0.12 0.13 0.16 0.20 0.22 0.22 0.20 0.22 0.30 0.33 0.34 0.42 0.55 0.69 0.79 0.61 0.51 0.46 0.39 0.24 0.16 0.13 0.12 0.14 0.20 0.24 0.23 0.21
0.01 0.02 0.02 0.02 0.01 0.02 0.05 0.06 0.06 0.06 0.06 0.07 0.10 0.13 0.13 0.14 0.13 0.16 0.22 0.22 0.24 0.23 0.21 0.26 0.35 0.37 0.41 0.45 0.54 0.76 0.76 0.64 0.58 0.50 0.35 0.22 0.15 0.16 0.15 0.17 0.21 0.23 0.25
0.02 0.02 0.03 0.04 0.05 0.06 0.09 0.11 0.10 0.12 0.11 0.10 0.12 0.16 0.18 0.21 0.22 0.22 0.27 0.28 0.27 0.25 0.24 0.25 0.29 0.31 0.38 0.46 0.54 0.67 0.82 0.82 0.70 0.63 0.50 0.36 0.23 0.17 0.16 0.17 0.21 0.24 0.25
0.01 0.01 0.01 0.03 0.06 0.10 0.13 0.15 0.13 0.13 0.15 0.17 0.22 0.24 0.28 0.29 0.27 0.22 0.26 0.32 0.32 0.29 0.31 0.29 0.27 0.25 0.25 0.33 0.47 0.60 0.73 0.81 0.78 0.70 0.65 0.54 0.39 0.27 0.17 0.14 0.16 0.21 0.25
0.00 0.00 0.01 0.01 0.01 0.03 0.05 0.08 0.11 0.11 0.10 0.12 0.17 0.19 0.20 0.23 0.22 0.19 0.21 0.30 0.38 0.41 0.41 0.41 0.37 0.31 0.27 0.26 0.26 0.37 0.51 0.66 0.75 0.72 0.67 0.60 0.48 0.37 0.26 0.17 0.12 0.13 0.17
0.00 0.00 0.00 0.00 0.00 0.01 0.01 0.01 0.03 0.06 0.05 0.06 0.11 0.14 0.13 0.14 0.13 0.13 0.16 0.23 0.31 0.40 0.45 0.46 0.47 0.45 0.38 0.30 0.18 0.18 0.27 0.43 0.60 0.71 0.69 0.61 0.56 0.46 0.34 0.24 0.18 0.13 0.11
0.00 0.00 0.00 0.00 0.00 0.00 0.01 0.01 0.02 0.04 0.04 0.03 0.06 0.12 0.12 0.10 0.10 0.07 0.09 0.13 0.17 0.22 0.28 0.34 0.40 0.45 0.44 0.39 0.29 0.19 0.16 0.26 0.41 0.55 0.66 0.65 0.63 0.61 0.50 0.36 0.26 0.20 0.14
0.00 0.00 0.00 0.00 0.01 0.01 0.01 0.01 0.02 0.03 0.05 0.05 0.05 0.07 0.09 0.08 0.09 0.05 0.03 0.04 0.05 0.07 0.11 0.16 0.21 0.27 0.33 0.34 0.32 0.27 0.23 0.22 0.36 0.44 0.52 0.58 0.59 0.65 0.69 0.57 0.40 0.27 0.21
0.00 0.00 0.00 0.01 0.01 0.01 0.02 0.02 0.02 0.03 0.05 0.07 0.07 0.08 0.07 0.06 0.07 0.08 0.04 0.01 0.02 0.03 0.04 0.07 0.11 0.14 0.19 0.23 0.25 0.24 0.25 0.25 0.36 0.45 0.49 0.56 0.56 0.60 0.66 0.67 0.54 0.41 0.31
0.01 0.01 0.01 0.01 0.02 0.02 0.03 0.03 0.04 0.05 0.06 0.07 0.09 0.09 0.10 0.11 0.09 0.10 0.08 0.03 0.02 0.02 0.03 0.03 0.06 0.10 0.14 0.18 0.21 0.25 0.26 0.26 0.32 0.44 0.45 0.52 0.60 0.65 0.67 0.63 0.60 0.52 0.42
0.01 0.01 0.02 0.03 0.03 0.04 0.05 0.06 0.08 0.09 0.09 0.11 0.11 0.11 0.11 0.11 0.10 0.12 0.12 0.07 0.03 0.02 0.02 0.03 0.04 0.07 0.11 0.15 0.17 0.20 0.22 0.24 0.28 0.38 0.41 0.38 0.41 0.56 0.73 0.75 0.65 0.60 0.52
0.01 0.02 0.03 0.04 0.05 0.06 0.07 0.09 0.10 0.12 0.14 0.15 0.15 0.15 0.14 0.12 0.12 0.12 0.13 0.13 0.09 0.04 0.02 0.02 0.03 0.06 0.09 0.12 0.16 0.17 0.16 0.18 0.20 0.25 0.33 0.35 0.34 0.35 0.47 0.64 0.72 0.72 0.71
0.01 0.02 0.04 0.07 0.09 0.10 0.11 0.12 0.14 0.15 0.16 0.17 0.18 0.19 0.19 0.18 0.16 0.15 0.14 0.16 0.16 0.10 0.04 0.02 0.03 0.06 0.08 0.11 0.15 0.15 0.14 0.15 0.14 0.16 0.22 0.30 0.33 0.34 0.36 0.40 0.48 0.64 0.78
0.03 0.04 0.06 0.08 0.11 0.14 0.16 0.18 0.18 0.17 0.18 0.18 0.19 0.21 0.22 0.22 0.21 0.20 0.18 0.16 0.16 0.15 0.08 0.03 0.04 0.07 0.11 0.12 0.16 0.16 0.14 0.15 0.14 0.15 0.17 0.20 0.27 0.34 0.39 0.41 0.40 0.43 0.56
0.05 0.06 0.07 0.08 0.11 0.14 0.18 0.20 0.21 0.23 0.24 0.23 0.23 0.24 0.24 0.24 0.27 0.26 0.24 0.22 0.19 0.17 0.13 0.05 0.03 0.06 0.13 0.18 0.16 0.15 0.15 0.13 0.12 0.14 0.14 0.14 0.18 0.24 0.32 0.38 0.40 0.41 0.48
0.09 0.10 0.12 0.13 0.13 0.14 0.17 0.21 0.24 0.25 0.29 0.32 0.32 0.31 0.31 0.31 0.31 0.31 0.32 0.31 0.27 0.22 0.19 0.12 0.05 0.06 0.10 0.17 0.20 0.18 0.15 0.12 0.09 0.12 0.12 0.14 0.15 0.18 0.24 0.31 0.36 0.38 0.43
0.18 0.19 0.20 0.22 0.22 0.20 0.21 0.24 0.27 0.31 0.33 0.35 0.37 0.40 0.40 0.39 0.38 0.37 0.38 0.39 0.36 0.28 0.23 0.18 0.12 0.08 0.11 0.16 0.21 0.20 0.18 0.15 0.12 0.13 0.13 0.15 0.18 0.20 0.21 0.24 0.29 0.33 0.35
0.28 0.31 0.34 0.36 0.34 0.33 0.34 0.40 0.40 0.39 0.37 0.39 0.41 0.44 0.46 0.48 0.48 0.47 0.46 0.45 0.42 0.37 0.30 0.24 0.19 0.16 0.15 0.19 0.25 0.23 0.20 0.18 0.17 0.15 0.13 0.12 0.16 0.20 0.21 0.21 0.21 0.24 0.32
0.37 0.40 0.41 0.42 0.41 0.42 0.50 0.60 0.59 0.49 0.42 0.42 0.42 0.45 0.48 0.54 0.60 0.63 0.59 0.51 0.43 0.42 0.39 0.34 0.28 0.23 0.21 0.26 0.33 0.31 0.27 0.21 0.21 0.19 0.15 0.10 0.10 0.11 0.16 0.23 0.28 0.29 0.30
0.39 0.40 0.41 0.40 0.38 0.40 0.55 0.67 0.62 0.46 0.35 0.34 0.35 0.36 0.38 0.44 0.51 0.58 0.62 0.53 0.46 0.47 0.47 0.44 0.40 0.37 0.33 0.33 0.41 0.45 0.42 0.34 0.28 0.22 0.18 0.16 0.12 0.12 0.13 0.16 0.27 0.31 0.34
0.27 0.25 0.26 0.25 0.22 0.26 0.46 0.59 0.49 0.27 0.18 0.20 0.22 0.23 0.25 0.29 0.33 0.35 0.40 0.39 0.40 0.43 0.48 0.53 0.56 0.54 0.47 0.43 0.47 0.53 0.56 0.49 0.34 0.27 0.23 0.28 0.25 0.20 0.17 0.22 0.30 0.30 0.32
0.15 0.13 0.11 0.09 0.08 0.12 0.35 0.53 0.40 0.12 0.11 0.15 0.18 0.21 0.22 0.24 0.25 0.26 0.26 0.28 0.30 0.33 0.41 0.48 0.60 0.64 0.59 0.55 0.57 0.65 0.71 0.69 0.61 0.46 0.33 0.36 0.41 0.37 0.31 0.30 0.32 0.29 0.28
0.09 0.07 0.05 0.03 0.03 0.04 0.24 0.51 0.39 0.09 0.09 0.13 0.17 0.23 0.26 0.23 0.21 0.15 0.19 0.24 0.24 0.27 0.31 0.37 0.44 0.52 0.55 0.60 0.66 0.72 0.78 0.82 0.88 0.86 0.64 0.48 0.49 0.48 0.48 0.47 0.44 0.36 0.30
0.05 0.04 0.02 0.01 0.01 0.02 0.13 0.43 0.47 0.12 0.07 0.08 0.11 0.18 0.31 0.28 0.17 0.10 0.13 0.18 0.19 0.21 0.19 0.18 0.20 0.26 0.35 0.46 0.61 0.76 0.86 0.88 0.93 1.00 0.90 0.69 0.59 0.52 0.58 0.56 0.44 0.36 0.31

GEFSMA_prec_meanprecacc_048.txt.gz
Total_Precipitation_Accumulation
0.06 0.06 0.06 0.05 0.04 0.05 0.06 0.06 0.07 0.08 0.10 0.13 0.17 0.18 0.23 0.24 0.21 0.20 0.17 0.13 0.11 0.15 0.25 0.35 0.48 0.67 0.85 0.91 0.90 0.80 0.69 0.53 0.35 0.25 0.20 0.17 0.16 0.20 0.24 0.25 0.40 0.50 0.45
0.03 0.03 0.03 0.03 0.02 0.02 0.03 0.03 0.04 0.05 0.06 0.08 0.09 0.12 0.16 0.16 0.15 0.18 0.19 0.19 0.16 0.15 0.23 0.28 0.34 0.47 0.71 0.90 0.95 0.89 0.79 0.70 0.57 0.46 0.32 0.25 0.21 0.21 0.25 0.27 0.23 0.26 0.27
0.01 0.01 0.01 0.01 0.01 0.02 0.03 0.03 0.03 0.03 0.04 0.06 0.08 0.10 0.11 0.12 0.13 0.16 0.20 0.22 0.22 0.20 0.22 0.31 0.34 0.39 0.55 0.76 0.95 1.08 0.91 0.81 0.78 0.70 0.49 0.34 0.26 0.23 0.20 0.25 0.27 0.26 0.24
0.01 0.02 0.02 0.02 0.01 0.02 0.05 0.06 0.06 0.06 0.06 0.07 0.10 0.13 0.13 0.14 0.13 0.16 0.22 0.22 0.24 0.23 0.22 0.27 0.36 0.40 0.50 0.61 0.78 1.06 1.11 0.99 0.94 0.87 0.70 0.49 0.33 0.29 0.25 0.24 0.26 0.27 0.30
0.02 0.02 0.03 0.04 0.05 0.06 0.09 0.11 0.10 0.12 0.11 0.10 0.12 0.16 0.18 0.21 0.22 0.22 0.27 0.28 0.27 0.25 0.25 0.26 0.31 0.34 0.42 0.55 0.71 0.92 1.15 1.21 1.10 1.05 0.91 0.71 0.50 0.33 0.27 0.26 0.28 0.30 0.32
0.01 0.01 0.01 0.03 0.06 0.10 0.13 0.15 0.13 0.13 0.15 0.17 0.22 0.24 0.28 0.29 0.27 0.22 0.26 0.32 0.32 0.29 0.31 0.30 0.30 0.28 0.30 0.38 0.55 0.76 0.98 1.16 1.20 1.16 1.13 0.99 0.76 0.53 0.33 0.25 0.24 0.28 0.31
0.00 0.00 0.01 0.01 0.01 0.03 0.05 0.08 0.11 0.11 0.10 0.12 0.17 0.19 0.20 0.23 0.22 0.19 0.21 0.30 0.38 0.42 0.42 0.43 0.41 0.36 0.33 0.33 0.33 0.45 0.65 0.92 1.12 1.18 1.17 1.12 0.97 0.76 0.53 0.32 0.22 0.21 0.24
0.00 0.00 0.00 0.00 0.00 0.01 0.01 0.01 0.03 0.06 0.05 0.06 0.12 0.16 0.13 0.14 0.13 0.13 0.16 0.23 0.31 0.40 0.46 0.48 0.49 0.49 0.44 0.39 0.28 0.26 0.34 0.56 0.85 1.10 1.20 1.15 1.15 1.02 0.78 0.53 0.34 0.24 0.19
0.00 0.00 0.00 0.00 0.00 0.00 0.01 0.01 0.02 0.04 0.04 0.03 0.07 0.16 0.19 0.14 0.11 0.07 0.09 0.13 0.17 0.22 0.29 0.35 0.42 0.48 0.50 0.47 0.41 0.30 0.24 0.33 0.53 0.79 1.08 1.21 1.25 1.29 1.13 0.82 0.54 0.36 0.24
0.00 0.00 0.00 0.00 0.01 0.01 0.01 0.01 0.02 0.03 0.05 0.05 0.05 0.08 0.13 0.14 0.15 0.08 0.03 0.04 0.05 0.07 0.11 0.16 0.23 0.30 0.38 0.42 0.44 0.43 0.35 0.29 0.42 0.55 0.76 1.01 1.21 1.37 1.44 1.23 0.85 0.53 0.36
0.00 0.00 0.00 0.01 0.01 0.01 0.02 0.02 0.02 0.03 0.05 0.07 0.09 0.09 0.09 0.08 0.10 0.13 0.06 0.01 0.02 0.03 0.04 0.07 0.11 0.16 0.23 0.30 0.36 0.41 0.42 0.36 0.43 0.52 0.60 0.80 1.02 1.30 1.49 1.45 1.18 0.86 0.55
0.01 0.01 0.01 0.01 0.02 0.02 0.03 0.03 0.04 0.05 0.06 0.07 0.09 0.11 0.13 0.14 0.12 0.14 0.12 0.04 0.02 0.02 0.03 0.03 0.06 0.11 0.17 0.24 0.31 0.41 0.42 0.40 0.41 0.50 0.51 0.63 0.84 1.13 1.42 1.50 1.34 1.11 0.85
0.01 0.01 0.02 0.03 0.03 0.04 0.05 0.06 0.08 0.09 0.09 0.11 0.11 0.12 0.13 0.13 0.14 0.16 0.17 0.09 0.04 0.02 0.02 0.03 0.04 0.08 0.14 0.20 0.26 0.32 0.35 0.37 0.39 0.46 0.47 0.43 0.50 0.80 1.23 1.56 1.57 1.34 1.09
0.01 0.02 0.03 0.04 0.05 0.06 0.07 0.09 0.10 0.12 0.14 0.15 0.15 0.15 0.16 0.14 0.15 0.17 0.19 0.17 0.11 0.04 0.02 0.02 0.03 0.06 0.11 0.16 0.23 0.27 0.26 0.30 0.30 0.34 0.39 0.40 0.37 0.42 0.68 1.14 1.54 1.61 1.45
0.01 0.02 0.04 0.07 0.09 0.10 0.11 0.12 0.14 0.15 0.16 0.17 0.18 0.19 0.21 0.20 0.18 0.17 0.17 0.20 0.23 0.15 0.05 0.02 0.04 0.06 0.10 0.13 0.19 0.23 0.23 0.26 0.25 0.24 0.29 0.34 0.36 0.37 0.42 0.57 0.96 1.37 1.56
0.03 0.04 0.06 0.08 0.11 0.14 0.16 0.18 0.18 0.17 0.18 0.18 0.20 0.22 0.23 0.23 0.22 0.21 0.19 0.18 0.20 0.21 0.13 0.04 0.05 0.08 0.12 0.14 0.19 0.21 0.21 0.25 0.25 0.25 0.24 0.25 0.30 0.37 0.42 0.46 0.57 0.91 1.23
0.05 0.06 0.07 0.08 0.11 0.15 0.18 0.21 0.22 0.23 0.25 0.24 0.24 0.25 0.25 0.25 0.28 0.28 0.26 0.24 0.21 0.22 0.18 0.07 0.04 0.07 0.14 0.20 0.20 0.20 0.21 0.21 0.23 0.26 0.24 0.21 0.22 0.27 0.35 0.41 0.46 0.62 0.95
0.09 0.10 0.12 0.13 0.14 0.15 0.19 0.23 0.26 0.27 0.31 0.34 0.34 0.33 0.32 0.32 0.32 0.32 0.34 0.34 0.29 0.25 0.23 0.15 0.06 0.06 0.12 0.20 0.24 0.23 0.22 0.19 0.19 0.23 0.23 0.22 0.20 0.22 0.27 0.33 0.39 0.45 0.63
0.18 0.19 0.20 0.23 0.23 0.23 0.26 0.28 0.31 0.34 0.36 0.38 0.40 0.42 0.42 0.41 0.40 0.39 0.41 0.42 0.39 0.31 0.26 0.22 0.13 0.09 0.12 0.18 0.25 0.26 0.26 0.24 0.23 0.24 0.23 0.24 0.26 0.25 0.24 0.27 0.31 0.38 0.42
0.28 0.31 0.34 0.36 0.37 0.39 0.45 0.50 0.47 0.43 0.41 0.42 0.45 0.48 0.50 0.51 0.51 0.51 0.52 0.50 0.46 0.40 0.33 0.27 0.21 0.17 0.17 0.21 0.28 0.29 0.28 0.28 0.30 0.29 0.26 0.22 0.24 0.26 0.25 0.23 0.22 0.26 0.36
0.37 0.40 0.42 0.42 0.43 0.53 0.70 0.82 0.71 0.57 0.48 0.46 0.47 0.50 0.52 0.58 0.65 0.70 0.69 0.60 0.49 0.46 0.42 0.37 0.31 0.25 0.23 0.29 0.36 0.36 0.35 0.31 0.33 0.36 0.32 0.23 0.18 0.17 0.19 0.25 0.29 0.31 0.33
0.39 0.40 0.41 0.40 0.39 0.51 0.75 0.87 0.70 0.52 0.40 0.40 0.41 0.41 0.43 0.48 0.55 0.61 0.67 0.61 0.52 0.54 0.54 0.49 0.44 0.41 0.36 0.36 0.44 0.49 0.48 0.43 0.39 0.36 0.34 0.30 0.22 0.18 0.16 0.17 0.28 0.32 0.35
0.27 0.25 0.26 0.25 0.23 0.32 0.62 0.73 0.55 0.31 0.23 0.27 0.29 0.29 0.30 0.34 0.37 0.36 0.42 0.41 0.42 0.47 0.54 0.59 0.62 0.59 0.52 0.47 0.50 0.55 0.60 0.56 0.44 0.41 0.39 0.43 0.38 0.28 0.21 0.24 0.32 0.31 0.34
0.15 0.13 0.11 0.09 0.09 0.15 0.47 0.64 0.43 0.14 0.14 0.20 0.24 0.27 0.27 0.30 0.32 0.28 0.27 0.30 0.32 0.36 0.46 0.53 0.67 0.70 0.64 0.59 0.60 0.67 0.74 0.74 0.68 0.57 0.48 0.51 0.54 0.45 0.36 0.32 0.33 0.30 0.29
0.09 0.07 0.05 0.03 0.03 0.05 0.31 0.61 0.41 0.10 0.10 0.15 0.21 0.28 0.29 0.25 0.25 0.17 0.19 0.25 0.25 0.28 0.33 0.41 0.48 0.55 0.58 0.63 0.68 0.73 0.81 0.86 0.94 0.95 0.78 0.64 0.63 0.57 0.53 0.50 0.45 0.38 0.31
0.05 0.04 0.02 0.01 0.01 0.02 0.16 0.50 0.50 0.13 0.08 0.10 0.13 0.23 0.36 0.32 0.20 0.12 0.14 0.19 0.21 0.23 0.20 0.20 0.21 0.27 0.36 0.47 0.62 0.79 0.90 0.92 0.98 1.08 1.02 0.82 0.75 0.62 0.64 0.60 0.46 0.38 0.33

GEFSMA_prec_meanprecacc_054.txt.gz
Total_Precipitation_Accumulation
0.06 0.06 0.06 0.05 0.04 0.05 0.06 0.06 0.07 0.08 0.10 0.13 0.17 0.18 0.23 0.24 0.21 0.20 0.17 0.13 0.11 0.15 0.25 0.35 0.48 0.68 0.86 0.95 0.96 0.89 0.82 0.74 0.61 0.50 0.45 0.44 0.44 0.42 0.40 0.35 0.44 0.52 0.46
0.03 0.03 0.03 0.03 0.02 0.02 0.03 0.03 0.04 0.05 0.06 0.08 0.09 0.12 0.16 0.16 0.15 0.18 0.19 0.19 0.16 0.15 0.23 0.28 0.34 0.47 0.73 0.93 1.01 0.97 0.90 0.87 0.81 0.72 0.58 0.52 0.50 0.48 0.45 0.42 0.30 0.29 0.29
0.01 0.01 0.01 0.01 0.01 0.02 0.03 0.03 0.03 0.03 0.04 0.06 0.08 0.10 0.11 0.12 0.13 0.16 0.20 0.22 0.22 0.20 0.22 0.31 0.34 0.39 0.55 0.78 0.99 1.15 1.01 0.95 0.98 0.95 0.77 0.62 0.54 0.52 0.46 0.45 0.41 0.34 0.27
0.01 0.02 0.02 0.02 0.01 0.02 0.05 0.06 0.06 0.06 0.06 0.07 0.10 0.13 0.13 0.14 0.13 0.16 0.22 0.22 0.24 0.23 0.22 0.27 0.36 0.41 0.50 0.62 0.80 1.12 1.22 1.16 1.13 1.10 0.99 0.82 0.62 0.58 0.54 0.50 0.46 0.42 0.38
0.02 0.02 0.03 0.04 0.05 0.06 0.09 0.11 0.10 0.12 0.11 0.10 0.12 0.16 0.18 0.21 0.22 0.22 0.27 0.28 0.27 0.25 0.25 0.26 0.31 0.34 0.42 0.55 0.72 0.95 1.22 1.34 1.30 1.28 1.20 1.06 0.85 0.64 0.58 0.56 0.53 0.51 0.47
0.01 0.01 0.01 0.03 0.06 0.10 0.13 0.15 0.13 0.13 0.15 0.17 0.22 0.24 0.28 0.29 0.27 0.22 0.26 0.32 0.32 0.29 0.31 0.30 0.30 0.28 0.30 0.38 0.55 0.78 1.03 1.26 1.36 1.37 1.38 1.32 1.14 0.89 0.65 0.55 0.52 0.52 0.52
0.00 0.00 0.01 0.01 0.01 0.03 0.06 0.08 0.11 0.11 0.10 0.12 0.17 0.19 0.20 0.23 0.22 0.19 0.21 0.30 0.38 0.42 0.42 0.43 0.41 0.36 0.34 0.33 0.33 0.45 0.68 0.98 1.25 1.36 1.42 1.42 1.33 1.14 0.89 0.65 0.52 0.48 0.48
0.00 0.00 0.00 0.00 0.00 0.01 0.01 0.01 0.03 0.06 0.05 0.06 0.12 0.16 0.13 0.14 0.13 0.13 0.16 0.23 0.31 0.40 0.46 0.48 0.49 0.50 0.45 0.39 0.29 0.27 0.36 0.59 0.93 1.26 1.43 1.48 1.52 1.41 1.16 0.87 0.65 0.54 0.47
0.00 0.00 0.00 0.00 0.00 0.00 0.01 0.01 0.02 0.04 0.04 0.04 0.07 0.17 0.21 0.15 0.12 0.07 0.09 0.13 0.17 0.22 0.29 0.35 0.42 0.48 0.50 0.48 0.41 0.31 0.26 0.36 0.58 0.90 1.27 1.49 1.63 1.74 1.56 1.18 0.86 0.68 0.55
0.00 0.00 0.00 0.00 0.01 0.01 0.01 0.01 0.02 0.03 0.05 0.06 0.05 0.09 0.14 0.16 0.18 0.09 0.03 0.04 0.05 0.07 0.11 0.16 0.23 0.30 0.38 0.43 0.46 0.46 0.38 0.32 0.46 0.60 0.87 1.23 1.58 1.85 1.98 1.68 1.20 0.85 0.68
0.00 0.00 0.00 0.01 0.01 0.01 0.02 0.02 0.02 0.03 0.05 0.07 0.09 0.10 0.09 0.09 0.12 0.16 0.07 0.01 0.02 0.03 0.04 0.07 0.11 0.16 0.23 0.31 0.38 0.45 0.47 0.40 0.47 0.55 0.66 0.92 1.31 1.80 2.14 2.08 1.67 1.21 0.86
0.01 0.01 0.01 0.01 0.02 0.02 0.03 0.03 0.05 0.05 0.06 0.08 0.10 0.12 0.14 0.16 0.14 0.17 0.14 0.05 0.02 0.02 0.03 0.03 0.06 0.11 0.18 0.25 0.33 0.45 0.47 0.44 0.47 0.54 0.54 0.68 0.98 1.44 2.01 2.27 2.06 1.64 1.21
0.01 0.01 0.02 0.03 0.04 0.04 0.05 0.06 0.08 0.09 0.10 0.12 0.12 0.12 0.13 0.15 0.15 0.19 0.20 0.11 0.05 0.02 0.02 0.03 0.04 0.08 0.15 0.21 0.27 0.36 0.39 0.42 0.45 0.52 0.51 0.46 0.55 0.92 1.55 2.19 2.41 2.12 1.66
0.01 0.02 0.03 0.04 0.05 0.06 0.07 0.09 0.11 0.13 0.14 0.16 0.16 0.16 0.17 0.15 0.17 0.20 0.23 0.22 0.14 0.05 0.02 0.02 0.03 0.07 0.12 0.16 0.23 0.28 0.29 0.35 0.37 0.41 0.45 0.44 0.40 0.47 0.82 1.51 2.22 2.54 2.28
0.01 0.02 0.04 0.07 0.09 0.10 0.11 0.13 0.15 0.16 0.17 0.18 0.20 0.21 0.23 0.21 0.20 0.19 0.20 0.25 0.29 0.19 0.06 0.02 0.04 0.07 0.10 0.14 0.20 0.24 0.24 0.30 0.32 0.32 0.36 0.40 0.40 0.39 0.48 0.73 1.37 2.09 2.51
0.03 0.04 0.06 0.08 0.11 0.14 0.17 0.19 0.20 0.19 0.20 0.21 0.23 0.25 0.26 0.26 0.24 0.23 0.22 0.22 0.25 0.27 0.16 0.05 0.05 0.08 0.12 0.14 0.20 0.22 0.22 0.27 0.30 0.32 0.32 0.31 0.36 0.41 0.45 0.52 0.75 1.34 1.92
0.05 0.06 0.08 0.09 0.11 0.15 0.20 0.22 0.24 0.26 0.28 0.27 0.28 0.31 0.29 0.29 0.32 0.31 0.29 0.27 0.25 0.26 0.22 0.07 0.04 0.07 0.14 0.20 0.20 0.21 0.22 0.23 0.26 0.32 0.33 0.29 0.29 0.33 0.38 0.44 0.53 0.83 1.38
0.09 0.10 0.12 0.13 0.14 0.16 0.21 0.25 0.28 0.30 0.34 0.39 0.39 0.38 0.37 0.36 0.36 0.36 0.38 0.37 0.32 0.28 0.27 0.17 0.06 0.06 0.12 0.20 0.24 0.24 0.23 0.21 0.22 0.27 0.31 0.31 0.29 0.30 0.32 0.37 0.44 0.55 0.88
0.18 0.19 0.20 0.23 0.24 0.25 0.31 0.32 0.33 0.37 0.39 0.42 0.45 0.48 0.48 0.46 0.44 0.42 0.44 0.44 0.41 0.33 0.29 0.24 0.14 0.10 0.13 0.19 0.25 0.27 0.27 0.26 0.25 0.28 0.29 0.33 0.35 0.35 0.33 0.33 0.36 0.43 0.54
0.28 0.31 0.34 0.36 0.37 0.42 0.59 0.62 0.51 0.46 0.44 0.46 0.49 0.53 0.56 0.59 0.58 0.57 0.57 0.54 0.49 0.43 0.35 0.29 0.23 0.18 0.18 0.22 0.29 0.30 0.29 0.29 0.33 0.33 0.32 0.31 0.35 0.37 0.37 0.32 0.28 0.30 0.43
0.37 0.40 0.42 0.42 0.43 0.56 0.90 1.01 0.75 0.58 0.51 0.49 0.50 0.54 0.58 0.64 0.74 0.79 0.80 0.69 0.53 0.49 0.45 0.39 0.33 0.27 0.26 0.31 0.38 0.38 0.37 0.33 0.36 0.42 0.39 0.32 0.29 0.28 0.31 0.36 0.38 0.38 0.39
0.39 0.40 0.41 0.40 0.39 0.52 0.88 1.00 0.74 0.53 0.42 0.42 0.43 0.43 0.46 0.51 0.58 0.64 0.71 0.65 0.55 0.58 0.59 0.52 0.47 0.44 0.39 0.38 0.45 0.50 0.50 0.46 0.42 0.43 0.43 0.41 0.36 0.34 0.32 0.31 0.39 0.40 0.42
0.27 0.25 0.26 0.25 0.23 0.33 0.70 0.83 0.58 0.32 0.23 0.28 0.30 0.31 0.32 0.37 0.41 0.39 0.42 0.42 0.43 0.49 0.58 0.62 0.65 0.62 0.55 0.49 0.52 0.56 0.61 0.59 0.48 0.48 0.49 0.56 0.55 0.48 0.42 0.42 0.45 0.39 0.40
0.15 0.13 0.11 0.09 0.09 0.15 0.52 0.73 0.46 0.15 0.14 0.20 0.25 0.28 0.28 0.32 0.37 0.33 0.28 0.30 0.33 0.36 0.48 0.56 0.70 0.74 0.68 0.62 0.62 0.69 0.75 0.76 0.71 0.64 0.58 0.65 0.71 0.65 0.60 0.54 0.49 0.39 0.36
0.09 0.07 0.05 0.03 0.03 0.05 0.33 0.67 0.46 0.11 0.11 0.16 0.21 0.29 0.31 0.27 0.29 0.21 0.20 0.26 0.26 0.29 0.34 0.43 0.50 0.57 0.59 0.64 0.70 0.75 0.81 0.87 0.97 1.02 0.88 0.76 0.80 0.76 0.76 0.72 0.62 0.49 0.39
0.05 0.04 0.02 0.01 0.01 0.02 0.17 0.54 0.56 0.15 0.09 0.10 0.14 0.23 0.36 0.33 0.22 0.14 0.15 0.20 0.23 0.24 0.21 0.20 0.22 0.27 0.36 0.48 0.63 0.80 0.92 0.94 1.01 1.14 1.12 0.93 0.90 0.80 0.85 0.83 0.63 0.48 0.41

GEFSMA_prec_meanprecacc_060.txt.gz
Total_Precipitation_Accumulation
0.06 0.06 0.06 0.05 0.04 0.05 0.06 0.06 0.07 0.08 0.10 0.13 0.17 0.18 0.23 0.24 0.21 0.20 0.17 0.13 0.11 0.15 0.25 0.35 0.48 0.68 0.86 0.95 0.97 0.89 0.83 0.76 0.65 0.57 0.55 0.58 0.67 0.75 0.75 0.61 0.59 0.64 0.58
0.03 0.03 0.03 0.03 0.02 0.02 0.03 0.03 0.04 0.05 0.06 0.08 0.09 0.12 0.16 0.16 0.15 0.18 0.19 0.19 0.16 0.15 0.23 0.28 0.34 0.47 0.73 0.94 1.02 0.98 0.91 0.88 0.84 0.78 0.67 0.64 0.67 0.72 0.77 0.74 0.52 0.43 0.40
0.01 0.01 0.01 0.01 0.01 0.02 0.03 0.03 0.03 0.03 0.04 0.06 0.08 0.10 0.11 0.12 0.13 0.16 0.20 0.22 0.22 0.20 0.22 0.31 0.35 0.39 0.56 0.79 1.00 1.16 1.03 0.97 1.01 0.99 0.84 0.73 0.68 0.72 0.72 0.77 0.71 0.53 0.40
0.01 0.02 0.02 0.02 0.01 0.02 0.05 0.06 0.06 0.06 0.06 0.07 0.10 0.13 0.13 0.14 0.13 0.16 0.22 0.22 0.24 0.23 0.22 0.27 0.36 0.41 0.51 0.63 0.81 1.13 1.23 1.18 1.16 1.13 1.05 0.93 0.77 0.76 0.77 0.77 0.76 0.69 0.56
0.02 0.02 0.03 0.04 0.05 0.06 0.09 0.11 0.10 0.12 0.11 0.10 0.12 0.16 0.18 0.21 0.22 0.22 0.27 0.28 0.27 0.25 0.25 0.26 0.31 0.34 0.43 0.56 0.72 0.96 1.23 1.36 1.33 1.31 1.24 1.14 0.99 0.82 0.81 0.82 0.80 0.80 0.72
0.01 0.01 0.01 0.03 0.06 0.10 0.13 0.15 0.13 0.13 0.15 0.17 0.22 0.24 0.28 0.29 0.27 0.22 0.26 0.32 0.32 0.29 0.32 0.30 0.30 0.28 0.30 0.38 0.56 0.78 1.04 1.28 1.39 1.41 1.42 1.38 1.25 1.06 0.87 0.81 0.79 0.80 0.81
0.00 0.00 0.01 0.01 0.01 0.03 0.06 0.08 0.11 0.11 0.11 0.12 0.17 0.19 0.20 0.23 0.22 0.19 0.22 0.30 0.38 0.42 0.43 0.44 0.41 0.36 0.34 0.33 0.33 0.46 0.69 1.00 1.28 1.40 1.46 1.47 1.41 1.29 1.09 0.90 0.80 0.77 0.77
0.00 0.00 0.00 0.00 0.00 0.01 0.01 0.01 0.03 0.06 0.06 0.06 0.13 0.16 0.14 0.14 0.13 0.13 0.16 0.23 0.32 0.41 0.46 0.48 0.49 0.50 0.45 0.39 0.29 0.27 0.37 0.61 0.96 1.30 1.47 1.54 1.60 1.53 1.34 1.11 0.93 0.84 0.78
0.00 0.00 0.00 0.00 0.00 0.00 0.01 0.01 0.02 0.04 0.05 0.04 0.07 0.18 0.23 0.17 0.12 0.07 0.09 0.13 0.17 0.22 0.29 0.35 0.42 0.48 0.50 0.48 0.42 0.32 0.27 0.38 0.61 0.94 1.31 1.55 1.71 1.84 1.72 1.40 1.14 0.99 0.88
0.00 0.00 0.00 0.00 0.01 0.01 0.01 0.01 0.02 0.03 0.06 0.07 0.06 0.10 0.16 0.18 0.20 0.10 0.03 0.04 0.05 0.07 0.11 0.16 0.23 0.30 0.38 0.43 0.47 0.47 0.39 0.34 0.49 0.64 0.91 1.29 1.66 1.96 2.13 1.89 1.48 1.16 1.02
0.00 0.00 0.00 0.01 0.01 0.01 0.02 0.02 0.02 0.04 0.06 0.09 0.11 0.12 0.11 0.10 0.13 0.19 0.09 0.02 0.02 0.03 0.04 0.07 0.11 0.16 0.23 0.32 0.39 0.45 0.47 0.41 0.49 0.59 0.70 0.97 1.37 1.89 2.26 2.25 1.93 1.52 1.19
0.01 0.01 0.01 0.01 0.02 0.02 0.03 0.04 0.05 0.06 0.07 0.10 0.12 0.15 0.18 0.19 0.16 0.19 0.16 0.06 0.02 0.02 0.03 0.04 0.06 0.11 0.18 0.26 0.33 0.46 0.47 0.45 0.48 0.57 0.57 0.71 1.02 1.49 2.09 2.39 2.27 1.95 1.54
0.01 0.01 0.02 0.03 0.04 0.04 0.05 0.06 0.09 0.10 0.12 0.14 0.15 0.16 0.17 0.18 0.18 0.22 0.24 0.14 0.06 0.02 0.02 0.03 0.05 0.09 0.15 0.21 0.27 0.36 0.39 0.43 0.46 0.53 0.53 0.48 0.58 0.95 1.59 2.25 2.55 2.38 2.02
0.01 0.02 0.03 0.04 0.05 0.06 0.07 0.09 0.12 0.14 0.17 0.19 0.19 0.20 0.21 0.19 0.21 0.24 0.28 0.28 0.19 0.06 0.02 0.02 0.03 0.07 0.12 0.17 0.24 0.29 0.30 0.35 0.38 0.42 0.47 0.45 0.42 0.49 0.84 1.55 2.30 2.73 2.61
0.01 0.02 0.04 0.07 0.09 0.10 0.11 0.13 0.16 0.18 0.20 0.21 0.23 0.25 0.28 0.26 0.25 0.24 0.26 0.32 0.38 0.25 0.07 0.02 0.04 0.07 0.10 0.14 0.20 0.24 0.24 0.30 0.32 0.33 0.37 0.42 0.42 0.42 0.50 0.76 1.41 2.19 2.77
0.03 0.04 0.06 0.08 0.11 0.14 0.17 0.20 0.21 0.21 0.22 0.23 0.26 0.29 0.31 0.31 0.30 0.29 0.29 0.29 0.34 0.37 0.21 0.06 0.06 0.08 0.12 0.14 0.20 0.22 0.22 0.28 0.30 0.33 0.33 0.33 0.38 0.43 0.47 0.55 0.78 1.38 2.07
0.05 0.06 0.08 0.09 0.11 0.15 0.20 0.23 0.24 0.27 0.30 0.30 0.31 0.35 0.34 0.34 0.37 0.36 0.35 0.33 0.31 0.33 0.29 0.09 0.05 0.08 0.15 0.20 0.20 0.21 0.22 0.23 0.26 0.32 0.34 0.30 0.30 0.35 0.41 0.47 0.56 0.85 1.44
0.09 0.10 0.12 0.13 0.14 0.16 0.21 0.26 0.29 0.30 0.35 0.40 0.42 0.41 0.41 0.40 0.41 0.41 0.44 0.42 0.36 0.32 0.32 0.19 0.07 0.07 0.12 0.20 0.24 0.24 0.23 0.21 0.22 0.28 0.31 0.32 0.31 0.32 0.35 0.40 0.47 0.57 0.91
0.18 0.19 0.20 0.23 0.24 0.25 0.32 0.33 0.35 0.38 0.40 0.43 0.47 0.50 0.51 0.50 0.49 0.48 0.51 0.50 0.45 0.37 0.34 0.28 0.16 0.11 0.14 0.21 0.26 0.27 0.27 0.26 0.26 0.29 0.30 0.34 0.37 0.37 0.36 0.36 0.40 0.46 0.56
0.28 0.31 0.34 0.36 0.37 0.42 0.60 0.66 0.54 0.48 0.45 0.46 0.50 0.54 0.58 0.61 0.63 0.63 0.64 0.61 0.54 0.47 0.38 0.32 0.26 0.21 0.21 0.24 0.30 0.31 0.29 0.30 0.34 0.34 0.33 0.32 0.36 0.40 0.40 0.36 0.31 0.33 0.45
0.37 0.40 0.42 0.42 0.43 0.56 0.92 1.08 0.81 0.62 0.53 0.50 0.50 0.54 0.58 0.65 0.76 0.85 0.87 0.75 0.57 0.52 0.47 0.41 0.35 0.29 0.28 0.33 0.40 0.39 0.38 0.33 0.37 0.43 0.40 0.33 0.31 0.30 0.34 0.40 0.43 0.41 0.42
0.39 0.40 0.41 0.40 0.39 0.52 0.89 1.05 0.80 0.57 0.44 0.43 0.44 0.44 0.46 0.52 0.59 0.66 0.74 0.68 0.58 0.61 0.62 0.55 0.48 0.45 0.41 0.40 0.47 0.51 0.52 0.47 0.43 0.45 0.44 0.43 0.39 0.38 0.36 0.35 0.44 0.45 0.46
0.27 0.25 0.26 0.25 0.23 0.33 0.71 0.87 0.64 0.35 0.25 0.29 0.31 0.32 0.33 0.37 0.42 0.41 0.45 0.43 0.44 0.50 0.60 0.65 0.67 0.64 0.57 0.51 0.54 0.58 0.63 0.61 0.49 0.50 0.51 0.59 0.59 0.52 0.48 0.48 0.52 0.46 0.46
0.15 0.13 0.11 0.09 0.09 0.15 0.52 0.75 0.52 0.18 0.15 0.21 0.26 0.30 0.29 0.32 0.38 0.37 0.30 0.31 0.33 0.37 0.49 0.58 0.73 0.76 0.70 0.65 0.66 0.72 0.77 0.77 0.72 0.67 0.62 0.69 0.78 0.72 0.67 0.61 0.58 0.49 0.44
0.09 0.07 0.05 0.03 0.03 0.05 0.33 0.69 0.51 0.15 0.13 0.17 0.23 0.30 0.31 0.28 0.31 0.25 0.21 0.26 0.26 0.30 0.35 0.44 0.52 0.59 0.62 0.68 0.75 0.79 0.84 0.89 1.00 1.07 0.93 0.83 0.89 0.85 0.84 0.81 0.73 0.61 0.50
0.05 0.04 0.02 0.01 0.01 0.02 0.17 0.56 0.62 0.21 0.12 0.12 0.15 0.24 0.37 0.35 0.25 0.17 0.16 0.21 0.24 0.25 0.22 0.21 0.23 0.28 0.37 0.49 0.66 0.83 0.95 0.97 1.05 1.20 1.18 1.01 1.03 0.93 0.97 0.95 0.77 0.63 0.54

GEFSMA_prec_meanprecacc_066.txt.gz
Total_Precipitation_Accumulation
0.06 0.06 0.06 0.05 0.04 0.05 0.06 0.06 0.07 0.08 0.10 0.13 0.17 0.18 0.23 0.24 0.21 0.20 0.17 0.13 0.11 0.15 0.25 0.35 0.49 0.68 0.87 0.96 0.98 0.90 0.84 0.76 0.66 0.57 0.56 0.59 0.70 0.80 0.87 0.81 0.83 0.84 0.76
0.03 0.03 0.03 0.03 0.02 0.02 0.03 0.03 0.04 0.05 0.06 0.08 0.09 0.12 0.16 0.16 0.15 0.18 0.19 0.19 0.16 0.15 0.23 0.28 0.34 0.48 0.74 0.95 1.03 0.99 0.93 0.90 0.85 0.79 0.68 0.65 0.68 0.76 0.85 0.91 0.75 0.67 0.59
0.01 0.01 0.01 0.01 0.01 0.02 0.03 0.03 0.03 0.03 0.04 0.06 0.08 0.10 0.11 0.12 0.13 0.16 0.20 0.22 0.22 0.20 0.22 0.31 0.35 0.40 0.57 0.81 1.02 1.19 1.05 1.00 1.03 1.01 0.86 0.74 0.69 0.74 0.77 0.89 0.90 0.78 0.63
0.01 0.02 0.02 0.02 0.01 0.02 0.05 0.06 0.06 0.06 0.06 0.07 0.10 0.13 0.13 0.14 0.13 0.16 0.22 0.22 0.24 0.23 0.22 0.27 0.37 0.42 0.52 0.65 0.85 1.17 1.27 1.21 1.18 1.16 1.07 0.94 0.78 0.78 0.80 0.84 0.92 0.92 0.81
0.02 0.02 0.03 0.04 0.05 0.06 0.09 0.11 0.10 0.12 0.11 0.10 0.12 0.16 0.18 0.21 0.22 0.22 0.27 0.28 0.27 0.25 0.25 0.26 0.31 0.35 0.44 0.57 0.75 0.99 1.27 1.39 1.36 1.33 1.26 1.17 1.01 0.84 0.83 0.86 0.91 0.99 0.97
0.01 0.01 0.01 0.03 0.06 0.10 0.13 0.15 0.13 0.13 0.15 0.17 0.22 0.24 0.28 0.29 0.27 0.22 0.26 0.32 0.32 0.29 0.32 0.31 0.30 0.29 0.30 0.39 0.57 0.80 1.07 1.32 1.43 1.44 1.45 1.41 1.27 1.09 0.89 0.84 0.85 0.95 1.06
0.00 0.00 0.01 0.01 0.01 0.03 0.06 0.08 0.11 0.11 0.11 0.12 0.17 0.19 0.20 0.23 0.22 0.19 0.22 0.30 0.38 0.42 0.43 0.44 0.42 0.37 0.34 0.34 0.34 0.47 0.70 1.03 1.32 1.44 1.51 1.52 1.45 1.32 1.12 0.93 0.85 0.88 0.97
0.00 0.00 0.00 0.00 0.00 0.01 0.01 0.01 0.03 0.06 0.06 0.06 0.13 0.17 0.15 0.14 0.13 0.13 0.16 0.23 0.32 0.41 0.46 0.48 0.50 0.51 0.45 0.40 0.29 0.28 0.37 0.62 0.98 1.34 1.51 1.58 1.64 1.58 1.38 1.15 0.98 0.92 0.93
0.00 0.00 0.00 0.00 0.00 0.00 0.01 0.01 0.02 0.04 0.05 0.04 0.07 0.19 0.27 0.20 0.13 0.07 0.09 0.13 0.18 0.22 0.29 0.36 0.43 0.49 0.51 0.49 0.42 0.32 0.27 0.38 0.62 0.96 1.35 1.60 1.77 1.90 1.77 1.44 1.20 1.07 1.01
0.00 0.00 0.00 0.00 0.01 0.01 0.01 0.01 0.02 0.03 0.06 0.07 0.06 0.10 0.18 0.21 0.26 0.14 0.03 0.04 0.05 0.07 0.11 0.17 0.23 0.31 0.40 0.44 0.47 0.47 0.40 0.34 0.50 0.66 0.95 1.34 1.72 2.04 2.21 1.95 1.53 1.23 1.13
0.00 0.00 0.00 0.01 0.01 0.01 0.02 0.02 0.03 0.04 0.06 0.09 0.12 0.13 0.13 0.12 0.16 0.24 0.11 0.02 0.02 0.03 0.04 0.08 0.12 0.17 0.24 0.32 0.39 0.46 0.48 0.42 0.50 0.61 0.73 1.01 1.43 1.97 2.36 2.34 2.00 1.58 1.27
0.01 0.01 0.01 0.01 0.02 0.02 0.03 0.04 0.05 0.06 0.07 0.10 0.13 0.16 0.20 0.23 0.20 0.24 0.21 0.07 0.03 0.02 0.03 0.04 0.07 0.12 0.19 0.26 0.34 0.47 0.49 0.48 0.51 0.59 0.60 0.74 1.05 1.54 2.15 2.46 2.34 2.01 1.61
0.01 0.01 0.02 0.03 0.04 0.04 0.05 0.06 0.09 0.10 0.12 0.14 0.15 0.17 0.19 0.20 0.22 0.28 0.31 0.17 0.07 0.02 0.02 0.03 0.05 0.10 0.17 0.23 0.28 0.37 0.41 0.45 0.49 0.56 0.55 0.50 0.60 0.97 1.62 2.30 2.61 2.44 2.09
0.01 0.02 0.03 0.04 0.05 0.06 0.07 0.09 0.12 0.14 0.17 0.19 0.19 0.21 0.22 0.20 0.24 0.29 0.34 0.35 0.24 0.08 0.03 0.02 0.03 0.08 0.13 0.18 0.24 0.30 0.31 0.36 0.39 0.43 0.49 0.47 0.43 0.51 0.86 1.57 2.33 2.77 2.66
0.01 0.02 0.04 0.07 0.09 0.10 0.11 0.13 0.16 0.18 0.20 0.21 0.24 0.25 0.29 0.27 0.26 0.26 0.30 0.38 0.48 0.32 0.09 0.03 0.04 0.07 0.11 0.14 0.21 0.25 0.25 0.31 0.33 0.34 0.39 0.43 0.43 0.43 0.52 0.77 1.43 2.22 2.80
0.03 0.04 0.06 0.08 0.11 0.14 0.17 0.20 0.21 0.21 0.22 0.23 0.26 0.30 0.32 0.32 0.31 0.31 0.31 0.32 0.40 0.46 0.27 0.06 0.06 0.08 0.13 0.15 0.20 0.23 0.23 0.28 0.31 0.34 0.34 0.35 0.39 0.44 0.48 0.56 0.79 1.40 2.09
0.05 0.06 0.08 0.09 0.11 0.15 0.20 0.23 0.24 0.27 0.30 0.30 0.31 0.35 0.34 0.35 0.39 0.39 0.38 0.36 0.35 0.39 0.35 0.10 0.05 0.08 0.15 0.21 0.21 0.21 0.22 0.23 0.26 0.33 0.35 0.32 0.32 0.36 0.42 0.48 0.57 0.87 1.46
0.09 0.10 0.12 0.13 0.14 0.16 0.21 0.26 0.29 0.30 0.35 0.40 0.42 0.42 0.41 0.41 0.42 0.43 0.46 0.45 0.40 0.36 0.37 0.22 0.08 0.07 0.13 0.22 0.25 0.24 0.23 0.21 0.22 0.28 0.32 0.34 0.32 0.33 0.36 0.42 0.48 0.59 0.93
0.18 0.19 0.20 0.23 0.24 0.25 0.32 0.33 0.35 0.38 0.40 0.44 0.47 0.51 0.52 0.51 0.50 0.49 0.52 0.53 0.49 0.41 0.37 0.32 0.17 0.11 0.15 0.22 0.28 0.28 0.27 0.27 0.26 0.29 0.30 0.34 0.38 0.39 0.37 0.38 0.41 0.48 0.58
0.28 0.31 0.34 0.36 0.37 0.42 0.60 0.66 0.54 0.49 0.47 0.48 0.51 0.55 0.59 0.63 0.64 0.65 0.67 0.64 0.58 0.50 0.40 0.34 0.27 0.21 0.22 0.25 0.30 0.32 0.30 0.30 0.34 0.34 0.33 0.32 0.37 0.41 0.42 0.37 0.32 0.34 0.47
0.37 0.40 0.42 0.42 0.43 0.56 0.92 1.08 0.83 0.67 0.58 0.54 0.52 0.56 0.60 0.67 0.79 0.89 0.93 0.82 0.63 0.55 0.49 0.43 0.36 0.30 0.28 0.33 0.40 0.39 0.38 0.33 0.37 0.44 0.40 0.34 0.32 0.31 0.35 0.42 0.44 0.43 0.43
0.39 0.40 0.41 0.40 0.39 0.52 0.89 1.06 0.84 0.64 0.49 0.46 0.47 0.46 0.47 0.53 0.61 0.68 0.78 0.74 0.62 0.63 0.64 0.57 0.50 0.46 0.41 0.40 0.47 0.52 0.52 0.48 0.44 0.45 0.44 0.43 0.40 0.38 0.37 0.36 0.45 0.47 0.48
0.27 0.25 0.26 0.25 0.23 0.33 0.71 0.88 0.68 0.41 0.28 0.31 0.33 0.34 0.34 0.38 0.43 0.42 0.48 0.45 0.45 0.51 0.62 0.67 0.69 0.64 0.57 0.52 0.56 0.60 0.64 0.62 0.50 0.50 0.53 0.59 0.59 0.53 0.48 0.49 0.54 0.48 0.48
0.15 0.13 0.11 0.09 0.09 0.15 0.52 0.76 0.55 0.21 0.17 0.22 0.28 0.31 0.30 0.33 0.38 0.43 0.40 0.34 0.34 0.37 0.49 0.59 0.74 0.78 0.72 0.68 0.71 0.77 0.80 0.78 0.73 0.69 0.64 0.71 0.78 0.73 0.68 0.63 0.59 0.51 0.46
0.09 0.07 0.05 0.03 0.03 0.05 0.33 0.70 0.55 0.18 0.15 0.18 0.23 0.30 0.32 0.29 0.33 0.34 0.30 0.29 0.27 0.30 0.35 0.44 0.53 0.61 0.64 0.70 0.79 0.84 0.86 0.91 1.01 1.10 0.96 0.86 0.91 0.86 0.86 0.83 0.75 0.63 0.53
0.05 0.04 0.02 0.01 0.01 0.02 0.17 0.57 0.64 0.25 0.15 0.14 0.15 0.24 0.38 0.37 0.31 0.24 0.21 0.23 0.27 0.27 0.22 0.21 0.23 0.28 0.38 0.49 0.67 0.86 0.98 1.00 1.08 1.24 1.22 1.04 1.06 0.97 1.00 0.97 0.79 0.65 0.57

GEFSMA_prec_meanprecacc_072.txt.gz
Total_Precipitation_Accumulation
0.06 0.06 0.06 0.05 0.04 0.05 0.06 0.06 0.07 0.08 0.10 0.13 0.17 0.18 0.23 0.24 0.21 0.20 0.17 0.13 0.11 0.15 0.25 0.35 0.50 0.70 0.90 0.99 1.02 0.94 0.88 0.80 0.69 0.60 0.59 0.61 0.71 0.81 0.88 0.83 0.87 0.91 0.87
0.03 0.03 0.03 0.03 0.02 0.02 0.03 0.03 0.04 0.05 0.06 0.08 0.09 0.12 0.16 0.16 0.15 0.18 0.19 0.19 0.16 0.15 0.23 0.28 0.35 0.49 0.76 0.99 1.07 1.04 0.97 0.95 0.90 0.83 0.71 0.67 0.70 0.77 0.87 0.93 0.78 0.73 0.69
0.01 0.01 0.01 0.01 0.01 0.02 0.03 0.03 0.03 0.03 0.04 0.06 0.08 0.10 0.11 0.12 0.13 0.16 0.20 0.22 0.22 0.20 0.22 0.31 0.35 0.41 0.59 0.84 1.06 1.24 1.11 1.05 1.08 1.06 0.90 0.78 0.72 0.77 0.79 0.91 0.93 0.83 0.71
0.01 0.02 0.02 0.02 0.01 0.02 0.05 0.06 0.06 0.06 0.06 0.07 0.10 0.13 0.13 0.14 0.13 0.16 0.22 0.22 0.24 0.23 0.22 0.27 0.37 0.42 0.54 0.68 0.88 1.21 1.32 1.26 1.24 1.22 1.12 0.99 0.82 0.81 0.83 0.87 0.94 0.96 0.89
0.02 0.02 0.03 0.04 0.05 0.06 0.09 0.11 0.10 0.12 0.11 0.10 0.12 0.16 0.18 0.21 0.22 0.22 0.27 0.28 0.27 0.25 0.25 0.26 0.31 0.35 0.44 0.59 0.78 1.03 1.32 1.46 1.43 1.40 1.33 1.23 1.06 0.89 0.87 0.89 0.94 1.03 1.04
0.01 0.01 0.01 0.03 0.06 0.10 0.13 0.15 0.13 0.13 0.15 0.17 0.22 0.24 0.28 0.29 0.27 0.22 0.26 0.32 0.32 0.29 0.32 0.31 0.30 0.29 0.31 0.40 0.59 0.84 1.12 1.38 1.50 1.52 1.53 1.48 1.34 1.14 0.94 0.88 0.88 0.99 1.11
0.00 0.00 0.01 0.01 0.01 0.03 0.06 0.08 0.11 0.11 0.11 0.12 0.17 0.19 0.20 0.23 0.22 0.19 0.22 0.30 0.38 0.42 0.43 0.44 0.42 0.37 0.34 0.34 0.35 0.49 0.75 1.09 1.39 1.52 1.59 1.60 1.53 1.39 1.18 0.98 0.89 0.91 1.02
0.00 0.00 0.00 0.00 0.00 0.01 0.01 0.01 0.03 0.06 0.06 0.06 0.13 0.17 0.15 0.14 0.13 0.13 0.16 0.23 0.32 0.41 0.46 0.49 0.51 0.51 0.46 0.41 0.30 0.29 0.40 0.67 1.05 1.41 1.60 1.67 1.73 1.66 1.45 1.21 1.03 0.97 0.99
0.00 0.00 0.00 0.00 0.00 0.00 0.01 0.01 0.02 0.04 0.05 0.04 0.07 0.20 0.27 0.21 0.14 0.07 0.09 0.13 0.18 0.22 0.29 0.36 0.44 0.50 0.52 0.51 0.43 0.33 0.29 0.43 0.68 1.03 1.44 1.69 1.86 2.00 1.86 1.53 1.27 1.13 1.08
0.00 0.00 0.00 0.00 0.01 0.01 0.01 0.01 0.02 0.03 0.06 0.07 0.06 0.10 0.18 0.22 0.28 0.15 0.04 0.04 0.05 0.08 0.11 0.17 0.24 0.32 0.41 0.46 0.49 0.50 0.44 0.40 0.57 0.74 1.03 1.44 1.83 2.15 2.32 2.06 1.62 1.31 1.20
0.00 0.00 0.00 0.01 0.01 0.01 0.02 0.02 0.03 0.04 0.06 0.09 0.12 0.13 0.13 0.12 0.17 0.26 0.13 0.02 0.02 0.03 0.04 0.08 0.12 0.18 0.26 0.35 0.43 0.51 0.56 0.52 0.61 0.71 0.82 1.10 1.53 2.09 2.50 2.47 2.12 1.68 1.35
0.01 0.01 0.01 0.01 0.02 0.02 0.03 0.04 0.05 0.06 0.07 0.10 0.13 0.16 0.20 0.23 0.20 0.26 0.23 0.08 0.03 0.02 0.03 0.04 0.07 0.13 0.21 0.30 0.39 0.53 0.59 0.60 0.65 0.73 0.70 0.83 1.13 1.63 2.27 2.59 2.46 2.12 1.72
0.01 0.01 0.02 0.03 0.04 0.04 0.05 0.06 0.09 0.10 0.12 0.14 0.15 0.17 0.19 0.20 0.22 0.29 0.33 0.18 0.08 0.02 0.02 0.04 0.06 0.11 0.19 0.26 0.32 0.42 0.48 0.52 0.57 0.65 0.65 0.59 0.67 1.04 1.69 2.39 2.71 2.54 2.20
0.01 0.02 0.03 0.04 0.05 0.06 0.07 0.09 0.12 0.14 0.17 0.19 0.19 0.21 0.22 0.20 0.24 0.29 0.36 0.38 0.27 0.08 0.03 0.03 0.04 0.09 0.14 0.19 0.26 0.34 0.34 0.39 0.43 0.50 0.57 0.55 0.50 0.56 0.91 1.62 2.40 2.85 2.74
0.01 0.02 0.04 0.07 0.09 0.10 0.11 0.13 0.16 0.18 0.20 0.21 0.24 0.25 0.29 0.27 0.26 0.27 0.30 0.41 0.54 0.38 0.10 0.03 0.05 0.08 0.11 0.15 0.21 0.27 0.27 0.32 0.36 0.38 0.44 0.49 0.48 0.47 0.55 0.81 1.47 2.27 2.86
0.03 0.04 0.06 0.08 0.11 0.14 0.17 0.20 0.21 0.21 0.22 0.23 0.26 0.30 0.32 0.32 0.31 0.31 0.32 0.34 0.44 0.52 0.31 0.06 0.06 0.09 0.13 0.15 0.21 0.24 0.24 0.29 0.33 0.36 0.37 0.38 0.43 0.48 0.52 0.60 0.83 1.44 2.13
0.05 0.06 0.08 0.09 0.11 0.15 0.20 0.23 0.24 0.27 0.30 0.30 0.31 0.35 0.34 0.35 0.39 0.39 0.39 0.38 0.38 0.43 0.40 0.11 0.05 0.08 0.15 0.21 0.21 0.22 0.23 0.24 0.27 0.33 0.36 0.34 0.34 0.39 0.45 0.51 0.60 0.90 1.48
0.10 0.10 0.12 0.13 0.14 0.17 0.21 0.26 0.29 0.30 0.35 0.40 0.42 0.42 0.41 0.41 0.43 0.44 0.48 0.47 0.41 0.38 0.41 0.25 0.08 0.07 0.13 0.22 0.26 0.25 0.24 0.22 0.23 0.28 0.33 0.35 0.34 0.36 0.39 0.44 0.51 0.61 0.95
0.18 0.19 0.20 0.23 0.24 0.26 0.32 0.33 0.35 0.38 0.40 0.44 0.48 0.52 0.52 0.52 0.51 0.50 0.53 0.54 0.50 0.43 0.40 0.35 0.18 0.12 0.15 0.22 0.28 0.28 0.27 0.27 0.26 0.29 0.30 0.35 0.39 0.41 0.40 0.40 0.44 0.50 0.59
0.28 0.32 0.35 0.37 0.38 0.42 0.60 0.66 0.54 0.49 0.47 0.49 0.52 0.56 0.60 0.64 0.65 0.66 0.69 0.67 0.62 0.55 0.44 0.37 0.28 0.22 0.22 0.25 0.31 0.32 0.30 0.30 0.34 0.34 0.33 0.32 0.37 0.41 0.42 0.38 0.34 0.36 0.48
0.37 0.40 0.42 0.43 0.44 0.56 0.92 1.08 0.83 0.68 0.59 0.55 0.53 0.57 0.61 0.69 0.82 0.94 1.00 0.91 0.72 0.63 0.54 0.47 0.38 0.31 0.29 0.33 0.40 0.39 0.38 0.33 0.37 0.44 0.40 0.34 0.32 0.31 0.35 0.42 0.45 0.44 0.44
0.40 0.40 0.42 0.41 0.40 0.53 0.89 1.06 0.84 0.65 0.50 0.48 0.48 0.46 0.48 0.53 0.62 0.70 0.81 0.78 0.69 0.72 0.72 0.62 0.53 0.47 0.41 0.40 0.47 0.52 0.53 0.49 0.44 0.45 0.45 0.43 0.40 0.38 0.37 0.36 0.45 0.47 0.48
0.28 0.26 0.26 0.25 0.23 0.33 0.71 0.88 0.69 0.42 0.29 0.31 0.34 0.34 0.34 0.38 0.43 0.43 0.49 0.48 0.47 0.53 0.64 0.71 0.72 0.66 0.58 0.52 0.57 0.61 0.65 0.63 0.50 0.50 0.53 0.60 0.59 0.53 0.48 0.49 0.54 0.48 0.48
0.16 0.14 0.12 0.10 0.09 0.15 0.52 0.76 0.56 0.22 0.17 0.23 0.28 0.31 0.30 0.33 0.38 0.45 0.48 0.40 0.36 0.38 0.50 0.60 0.76 0.79 0.74 0.71 0.76 0.81 0.83 0.80 0.73 0.69 0.65 0.72 0.78 0.73 0.68 0.63 0.59 0.51 0.47
0.10 0.08 0.06 0.04 0.03 0.06 0.33 0.70 0.55 0.18 0.15 0.18 0.24 0.30 0.32 0.29 0.35 0.41 0.39 0.35 0.29 0.31 0.35 0.45 0.55 0.63 0.67 0.74 0.83 0.90 0.90 0.92 1.02 1.10 0.97 0.88 0.91 0.87 0.86 0.83 0.75 0.64 0.53
0.06 0.05 0.03 0.02 0.01 0.02 0.18 0.57 0.65 0.26 0.16 0.15 0.16 0.24 0.38 0.38 0.34 0.30 0.27 0.27 0.29 0.29 0.23 0.22 0.24 0.29 0.38 0.50 0.68 0.88 1.00 1.02 1.09 1.24 1.22 1.06 1.06 0.98 1.00 0.97 0.80 0.65 0.57

GEFSMA_prec_meanprecacc_078.txt.gz
Total_Precipitation_Accumulation
0.06 0.06 0.06 0.05 0.04 0.05 0.06 0.06 0.07 0.08 0.10 0.13 0.17 0.18 0.23 0.24 0.21 0.20 0.17 0.13 0.11 0.15 0.25 0.35 0.50 0.71 0.91 1.00 1.03 0.96 0.90 0.82 0.71 0.63 0.61 0.64 0.74 0.84 0.91 0.86 0.89 0.93 0.90
0.03 0.03 0.03 0.03 0.02 0.02 0.03 0.03 0.04 0.05 0.06 0.08 0.09 0.12 0.16 0.16 0.15 0.18 0.19 0.19 0.16 0.15 0.23 0.28 0.35 0.50 0.77 1.00 1.09 1.06 1.00 0.97 0.92 0.86 0.74 0.70 0.74 0.81 0.90 0.95 0.81 0.75 0.71
0.01 0.01 0.01 0.01 0.01 0.02 0.03 0.03 0.03 0.03 0.04 0.06 0.08 0.10 0.11 0.12 0.13 0.16 0.20 0.22 0.22 0.20 0.22 0.31 0.35 0.41 0.60 0.85 1.08 1.25 1.12 1.07 1.11 1.09 0.93 0.81 0.76 0.80 0.83 0.94 0.96 0.86 0.75
0.01 0.02 0.02 0.02 0.01 0.02 0.05 0.06 0.06 0.06 0.06 0.07 0.10 0.13 0.13 0.14 0.13 0.16 0.22 0.22 0.24 0.23 0.22 0.27 0.37 0.42 0.54 0.68 0.89 1.22 1.34 1.29 1.27 1.25 1.16 1.03 0.86 0.85 0.87 0.91 0.98 0.99 0.92
0.02 0.02 0.03 0.04 0.05 0.06 0.09 0.11 0.10 0.12 0.11 0.10 0.12 0.16 0.18 0.21 0.22 0.22 0.27 0.28 0.27 0.25 0.25 0.26 0.31 0.35 0.44 0.59 0.78 1.05 1.34 1.48 1.46 1.45 1.38 1.28 1.11 0.94 0.92 0.94 0.98 1.07 1.08
0.01 0.01 0.01 0.03 0.06 0.10 0.13 0.15 0.13 0.13 0.15 0.17 0.22 0.24 0.28 0.29 0.27 0.22 0.26 0.32 0.32 0.29 0.32 0.31 0.30 0.29 0.31 0.40 0.60 0.85 1.14 1.41 1.54 1.57 1.59 1.55 1.41 1.21 1.01 0.95 0.94 1.04 1.16
0.00 0.00 0.01 0.01 0.01 0.03 0.06 0.08 0.11 0.11 0.11 0.12 0.17 0.19 0.20 0.23 0.22 0.19 0.22 0.30 0.38 0.42 0.43 0.44 0.42 0.37 0.34 0.34 0.35 0.50 0.76 1.12 1.44 1.58 1.66 1.68 1.61 1.48 1.27 1.06 0.97 0.98 1.08
0.00 0.00 0.00 0.00 0.00 0.01 0.01 0.01 0.03 0.06 0.06 0.06 0.13 0.17 0.15 0.14 0.13 0.13 0.16 0.23 0.32 0.41 0.46 0.49 0.51 0.51 0.46 0.41 0.30 0.29 0.41 0.70 1.10 1.49 1.69 1.78 1.86 1.79 1.58 1.33 1.14 1.07 1.07
0.00 0.00 0.00 0.00 0.00 0.00 0.01 0.01 0.02 0.04 0.05 0.04 0.07 0.20 0.27 0.21 0.14 0.07 0.09 0.13 0.18 0.22 0.29 0.36 0.44 0.50 0.52 0.51 0.43 0.33 0.30 0.46 0.74 1.12 1.55 1.83 2.02 2.17 2.04 1.69 1.42 1.27 1.19
0.00 0.00 0.00 0.00 0.01 0.01 0.01 0.01 0.02 0.03 0.06 0.07 0.06 0.10 0.18 0.22 0.28 0.15 0.04 0.04 0.05 0.08 0.11 0.17 0.24 0.32 0.41 0.46 0.49 0.51 0.46 0.43 0.64 0.85 1.19 1.64 2.05 2.39 2.56 2.28 1.83 1.49 1.34
0.00 0.00 0.00 0.01 0.01 0.01 0.02 0.02 0.03 0.04 0.06 0.09 0.12 0.13 0.13 0.12 0.17 0.27 0.13 0.02 0.02 0.03 0.04 0.08 0.12 0.18 0.26 0.35 0.43 0.51 0.58 0.57 0.69 0.84 0.99 1.30 1.77 2.35 2.77 2.75 2.36 1.90 1.54
0.01 0.01 0.01 0.01 0.02 0.02 0.03 0.04 0.05 0.06 0.07 0.10 0.13 0.16 0.20 0.23 0.20 0.26 0.23 0.08 0.03 0.02 0.03 0.04 0.07 0.13 0.21 0.30 0.39 0.53 0.61 0.65 0.73 0.85 0.86 1.01 1.34 1.86 2.53 2.89 2.76 2.40 1.96
0.01 0.01 0.02 0.03 0.04 0.04 0.05 0.06 0.09 0.10 0.12 0.15 0.15 0.17 0.19 0.20 0.22 0.29 0.33 0.19 0.08 0.02 0.02 0.04 0.06 0.11 0.19 0.26 0.32 0.42 0.49 0.54 0.61 0.71 0.73 0.71 0.82 1.21 1.90 2.64 3.00 2.84 2.48
0.01 0.02 0.03 0.04 0.05 0.06 0.07 0.10 0.12 0.14 0.17 0.19 0.19 0.21 0.22 0.20 0.24 0.29 0.36 0.39 0.28 0.09 0.03 0.03 0.04 0.09 0.14 0.19 0.26 0.34 0.35 0.40 0.44 0.53 0.62 0.62 0.60 0.68 1.07 1.83 2.62 3.09 2.98
0.01 0.02 0.04 0.07 0.09 0.10 0.11 0.13 0.16 0.18 0.20 0.22 0.24 0.26 0.29 0.27 0.26 0.27 0.30 0.41 0.57 0.40 0.11 0.03 0.05 0.08 0.11 0.15 0.21 0.27 0.27 0.32 0.37 0.41 0.48 0.54 0.55 0.55 0.66 0.96 1.65 2.46 3.06
0.03 0.04 0.06 0.09 0.12 0.15 0.17 0.20 0.21 0.21 0.23 0.24 0.26 0.30 0.32 0.32 0.31 0.31 0.32 0.35 0.46 0.56 0.34 0.07 0.06 0.09 0.13 0.15 0.21 0.25 0.24 0.30 0.34 0.37 0.38 0.41 0.47 0.53 0.58 0.69 0.94 1.58 2.30
0.05 0.07 0.08 0.09 0.11 0.16 0.20 0.23 0.25 0.27 0.30 0.30 0.31 0.35 0.34 0.35 0.39 0.39 0.39 0.39 0.39 0.46 0.44 0.12 0.05 0.08 0.15 0.21 0.21 0.22 0.23 0.24 0.27 0.34 0.37 0.35 0.37 0.42 0.48 0.55 0.66 0.97 1.59
0.10 0.11 0.12 0.14 0.15 0.17 0.22 0.27 0.30 0.31 0.36 0.41 0.42 0.42 0.41 0.42 0.43 0.44 0.48 0.47 0.42 0.40 0.45 0.27 0.08 0.07 0.13 0.22 0.26 0.25 0.24 0.22 0.23 0.28 0.33 0.36 0.36 0.37 0.41 0.47 0.54 0.65 1.00
0.18 0.19 0.21 0.24 0.25 0.27 0.33 0.35 0.36 0.39 0.41 0.44 0.48 0.52 0.52 0.52 0.51 0.50 0.54 0.55 0.51 0.44 0.43 0.39 0.20 0.12 0.16 0.22 0.28 0.28 0.28 0.27 0.26 0.29 0.30 0.35 0.40 0.42 0.41 0.42 0.46 0.52 0.62
0.28 0.32 0.35 0.38 0.39 0.44 0.62 0.67 0.55 0.50 0.48 0.49 0.52 0.56 0.60 0.65 0.66 0.66 0.70 0.68 0.64 0.58 0.48 0.41 0.31 0.23 0.23 0.25 0.31 0.32 0.30 0.30 0.34 0.34 0.33 0.33 0.37 0.42 0.43 0.39 0.35 0.38 0.50
0.38 0.41 0.43 0.44 0.46 0.58 0.94 1.09 0.83 0.68 0.59 0.55 0.54 0.57 0.61 0.69 0.83 0.96 1.05 0.96 0.80 0.72 0.61 0.53 0.42 0.33 0.30 0.34 0.41 0.40 0.39 0.33 0.38 0.44 0.40 0.34 0.32 0.31 0.35 0.42 0.45 0.44 0.45
0.40 0.41 0.43 0.42 0.41 0.54 0.90 1.07 0.85 0.65 0.51 0.48 0.49 0.47 0.48 0.54 0.62 0.72 0.84 0.82 0.75 0.81 0.82 0.71 0.59 0.51 0.43 0.41 0.48 0.53 0.54 0.50 0.45 0.45 0.45 0.43 0.40 0.39 0.37 0.36 0.45 0.47 0.49
0.28 0.27 0.27 0.26 0.24 0.34 0.72 0.89 0.69 0.42 0.29 0.32 0.34 0.34 0.34 0.38 0.44 0.43 0.50 0.49 0.49 0.55 0.68 0.76 0.77 0.68 0.60 0.53 0.59 0.63 0.67 0.65 0.52 0.51 0.54 0.60 0.59 0.53 0.49 0.49 0.54 0.48 0.48
0.17 0.15 0.13 0.11 0.10 0.17 0.54 0.77 0.57 0.22 0.18 0.23 0.28 0.31 0.31 0.33 0.38 0.46 0.49 0.43 0.38 0.39 0.50 0.61 0.77 0.81 0.76 0.74 0.81 0.87 0.87 0.82 0.74 0.70 0.67 0.74 0.78 0.73 0.68 0.63 0.59 0.51 0.47
0.10 0.08 0.06 0.05 0.04 0.07 0.34 0.71 0.56 0.19 0.16 0.19 0.24 0.31 0.32 0.29 0.35 0.42 0.42 0.38 0.31 0.32 0.36 0.47 0.57 0.66 0.71 0.78 0.89 0.96 0.94 0.95 1.03 1.10 0.98 0.90 0.92 0.87 0.86 0.83 0.75 0.64 0.53
0.06 0.05 0.04 0.03 0.02 0.03 0.19 0.58 0.65 0.26 0.16 0.15 0.16 0.24 0.38 0.38 0.35 0.32 0.30 0.31 0.32 0.31 0.25 0.23 0.24 0.30 0.39 0.51 0.69 0.91 1.03 1.05 1.11 1.26 1.23 1.07 1.07 0.99 1.01 0.98 0.80 0.66 0.57

GEFSMA_prec_meanprecacc_084.txt.gz
Total_Precipitation_Accumulation
0.06 0.06 0.06 0.05 0.04 0.05 0.06 0.06 0.07 0.08 0.10 0.13 0.17 0.18 0.23 0.24 0.21 0.20 0.17 0.13 0.11 0.15 0.25 0.35 0.50 0.71 0.91 1.01 1.04 0.97 0.91 0.83 0.72 0.64 0.63 0.65 0.75 0.85 0.92 0.86 0.90 0.94 0.90
0.03 0.03 0.03 0.03 0.02 0.02 0.03 0.03 0.04 0.05 0.06 0.08 0.09 0.12 0.16 0.16 0.15 0.18 0.19 0.19 0.16 0.15 0.23 0.28 0.35 0.50 0.77 1.00 1.10 1.06 1.00 0.98 0.93 0.87 0.75 0.72 0.75 0.82 0.91 0.97 0.82 0.76 0.72
0.01 0.01 0.01 0.01 0.01 0.02 0.03 0.03 0.03 0.03 0.04 0.06 0.08 0.10 0.11 0.12 0.13 0.16 0.20 0.22 0.22 0.20 0.22 0.31 0.35 0.41 0.60 0.85 1.08 1.26 1.13 1.08 1.12 1.10 0.95 0.83 0.77 0.82 0.84 0.95 0.97 0.87 0.76
0.01 0.02 0.02 0.02 0.01 0.02 0.05 0.06 0.06 0.06 0.06 0.07 0.10 0.13 0.13 0.14 0.13 0.16 0.22 0.22 0.24 0.23 0.22 0.27 0.37 0.42 0.54 0.68 0.89 1.23 1.34 1.29 1.28 1.26 1.18 1.05 0.88 0.87 0.89 0.93 1.00 1.01 0.94
0.02 0.02 0.03 0.04 0.05 0.06 0.09 0.11 0.10 0.12 0.11 0.10 0.12 0.16 0.18 0.21 0.22 0.22 0.27 0.28 0.27 0.25 0.25 0.26 0.31 0.35 0.44 0.59 0.78 1.05 1.34 1.49 1.47 1.45 1.39 1.29 1.13 0.96 0.94 0.96 1.00 1.09 1.10
0.01 0.01 0.01 0.03 0.06 0.10 0.13 0.15 0.13 0.13 0.15 0.17 0.22 0.24 0.28 0.29 0.27 0.22 0.26 0.32 0.32 0.29 0.32 0.31 0.30 0.29 0.31 0.40 0.60 0.85 1.14 1.42 1.55 1.58 1.60 1.57 1.43 1.23 1.03 0.97 0.97 1.07 1.19
0.00 0.00 0.01 0.01 0.01 0.03 0.06 0.08 0.11 0.11 0.11 0.12 0.17 0.19 0.20 0.23 0.22 0.19 0.22 0.30 0.38 0.42 0.43 0.44 0.42 0.37 0.34 0.34 0.35 0.50 0.76 1.12 1.44 1.59 1.67 1.70 1.64 1.51 1.30 1.11 1.01 1.03 1.13
0.00 0.00 0.00 0.00 0.00 0.01 0.01 0.01 0.03 0.06 0.06 0.06 0.13 0.17 0.15 0.14 0.13 0.13 0.16 0.23 0.32 0.41 0.46 0.49 0.51 0.51 0.46 0.41 0.30 0.29 0.41 0.70 1.10 1.50 1.71 1.81 1.90 1.84 1.64 1.39 1.20 1.14 1.15
0.00 0.00 0.00 0.00 0.00 0.00 0.01 0.01 0.02 0.04 0.05 0.04 0.07 0.20 0.27 0.21 0.14 0.07 0.09 0.13 0.18 0.22 0.29 0.36 0.44 0.50 0.52 0.51 0.43 0.33 0.30 0.46 0.74 1.13 1.58 1.86 2.07 2.23 2.12 1.79 1.52 1.38 1.30
0.00 0.00 0.00 0.00 0.01 0.01 0.01 0.01 0.02 0.03 0.06 0.07 0.06 0.10 0.18 0.22 0.28 0.15 0.04 0.04 0.05 0.08 0.11 0.17 0.24 0.32 0.41 0.46 0.49 0.51 0.46 0.43 0.64 0.86 1.22 1.68 2.11 2.47 2.67 2.40 1.95 1.61 1.47
0.00 0.00 0.00 0.01 0.01 0.01 0.02 0.02 0.03 0.04 0.06 0.09 0.12 0.13 0.13 0.12 0.17 0.27 0.13 0.02 0.02 0.03 0.04 0.08 0.12 0.18 0.26 0.35 0.43 0.51 0.58 0.57 0.70 0.85 1.01 1.34 1.82 2.42 2.85 2.84 2.47 2.03 1.69
0.01 0.01 0.01 0.01 0.02 0.02 0.03 0.04 0.05 0.06 0.08 0.10 0.13 0.16 0.20 0.23 0.20 0.26 0.23 0.08 0.03 0.02 0.03 0.04 0.07 0.13 0.21 0.30 0.39 0.53 0.61 0.65 0.73 0.86 0.87 1.03 1.36 1.90 2.59 2.96 2.84 2.50 2.10
0.01 0.01 0.02 0.03 0.04 0.04 0.05 0.06 0.09 0.10 0.12 0.15 0.15 0.17 0.19 0.20 0.22 0.29 0.33 0.19 0.08 0.02 0.02 0.04 0.06 0.11 0.19 0.26 0.32 0.42 0.49 0.54 0.61 0.71 0.74 0.72 0.84 1.24 1.94 2.70 3.07 2.94 2.62
0.01 0.02 0.03 0.04 0.05 0.06 0.07 0.10 0.12 0.14 0.17 0.19 0.19 0.21 0.23 0.21 0.24 0.30 0.36 0.39 0.28 0.09 0.03 0.03 0.04 0.09 0.14 0.19 0.26 0.34 0.35 0.40 0.44 0.54 0.63 0.63 0.61 0.70 1.11 1.88 2.69 3.17 3.09
0.01 0.02 0.04 0.07 0.09 0.10 0.11 0.13 0.16 0.18 0.20 0.22 0.24 0.26 0.29 0.28 0.27 0.27 0.31 0.42 0.57 0.41 0.11 0.03 0.05 0.08 0.11 0.15 0.21 0.27 0.27 0.32 0.37 0.41 0.49 0.55 0.57 0.57 0.69 1.00 1.70 2.53 3.15
0.03 0.04 0.06 0.09 0.12 0.15 0.17 0.20 0.21 0.21 0.23 0.24 0.27 0.31 0.33 0.33 0.31 0.31 0.32 0.35 0.46 0.56 0.34 0.07 0.06 0.09 0.13 0.15 0.21 0.25 0.24 0.30 0.34 0.37 0.39 0.41 0.48 0.55 0.61 0.72 0.99 1.63 2.37
0.05 0.07 0.08 0.09 0.11 0.16 0.20 0.24 0.25 0.28 0.31 0.31 0.32 0.36 0.35 0.36 0.40 0.39 0.39 0.39 0.39 0.46 0.45 0.12 0.05 0.08 0.15 0.21 0.21 0.22 0.23 0.24 0.27 0.34 0.37 0.35 0.38 0.43 0.50 0.58 0.69 1.02 1.65
0.10 0.11 0.12 0.14 0.15 0.18 0.23 0.27 0.30 0.32 0.37 0.42 0.43 0.43 0.42 0.42 0.43 0.44 0.49 0.48 0.42 0.40 0.45 0.28 0.08 0.07 0.13 0.22 0.26 0.25 0.24 0.22 0.23 0.28 0.33 0.36 0.36 0.39 0.43 0.49 0.56 0.67 1.03
0.18 0.19 0.21 0.24 0.25 0.27 0.34 0.35 0.36 0.40 0.42 0.45 0.49 0.53 0.53 0.53 0.52 0.51 0.54 0.55 0.52 0.44 0.43 0.40 0.20 0.12 0.16 0.23 0.28 0.29 0.28 0.27 0.26 0.29 0.30 0.35 0.40 0.42 0.42 0.43 0.47 0.54 0.64
0.28 0.32 0.35 0.38 0.39 0.44 0.62 0.68 0.56 0.50 0.49 0.50 0.53 0.57 0.61 0.66 0.67 0.67 0.71 0.69 0.65 0.59 0.48 0.42 0.32 0.24 0.23 0.26 0.32 0.33 0.31 0.30 0.34 0.34 0.33 0.33 0.38 0.42 0.43 0.40 0.36 0.39 0.51
0.38 0.41 0.43 0.44 0.46 0.58 0.94 1.09 0.84 0.69 0.60 0.56 0.54 0.58 0.62 0.70 0.83 0.97 1.06 0.97 0.81 0.74 0.64 0.55 0.44 0.35 0.31 0.35 0.43 0.41 0.40 0.34 0.38 0.44 0.41 0.34 0.32 0.31 0.35 0.42 0.45 0.45 0.46
0.40 0.41 0.43 0.42 0.41 0.55 0.90 1.07 0.85 0.66 0.51 0.49 0.49 0.47 0.49 0.54 0.63 0.73 0.86 0.84 0.78 0.85 0.86 0.75 0.62 0.54 0.45 0.42 0.49 0.55 0.55 0.51 0.46 0.45 0.45 0.44 0.40 0.39 0.37 0.36 0.46 0.47 0.49
0.28 0.27 0.27 0.26 0.25 0.35 0.73 0.89 0.70 0.43 0.30 0.33 0.35 0.35 0.35 0.39 0.45 0.44 0.52 0.51 0.51 0.57 0.71 0.80 0.81 0.70 0.61 0.54 0.60 0.64 0.68 0.66 0.53 0.51 0.55 0.61 0.59 0.53 0.49 0.49 0.54 0.49 0.50
0.17 0.15 0.13 0.11 0.10 0.17 0.54 0.78 0.58 0.24 0.19 0.24 0.29 0.32 0.32 0.34 0.39 0.47 0.51 0.44 0.39 0.40 0.51 0.62 0.79 0.82 0.77 0.75 0.84 0.91 0.92 0.87 0.77 0.71 0.68 0.76 0.79 0.74 0.68 0.63 0.59 0.52 0.48
0.10 0.08 0.06 0.05 0.04 0.07 0.35 0.72 0.57 0.22 0.18 0.20 0.25 0.32 0.34 0.31 0.36 0.43 0.45 0.41 0.33 0.32 0.36 0.48 0.59 0.68 0.74 0.82 0.95 1.04 1.01 0.99 1.06 1.11 0.98 0.91 0.93 0.88 0.86 0.84 0.75 0.64 0.55
0.06 0.05 0.04 0.03 0.02 0.03 0.19 0.59 0.67 0.29 0.20 0.18 0.18 0.26 0.39 0.39 0.36 0.34 0.34 0.34 0.34 0.32 0.26 0.24 0.25 0.31 0.40 0.51 0.70 0.92 1.05 1.07 1.13 1.27 1.23 1.09 1.09 1.01 1.03 0.98 0.80 0.67 0.58

GEFSMA_prec_meanprecacc_090.txt.gz
Total_Precipitation_Accumulation
0.06 0.06 0.06 0.05 0.04 0.05 0.06 0.06 0.07 0.08 0.10 0.13 0.17 0.18 0.23 0.24 0.21 0.20 0.17 0.13 0.11 0.15 0.25 0.35 0.50 0.71 0.91 1.01 1.04 0.97 0.91 0.83 0.73 0.65 0.63 0.65 0.75 0.85 0.92 0.87 0.90 0.94 0.91
0.03 0.03 0.03 0.03 0.02 0.02 0.03 0.03 0.04 0.05 0.06 0.08 0.09 0.12 0.16 0.16 0.15 0.18 0.19 0.19 0.16 0.15 0.23 0.28 0.35 0.50 0.77 1.00 1.10 1.06 1.00 0.98 0.94 0.87 0.76 0.72 0.75 0.82 0.92 0.97 0.83 0.76 0.73
0.01 0.01 0.01 0.01 0.01 0.02 0.03 0.03 0.03 0.03 0.04 0.06 0.08 0.10 0.11 0.12 0.13 0.16 0.20 0.22 0.22 0.20 0.22 0.31 0.35 0.41 0.60 0.85 1.08 1.26 1.13 1.08 1.12 1.10 0.95 0.83 0.78 0.83 0.85 0.96 0.98 0.88 0.77
0.01 0.02 0.02 0.02 0.01 0.02 0.05 0.06 0.06 0.06 0.06 0.07 0.10 0.13 0.13 0.14 0.13 0.16 0.22 0.22 0.24 0.23 0.22 0.27 0.37 0.42 0.54 0.68 0.89 1.23 1.34 1.29 1.28 1.26 1.18 1.05 0.88 0.88 0.90 0.94 1.01 1.02 0.95
0.02 0.02 0.03 0.04 0.05 0.06 0.09 0.11 0.10 0.12 0.11 0.10 0.12 0.16 0.18 0.21 0.22 0.22 0.27 0.28 0.27 0.25 0.25 0.26 0.31 0.35 0.44 0.59 0.78 1.05 1.34 1.49 1.47 1.46 1.40 1.30 1.13 0.97 0.95 0.98 1.02 1.11 1.11
0.01 0.01 0.01 0.03 0.06 0.10 0.13 0.15 0.13 0.13 0.15 0.17 0.22 0.24 0.28 0.29 0.27 0.22 0.26 0.32 0.32 0.29 0.32 0.31 0.30 0.29 0.31 0.40 0.60 0.85 1.14 1.42 1.55 1.58 1.61 1.57 1.43 1.24 1.04 0.98 0.98 1.08 1.21
0.00 0.00 0.01 0.01 0.01 0.03 0.06 0.08 0.11 0.11 0.11 0.12 0.17 0.19 0.20 0.23 0.22 0.19 0.22 0.30 0.38 0.42 0.43 0.44 0.42 0.37 0.34 0.34 0.35 0.50 0.76 1.12 1.44 1.59 1.68 1.70 1.65 1.52 1.32 1.12 1.03 1.05 1.15
0.00 0.00 0.00 0.00 0.00 0.01 0.01 0.01 0.03 0.06 0.06 0.06 0.13 0.17 0.15 0.14 0.13 0.13 0.16 0.23 0.32 0.41 0.46 0.49 0.51 0.51 0.46 0.41 0.30 0.29 0.41 0.70 1.10 1.50 1.71 1.81 1.91 1.86 1.66 1.41 1.23 1.17 1.18
0.00 0.00 0.00 0.00 0.00 0.00 0.01 0.01 0.02 0.04 0.05 0.04 0.07 0.20 0.27 0.21 0.14 0.07 0.09 0.13 0.18 0.22 0.29 0.36 0.44 0.50 0.52 0.51 0.43 0.33 0.30 0.46 0.74 1.14 1.58 1.88 2.09 2.26 2.15 1.82 1.56 1.41 1.33
0.00 0.00 0.00 0.00 0.01 0.01 0.01 0.01 0.02 0.03 0.06 0.07 0.06 0.10 0.18 0.22 0.28 0.15 0.04 0.04 0.05 0.08 0.11 0.17 0.24 0.32 0.41 0.46 0.49 0.51 0.46 0.43 0.64 0.86 1.22 1.69 2.13 2.49 2.70 2.43 1.98 1.64 1.49
0.00 0.00 0.00 0.01 0.01 0.01 0.02 0.02 0.03 0.04 0.06 0.09 0.12 0.13 0.13 0.12 0.17 0.27 0.13 0.02 0.02 0.03 0.04 0.08 0.12 0.18 0.26 0.35 0.43 0.51 0.58 0.57 0.70 0.85 1.01 1.35 1.83 2.44 2.88 2.86 2.49 2.05 1.71
0.01 0.01 0.01 0.01 0.02 0.02 0.03 0.04 0.05 0.06 0.08 0.10 0.13 0.16 0.20 0.23 0.20 0.26 0.23 0.08 0.03 0.02 0.03 0.04 0.07 0.13 0.21 0.30 0.39 0.53 0.61 0.65 0.73 0.86 0.87 1.04 1.37 1.91 2.61 2.98 2.87 2.52 2.13
0.01 0.01 0.02 0.03 0.04 0.04 0.05 0.06 0.09 0.10 0.12 0.15 0.15 0.17 0.19 0.21 0.22 0.29 0.33 0.19 0.08 0.03 0.02 0.04 0.06 0.11 0.19 0.26 0.32 0.42 0.49 0.54 0.61 0.71 0.74 0.73 0.85 1.25 1.96 2.71 3.09 2.96 2.65
0.01 0.02 0.03 0.04 0.05 0.06 0.07 0.10 0.12 0.14 0.17 0.19 0.19 0.21 0.23 0.21 0.24 0.30 0.36 0.39 0.28 0.09 0.03 0.03 0.04 0.09 0.14 0.19 0.26 0.34 0.35 0.40 0.44 0.54 0.63 0.63 0.62 0.71 1.12 1.89 2.71 3.19 3.12
0.01 0.02 0.04 0.07 0.09 0.10 0.11 0.13 0.16 0.18 0.20 0.22 0.24 0.26 0.29 0.28 0.27 0.27 0.31 0.42 0.57 0.41 0.11 0.03 0.05 0.08 0.11 0.15 0.21 0.27 0.27 0.32 0.37 0.41 0.49 0.55 0.57 0.58 0.70 1.02 1.72 2.55 3.16
0.03 0.04 0.06 0.09 0.12 0.15 0.17 0.20 0.21 0.21 0.23 0.24 0.27 0.31 0.33 0.33 0.32 0.31 0.32 0.35 0.46 0.56 0.34 0.07 0.06 0.09 0.13 0.15 0.21 0.25 0.24 0.30 0.34 0.38 0.39 0.41 0.48 0.55 0.62 0.73 1.00 1.65 2.39
0.05 0.07 0.08 0.09 0.11 0.16 0.20 0.24 0.25 0.28 0.31 0.31 0.32 0.36 0.35 0.36 0.40 0.40 0.39 0.39 0.39 0.47 0.46 0.12 0.05 0.08 0.16 0.22 0.21 0.22 0.23 0.24 0.27 0.34 0.37 0.36 0.38 0.44 0.51 0.59 0.71 1.03 1.67
0.10 0.11 0.12 0.14 0.15 0.18 0.23 0.27 0.30 0.32 0.37 0.42 0.43 0.43 0.42 0.42 0.44 0.45 0.49 0.48 0.43 0.40 0.46 0.29 0.09 0.08 0.14 0.23 0.26 0.25 0.24 0.22 0.23 0.28 0.33 0.36 0.37 0.39 0.44 0.50 0.57 0.68 1.04
0.18 0.19 0.21 0.24 0.25 0.27 0.34 0.35 0.36 0.40 0.42 0.45 0.49 0.53 0.53 0.53 0.52 0.51 0.55 0.56 0.52 0.45 0.45 0.42 0.21 0.12 0.16 0.23 0.28 0.29 0.28 0.27 0.26 0.29 0.30 0.35 0.40 0.42 0.42 0.44 0.48 0.55 0.65
0.28 0.32 0.35 0.38 0.39 0.44 0.62 0.68 0.56 0.50 0.49 0.50 0.53 0.57 0.61 0.66 0.67 0.68 0.72 0.70 0.66 0.61 0.51 0.45 0.33 0.24 0.24 0.26 0.32 0.34 0.31 0.30 0.34 0.34 0.33 0.33 0.38 0.42 0.44 0.40 0.36 0.39 0.52
0.38 0.41 0.43 0.44 0.46 0.58 0.94 1.09 0.84 0.69 0.60 0.56 0.54 0.58 0.62 0.70 0.84 0.98 1.07 0.99 0.83 0.77 0.67 0.58 0.46 0.35 0.32 0.35 0.43 0.41 0.40 0.34 0.38 0.44 0.41 0.34 0.32 0.31 0.35 0.42 0.45 0.45 0.46
0.40 0.41 0.43 0.42 0.41 0.55 0.90 1.07 0.85 0.66 0.51 0.49 0.49 0.47 0.49 0.55 0.64 0.75 0.88 0.87 0.80 0.88 0.89 0.78 0.64 0.55 0.45 0.42 0.50 0.56 0.57 0.52 0.46 0.45 0.45 0.44 0.40 0.39 0.37 0.36 0.46 0.47 0.50
0.28 0.27 0.27 0.26 0.25 0.35 0.73 0.89 0.70 0.43 0.30 0.33 0.35 0.36 0.36 0.39 0.45 0.46 0.54 0.55 0.58 0.64 0.76 0.84 0.85 0.72 0.61 0.54 0.61 0.66 0.70 0.68 0.53 0.51 0.55 0.62 0.59 0.53 0.49 0.49 0.54 0.49 0.50
0.17 0.15 0.13 0.11 0.10 0.17 0.54 0.78 0.58 0.24 0.19 0.24 0.29 0.32 0.32 0.35 0.40 0.49 0.53 0.47 0.42 0.44 0.56 0.69 0.86 0.85 0.78 0.76 0.85 0.94 0.95 0.90 0.78 0.71 0.69 0.77 0.80 0.74 0.68 0.63 0.60 0.52 0.48
0.10 0.08 0.06 0.05 0.04 0.07 0.35 0.72 0.58 0.22 0.19 0.20 0.25 0.32 0.34 0.31 0.36 0.45 0.50 0.45 0.35 0.34 0.38 0.52 0.66 0.74 0.77 0.85 0.98 1.09 1.08 1.04 1.09 1.12 0.98 0.91 0.93 0.88 0.86 0.84 0.75 0.65 0.55
0.06 0.05 0.04 0.03 0.02 0.04 0.19 0.59 0.67 0.30 0.20 0.18 0.19 0.27 0.40 0.40 0.37 0.37 0.40 0.40 0.37 0.33 0.27 0.26 0.29 0.36 0.45 0.56 0.74 0.97 1.09 1.11 1.15 1.28 1.23 1.09 1.09 1.01 1.04 0.98 0.81 0.67 0.58

GEFSMA_prec_meanprecacc_096.txt.gz
Total_Precipitation_Accumulation
0.06 0.06 0.06 0.05 0.04 0.05 0.06 0.06 0.07 0.08 0.10 0.13 0.17 0.18 0.23 0.24 0.21 0.20 0.17 0.13 0.11 0.15 0.25 0.35 0.50 0.71 0.91 1.01 1.04 0.97 0.91 0.83 0.73 0.65 0.63 0.65 0.75 0.85 0.92 0.87 0.91 0.95 0.91
0.03 0.03 0.03 0.03 0.02 0.02 0.03 0.03 0.04 0.05 0.06 0.08 0.09 0.12 0.16 0.16 0.15 0.18 0.19 0.19 0.16 0.15 0.23 0.28 0.35 0.50 0.77 1.00 1.10 1.06 1.00 0.98 0.94 0.87 0.76 0.72 0.76 0.83 0.92 0.98 0.83 0.77 0.73
0.01 0.01 0.01 0.01 0.01 0.02 0.03 0.03 0.03 0.03 0.04 0.06 0.08 0.10 0.11 0.12 0.13 0.16 0.20 0.22 0.22 0.20 0.22 0.31 0.35 0.41 0.60 0.85 1.08 1.26 1.13 1.08 1.12 1.10 0.95 0.83 0.78 0.83 0.85 0.97 0.98 0.88 0.77
0.01 0.02 0.02 0.02 0.01 0.02 0.05 0.06 0.06 0.06 0.06 0.07 0.10 0.13 0.13 0.14 0.13 0.16 0.22 0.22 0.24 0.23 0.22 0.27 0.37 0.42 0.54 0.68 0.89 1.23 1.34 1.29 1.28 1.26 1.18 1.05 0.89 0.88 0.90 0.94 1.01 1.02 0.96
0.02 0.02 0.03 0.04 0.05 0.06 0.09 0.11 0.10 0.12 0.11 0.10 0.12 0.16 0.18 0.21 0.22 0.22 0.27 0.28 0.27 0.25 0.25 0.26 0.31 0.35 0.44 0.59 0.78 1.05 1.34 1.49 1.47 1.46 1.40 1.30 1.14 0.97 0.95 0.98 1.02 1.11 1.12
0.01 0.01 0.01 0.03 0.06 0.10 0.13 0.15 0.13 0.13 0.15 0.17 0.22 0.24 0.28 0.29 0.27 0.22 0.26 0.32 0.32 0.29 0.32 0.31 0.30 0.29 0.31 0.40 0.60 0.85 1.14 1.42 1.55 1.58 1.61 1.57 1.44 1.25 1.05 0.99 0.99 1.09 1.22
0.00 0.00 0.01 0.01 0.01 0.03 0.06 0.08 0.11 0.11 0.11 0.12 0.17 0.19 0.20 0.23 0.22 0.19 0.22 0.30 0.38 0.42 0.43 0.44 0.42 0.37 0.34 0.34 0.35 0.50 0.76 1.12 1.44 1.59 1.68 1.70 1.65 1.53 1.33 1.13 1.04 1.06 1.17
0.00 0.00 0.00 0.00 0.00 0.01 0.01 0.01 0.03 0.06 0.06 0.06 0.13 0.17 0.15 0.14 0.13 0.13 0.16 0.23 0.32 0.41 0.46 0.49 0.51 0.51 0.46 0.41 0.30 0.29 0.41 0.70 1.10 1.50 1.71 1.81 1.91 1.86 1.67 1.42 1.24 1.18 1.20
0.00 0.00 0.00 0.00 0.00 0.00 0.01 0.01 0.02 0.04 0.05 0.04 0.07 0.20 0.27 0.21 0.14 0.07 0.09 0.13 0.18 0.22 0.29 0.36 0.44 0.50 0.52 0.51 0.43 0.33 0.30 0.46 0.74 1.14 1.58 1.88 2.09 2.26 2.16 1.83 1.57 1.43 1.36
0.00 0.00 0.00 0.00 0.01 0.01 0.01 0.01 0.02 0.03 0.06 0.07 0.06 0.10 0.18 0.22 0.28 0.15 0.04 0.04 0.05 0.08 0.11 0.17 0.24 0.32 0.41 0.46 0.49 0.51 0.46 0.43 0.64 0.86 1.22 1.69 2.13 2.50 2.71 2.45 2.00 1.67 1.52
0.00 0.00 0.00 0.01 0.01 0.01 0.02 0.02 0.03 0.04 0.06 0.09 0.12 0.13 0.13 0.12 0.17 0.27 0.13 0.02 0.02 0.03 0.04 0.08 0.12 0.18 0.26 0.35 0.43 0.51 0.58 0.57 0.70 0.85 1.01 1.35 1.83 2.44 2.89 2.88 2.51 2.08 1.73
0.01 0.01 0.01 0.01 0.02 0.02 0.03 0.04 0.05 0.06 0.08 0.10 0.13 0.16 0.20 0.23 0.20 0.26 0.23 0.08 0.03 0.02 0.03 0.04 0.07 0.13 0.21 0.30 0.39 0.53 0.61 0.65 0.73 0.86 0.87 1.04 1.38 1.92 2.61 2.99 2.88 2.54 2.15
0.01 0.01 0.02 0.03 0.04 0.04 0.05 0.06 0.09 0.10 0.12 0.15 0.15 0.17 0.19 0.21 0.22 0.29 0.33 0.19 0.08 0.03 0.02 0.04 0.06 0.11 0.19 0.26 0.32 0.42 0.49 0.54 0.61 0.71 0.74 0.73 0.85 1.25 1.96 2.72 3.10 2.98 2.66
0.01 0.02 0.03 0.04 0.05 0.06 0.07 0.10 0.12 0.14 0.17 0.19 0.19 0.21 0.23 0.21 0.24 0.30 0.36 0.39 0.28 0.09 0.03 0.03 0.04 0.09 0.14 0.19 0.26 0.34 0.35 0.40 0.44 0.54 0.63 0.63 0.62 0.71 1.12 1.90 2.71 3.20 3.13
0.01 0.02 0.04 0.07 0.09 0.10 0.11 0.13 0.16 0.18 0.20 0.22 0.24 0.26 0.29 0.28 0.27 0.27 0.31 0.42 0.57 0.41 0.11 0.03 0.05 0.08 0.12 0.15 0.21 0.27 0.27 0.32 0.37 0.41 0.49 0.55 0.57 0.58 0.71 1.02 1.72 2.56 3.17
0.03 0.04 0.06 0.09 0.12 0.15 0.17 0.20 0.21 0.21 0.23 0.24 0.27 0.31 0.33 0.33 0.32 0.31 0.33 0.35 0.46 0.57 0.34 0.07 0.06 0.09 0.13 0.16 0.21 0.25 0.24 0.30 0.34 0.38 0.39 0.42 0.48 0.55 0.62 0.74 1.01 1.66 2.40
0.05 0.07 0.08 0.09 0.11 0.16 0.20 0.24 0.25 0.28 0.31 0.31 0.32 0.36 0.35 0.36 0.40 0.40 0.39 0.40 0.39 0.47 0.46 0.12 0.05 0.08 0.16 0.22 0.21 0.22 0.23 0.24 0.27 0.34 0.37 0.36 0.38 0.44 0.51 0.59 0.71 1.04 1.68
0.10 0.11 0.12 0.14 0.15 0.18 0.23 0.27 0.30 0.32 0.37 0.42 0.43 0.43 0.42 0.42 0.44 0.45 0.49 0.48 0.43 0.41 0.47 0.29 0.09 0.08 0.14 0.23 0.26 0.25 0.24 0.22 0.23 0.28 0.33 0.36 0.37 0.40 0.44 0.51 0.58 0.69 1.05
0.18 0.19 0.21 0.24 0.25 0.27 0.34 0.35 0.36 0.40 0.42 0.45 0.49 0.53 0.53 0.53 0.53 0.51 0.55 0.56 0.52 0.45 0.45 0.42 0.21 0.12 0.16 0.23 0.29 0.29 0.28 0.27 0.26 0.29 0.30 0.35 0.40 0.43 0.43 0.45 0.49 0.56 0.66
0.28 0.32 0.35 0.38 0.39 0.44 0.62 0.68 0.56 0.50 0.49 0.50 0.53 0.57 0.61 0.66 0.67 0.68 0.72 0.70 0.66 0.61 0.52 0.46 0.34 0.24 0.24 0.27 0.33 0.34 0.31 0.30 0.34 0.34 0.33 0.33 0.38 0.42 0.44 0.41 0.37 0.40 0.52
0.38 0.41 0.43 0.44 0.46 0.58 0.94 1.09 0.84 0.69 0.60 0.56 0.55 0.58 0.62 0.70 0.84 0.98 1.07 0.99 0.83 0.77 0.68 0.59 0.47 0.36 0.33 0.36 0.44 0.42 0.41 0.34 0.38 0.44 0.41 0.34 0.32 0.31 0.35 0.42 0.45 0.45 0.46
0.40 0.41 0.43 0.42 0.41 0.55 0.91 1.07 0.85 0.66 0.51 0.49 0.50 0.48 0.49 0.55 0.64 0.75 0.89 0.88 0.81 0.89 0.91 0.79 0.65 0.56 0.45 0.43 0.50 0.57 0.58 0.54 0.47 0.45 0.46 0.44 0.40 0.39 0.37 0.36 0.46 0.47 0.50
0.28 0.27 0.27 0.26 0.25 0.35 0.73 0.90 0.71 0.43 0.30 0.33 0.35 0.36 0.36 0.40 0.46 0.46 0.55 0.56 0.60 0.67 0.79 0.87 0.87 0.73 0.61 0.54 0.61 0.68 0.71 0.69 0.53 0.51 0.56 0.62 0.60 0.53 0.49 0.49 0.54 0.49 0.50
0.17 0.15 0.13 0.11 0.10 0.17 0.54 0.78 0.59 0.25 0.19 0.24 0.29 0.33 0.33 0.35 0.40 0.49 0.54 0.48 0.43 0.45 0.59 0.75 0.92 0.88 0.78 0.76 0.86 0.95 0.96 0.92 0.80 0.72 0.69 0.79 0.80 0.74 0.68 0.63 0.60 0.52 0.49
0.10 0.08 0.06 0.05 0.04 0.07 0.35 0.73 0.58 0.22 0.19 0.21 0.25 0.32 0.35 0.32 0.37 0.46 0.51 0.46 0.36 0.34 0.38 0.54 0.70 0.79 0.81 0.87 1.00 1.14 1.13 1.10 1.12 1.12 0.99 0.93 0.93 0.88 0.86 0.84 0.75 0.65 0.55
0.06 0.05 0.04 0.03 0.02 0.04 0.19 0.59 0.68 0.30 0.21 0.18 0.19 0.27 0.40 0.41 0.37 0.38 0.42 0.42 0.39 0.34 0.28 0.27 0.31 0.41 0.53 0.65 0.83 1.05 1.15 1.15 1.17 1.28 1.24 1.09 1.09 1.02 1.05 0.98 0.81 0.67 0.58

GEFSMA_prec_meanprecacc_102.txt.gz
Total_Precipitation_Accumulation
0.06 0.06 0.06 0.05 0.04 0.05 0.06 0.06 0.07 0.08 0.10 0.13 0.17 0.18 0.23 0.24 0.21 0.20 0.17 0.13 0.11 0.15 0.25 0.35 0.50 0.71 0.91 1.01 1.04 0.97 0.91 0.83 0.73 0.65 0.63 0.65 0.76 0.86 0.92 0.87 0.91 0.95 0.91
0.03 0.03 0.03 0.03 0.02 0.02 0.03 0.03 0.04 0.05 0.06 0.08 0.09 0.12 0.16 0.16 0.15 0.18 0.19 0.19 0.16 0.15 0.23 0.28 0.35 0.50 0.77 1.00 1.10 1.06 1.00 0.98 0.94 0.87 0.76 0.72 0.76 0.83 0.92 0.98 0.83 0.77 0.73
0.01 0.01 0.01 0.01 0.01 0.02 0.03 0.03 0.03 0.03 0.04 0.06 0.08 0.10 0.11 0.12 0.13 0.16 0.20 0.22 0.22 0.20 0.22 0.31 0.35 0.41 0.60 0.85 1.08 1.26 1.13 1.08 1.12 1.10 0.95 0.83 0.78 0.83 0.85 0.97 0.99 0.89 0.77
0.01 0.02 0.02 0.02 0.01 0.02 0.05 0.06 0.06 0.06 0.06 0.07 0.10 0.13 0.13 0.14 0.13 0.16 0.22 0.22 0.24 0.23 0.22 0.27 0.37 0.42 0.54 0.68 0.89 1.23 1.34 1.29 1.28 1.26 1.18 1.06 0.89 0.88 0.90 0.94 1.02 1.03 0.96
0.02 0.02 0.03 0.04 0.05 0.06 0.09 0.11 0.10 0.12 0.11 0.10 0.12 0.16 0.18 0.21 0.22 0.22 0.27 0.28 0.27 0.25 0.25 0.26 0.31 0.35 0.44 0.59 0.78 1.05 1.34 1.49 1.47 1.46 1.40 1.30 1.14 0.97 0.95 0.98 1.02 1.11 1.12
0.01 0.01 0.01 0.03 0.06 0.10 0.13 0.15 0.13 0.13 0.15 0.17 0.22 0.24 0.28 0.29 0.27 0.22 0.26 0.32 0.32 0.29 0.32 0.31 0.30 0.29 0.31 0.40 0.60 0.85 1.14 1.42 1.55 1.58 1.61 1.57 1.44 1.25 1.05 0.99 0.99 1.10 1.22
0.00 0.00 0.01 0.01 0.01 0.03 0.06 0.08 0.11 0.11 0.11 0.12 0.17 0.19 0.20 0.23 0.22 0.19 0.22 0.30 0.38 0.42 0.43 0.44 0.42 0.37 0.34 0.34 0.35 0.50 0.76 1.12 1.44 1.59 1.68 1.71 1.65 1.53 1.33 1.14 1.05 1.07 1.18
0.00 0.00 0.00 0.00 0.00 0.01 0.01 0.01 0.03 0.06 0.06 0.06 0.13 0.17 0.15 0.14 0.13 0.13 0.16 0.23 0.32 0.41 0.46 0.49 0.51 0.51 0.46 0.41 0.30 0.29 0.41 0.70 1.10 1.50 1.71 1.82 1.91 1.87 1.67 1.43 1.25 1.19 1.21
0.00 0.00 0.00 0.00 0.00 0.00 0.01 0.01 0.02 0.04 0.05 0.04 0.07 0.20 0.27 0.21 0.14 0.07 0.09 0.13 0.18 0.22 0.29 0.36 0.44 0.50 0.52 0.51 0.43 0.33 0.30 0.46 0.74 1.14 1.58 1.88 2.09 2.26 2.16 1.84 1.58 1.44 1.37
0.00 0.00 0.00 0.00 0.01 0.01 0.01 0.01 0.02 0.03 0.06 0.07 0.06 0.10 0.18 0.22 0.28 0.15 0.04 0.04 0.05 0.08 0.11 0.17 0.24 0.32 0.41 0.46 0.49 0.51 0.46 0.43 0.64 0.86 1.22 1.69 2.13 2.51 2.72 2.46 2.02 1.68 1.54
0.00 0.00 0.00 0.01 0.01 0.01 0.02 0.02 0.03 0.04 0.06 0.09 0.12 0.13 0.13 0.12 0.17 0.27 0.13 0.02 0.02 0.03 0.04 0.08 0.12 0.18 0.26 0.35 0.43 0.51 0.58 0.57 0.70 0.85 1.01 1.35 1.84 2.45 2.89 2.89 2.53 2.10 1.76
0.01 0.01 0.01 0.01 0.02 0.02 0.03 0.04 0.05 0.06 0.08 0.10 0.13 0.16 0.20 0.23 0.20 0.26 0.23 0.08 0.03 0.02 0.03 0.04 0.07 0.13 0.21 0.30 0.39 0.53 0.61 0.65 0.73 0.86 0.87 1.04 1.38 1.92 2.62 3.00 2.89 2.56 2.17
0.01 0.01 0.02 0.03 0.04 0.04 0.05 0.06 0.09 0.10 0.12 0.15 0.15 0.17 0.19 0.21 0.22 0.29 0.33 0.19 0.08 0.03 0.02 0.04 0.06 0.11 0.19 0.26 0.32 0.42 0.49 0.54 0.61 0.71 0.74 0.73 0.85 1.25 1.96 2.72 3.10 2.99 2.68
0.01 0.02 0.03 0.04 0.05 0.06 0.07 0.10 0.12 0.14 0.17 0.19 0.19 0.21 0.23 0.21 0.24 0.30 0.36 0.39 0.28 0.09 0.03 0.03 0.04 0.09 0.14 0.19 0.26 0.34 0.35 0.40 0.44 0.54 0.63 0.63 0.62 0.71 1.12 1.90 2.71 3.20 3.14
0.01 0.02 0.04 0.07 0.09 0.10 0.11 0.13 0.16 0.18 0.20 0.22 0.24 0.26 0.29 0.28 0.27 0.27 0.31 0.42 0.57 0.41 0.11 0.03 0.05 0.08 0.12 0.15 0.21 0.27 0.27 0.32 0.37 0.41 0.49 0.55 0.57 0.58 0.71 1.02 1.72 2.56 3.18
0.03 0.04 0.06 0.09 0.12 0.15 0.17 0.20 0.21 0.21 0.23 0.24 0.27 0.31 0.33 0.33 0.32 0.31 0.33 0.35 0.46 0.57 0.35 0.07 0.06 0.09 0.14 0.16 0.21 0.25 0.24 0.30 0.34 0.38 0.39 0.42 0.49 0.56 0.62 0.74 1.01 1.66 2.41
0.05 0.07 0.08 0.09 0.11 0.16 0.20 0.24 0.25 0.28 0.31 0.31 0.32 0.36 0.35 0.36 0.40 0.40 0.39 0.40 0.39 0.47 0.47 0.13 0.05 0.08 0.16 0.22 0.22 0.23 0.23 0.24 0.27 0.34 0.37 0.36 0.39 0.44 0.52 0.60 0.72 1.05 1.69
0.10 0.11 0.12 0.14 0.15 0.18 0.23 0.27 0.30 0.32 0.37 0.42 0.43 0.43 0.42 0.42 0.44 0.45 0.49 0.48 0.43 0.41 0.47 0.29 0.09 0.08 0.14 0.23 0.26 0.26 0.24 0.23 0.23 0.29 0.33 0.36 0.37 0.41 0.45 0.52 0.59 0.70 1.06
0.18 0.19 0.21 0.24 0.25 0.27 0.34 0.35 0.36 0.40 0.42 0.45 0.49 0.53 0.53 0.53 0.53 0.51 0.55 0.56 0.53 0.45 0.46 0.43 0.22 0.12 0.16 0.23 0.29 0.29 0.28 0.27 0.26 0.29 0.31 0.36 0.41 0.43 0.44 0.46 0.50 0.57 0.67
0.28 0.32 0.35 0.38 0.39 0.44 0.62 0.68 0.56 0.50 0.49 0.50 0.53 0.57 0.62 0.66 0.67 0.68 0.72 0.70 0.66 0.62 0.53 0.47 0.34 0.25 0.24 0.27 0.34 0.35 0.31 0.31 0.34 0.35 0.33 0.33 0.38 0.43 0.44 0.42 0.39 0.42 0.54
0.38 0.41 0.43 0.44 0.46 0.58 0.94 1.09 0.84 0.69 0.60 0.56 0.55 0.59 0.62 0.71 0.85 0.99 1.08 1.00 0.84 0.79 0.70 0.61 0.49 0.37 0.33 0.37 0.45 0.42 0.41 0.35 0.38 0.44 0.41 0.34 0.32 0.31 0.36 0.43 0.46 0.46 0.48
0.40 0.41 0.43 0.42 0.41 0.55 0.91 1.08 0.86 0.67 0.52 0.50 0.50 0.48 0.50 0.56 0.66 0.77 0.92 0.91 0.85 0.94 0.95 0.83 0.69 0.58 0.46 0.43 0.51 0.57 0.59 0.54 0.48 0.45 0.46 0.44 0.40 0.39 0.37 0.37 0.46 0.48 0.51
0.28 0.27 0.27 0.26 0.25 0.35 0.73 0.90 0.72 0.45 0.31 0.34 0.36 0.36 0.37 0.40 0.46 0.47 0.56 0.58 0.63 0.71 0.84 0.92 0.93 0.76 0.63 0.56 0.63 0.71 0.73 0.70 0.54 0.51 0.56 0.63 0.60 0.54 0.49 0.49 0.54 0.49 0.50
0.17 0.15 0.13 0.11 0.10 0.17 0.54 0.79 0.60 0.26 0.20 0.24 0.30 0.33 0.33 0.35 0.41 0.50 0.55 0.49 0.44 0.46 0.62 0.79 0.97 0.91 0.80 0.79 0.89 0.98 0.99 0.95 0.82 0.73 0.70 0.79 0.80 0.74 0.68 0.63 0.60 0.52 0.49
0.10 0.08 0.06 0.05 0.04 0.07 0.35 0.73 0.59 0.23 0.19 0.21 0.26 0.33 0.35 0.32 0.38 0.48 0.54 0.48 0.37 0.35 0.40 0.56 0.73 0.83 0.85 0.92 1.05 1.20 1.21 1.18 1.17 1.13 0.99 0.94 0.93 0.88 0.86 0.84 0.75 0.65 0.55
0.06 0.05 0.04 0.03 0.03 0.04 0.19 0.60 0.69 0.31 0.22 0.19 0.20 0.28 0.41 0.42 0.39 0.41 0.45 0.45 0.42 0.35 0.29 0.28 0.32 0.43 0.56 0.70 0.91 1.15 1.23 1.21 1.22 1.31 1.24 1.10 1.10 1.02 1.06 0.99 0.81 0.67 0.58

GEFSMA_prec_meanprecacc_108.txt.gz
Total_Precipitation_Accumulation
0.06 0.06 0.06 0.05 0.04 0.05 0.06 0.06 0.07 0.08 0.10 0.13 0.17 0.18 0.23 0.24 0.21 0.20 0.17 0.13 0.11 0.15 0.25 0.35 0.50 0.71 0.91 1.01 1.04 0.97 0.91 0.83 0.73 0.65 0.63 0.65 0.76 0.86 0.92 0.87 0.91 0.95 0.91
0.03 0.03 0.03 0.03 0.02 0.02 0.03 0.03 0.04 0.05 0.06 0.08 0.09 0.12 0.16 0.16 0.15 0.18 0.19 0.19 0.16 0.15 0.23 0.28 0.35 0.50 0.77 1.00 1.10 1.06 1.00 0.98 0.94 0.87 0.76 0.72 0.76 0.83 0.92 0.98 0.83 0.77 0.73
0.01 0.01 0.01 0.01 0.01 0.02 0.03 0.03 0.03 0.03 0.04 0.06 0.08 0.10 0.11 0.12 0.13 0.16 0.20 0.22 0.22 0.20 0.22 0.31 0.35 0.41 0.60 0.85 1.08 1.26 1.13 1.08 1.12 1.10 0.95 0.84 0.78 0.83 0.85 0.97 0.99 0.89 0.77
0.01 0.02 0.02 0.02 0.01 0.02 0.05 0.06 0.06 0.06 0.06 0.07 0.10 0.13 0.13 0.14 0.13 0.16 0.22 0.22 0.24 0.23 0.22 0.27 0.37 0.42 0.54 0.68 0.89 1.23 1.34 1.29 1.28 1.27 1.19 1.06 0.89 0.88 0.90 0.95 1.02 1.03 0.96
0.02 0.02 0.03 0.05 0.05 0.07 0.09 0.11 0.10 0.12 0.11 0.10 0.12 0.16 0.18 0.21 0.22 0.22 0.27 0.28 0.27 0.25 0.25 0.26 0.31 0.35 0.44 0.59 0.78 1.05 1.34 1.49 1.47 1.46 1.40 1.30 1.14 0.98 0.96 0.99 1.03 1.12 1.13
0.01 0.01 0.02 0.03 0.06 0.10 0.13 0.15 0.13 0.13 0.15 0.17 0.22 0.24 0.28 0.29 0.27 0.22 0.26 0.32 0.32 0.29 0.32 0.31 0.30 0.29 0.31 0.40 0.60 0.85 1.14 1.42 1.55 1.58 1.61 1.58 1.44 1.26 1.06 1.00 1.00 1.10 1.23
0.00 0.00 0.01 0.01 0.01 0.03 0.06 0.08 0.11 0.11 0.11 0.12 0.17 0.19 0.20 0.23 0.22 0.19 0.22 0.30 0.38 0.42 0.43 0.44 0.42 0.37 0.34 0.34 0.35 0.50 0.76 1.12 1.44 1.59 1.68 1.71 1.66 1.54 1.34 1.15 1.06 1.08 1.19
0.00 0.00 0.00 0.00 0.00 0.01 0.01 0.01 0.03 0.06 0.06 0.06 0.13 0.17 0.15 0.14 0.13 0.13 0.16 0.23 0.32 0.41 0.46 0.49 0.51 0.51 0.46 0.41 0.30 0.29 0.41 0.70 1.10 1.50 1.71 1.82 1.92 1.88 1.69 1.45 1.27 1.21 1.23
0.00 0.00 0.00 0.00 0.00 0.00 0.01 0.01 0.02 0.04 0.05 0.04 0.07 0.20 0.27 0.21 0.14 0.07 0.09 0.13 0.18 0.22 0.29 0.36 0.44 0.50 0.52 0.51 0.43 0.33 0.30 0.46 0.74 1.14 1.58 1.88 2.10 2.27 2.18 1.86 1.60 1.47 1.40
0.00 0.00 0.00 0.00 0.01 0.01 0.01 0.01 0.02 0.03 0.06 0.07 0.06 0.10 0.18 0.22 0.28 0.15 0.04 0.04 0.05 0.08 0.11 0.17 0.24 0.32 0.41 0.46 0.49 0.51 0.46 0.43 0.64 0.86 1.22 1.69 2.14 2.51 2.73 2.48 2.04 1.71 1.57
0.00 0.00 0.00 0.01 0.01 0.01 0.02 0.02 0.03 0.04 0.06 0.09 0.12 0.13 0.13 0.12 0.17 0.27 0.13 0.02 0.02 0.03 0.04 0.08 0.12 0.18 0.26 0.35 0.43 0.51 0.58 0.57 0.70 0.85 1.01 1.35 1.84 2.45 2.91 2.92 2.56 2.13 1.80
0.01 0.01 0.01 0.01 0.02 0.02 0.03 0.04 0.05 0.06 0.08 0.10 0.13 0.16 0.20 0.23 0.20 0.26 0.23 0.08 0.03 0.02 0.03 0.04 0.07 0.13 0.21 0.30 0.39 0.53 0.61 0.65 0.73 0.86 0.87 1.04 1.38 1.92 2.62 3.02 2.92 2.60 2.22
0.01 0.01 0.02 0.03 0.04 0.04 0.05 0.06 0.09 0.10 0.12 0.15 0.15 0.17 0.19 0.21 0.22 0.29 0.33 0.19 0.08 0.03 0.02 0.04 0.06 0.11 0.19 0.26 0.32 0.42 0.49 0.54 0.61 0.71 0.74 0.73 0.85 1.25 1.96 2.73 3.12 3.02 2.73
0.01 0.02 0.03 0.04 0.05 0.06 0.07 0.10 0.12 0.14 0.17 0.19 0.19 0.21 0.23 0.21 0.24 0.30 0.36 0.39 0.28 0.09 0.03 0.03 0.04 0.09 0.14 0.19 0.26 0.34 0.35 0.40 0.44 0.54 0.63 0.63 0.62 0.71 1.12 1.90 2.72 3.22 3.16
0.01 0.02 0.04 0.07 0.09 0.10 0.11 0.13 0.16 0.18 0.20 0.22 0.24 0.26 0.29 0.28 0.27 0.27 0.31 0.42 0.57 0.41 0.11 0.03 0.05 0.08 0.12 0.15 0.21 0.27 0.27 0.32 0.37 0.41 0.49 0.56 0.57 0.59 0.71 1.03 1.73 2.56 3.18
0.03 0.04 0.06 0.09 0.12 0.15 0.17 0.20 0.21 0.21 0.23 0.24 0.27 0.31 0.33 0.33 0.32 0.31 0.33 0.35 0.47 0.57 0.35 0.07 0.06 0.09 0.14 0.16 0.21 0.25 0.24 0.30 0.34 0.38 0.39 0.42 0.49 0.56 0.63 0.75 1.02 1.67 2.42
0.05 0.07 0.08 0.09 0.11 0.16 0.20 0.24 0.25 0.28 0.31 0.31 0.32 0.36 0.35 0.36 0.40 0.40 0.40 0.40 0.40 0.48 0.47 0.13 0.05 0.08 0.16 0.22 0.22 0.23 0.23 0.24 0.27 0.34 0.37 0.36 0.39 0.45 0.53 0.61 0.73 1.06 1.70
0.10 0.11 0.12 0.14 0.15 0.18 0.23 0.27 0.30 0.32 0.37 0.42 0.43 0.43 0.42 0.42 0.44 0.45 0.49 0.48 0.43 0.41 0.48 0.30 0.09 0.08 0.14 0.23 0.26 0.26 0.24 0.23 0.23 0.29 0.33 0.37 0.38 0.42 0.46 0.53 0.61 0.72 1.08
0.18 0.19 0.21 0.24 0.25 0.27 0.34 0.35 0.36 0.40 0.42 0.45 0.49 0.53 0.53 0.53 0.53 0.52 0.55 0.57 0.53 0.46 0.46 0.44 0.23 0.13 0.17 0.23 0.29 0.30 0.28 0.27 0.26 0.29 0.31 0.36 0.41 0.45 0.45 0.48 0.53 0.60 0.70
0.28 0.32 0.35 0.38 0.39 0.44 0.62 0.68 0.56 0.50 0.49 0.50 0.53 0.57 0.62 0.66 0.68 0.68 0.73 0.71 0.67 0.63 0.54 0.49 0.36 0.26 0.25 0.27 0.34 0.35 0.32 0.31 0.34 0.35 0.34 0.33 0.38 0.43 0.45 0.43 0.40 0.44 0.57
0.38 0.41 0.43 0.44 0.46 0.58 0.94 1.09 0.84 0.69 0.61 0.57 0.55 0.59 0.63 0.72 0.86 1.01 1.11 1.02 0.87 0.83 0.74 0.66 0.53 0.40 0.36 0.39 0.46 0.43 0.42 0.36 0.39 0.44 0.41 0.34 0.32 0.32 0.36 0.43 0.47 0.48 0.50
0.40 0.41 0.43 0.42 0.41 0.55 0.91 1.08 0.87 0.67 0.53 0.51 0.51 0.49 0.50 0.57 0.67 0.79 0.95 0.96 0.90 0.99 1.02 0.90 0.76 0.64 0.50 0.45 0.53 0.60 0.62 0.58 0.50 0.46 0.46 0.44 0.40 0.39 0.37 0.37 0.46 0.49 0.52
0.28 0.27 0.27 0.26 0.25 0.35 0.73 0.91 0.73 0.46 0.32 0.34 0.36 0.37 0.37 0.41 0.48 0.48 0.57 0.61 0.66 0.75 0.89 0.99 1.00 0.82 0.67 0.59 0.68 0.77 0.78 0.73 0.56 0.53 0.57 0.64 0.60 0.54 0.49 0.49 0.55 0.50 0.51
0.17 0.15 0.13 0.11 0.10 0.17 0.54 0.80 0.61 0.27 0.21 0.25 0.30 0.34 0.34 0.36 0.41 0.51 0.56 0.50 0.45 0.47 0.63 0.81 1.00 0.94 0.83 0.82 0.93 1.04 1.04 1.00 0.86 0.74 0.72 0.82 0.80 0.74 0.69 0.63 0.60 0.52 0.49
0.10 0.08 0.06 0.05 0.04 0.07 0.35 0.74 0.60 0.24 0.20 0.22 0.26 0.33 0.36 0.33 0.39 0.51 0.57 0.51 0.39 0.37 0.41 0.59 0.77 0.86 0.89 0.97 1.12 1.29 1.31 1.29 1.26 1.16 1.01 0.96 0.94 0.89 0.87 0.84 0.75 0.65 0.56
0.06 0.05 0.04 0.03 0.03 0.04 0.19 0.60 0.70 0.32 0.22 0.20 0.20 0.28 0.42 0.44 0.42 0.44 0.49 0.49 0.46 0.38 0.31 0.30 0.34 0.45 0.58 0.72 0.95 1.21 1.31 1.31 1.31 1.37 1.26 1.12 1.11 1.04 1.08 0.99 0.81 0.67 0.59

GEFSMA_prec_meanprecacc_114.txt.gz
Total_Precipitation_Accumulation
0.06 0.06 0.06 0.05 0.04 0.05 0.06 0.06 0.07 0.08 0.10 0.13 0.17 0.18 0.23 0.24 0.21 0.20 0.17 0.13 0.11 0.15 0.25 0.35 0.50 0.71 0.91 1.01 1.04 0.97 0.91 0.83 0.73 0.65 0.63 0.65 0.76 0.86 0.92 0.87 0.91 0.95 0.91
0.03 0.03 0.03 0.03 0.02 0.02 0.03 0.03 0.04 0.05 0.06 0.08 0.09 0.12 0.16 0.16 0.15 0.18 0.19 0.19 0.16 0.15 0.23 0.28 0.35 0.50 0.77 1.00 1.10 1.07 1.01 0.98 0.94 0.88 0.76 0.73 0.76 0.83 0.92 0.98 0.83 0.77 0.74
0.01 0.01 0.01 0.01 0.01 0.02 0.03 0.03 0.03 0.03 0.04 0.06 0.08 0.10 0.11 0.12 0.13 0.16 0.20 0.22 0.22 0.20 0.22 0.31 0.35 0.41 0.60 0.85 1.08 1.26 1.13 1.09 1.13 1.11 0.96 0.85 0.79 0.84 0.86 0.97 0.99 0.89 0.78
0.01 0.02 0.02 0.02 0.01 0.02 0.05 0.06 0.06 0.06 0.06 0.07 0.10 0.13 0.13 0.14 0.13 0.16 0.22 0.22 0.24 0.23 0.22 0.27 0.37 0.42 0.54 0.68 0.89 1.23 1.34 1.30 1.29 1.27 1.20 1.07 0.90 0.90 0.92 0.96 1.03 1.04 0.97
0.02 0.02 0.03 0.05 0.05 0.07 0.09 0.11 0.10 0.12 0.11 0.10 0.12 0.16 0.18 0.21 0.22 0.22 0.27 0.28 0.27 0.25 0.25 0.26 0.31 0.35 0.44 0.59 0.78 1.05 1.34 1.49 1.47 1.47 1.41 1.32 1.16 1.00 0.98 1.01 1.05 1.14 1.14
0.01 0.01 0.02 0.03 0.06 0.10 0.13 0.15 0.13 0.13 0.15 0.17 0.22 0.24 0.28 0.29 0.27 0.22 0.26 0.32 0.32 0.29 0.32 0.31 0.30 0.29 0.31 0.40 0.60 0.85 1.14 1.42 1.55 1.59 1.62 1.59 1.46 1.28 1.09 1.03 1.03 1.13 1.26
0.00 0.00 0.01 0.01 0.01 0.03 0.06 0.08 0.11 0.11 0.11 0.12 0.17 0.19 0.20 0.23 0.22 0.19 0.22 0.30 0.38 0.42 0.43 0.44 0.42 0.37 0.34 0.34 0.35 0.50 0.76 1.12 1.44 1.60 1.68 1.72 1.67 1.56 1.37 1.19 1.10 1.12 1.23
0.00 0.00 0.00 0.00 0.00 0.01 0.01 0.01 0.03 0.06 0.06 0.06 0.13 0.17 0.15 0.14 0.13 0.13 0.16 0.23 0.32 0.41 0.46 0.49 0.51 0.51 0.46 0.41 0.30 0.29 0.41 0.70 1.10 1.50 1.72 1.82 1.93 1.90 1.71 1.48 1.32 1.27 1.29
0.00 0.00 0.00 0.00 0.00 0.00 0.01 0.01 0.02 0.04 0.05 0.04 0.07 0.20 0.28 0.21 0.14 0.07 0.09 0.13 0.18 0.22 0.29 0.36 0.44 0.50 0.52 0.51 0.43 0.33 0.30 0.46 0.74 1.14 1.58 1.88 2.10 2.29 2.20 1.89 1.65 1.53 1.47
0.00 0.00 0.00 0.00 0.01 0.01 0.01 0.01 0.02 0.03 0.06 0.07 0.06 0.10 0.18 0.22 0.28 0.15 0.04 0.04 0.05 0.08 0.11 0.17 0.24 0.32 0.41 0.46 0.49 0.51 0.46 0.43 0.64 0.86 1.22 1.69 2.14 2.52 2.75 2.51 2.08 1.77 1.65
0.00 0.00 0.00 0.01 0.01 0.01 0.02 0.02 0.03 0.04 0.06 0.09 0.12 0.13 0.13 0.12 0.17 0.27 0.13 0.02 0.02 0.03 0.04 0.08 0.12 0.18 0.26 0.35 0.43 0.51 0.58 0.57 0.70 0.85 1.01 1.35 1.84 2.46 2.92 2.94 2.60 2.18 1.86
0.01 0.01 0.01 0.01 0.02 0.02 0.03 0.04 0.05 0.06 0.08 0.10 0.13 0.16 0.20 0.23 0.20 0.26 0.23 0.08 0.03 0.02 0.03 0.04 0.07 0.13 0.21 0.30 0.39 0.53 0.61 0.65 0.73 0.86 0.87 1.04 1.38 1.93 2.63 3.03 2.94 2.63 2.27
0.01 0.01 0.02 0.03 0.04 0.04 0.05 0.06 0.09 0.10 0.12 0.15 0.15 0.17 0.19 0.21 0.22 0.29 0.33 0.19 0.08 0.03 0.02 0.04 0.06 0.11 0.19 0.26 0.32 0.42 0.49 0.54 0.61 0.71 0.74 0.73 0.85 1.26 1.97 2.73 3.13 3.03 2.76
0.01 0.02 0.03 0.04 0.05 0.06 0.07 0.10 0.12 0.14 0.17 0.19 0.19 0.21 0.23 0.21 0.24 0.30 0.36 0.39 0.28 0.09 0.03 0.03 0.04 0.09 0.14 0.19 0.26 0.34 0.35 0.40 0.44 0.54 0.63 0.64 0.62 0.72 1.13 1.91 2.73 3.23 3.18
0.01 0.02 0.04 0.07 0.09 0.10 0.11 0.13 0.16 0.18 0.20 0.22 0.24 0.26 0.29 0.28 0.27 0.27 0.31 0.42 0.58 0.42 0.11 0.03 0.05 0.08 0.12 0.15 0.21 0.27 0.27 0.32 0.37 0.42 0.50 0.56 0.58 0.59 0.72 1.04 1.74 2.58 3.20
0.03 0.04 0.06 0.09 0.12 0.15 0.17 0.20 0.21 0.21 0.23 0.24 0.27 0.31 0.33 0.33 0.32 0.31 0.33 0.35 0.47 0.58 0.35 0.07 0.06 0.09 0.14 0.16 0.21 0.25 0.24 0.30 0.34 0.38 0.40 0.43 0.50 0.57 0.64 0.76 1.03 1.68 2.43
0.05 0.07 0.08 0.09 0.11 0.16 0.20 0.24 0.25 0.28 0.31 0.31 0.32 0.36 0.35 0.36 0.40 0.40 0.40 0.40 0.40 0.48 0.48 0.13 0.05 0.08 0.16 0.22 0.22 0.23 0.23 0.24 0.27 0.34 0.37 0.37 0.40 0.46 0.54 0.62 0.75 1.08 1.73
0.10 0.11 0.12 0.14 0.15 0.18 0.23 0.27 0.30 0.32 0.37 0.42 0.43 0.43 0.42 0.42 0.44 0.45 0.49 0.49 0.44 0.42 0.48 0.30 0.09 0.08 0.14 0.23 0.27 0.26 0.24 0.23 0.23 0.29 0.34 0.38 0.39 0.43 0.48 0.55 0.63 0.74 1.11
0.18 0.19 0.21 0.24 0.25 0.27 0.34 0.35 0.36 0.40 0.42 0.45 0.49 0.53 0.53 0.53 0.53 0.52 0.55 0.57 0.53 0.46 0.47 0.45 0.23 0.13 0.17 0.24 0.29 0.30 0.28 0.27 0.26 0.29 0.31 0.36 0.42 0.46 0.47 0.49 0.55 0.62 0.72
0.28 0.32 0.35 0.38 0.39 0.44 0.62 0.68 0.56 0.50 0.49 0.50 0.53 0.58 0.62 0.67 0.68 0.69 0.73 0.71 0.68 0.64 0.55 0.50 0.38 0.27 0.26 0.28 0.35 0.36 0.32 0.31 0.35 0.35 0.34 0.33 0.38 0.44 0.46 0.45 0.42 0.47 0.60
0.38 0.41 0.43 0.44 0.46 0.58 0.94 1.09 0.84 0.69 0.61 0.57 0.55 0.59 0.63 0.72 0.87 1.02 1.12 1.04 0.89 0.86 0.78 0.70 0.57 0.43 0.38 0.41 0.48 0.44 0.44 0.36 0.39 0.44 0.41 0.34 0.32 0.32 0.36 0.44 0.48 0.49 0.52
0.40 0.41 0.43 0.42 0.41 0.55 0.91 1.08 0.87 0.68 0.53 0.51 0.51 0.49 0.51 0.57 0.68 0.81 0.98 0.98 0.93 1.03 1.05 0.94 0.80 0.68 0.52 0.47 0.54 0.62 0.64 0.60 0.52 0.46 0.46 0.44 0.40 0.39 0.37 0.37 0.46 0.49 0.53
0.28 0.27 0.27 0.26 0.25 0.35 0.73 0.91 0.73 0.46 0.32 0.35 0.37 0.37 0.37 0.41 0.48 0.49 0.58 0.61 0.67 0.76 0.91 1.02 1.05 0.85 0.69 0.60 0.70 0.79 0.80 0.76 0.59 0.54 0.59 0.65 0.60 0.54 0.49 0.49 0.55 0.50 0.52
0.17 0.15 0.13 0.11 0.10 0.17 0.54 0.80 0.61 0.27 0.21 0.25 0.30 0.34 0.34 0.36 0.41 0.52 0.57 0.51 0.46 0.48 0.64 0.83 1.02 0.95 0.84 0.83 0.96 1.08 1.09 1.06 0.90 0.76 0.74 0.84 0.81 0.75 0.69 0.63 0.60 0.52 0.50
0.10 0.08 0.06 0.05 0.04 0.07 0.35 0.74 0.61 0.24 0.20 0.22 0.26 0.33 0.36 0.33 0.39 0.53 0.59 0.52 0.40 0.37 0.42 0.60 0.80 0.90 0.93 1.03 1.19 1.38 1.42 1.40 1.35 1.20 1.02 0.98 0.95 0.89 0.87 0.84 0.75 0.65 0.56
0.06 0.05 0.04 0.03 0.03 0.04 0.19 0.61 0.71 0.33 0.23 0.20 0.21 0.28 0.42 0.45 0.44 0.47 0.51 0.51 0.48 0.39 0.31 0.31 0.35 0.47 0.60 0.74 0.98 1.25 1.36 1.39 1.39 1.42 1.27 1.13 1.12 1.05 1.09 0.99 0.81 0.67 0.59

GEFSMA_prec_meanprecacc_120.txt.gz
Total_Precipitation_Accumulation
0.06 0.06 0.06 0.05 0.04 0.05 0.06 0.06 0.07 0.08 0.10 0.13 0.17 0.18 0.23 0.24 0.21 0.20 0.17 0.13 0.11 0.15 0.25 0.35 0.50 0.71 0.92 1.01 1.05 0.97 0.92 0.84 0.74 0.66 0.64 0.67 0.77 0.87 0.93 0.88 0.92 0.96 0.92
0.03 0.03 0.03 0.03 0.02 0.02 0.03 0.03 0.04 0.05 0.06 0.08 0.09 0.12 0.16 0.16 0.15 0.18 0.19 0.19 0.16 0.15 0.23 0.28 0.35 0.50 0.77 1.01 1.10 1.07 1.01 0.99 0.95 0.89 0.78 0.74 0.78 0.85 0.94 1.00 0.85 0.79 0.75
0.01 0.01 0.01 0.01 0.01 0.02 0.03 0.03 0.03 0.03 0.04 0.06 0.08 0.10 0.11 0.12 0.13 0.16 0.20 0.22 0.22 0.20 0.22 0.31 0.35 0.41 0.60 0.85 1.09 1.27 1.14 1.09 1.14 1.12 0.98 0.86 0.81 0.86 0.89 1.00 1.02 0.91 0.80
0.01 0.02 0.02 0.02 0.01 0.02 0.05 0.06 0.06 0.06 0.06 0.07 0.10 0.13 0.13 0.14 0.13 0.16 0.22 0.22 0.24 0.23 0.22 0.27 0.37 0.42 0.54 0.68 0.89 1.23 1.35 1.30 1.30 1.28 1.21 1.09 0.92 0.92 0.94 0.99 1.06 1.07 1.00
0.02 0.02 0.03 0.05 0.05 0.07 0.09 0.11 0.10 0.12 0.11 0.10 0.12 0.16 0.18 0.21 0.22 0.22 0.27 0.28 0.27 0.25 0.25 0.26 0.31 0.35 0.44 0.59 0.78 1.05 1.35 1.49 1.48 1.47 1.42 1.33 1.18 1.01 1.00 1.04 1.08 1.17 1.18
0.01 0.01 0.02 0.03 0.06 0.10 0.13 0.15 0.13 0.13 0.15 0.17 0.22 0.24 0.28 0.29 0.27 0.22 0.26 0.32 0.32 0.29 0.32 0.31 0.30 0.29 0.31 0.40 0.60 0.85 1.14 1.42 1.56 1.59 1.62 1.60 1.47 1.30 1.11 1.06 1.06 1.17 1.30
0.00 0.00 0.01 0.01 0.01 0.03 0.06 0.08 0.11 0.11 0.11 0.12 0.17 0.19 0.20 0.23 0.22 0.19 0.22 0.30 0.38 0.42 0.43 0.44 0.42 0.37 0.34 0.34 0.35 0.50 0.76 1.12 1.45 1.60 1.69 1.72 1.68 1.57 1.38 1.20 1.13 1.16 1.27
0.00 0.00 0.00 0.00 0.00 0.01 0.01 0.02 0.03 0.06 0.06 0.06 0.13 0.17 0.15 0.14 0.13 0.13 0.16 0.23 0.32 0.41 0.46 0.49 0.51 0.51 0.46 0.41 0.30 0.29 0.41 0.70 1.10 1.50 1.72 1.83 1.94 1.90 1.72 1.50 1.33 1.29 1.32
0.00 0.00 0.00 0.00 0.00 0.01 0.01 0.01 0.02 0.04 0.05 0.04 0.07 0.20 0.28 0.21 0.14 0.07 0.09 0.13 0.18 0.22 0.29 0.36 0.44 0.50 0.52 0.51 0.43 0.33 0.30 0.46 0.74 1.14 1.59 1.88 2.11 2.29 2.21 1.91 1.67 1.55 1.49
0.00 0.00 0.00 0.00 0.01 0.01 0.01 0.01 0.02 0.03 0.06 0.07 0.06 0.10 0.18 0.22 0.28 0.15 0.04 0.04 0.05 0.08 0.11 0.17 0.24 0.32 0.41 0.46 0.49 0.51 0.46 0.43 0.64 0.87 1.23 1.69 2.15 2.54 2.77 2.53 2.11 1.79 1.67
0.00 0.00 0.00 0.01 0.01 0.01 0.02 0.02 0.03 0.04 0.06 0.09 0.12 0.13 0.13 0.12 0.17 0.27 0.13 0.02 0.02 0.03 0.04 0.08 0.12 0.18 0.26 0.35 0.43 0.51 0.58 0.57 0.70 0.85 1.02 1.35 1.85 2.47 2.94 2.96 2.62 2.21 1.89
0.01 0.01 0.01 0.01 0.02 0.02 0.03 0.04 0.05 0.06 0.08 0.10 0.13 0.16 0.20 0.23 0.20 0.26 0.23 0.08 0.03 0.02 0.03 0.04 0.07 0.13 0.21 0.30 0.39 0.53 0.61 0.65 0.73 0.86 0.88 1.04 1.38 1.93 2.64 3.04 2.96 2.65 2.30
0.01 0.01 0.02 0.03 0.04 0.04 0.05 0.06 0.09 0.10 0.12 0.15 0.15 0.17 0.19 0.21 0.22 0.29 0.33 0.19 0.08 0.03 0.02 0.04 0.06 0.11 0.19 0.26 0.32 0.42 0.49 0.54 0.61 0.72 0.75 0.73 0.86 1.26 1.97 2.74 3.14 3.05 2.78
0.01 0.02 0.03 0.04 0.05 0.06 0.07 0.10 0.12 0.14 0.17 0.19 0.19 0.21 0.23 0.21 0.24 0.30 0.36 0.39 0.28 0.09 0.03 0.03 0.04 0.09 0.14 0.19 0.26 0.34 0.35 0.40 0.45 0.54 0.63 0.64 0.63 0.73 1.14 1.92 2.74 3.24 3.19
0.01 0.02 0.04 0.07 0.09 0.10 0.11 0.13 0.16 0.18 0.20 0.22 0.24 0.26 0.29 0.28 0.27 0.27 0.31 0.42 0.58 0.42 0.11 0.03 0.05 0.08 0.12 0.15 0.21 0.27 0.27 0.32 0.37 0.42 0.50 0.57 0.59 0.60 0.73 1.05 1.76 2.59 3.21
0.03 0.04 0.06 0.09 0.12 0.15 0.17 0.20 0.21 0.21 0.23 0.24 0.27 0.31 0.33 0.33 0.32 0.31 0.33 0.35 0.47 0.58 0.36 0.07 0.06 0.09 0.14 0.16 0.21 0.25 0.24 0.30 0.34 0.38 0.40 0.43 0.51 0.58 0.65 0.77 1.05 1.71 2.45
0.05 0.07 0.08 0.09 0.11 0.16 0.20 0.24 0.25 0.28 0.31 0.31 0.32 0.36 0.35 0.36 0.40 0.40 0.40 0.40 0.40 0.48 0.48 0.13 0.05 0.08 0.16 0.22 0.22 0.23 0.23 0.24 0.27 0.34 0.38 0.38 0.41 0.47 0.56 0.64 0.77 1.11 1.75
0.10 0.11 0.12 0.14 0.15 0.18 0.23 0.27 0.30 0.32 0.37 0.42 0.43 0.43 0.42 0.42 0.44 0.45 0.49 0.49 0.44 0.42 0.49 0.31 0.09 0.08 0.14 0.23 0.27 0.26 0.24 0.23 0.23 0.29 0.34 0.38 0.40 0.44 0.50 0.57 0.65 0.77 1.13
0.18 0.19 0.21 0.24 0.25 0.27 0.34 0.35 0.36 0.40 0.42 0.45 0.49 0.53 0.53 0.53 0.53 0.52 0.55 0.57 0.53 0.46 0.47 0.45 0.24 0.14 0.17 0.24 0.30 0.30 0.28 0.27 0.26 0.29 0.31 0.37 0.43 0.46 0.48 0.51 0.57 0.65 0.75
0.28 0.32 0.35 0.38 0.39 0.44 0.62 0.68 0.56 0.50 0.49 0.50 0.53 0.58 0.62 0.67 0.68 0.69 0.73 0.71 0.68 0.64 0.56 0.51 0.39 0.28 0.27 0.29 0.36 0.36 0.33 0.31 0.35 0.35 0.34 0.33 0.39 0.44 0.47 0.46 0.44 0.48 0.62
0.38 0.41 0.43 0.44 0.46 0.58 0.94 1.09 0.84 0.69 0.61 0.57 0.55 0.59 0.63 0.72 0.88 1.03 1.13 1.05 0.90 0.87 0.79 0.72 0.59 0.45 0.39 0.41 0.48 0.45 0.44 0.37 0.40 0.45 0.41 0.34 0.32 0.32 0.36 0.44 0.48 0.49 0.53
0.40 0.41 0.43 0.42 0.41 0.55 0.91 1.08 0.87 0.68 0.53 0.51 0.51 0.49 0.51 0.57 0.68 0.81 0.98 0.99 0.94 1.04 1.07 0.97 0.82 0.70 0.53 0.48 0.55 0.63 0.65 0.61 0.53 0.47 0.46 0.44 0.40 0.39 0.37 0.37 0.46 0.49 0.53
0.28 0.27 0.27 0.26 0.25 0.35 0.73 0.91 0.73 0.46 0.32 0.35 0.37 0.37 0.37 0.41 0.48 0.49 0.58 0.62 0.67 0.77 0.93 1.04 1.07 0.87 0.70 0.61 0.71 0.81 0.82 0.79 0.61 0.55 0.60 0.67 0.61 0.54 0.49 0.49 0.55 0.50 0.53
0.17 0.15 0.13 0.11 0.10 0.17 0.54 0.80 0.61 0.27 0.21 0.25 0.30 0.34 0.34 0.36 0.41 0.52 0.57 0.51 0.46 0.48 0.65 0.84 1.03 0.96 0.85 0.84 0.98 1.12 1.15 1.11 0.94 0.78 0.75 0.87 0.82 0.75 0.69 0.63 0.60 0.53 0.50
0.10 0.08 0.06 0.05 0.04 0.07 0.35 0.74 0.61 0.24 0.20 0.22 0.26 0.33 0.36 0.33 0.40 0.54 0.60 0.54 0.41 0.38 0.42 0.62 0.82 0.93 0.97 1.07 1.23 1.44 1.50 1.48 1.41 1.21 1.02 0.99 0.96 0.89 0.87 0.84 0.75 0.65 0.56
0.06 0.05 0.04 0.03 0.03 0.04 0.19 0.61 0.71 0.33 0.23 0.20 0.21 0.28 0.43 0.46 0.45 0.49 0.53 0.53 0.50 0.40 0.32 0.32 0.37 0.48 0.62 0.75 0.99 1.27 1.39 1.44 1.44 1.46 1.28 1.14 1.13 1.07 1.11 1.00 0.81 0.67 0.59

GEFSMA_prec_meanprecacc_126.txt.gz
Total_Precipitation_Accumulation
0.07 0.07 0.06 0.05 0.04 0.05 0.06 0.07 0.07 0.08 0.10 0.13 0.17 0.18 0.23 0.24 0.21 0.20 0.17 0.13 0.11 0.15 0.25 0.35 0.50 0.71 0.92 1.02 1.05 0.98 0.93 0.85 0.75 0.67 0.66 0.68 0.78 0.88 0.95 0.90 0.93 0.97 0.94
0.03 0.03 0.03 0.03 0.02 0.02 0.03 0.03 0.04 0.05 0.06 0.08 0.09 0.12 0.16 0.16 0.15 0.18 0.19 0.19 0.16 0.15 0.23 0.28 0.35 0.50 0.77 1.01 1.11 1.08 1.02 1.00 0.97 0.90 0.79 0.76 0.79 0.87 0.96 1.02 0.87 0.81 0.77
0.01 0.01 0.01 0.02 0.01 0.02 0.03 0.03 0.03 0.03 0.04 0.06 0.08 0.10 0.11 0.12 0.13 0.16 0.20 0.22 0.22 0.20 0.22 0.31 0.35 0.41 0.60 0.85 1.09 1.27 1.15 1.10 1.14 1.13 0.99 0.88 0.82 0.87 0.90 1.02 1.04 0.94 0.82
0.02 0.02 0.03 0.02 0.02 0.02 0.05 0.06 0.06 0.06 0.06 0.07 0.10 0.13 0.13 0.14 0.13 0.16 0.22 0.22 0.24 0.23 0.22 0.27 0.37 0.42 0.54 0.68 0.89 1.23 1.35 1.31 1.30 1.29 1.22 1.10 0.94 0.93 0.96 1.00 1.08 1.09 1.02
0.02 0.03 0.03 0.05 0.05 0.07 0.09 0.11 0.10 0.12 0.11 0.10 0.12 0.16 0.18 0.21 0.22 0.22 0.27 0.28 0.27 0.25 0.25 0.26 0.31 0.35 0.44 0.59 0.78 1.05 1.35 1.49 1.48 1.48 1.43 1.34 1.19 1.03 1.02 1.05 1.10 1.19 1.20
0.01 0.01 0.02 0.03 0.06 0.10 0.13 0.15 0.13 0.13 0.15 0.17 0.22 0.24 0.28 0.29 0.27 0.22 0.26 0.32 0.32 0.29 0.32 0.31 0.30 0.29 0.31 0.40 0.60 0.85 1.14 1.42 1.56 1.59 1.63 1.60 1.48 1.30 1.12 1.07 1.08 1.19 1.32
0.00 0.00 0.01 0.01 0.02 0.03 0.06 0.08 0.11 0.11 0.11 0.12 0.17 0.19 0.20 0.23 0.22 0.19 0.22 0.30 0.38 0.42 0.43 0.44 0.42 0.37 0.34 0.34 0.35 0.50 0.76 1.12 1.45 1.60 1.69 1.73 1.68 1.58 1.39 1.21 1.14 1.17 1.29
0.00 0.00 0.00 0.00 0.00 0.01 0.01 0.02 0.04 0.06 0.06 0.06 0.13 0.17 0.15 0.14 0.13 0.13 0.16 0.23 0.32 0.41 0.46 0.49 0.51 0.51 0.46 0.41 0.30 0.29 0.41 0.70 1.10 1.50 1.72 1.83 1.94 1.91 1.73 1.51 1.34 1.31 1.34
0.00 0.00 0.00 0.00 0.00 0.01 0.01 0.01 0.02 0.04 0.05 0.04 0.07 0.20 0.28 0.21 0.14 0.07 0.09 0.13 0.18 0.22 0.29 0.36 0.44 0.50 0.52 0.51 0.43 0.33 0.30 0.46 0.74 1.14 1.59 1.89 2.11 2.30 2.22 1.92 1.68 1.56 1.52
0.00 0.00 0.00 0.00 0.01 0.01 0.01 0.01 0.02 0.03 0.06 0.07 0.06 0.10 0.18 0.22 0.28 0.15 0.04 0.04 0.05 0.08 0.11 0.17 0.24 0.32 0.41 0.46 0.49 0.51 0.46 0.43 0.64 0.87 1.23 1.70 2.15 2.55 2.78 2.55 2.13 1.82 1.70
0.00 0.00 0.00 0.01 0.01 0.01 0.02 0.02 0.03 0.04 0.06 0.09 0.12 0.13 0.13 0.12 0.17 0.27 0.13 0.02 0.02 0.03 0.04 0.08 0.12 0.18 0.26 0.35 0.43 0.51 0.58 0.57 0.70 0.86 1.02 1.36 1.85 2.48 2.95 2.98 2.64 2.23 1.92
0.01 0.01 0.01 0.01 0.02 0.02 0.03 0.04 0.05 0.06 0.08 0.10 0.13 0.16 0.20 0.23 0.20 0.26 0.23 0.08 0.03 0.02 0.03 0.04 0.07 0.13 0.21 0.30 0.39 0.53 0.61 0.65 0.73 0.86 0.88 1.05 1.39 1.94 2.65 3.05 2.98 2.67 2.32
0.01 0.01 0.02 0.03 0.04 0.04 0.05 0.06 0.09 0.10 0.12 0.15 0.15 0.17 0.19 0.21 0.22 0.29 0.33 0.19 0.08 0.03 0.02 0.04 0.06 0.11 0.19 0.26 0.32 0.42 0.49 0.54 0.61 0.72 0.75 0.74 0.86 1.27 1.98 2.76 3.15 3.07 2.81
0.01 0.02 0.03 0.04 0.05 0.06 0.07 0.10 0.12 0.14 0.17 0.19 0.19 0.21 0.23 0.21 0.24 0.30 0.36 0.39 0.28 0.09 0.03 0.03 0.04 0.09 0.14 0.19 0.26 0.34 0.35 0.40 0.45 0.54 0.64 0.65 0.63 0.73 1.15 1.93 2.75 3.26 3.22
0.01 0.02 0.04 0.07 0.09 0.10 0.11 0.13 0.16 0.18 0.20 0.22 0.24 0.26 0.29 0.28 0.27 0.27 0.31 0.42 0.58 0.42 0.11 0.03 0.05 0.08 0.12 0.15 0.21 0.27 0.27 0.32 0.37 0.42 0.51 0.57 0.60 0.61 0.74 1.06 1.77 2.61 3.24
0.03 0.04 0.06 0.09 0.12 0.15 0.17 0.20 0.21 0.21 0.23 0.24 0.27 0.31 0.33 0.33 0.32 0.31 0.33 0.35 0.47 0.58 0.36 0.07 0.06 0.09 0.14 0.16 0.21 0.25 0.24 0.30 0.34 0.38 0.40 0.44 0.52 0.59 0.66 0.79 1.07 1.73 2.48
0.05 0.07 0.08 0.09 0.11 0.16 0.20 0.24 0.25 0.28 0.31 0.31 0.32 0.36 0.35 0.36 0.40 0.40 0.40 0.40 0.40 0.48 0.48 0.13 0.05 0.08 0.16 0.22 0.22 0.23 0.23 0.24 0.27 0.34 0.38 0.38 0.42 0.48 0.57 0.66 0.79 1.13 1.78
0.10 0.11 0.12 0.14 0.15 0.18 0.23 0.27 0.30 0.32 0.37 0.42 0.43 0.43 0.42 0.42 0.44 0.45 0.49 0.49 0.44 0.42 0.49 0.31 0.09 0.08 0.14 0.23 0.27 0.26 0.24 0.23 0.23 0.29 0.34 0.39 0.41 0.45 0.51 0.58 0.67 0.79 1.16
0.18 0.19 0.21 0.24 0.25 0.27 0.34 0.35 0.36 0.40 0.42 0.45 0.49 0.53 0.53 0.53 0.53 0.52 0.55 0.57 0.53 0.46 0.47 0.46 0.24 0.14 0.17 0.24 0.30 0.30 0.28 0.27 0.26 0.29 0.31 0.37 0.43 0.47 0.49 0.53 0.59 0.67 0.77
0.28 0.32 0.35 0.38 0.39 0.44 0.62 0.68 0.56 0.50 0.49 0.50 0.53 0.58 0.62 0.67 0.68 0.69 0.73 0.72 0.68 0.64 0.56 0.52 0.40 0.29 0.27 0.29 0.36 0.37 0.33 0.32 0.35 0.35 0.34 0.33 0.39 0.45 0.48 0.46 0.45 0.50 0.63
0.38 0.41 0.43 0.44 0.46 0.58 0.94 1.09 0.84 0.69 0.61 0.57 0.55 0.59 0.63 0.72 0.88 1.03 1.14 1.05 0.91 0.88 0.81 0.74 0.61 0.46 0.40 0.42 0.50 0.46 0.46 0.38 0.40 0.45 0.42 0.34 0.32 0.32 0.36 0.44 0.48 0.50 0.53
0.40 0.41 0.43 0.42 0.41 0.55 0.91 1.08 0.87 0.68 0.53 0.51 0.51 0.49 0.51 0.57 0.68 0.81 0.99 1.00 0.96 1.06 1.09 0.99 0.85 0.72 0.55 0.49 0.57 0.64 0.67 0.63 0.55 0.47 0.47 0.45 0.41 0.40 0.37 0.37 0.46 0.49 0.54
0.29 0.27 0.27 0.26 0.25 0.35 0.73 0.91 0.73 0.46 0.32 0.35 0.37 0.37 0.37 0.41 0.48 0.49 0.58 0.62 0.67 0.77 0.94 1.07 1.10 0.90 0.72 0.62 0.73 0.83 0.85 0.82 0.64 0.56 0.62 0.69 0.61 0.55 0.49 0.49 0.55 0.51 0.54
0.17 0.15 0.13 0.11 0.10 0.17 0.54 0.80 0.61 0.27 0.21 0.25 0.30 0.34 0.34 0.36 0.42 0.52 0.57 0.52 0.46 0.49 0.65 0.85 1.04 0.97 0.86 0.86 1.01 1.17 1.21 1.18 0.98 0.79 0.76 0.89 0.82 0.75 0.69 0.63 0.60 0.53 0.51
0.11 0.08 0.06 0.05 0.04 0.07 0.35 0.74 0.61 0.25 0.20 0.22 0.26 0.33 0.36 0.34 0.40 0.55 0.62 0.55 0.42 0.39 0.43 0.63 0.84 0.95 1.00 1.11 1.29 1.51 1.58 1.56 1.45 1.23 1.03 1.01 0.97 0.90 0.87 0.84 0.76 0.65 0.57
0.07 0.05 0.04 0.03 0.03 0.04 0.19 0.61 0.71 0.33 0.23 0.20 0.21 0.29 0.43 0.46 0.46 0.51 0.55 0.55 0.53 0.41 0.34 0.34 0.39 0.50 0.64 0.77 1.02 1.30 1.43 1.49 1.48 1.48 1.29 1.16 1.15 1.09 1.14 1.00 0.81 0.67 0.59

GEFSMA_prec_meanprecacc_132.txt.gz
Total_Precipitation_Accumulation
0.07 0.07 0.06 0.05 0.04 0.05 0.06 0.07 0.07 0.08 0.10 0.13 0.17 0.18 0.23 0.24 0.21 0.20 0.17 0.13 0.11 0.15 0.25 0.35 0.50 0.71 0.92 1.02 1.06 0.99 0.93 0.86 0.76 0.68 0.67 0.70 0.80 0.90 0.97 0.92 0.95 0.99 0.96
0.04 0.04 0.03 0.03 0.02 0.02 0.03 0.03 0.04 0.05 0.06 0.09 0.09 0.12 0.16 0.16 0.15 0.18 0.19 0.19 0.16 0.15 0.23 0.28 0.35 0.50 0.77 1.01 1.11 1.08 1.02 1.01 0.97 0.91 0.80 0.77 0.80 0.88 0.97 1.03 0.89 0.83 0.79
0.01 0.02 0.02 0.02 0.02 0.02 0.03 0.03 0.03 0.03 0.04 0.06 0.08 0.10 0.11 0.12 0.13 0.16 0.20 0.22 0.22 0.20 0.22 0.31 0.35 0.41 0.60 0.85 1.09 1.27 1.15 1.10 1.14 1.13 0.99 0.88 0.83 0.88 0.91 1.03 1.05 0.95 0.84
0.02 0.02 0.03 0.03 0.02 0.02 0.05 0.06 0.06 0.06 0.06 0.07 0.10 0.13 0.13 0.14 0.13 0.16 0.22 0.22 0.24 0.23 0.22 0.27 0.37 0.42 0.54 0.68 0.89 1.23 1.35 1.31 1.30 1.29 1.22 1.10 0.94 0.94 0.96 1.01 1.09 1.11 1.04
0.02 0.03 0.04 0.05 0.06 0.07 0.09 0.11 0.10 0.12 0.11 0.10 0.12 0.16 0.18 0.21 0.22 0.22 0.27 0.28 0.27 0.25 0.25 0.26 0.31 0.35 0.44 0.59 0.78 1.05 1.35 1.49 1.48 1.48 1.43 1.34 1.19 1.03 1.02 1.06 1.10 1.20 1.22
0.01 0.01 0.02 0.03 0.06 0.10 0.13 0.16 0.13 0.13 0.15 0.17 0.22 0.24 0.28 0.29 0.27 0.22 0.26 0.32 0.32 0.29 0.32 0.31 0.30 0.29 0.31 0.40 0.60 0.85 1.14 1.42 1.56 1.59 1.63 1.60 1.48 1.31 1.12 1.08 1.08 1.19 1.33
0.00 0.00 0.01 0.01 0.02 0.03 0.06 0.08 0.11 0.11 0.11 0.12 0.17 0.19 0.20 0.23 0.22 0.19 0.22 0.30 0.38 0.42 0.43 0.44 0.42 0.37 0.34 0.34 0.35 0.50 0.76 1.12 1.45 1.60 1.69 1.73 1.69 1.58 1.40 1.22 1.15 1.18 1.30
0.00 0.00 0.00 0.01 0.00 0.01 0.01 0.02 0.04 0.06 0.06 0.06 0.13 0.17 0.15 0.14 0.13 0.13 0.16 0.23 0.32 0.41 0.46 0.49 0.51 0.51 0.46 0.41 0.30 0.29 0.41 0.70 1.10 1.50 1.72 1.83 1.94 1.91 1.74 1.52 1.36 1.32 1.36
0.00 0.00 0.00 0.00 0.00 0.01 0.01 0.01 0.02 0.04 0.05 0.04 0.07 0.20 0.28 0.21 0.14 0.07 0.09 0.13 0.18 0.22 0.29 0.36 0.44 0.50 0.52 0.51 0.43 0.33 0.30 0.46 0.74 1.14 1.59 1.89 2.12 2.31 2.23 1.93 1.70 1.58 1.53
0.00 0.00 0.00 0.00 0.01 0.01 0.01 0.02 0.02 0.03 0.06 0.07 0.06 0.10 0.18 0.22 0.28 0.15 0.04 0.04 0.05 0.08 0.11 0.17 0.24 0.32 0.41 0.46 0.49 0.51 0.46 0.43 0.64 0.87 1.23 1.70 2.16 2.56 2.79 2.56 2.14 1.83 1.71
0.00 0.00 0.00 0.01 0.01 0.01 0.02 0.02 0.03 0.04 0.06 0.09 0.12 0.13 0.13 0.12 0.17 0.27 0.13 0.02 0.02 0.03 0.04 0.08 0.12 0.18 0.26 0.35 0.43 0.51 0.58 0.57 0.70 0.86 1.02 1.36 1.86 2.49 2.96 2.99 2.66 2.25 1.93
0.01 0.01 0.01 0.01 0.02 0.02 0.03 0.04 0.05 0.06 0.08 0.10 0.13 0.16 0.20 0.23 0.20 0.26 0.23 0.08 0.03 0.02 0.03 0.04 0.07 0.13 0.21 0.30 0.39 0.53 0.61 0.65 0.73 0.86 0.88 1.05 1.39 1.95 2.66 3.06 2.99 2.69 2.34
0.01 0.02 0.02 0.03 0.04 0.04 0.05 0.06 0.09 0.10 0.12 0.15 0.15 0.17 0.19 0.21 0.22 0.29 0.33 0.19 0.08 0.03 0.02 0.04 0.06 0.11 0.19 0.26 0.32 0.42 0.49 0.54 0.61 0.72 0.75 0.74 0.86 1.27 1.99 2.76 3.17 3.08 2.82
0.01 0.02 0.03 0.05 0.06 0.06 0.07 0.10 0.12 0.14 0.17 0.19 0.19 0.21 0.23 0.21 0.24 0.30 0.36 0.39 0.28 0.09 0.03 0.03 0.04 0.09 0.14 0.19 0.26 0.34 0.35 0.40 0.45 0.54 0.64 0.65 0.64 0.74 1.16 1.94 2.77 3.27 3.23
0.02 0.02 0.04 0.07 0.09 0.10 0.11 0.13 0.16 0.18 0.20 0.22 0.24 0.26 0.29 0.28 0.27 0.27 0.31 0.42 0.58 0.42 0.11 0.03 0.05 0.08 0.12 0.15 0.21 0.27 0.27 0.32 0.37 0.42 0.51 0.58 0.60 0.62 0.75 1.07 1.78 2.63 3.25
0.03 0.04 0.06 0.09 0.12 0.15 0.17 0.20 0.21 0.21 0.23 0.24 0.27 0.31 0.33 0.33 0.32 0.31 0.33 0.35 0.47 0.58 0.36 0.07 0.06 0.09 0.14 0.16 0.21 0.25 0.24 0.30 0.34 0.38 0.41 0.44 0.52 0.60 0.67 0.80 1.08 1.74 2.50
0.05 0.07 0.08 0.09 0.11 0.16 0.20 0.24 0.25 0.28 0.31 0.31 0.32 0.36 0.35 0.36 0.40 0.40 0.40 0.40 0.40 0.48 0.48 0.13 0.05 0.08 0.16 0.22 0.22 0.23 0.23 0.24 0.27 0.34 0.38 0.38 0.42 0.49 0.58 0.67 0.80 1.14 1.80
0.10 0.11 0.12 0.14 0.15 0.18 0.23 0.27 0.30 0.32 0.37 0.42 0.43 0.43 0.42 0.42 0.44 0.45 0.49 0.49 0.44 0.42 0.49 0.31 0.09 0.08 0.14 0.23 0.27 0.26 0.24 0.23 0.23 0.29 0.34 0.39 0.41 0.46 0.52 0.59 0.68 0.81 1.18
0.18 0.19 0.21 0.24 0.25 0.27 0.34 0.35 0.36 0.40 0.42 0.45 0.49 0.53 0.53 0.53 0.53 0.52 0.55 0.57 0.53 0.47 0.48 0.46 0.24 0.14 0.18 0.24 0.30 0.30 0.29 0.27 0.26 0.29 0.31 0.37 0.43 0.48 0.50 0.54 0.60 0.69 0.79
0.28 0.32 0.35 0.38 0.39 0.44 0.62 0.68 0.56 0.50 0.49 0.50 0.53 0.58 0.62 0.67 0.68 0.69 0.73 0.72 0.68 0.65 0.57 0.53 0.41 0.29 0.28 0.29 0.37 0.38 0.34 0.32 0.35 0.35 0.34 0.34 0.39 0.45 0.48 0.47 0.46 0.51 0.64
0.38 0.41 0.43 0.44 0.46 0.58 0.94 1.09 0.84 0.69 0.61 0.57 0.55 0.59 0.63 0.72 0.88 1.03 1.14 1.06 0.91 0.89 0.81 0.75 0.62 0.47 0.40 0.43 0.51 0.47 0.47 0.39 0.41 0.45 0.42 0.35 0.33 0.32 0.36 0.44 0.48 0.50 0.54
0.40 0.41 0.43 0.42 0.41 0.55 0.91 1.08 0.87 0.68 0.53 0.51 0.51 0.49 0.51 0.57 0.68 0.81 0.99 1.00 0.96 1.07 1.10 1.01 0.87 0.73 0.56 0.50 0.58 0.66 0.69 0.66 0.56 0.48 0.48 0.46 0.41 0.40 0.38 0.37 0.47 0.50 0.56
0.29 0.27 0.27 0.27 0.25 0.35 0.73 0.91 0.73 0.46 0.32 0.35 0.37 0.37 0.37 0.41 0.48 0.49 0.58 0.62 0.68 0.78 0.95 1.08 1.12 0.91 0.73 0.64 0.74 0.86 0.87 0.85 0.67 0.58 0.65 0.71 0.62 0.55 0.49 0.50 0.56 0.52 0.55
0.17 0.15 0.13 0.11 0.10 0.17 0.55 0.80 0.61 0.27 0.21 0.25 0.30 0.34 0.34 0.36 0.42 0.52 0.58 0.52 0.47 0.49 0.66 0.86 1.05 0.98 0.88 0.88 1.03 1.20 1.25 1.23 1.02 0.82 0.79 0.91 0.83 0.76 0.69 0.63 0.60 0.54 0.53
0.11 0.08 0.06 0.05 0.04 0.07 0.35 0.74 0.61 0.25 0.20 0.22 0.26 0.33 0.36 0.34 0.40 0.55 0.62 0.56 0.43 0.40 0.44 0.64 0.86 0.98 1.03 1.15 1.34 1.57 1.65 1.65 1.53 1.26 1.05 1.04 0.98 0.91 0.88 0.84 0.76 0.66 0.58
0.07 0.05 0.04 0.03 0.03 0.04 0.19 0.61 0.71 0.33 0.23 0.20 0.21 0.29 0.43 0.46 0.47 0.52 0.56 0.57 0.55 0.43 0.35 0.35 0.40 0.51 0.65 0.78 1.04 1.33 1.47 1.56 1.56 1.54 1.31 1.18 1.16 1.10 1.16 1.01 0.81 0.68 0.59

GEFSMA_prec_meanprecacc_138.txt.gz
Total_Precipitation_Accumulation
0.07 0.07 0.06 0.05 0.04 0.05 0.06 0.07 0.07 0.08 0.10 0.13 0.17 0.18 0.23 0.24 0.21 0.20 0.17 0.13 0.11 0.15 0.25 0.35 0.50 0.71 0.92 1.02 1.06 0.99 0.93 0.86 0.76 0.69 0.67 0.70 0.81 0.91 0.98 0.93 0.97 1.01 0.98
0.04 0.04 0.03 0.03 0.02 0.02 0.03 0.03 0.04 0.05 0.06 0.09 0.09 0.12 0.16 0.16 0.15 0.18 0.19 0.19 0.16 0.15 0.23 0.28 0.35 0.50 0.77 1.01 1.11 1.08 1.03 1.01 0.97 0.91 0.80 0.77 0.81 0.88 0.98 1.04 0.90 0.84 0.81
0.01 0.02 0.02 0.02 0.02 0.02 0.03 0.03 0.03 0.03 0.04 0.06 0.08 0.10 0.11 0.12 0.13 0.16 0.20 0.22 0.22 0.20 0.22 0.31 0.35 0.41 0.60 0.85 1.09 1.27 1.15 1.10 1.15 1.14 0.99 0.88 0.83 0.89 0.92 1.04 1.06 0.96 0.85
0.02 0.03 0.03 0.03 0.02 0.02 0.05 0.06 0.06 0.06 0.06 0.07 0.10 0.13 0.13 0.14 0.13 0.16 0.22 0.22 0.24 0.23 0.22 0.27 0.37 0.42 0.54 0.68 0.89 1.23 1.35 1.31 1.30 1.29 1.22 1.10 0.94 0.94 0.97 1.02 1.09 1.11 1.04
0.03 0.03 0.04 0.05 0.06 0.07 0.09 0.11 0.10 0.12 0.11 0.10 0.12 0.16 0.18 0.21 0.22 0.22 0.27 0.28 0.27 0.25 0.25 0.26 0.31 0.35 0.44 0.59 0.78 1.05 1.35 1.49 1.48 1.48 1.43 1.34 1.19 1.03 1.02 1.06 1.11 1.21 1.22
0.01 0.02 0.02 0.03 0.06 0.10 0.13 0.16 0.13 0.13 0.15 0.17 0.22 0.24 0.28 0.29 0.27 0.22 0.26 0.32 0.32 0.29 0.32 0.31 0.30 0.29 0.31 0.40 0.60 0.85 1.14 1.42 1.56 1.60 1.63 1.60 1.48 1.31 1.13 1.08 1.09 1.20 1.34
0.01 0.01 0.01 0.01 0.02 0.03 0.06 0.08 0.11 0.11 0.11 0.12 0.17 0.19 0.20 0.23 0.22 0.19 0.22 0.30 0.38 0.42 0.43 0.44 0.42 0.37 0.34 0.34 0.35 0.50 0.76 1.12 1.45 1.60 1.69 1.73 1.69 1.59 1.41 1.23 1.16 1.19 1.31
0.01 0.00 0.01 0.01 0.01 0.01 0.01 0.02 0.04 0.06 0.06 0.06 0.13 0.17 0.15 0.14 0.13 0.13 0.16 0.23 0.32 0.41 0.46 0.49 0.51 0.51 0.46 0.41 0.30 0.29 0.41 0.70 1.10 1.50 1.72 1.84 1.95 1.92 1.75 1.53 1.37 1.34 1.38
0.01 0.01 0.01 0.01 0.00 0.01 0.01 0.01 0.02 0.04 0.05 0.04 0.07 0.20 0.28 0.21 0.14 0.07 0.09 0.13 0.18 0.22 0.29 0.36 0.44 0.50 0.52 0.51 0.43 0.33 0.30 0.46 0.74 1.14 1.59 1.89 2.12 2.32 2.25 1.95 1.71 1.60 1.55
0.01 0.01 0.01 0.01 0.01 0.01 0.01 0.02 0.02 0.03 0.06 0.07 0.06 0.10 0.18 0.22 0.28 0.15 0.04 0.04 0.05 0.08 0.11 0.17 0.24 0.32 0.41 0.46 0.49 0.51 0.46 0.43 0.64 0.87 1.23 1.71 2.17 2.57 2.81 2.58 2.16 1.85 1.73
0.01 0.01 0.01 0.01 0.01 0.01 0.02 0.02 0.03 0.04 0.06 0.10 0.12 0.13 0.13 0.12 0.17 0.27 0.13 0.02 0.02 0.03 0.04 0.08 0.12 0.18 0.26 0.35 0.43 0.51 0.58 0.57 0.70 0.86 1.02 1.36 1.86 2.50 2.97 3.00 2.67 2.26 1.95
0.01 0.01 0.01 0.02 0.02 0.02 0.03 0.04 0.05 0.06 0.08 0.10 0.13 0.16 0.20 0.23 0.20 0.26 0.23 0.08 0.03 0.02 0.03 0.04 0.07 0.13 0.21 0.30 0.39 0.53 0.61 0.65 0.73 0.86 0.88 1.05 1.39 1.95 2.66 3.07 3.00 2.70 2.35
0.02 0.02 0.02 0.03 0.04 0.05 0.05 0.07 0.09 0.11 0.12 0.15 0.15 0.17 0.19 0.21 0.22 0.29 0.33 0.19 0.08 0.03 0.02 0.04 0.06 0.11 0.19 0.26 0.32 0.42 0.49 0.54 0.61 0.72 0.75 0.74 0.87 1.28 1.99 2.77 3.18 3.10 2.84
0.02 0.02 0.03 0.05 0.06 0.06 0.08 0.10 0.12 0.14 0.17 0.19 0.19 0.21 0.23 0.21 0.24 0.30 0.36 0.39 0.28 0.09 0.03 0.03 0.04 0.09 0.14 0.19 0.26 0.34 0.35 0.40 0.45 0.54 0.64 0.65 0.64 0.74 1.16 1.95 2.78 3.29 3.25
0.02 0.03 0.05 0.07 0.09 0.11 0.12 0.14 0.17 0.18 0.20 0.22 0.24 0.26 0.29 0.28 0.27 0.27 0.31 0.42 0.58 0.42 0.11 0.03 0.05 0.08 0.12 0.15 0.21 0.27 0.27 0.32 0.37 0.42 0.51 0.58 0.60 0.62 0.76 1.08 1.80 2.64 3.27
0.03 0.04 0.06 0.09 0.12 0.15 0.18 0.21 0.22 0.22 0.23 0.24 0.27 0.31 0.33 0.33 0.32 0.31 0.33 0.35 0.47 0.58 0.36 0.07 0.06 0.09 0.14 0.16 0.21 0.25 0.24 0.30 0.34 0.39 0.41 0.44 0.52 0.60 0.68 0.81 1.10 1.76 2.52
0.05 0.07 0.08 0.09 0.12 0.16 0.21 0.24 0.25 0.28 0.31 0.31 0.32 0.36 0.35 0.36 0.40 0.40 0.40 0.40 0.40 0.48 0.48 0.13 0.05 0.08 0.16 0.22 0.22 0.23 0.23 0.24 0.27 0.34 0.38 0.38 0.43 0.50 0.59 0.68 0.82 1.16 1.82
0.10 0.11 0.12 0.14 0.15 0.18 0.23 0.27 0.30 0.32 0.37 0.42 0.43 0.43 0.42 0.42 0.44 0.45 0.50 0.49 0.44 0.42 0.49 0.31 0.09 0.08 0.14 0.23 0.27 0.26 0.24 0.23 0.23 0.29 0.34 0.39 0.42 0.46 0.53 0.61 0.70 0.82 1.20
0.18 0.19 0.21 0.24 0.25 0.27 0.34 0.35 0.36 0.40 0.42 0.45 0.49 0.53 0.53 0.53 0.53 0.52 0.55 0.57 0.54 0.47 0.48 0.46 0.24 0.14 0.18 0.24 0.30 0.30 0.29 0.27 0.26 0.29 0.31 0.37 0.44 0.48 0.51 0.55 0.62 0.70 0.81
0.28 0.32 0.35 0.38 0.39 0.44 0.62 0.68 0.56 0.50 0.49 0.50 0.53 0.58 0.62 0.67 0.68 0.69 0.73 0.72 0.68 0.65 0.57 0.53 0.41 0.29 0.28 0.29 0.37 0.38 0.34 0.32 0.35 0.35 0.34 0.34 0.39 0.46 0.49 0.48 0.47 0.52 0.65
0.38 0.41 0.43 0.44 0.46 0.58 0.94 1.09 0.84 0.69 0.61 0.57 0.55 0.59 0.63 0.72 0.88 1.03 1.14 1.06 0.92 0.89 0.82 0.75 0.62 0.47 0.40 0.43 0.51 0.47 0.47 0.39 0.41 0.45 0.42 0.35 0.33 0.32 0.36 0.44 0.49 0.50 0.55
0.40 0.41 0.43 0.43 0.42 0.55 0.91 1.08 0.87 0.68 0.53 0.51 0.51 0.49 0.51 0.57 0.68 0.81 0.99 1.01 0.97 1.07 1.11 1.01 0.87 0.74 0.56 0.50 0.58 0.67 0.70 0.67 0.57 0.48 0.48 0.46 0.41 0.40 0.38 0.37 0.47 0.51 0.57
0.29 0.27 0.27 0.27 0.25 0.35 0.73 0.91 0.73 0.46 0.33 0.35 0.37 0.37 0.37 0.41 0.48 0.49 0.58 0.62 0.68 0.78 0.96 1.09 1.12 0.91 0.73 0.64 0.76 0.88 0.90 0.87 0.68 0.59 0.67 0.73 0.62 0.55 0.49 0.50 0.56 0.53 0.57
0.17 0.15 0.13 0.11 0.11 0.17 0.55 0.80 0.62 0.28 0.21 0.25 0.30 0.34 0.34 0.36 0.42 0.53 0.58 0.52 0.47 0.49 0.66 0.87 1.06 0.99 0.89 0.89 1.05 1.23 1.28 1.27 1.05 0.83 0.80 0.94 0.84 0.76 0.69 0.63 0.60 0.54 0.54
0.11 0.09 0.07 0.05 0.05 0.07 0.36 0.74 0.61 0.25 0.20 0.22 0.26 0.33 0.36 0.34 0.40 0.56 0.63 0.56 0.44 0.40 0.45 0.65 0.87 0.99 1.05 1.18 1.37 1.61 1.69 1.70 1.57 1.27 1.06 1.06 0.99 0.91 0.88 0.84 0.76 0.66 0.59
0.07 0.06 0.04 0.03 0.03 0.04 0.19 0.61 0.71 0.33 0.23 0.20 0.21 0.29 0.43 0.47 0.47 0.53 0.57 0.58 0.56 0.43 0.35 0.36 0.41 0.52 0.66 0.79 1.05 1.35 1.50 1.60 1.60 1.57 1.32 1.20 1.18 1.12 1.17 1.01 0.81 0.68 0.59

GEFSMA_prec_meanprecacc_144.txt.gz
Total_Precipitation_Accumulation
0.07 0.07 0.06 0.05 0.04 0.05 0.06 0.07 0.07 0.08 0.10 0.13 0.17 0.18 0.23 0.24 0.21 0.20 0.17 0.13 0.11 0.15 0.25 0.36 0.50 0.72 0.92 1.03 1.06 0.99 0.94 0.86 0.76 0.69 0.68 0.70 0.81 0.91 0.98 0.94 0.98 1.02 0.99
0.04 0.04 0.03 0.03 0.02 0.02 0.03 0.03 0.04 0.05 0.06 0.09 0.09 0.12 0.16 0.16 0.15 0.18 0.19 0.19 0.16 0.15 0.23 0.28 0.36 0.50 0.78 1.01 1.11 1.08 1.03 1.01 0.97 0.91 0.80 0.77 0.81 0.88 0.98 1.04 0.90 0.84 0.81
0.02 0.02 0.02 0.02 0.02 0.02 0.03 0.03 0.03 0.03 0.04 0.06 0.08 0.10 0.11 0.12 0.13 0.16 0.20 0.22 0.22 0.20 0.22 0.31 0.35 0.41 0.60 0.85 1.09 1.27 1.15 1.10 1.15 1.14 0.99 0.88 0.83 0.89 0.92 1.04 1.07 0.97 0.85
0.02 0.03 0.03 0.03 0.02 0.02 0.05 0.06 0.06 0.06 0.06 0.07 0.10 0.13 0.13 0.14 0.13 0.16 0.22 0.22 0.24 0.23 0.22 0.27 0.37 0.42 0.54 0.68 0.89 1.23 1.35 1.31 1.30 1.29 1.22 1.10 0.94 0.94 0.97 1.02 1.10 1.12 1.05
0.03 0.03 0.04 0.05 0.06 0.07 0.09 0.11 0.10 0.12 0.11 0.10 0.12 0.16 0.18 0.21 0.22 0.22 0.27 0.28 0.27 0.25 0.25 0.26 0.31 0.35 0.44 0.59 0.78 1.05 1.35 1.49 1.48 1.48 1.43 1.34 1.19 1.04 1.03 1.07 1.12 1.21 1.23
0.02 0.02 0.02 0.03 0.06 0.10 0.14 0.16 0.13 0.13 0.15 0.17 0.22 0.24 0.28 0.29 0.27 0.22 0.26 0.32 0.32 0.29 0.32 0.31 0.30 0.29 0.31 0.40 0.60 0.85 1.14 1.42 1.56 1.60 1.63 1.61 1.49 1.32 1.13 1.09 1.10 1.21 1.35
0.01 0.01 0.02 0.02 0.03 0.04 0.06 0.08 0.11 0.11 0.11 0.12 0.17 0.19 0.20 0.23 0.22 0.19 0.22 0.30 0.38 0.42 0.43 0.44 0.42 0.37 0.34 0.34 0.35 0.50 0.76 1.12 1.45 1.60 1.69 1.73 1.70 1.59 1.42 1.25 1.17 1.21 1.33
0.01 0.01 0.02 0.02 0.02 0.01 0.01 0.02 0.04 0.06 0.06 0.06 0.13 0.17 0.15 0.14 0.13 0.13 0.16 0.23 0.32 0.41 0.46 0.49 0.51 0.51 0.46 0.41 0.30 0.29 0.41 0.70 1.10 1.50 1.72 1.84 1.95 1.93 1.76 1.55 1.39 1.36 1.40
0.02 0.01 0.01 0.01 0.01 0.01 0.01 0.01 0.02 0.04 0.05 0.04 0.07 0.20 0.28 0.21 0.14 0.07 0.09 0.13 0.18 0.22 0.29 0.36 0.44 0.50 0.52 0.51 0.43 0.33 0.30 0.46 0.74 1.14 1.59 1.90 2.13 2.33 2.26 1.96 1.73 1.62 1.57
0.01 0.01 0.01 0.01 0.01 0.01 0.01 0.02 0.02 0.03 0.06 0.07 0.06 0.10 0.18 0.22 0.28 0.15 0.04 0.04 0.05 0.08 0.11 0.17 0.24 0.32 0.41 0.46 0.49 0.51 0.46 0.43 0.64 0.87 1.23 1.71 2.17 2.57 2.82 2.59 2.17 1.86 1.74
0.01 0.01 0.01 0.01 0.01 0.02 0.02 0.02 0.03 0.04 0.06 0.10 0.12 0.13 0.13 0.12 0.17 0.27 0.13 0.02 0.02 0.03 0.04 0.08 0.12 0.18 0.26 0.35 0.43 0.51 0.58 0.57 0.70 0.86 1.02 1.36 1.87 2.50 2.98 3.01 2.68 2.27 1.96
0.01 0.01 0.02 0.02 0.02 0.03 0.03 0.04 0.05 0.06 0.08 0.10 0.13 0.16 0.20 0.23 0.20 0.26 0.23 0.08 0.03 0.02 0.03 0.04 0.07 0.13 0.21 0.30 0.39 0.53 0.61 0.65 0.73 0.86 0.88 1.05 1.40 1.95 2.67 3.08 3.01 2.72 2.37
0.02 0.02 0.02 0.03 0.04 0.05 0.05 0.07 0.09 0.11 0.12 0.15 0.15 0.17 0.19 0.21 0.22 0.29 0.33 0.19 0.08 0.03 0.02 0.04 0.06 0.11 0.19 0.26 0.32 0.42 0.49 0.54 0.61 0.72 0.75 0.74 0.87 1.28 2.00 2.78 3.19 3.11 2.86
0.02 0.02 0.03 0.05 0.06 0.07 0.08 0.10 0.12 0.15 0.17 0.19 0.20 0.21 0.23 0.21 0.24 0.30 0.36 0.39 0.28 0.09 0.03 0.03 0.04 0.09 0.14 0.19 0.26 0.34 0.35 0.40 0.45 0.54 0.64 0.65 0.64 0.75 1.17 1.96 2.79 3.30 3.26
0.02 0.03 0.05 0.08 0.10 0.11 0.12 0.14 0.17 0.18 0.20 0.22 0.24 0.26 0.29 0.28 0.27 0.27 0.31 0.42 0.58 0.42 0.11 0.03 0.05 0.08 0.12 0.15 0.21 0.27 0.27 0.32 0.37 0.42 0.51 0.58 0.61 0.63 0.76 1.09 1.81 2.65 3.28
0.03 0.04 0.07 0.09 0.12 0.15 0.18 0.21 0.23 0.23 0.24 0.25 0.28 0.32 0.33 0.33 0.32 0.31 0.33 0.35 0.47 0.58 0.36 0.07 0.06 0.09 0.14 0.16 0.21 0.25 0.24 0.30 0.34 0.39 0.41 0.44 0.53 0.61 0.69 0.82 1.11 1.77 2.53
0.05 0.07 0.08 0.10 0.12 0.17 0.21 0.24 0.26 0.29 0.32 0.32 0.33 0.37 0.36 0.36 0.40 0.40 0.40 0.40 0.40 0.49 0.49 0.13 0.05 0.08 0.16 0.22 0.22 0.23 0.23 0.24 0.27 0.34 0.38 0.39 0.43 0.50 0.60 0.69 0.83 1.18 1.84
0.10 0.11 0.13 0.14 0.15 0.18 0.23 0.28 0.31 0.32 0.38 0.42 0.43 0.43 0.42 0.42 0.44 0.45 0.50 0.49 0.44 0.42 0.49 0.32 0.10 0.08 0.14 0.23 0.27 0.26 0.24 0.23 0.23 0.29 0.34 0.39 0.42 0.47 0.54 0.62 0.71 0.84 1.22
0.18 0.19 0.21 0.24 0.25 0.28 0.34 0.35 0.37 0.40 0.42 0.46 0.49 0.53 0.53 0.54 0.53 0.52 0.56 0.57 0.54 0.47 0.48 0.47 0.24 0.14 0.18 0.24 0.30 0.30 0.29 0.28 0.26 0.29 0.31 0.37 0.44 0.48 0.51 0.56 0.63 0.72 0.82
0.28 0.32 0.35 0.38 0.40 0.44 0.63 0.68 0.56 0.51 0.49 0.50 0.53 0.58 0.62 0.67 0.68 0.69 0.74 0.72 0.69 0.65 0.57 0.53 0.41 0.29 0.28 0.29 0.37 0.38 0.34 0.32 0.35 0.35 0.34 0.34 0.39 0.46 0.49 0.48 0.47 0.52 0.66
0.38 0.41 0.43 0.45 0.46 0.59 0.94 1.09 0.84 0.69 0.61 0.57 0.56 0.59 0.63 0.73 0.88 1.04 1.14 1.06 0.92 0.89 0.82 0.76 0.63 0.48 0.41 0.43 0.51 0.47 0.48 0.39 0.41 0.45 0.42 0.35 0.33 0.32 0.36 0.44 0.49 0.51 0.55
0.41 0.41 0.43 0.43 0.42 0.55 0.91 1.09 0.87 0.68 0.53 0.51 0.51 0.49 0.51 0.58 0.68 0.82 0.99 1.01 0.97 1.08 1.12 1.02 0.88 0.74 0.56 0.51 0.59 0.67 0.71 0.68 0.58 0.48 0.49 0.46 0.41 0.40 0.38 0.37 0.47 0.51 0.58
0.29 0.27 0.28 0.27 0.25 0.35 0.73 0.91 0.73 0.46 0.33 0.35 0.37 0.38 0.38 0.41 0.49 0.49 0.59 0.63 0.69 0.79 0.96 1.09 1.13 0.92 0.74 0.65 0.77 0.90 0.91 0.89 0.70 0.60 0.68 0.74 0.62 0.55 0.49 0.50 0.56 0.53 0.58
0.17 0.15 0.13 0.11 0.11 0.17 0.55 0.80 0.62 0.28 0.22 0.26 0.31 0.34 0.35 0.37 0.42 0.53 0.59 0.53 0.47 0.49 0.66 0.87 1.06 0.99 0.89 0.90 1.07 1.25 1.31 1.29 1.07 0.84 0.81 0.96 0.84 0.76 0.69 0.63 0.60 0.55 0.55
0.11 0.09 0.07 0.05 0.05 0.07 0.36 0.75 0.62 0.25 0.21 0.22 0.27 0.34 0.37 0.34 0.41 0.57 0.64 0.57 0.44 0.40 0.45 0.66 0.88 1.00 1.06 1.19 1.39 1.62 1.71 1.73 1.59 1.28 1.07 1.07 1.00 0.91 0.88 0.84 0.76 0.66 0.59
0.07 0.06 0.04 0.03 0.03 0.04 0.20 0.61 0.71 0.33 0.23 0.21 0.21 0.29 0.43 0.47 0.47 0.53 0.58 0.59 0.56 0.44 0.36 0.36 0.41 0.53 0.66 0.79 1.06 1.36 1.51 1.63 1.62 1.58 1.33 1.21 1.19 1.13 1.19 1.01 0.81 0.68 0.60

GEFSMA_prec_meanprecacc_150.txt.gz
Total_Precipitation_Accumulation
0.07 0.07 0.06 0.05 0.04 0.05 0.06 0.07 0.07 0.08 0.10 0.14 0.17 0.18 0.23 0.24 0.21 0.20 0.17 0.13 0.11 0.15 0.25 0.36 0.51 0.72 0.93 1.03 1.06 0.99 0.94 0.86 0.76 0.69 0.68 0.71 0.81 0.91 0.98 0.94 0.98 1.02 0.99
0.04 0.04 0.04 0.03 0.02 0.02 0.03 0.03 0.04 0.05 0.06 0.09 0.09 0.12 0.16 0.16 0.15 0.18 0.19 0.19 0.16 0.15 0.23 0.28 0.36 0.50 0.78 1.01 1.11 1.08 1.03 1.01 0.97 0.91 0.80 0.77 0.81 0.89 0.98 1.05 0.90 0.85 0.82
0.02 0.02 0.02 0.02 0.02 0.02 0.03 0.03 0.03 0.03 0.04 0.06 0.08 0.10 0.11 0.12 0.13 0.16 0.20 0.22 0.22 0.20 0.22 0.31 0.35 0.42 0.60 0.85 1.09 1.27 1.15 1.10 1.15 1.14 0.99 0.89 0.83 0.89 0.92 1.05 1.07 0.97 0.86
0.02 0.03 0.03 0.03 0.02 0.02 0.05 0.06 0.06 0.06 0.06 0.07 0.10 0.13 0.13 0.14 0.13 0.16 0.22 0.22 0.24 0.23 0.22 0.27 0.37 0.43 0.54 0.68 0.89 1.23 1.35 1.31 1.30 1.29 1.22 1.11 0.94 0.95 0.98 1.03 1.11 1.12 1.06
0.03 0.03 0.04 0.05 0.06 0.07 0.09 0.12 0.10 0.13 0.12 0.10 0.12 0.16 0.18 0.21 0.22 0.22 0.27 0.28 0.27 0.25 0.25 0.26 0.32 0.35 0.44 0.59 0.78 1.05 1.35 1.49 1.48 1.48 1.43 1.34 1.19 1.04 1.03 1.08 1.13 1.23 1.24
0.02 0.02 0.03 0.04 0.07 0.11 0.15 0.17 0.15 0.14 0.16 0.17 0.22 0.24 0.28 0.29 0.27 0.22 0.26 0.32 0.32 0.29 0.32 0.31 0.30 0.29 0.31 0.40 0.60 0.85 1.14 1.42 1.56 1.60 1.63 1.61 1.49 1.32 1.14 1.10 1.11 1.23 1.37
0.02 0.02 0.03 0.03 0.04 0.06 0.08 0.09 0.11 0.11 0.11 0.12 0.17 0.19 0.20 0.23 0.22 0.19 0.22 0.30 0.38 0.42 0.43 0.44 0.42 0.37 0.34 0.34 0.35 0.50 0.76 1.12 1.45 1.60 1.69 1.74 1.70 1.60 1.42 1.25 1.19 1.22 1.35
0.02 0.02 0.02 0.02 0.02 0.02 0.02 0.02 0.04 0.06 0.06 0.06 0.13 0.17 0.15 0.14 0.13 0.13 0.16 0.23 0.32 0.41 0.46 0.49 0.51 0.51 0.46 0.41 0.30 0.29 0.41 0.70 1.10 1.50 1.73 1.84 1.96 1.94 1.77 1.56 1.40 1.37 1.41
0.02 0.01 0.01 0.02 0.01 0.02 0.02 0.02 0.02 0.05 0.05 0.04 0.07 0.20 0.28 0.21 0.14 0.07 0.09 0.13 0.18 0.22 0.29 0.36 0.44 0.50 0.52 0.51 0.43 0.33 0.30 0.46 0.74 1.14 1.59 1.90 2.13 2.33 2.27 1.97 1.74 1.63 1.58
0.02 0.02 0.02 0.02 0.02 0.02 0.02 0.02 0.02 0.04 0.06 0.07 0.07 0.10 0.18 0.22 0.28 0.15 0.04 0.04 0.05 0.08 0.11 0.17 0.24 0.32 0.41 0.46 0.49 0.51 0.46 0.43 0.64 0.87 1.23 1.71 2.17 2.58 2.83 2.60 2.18 1.87 1.75
0.01 0.01 0.01 0.02 0.02 0.02 0.02 0.02 0.03 0.04 0.06 0.10 0.12 0.13 0.13 0.12 0.17 0.27 0.13 0.02 0.02 0.03 0.04 0.08 0.12 0.18 0.26 0.35 0.43 0.51 0.58 0.57 0.70 0.86 1.02 1.37 1.87 2.51 2.99 3.02 2.68 2.28 1.97
0.01 0.02 0.02 0.02 0.03 0.03 0.03 0.04 0.05 0.06 0.08 0.10 0.13 0.16 0.20 0.23 0.20 0.26 0.23 0.08 0.03 0.02 0.03 0.04 0.07 0.13 0.21 0.30 0.39 0.53 0.61 0.65 0.73 0.86 0.88 1.05 1.40 1.95 2.67 3.08 3.02 2.72 2.38
0.02 0.02 0.03 0.04 0.05 0.05 0.06 0.07 0.09 0.11 0.12 0.15 0.16 0.17 0.19 0.21 0.22 0.29 0.33 0.19 0.08 0.03 0.02 0.04 0.06 0.11 0.19 0.26 0.32 0.42 0.49 0.54 0.61 0.72 0.75 0.74 0.87 1.28 2.00 2.78 3.19 3.12 2.87
0.02 0.02 0.03 0.05 0.06 0.07 0.08 0.10 0.13 0.15 0.17 0.20 0.20 0.21 0.23 0.21 0.24 0.30 0.36 0.39 0.28 0.09 0.03 0.03 0.04 0.09 0.14 0.19 0.26 0.34 0.35 0.40 0.45 0.54 0.64 0.65 0.64 0.75 1.17 1.96 2.79 3.31 3.27
0.02 0.03 0.05 0.08 0.10 0.11 0.13 0.15 0.17 0.19 0.21 0.22 0.24 0.26 0.30 0.28 0.27 0.27 0.31 0.42 0.58 0.42 0.11 0.03 0.05 0.08 0.12 0.15 0.21 0.27 0.27 0.32 0.37 0.43 0.51 0.58 0.61 0.63 0.77 1.10 1.81 2.66 3.30
0.03 0.04 0.07 0.09 0.12 0.16 0.18 0.22 0.23 0.23 0.24 0.25 0.28 0.32 0.34 0.34 0.33 0.32 0.33 0.36 0.47 0.58 0.36 0.07 0.06 0.09 0.14 0.16 0.21 0.25 0.24 0.30 0.34 0.39 0.41 0.45 0.53 0.61 0.69 0.83 1.12 1.79 2.55
0.06 0.07 0.08 0.10 0.12 0.17 0.21 0.25 0.26 0.29 0.32 0.32 0.34 0.38 0.37 0.37 0.41 0.40 0.40 0.40 0.40 0.49 0.49 0.13 0.05 0.08 0.16 0.22 0.22 0.23 0.23 0.24 0.28 0.34 0.38 0.39 0.43 0.51 0.60 0.70 0.84 1.19 1.85
0.10 0.11 0.13 0.14 0.15 0.18 0.23 0.28 0.31 0.33 0.38 0.43 0.44 0.44 0.43 0.43 0.44 0.45 0.50 0.49 0.44 0.42 0.50 0.32 0.10 0.08 0.14 0.23 0.27 0.26 0.24 0.23 0.23 0.29 0.34 0.40 0.43 0.48 0.54 0.62 0.72 0.85 1.23
0.18 0.19 0.21 0.24 0.26 0.28 0.34 0.36 0.37 0.40 0.43 0.46 0.50 0.54 0.54 0.54 0.53 0.52 0.56 0.57 0.54 0.47 0.48 0.47 0.25 0.14 0.18 0.24 0.30 0.30 0.29 0.28 0.26 0.29 0.31 0.37 0.44 0.49 0.52 0.57 0.64 0.73 0.84
0.29 0.32 0.35 0.38 0.40 0.45 0.63 0.68 0.56 0.51 0.49 0.51 0.54 0.58 0.62 0.67 0.68 0.69 0.74 0.72 0.69 0.65 0.57 0.54 0.42 0.30 0.28 0.30 0.37 0.38 0.34 0.32 0.35 0.35 0.34 0.34 0.40 0.46 0.49 0.49 0.48 0.53 0.67
0.38 0.42 0.44 0.45 0.47 0.59 0.95 1.10 0.85 0.70 0.62 0.58 0.56 0.60 0.64 0.73 0.88 1.04 1.14 1.06 0.92 0.90 0.82 0.76 0.63 0.48 0.41 0.44 0.51 0.48 0.48 0.39 0.41 0.45 0.42 0.35 0.33 0.32 0.37 0.44 0.49 0.51 0.56
0.41 0.42 0.44 0.43 0.42 0.55 0.92 1.10 0.88 0.68 0.54 0.52 0.52 0.49 0.51 0.58 0.69 0.82 1.00 1.01 0.97 1.08 1.12 1.03 0.89 0.75 0.57 0.51 0.59 0.68 0.71 0.69 0.59 0.49 0.49 0.47 0.41 0.40 0.38 0.37 0.47 0.51 0.59
0.29 0.28 0.28 0.27 0.25 0.35 0.74 0.92 0.74 0.47 0.33 0.35 0.37 0.38 0.38 0.41 0.49 0.50 0.60 0.64 0.70 0.80 0.97 1.10 1.13 0.92 0.74 0.65 0.78 0.91 0.93 0.91 0.72 0.61 0.69 0.75 0.63 0.56 0.50 0.50 0.56 0.54 0.60
0.17 0.15 0.13 0.12 0.11 0.17 0.55 0.81 0.62 0.28 0.22 0.26 0.31 0.34 0.35 0.37 0.42 0.53 0.59 0.53 0.48 0.50 0.67 0.87 1.07 1.00 0.90 0.91 1.08 1.27 1.33 1.31 1.08 0.85 0.82 0.97 0.85 0.76 0.69 0.64 0.61 0.55 0.55
0.11 0.09 0.07 0.05 0.05 0.08 0.36 0.75 0.62 0.25 0.21 0.22 0.27 0.34 0.37 0.34 0.41 0.57 0.64 0.57 0.44 0.41 0.45 0.66 0.89 1.01 1.07 1.20 1.40 1.64 1.72 1.74 1.60 1.29 1.07 1.08 1.01 0.92 0.88 0.85 0.76 0.66 0.59
0.07 0.06 0.05 0.04 0.03 0.04 0.20 0.61 0.72 0.34 0.23 0.21 0.21 0.29 0.44 0.47 0.48 0.54 0.59 0.60 0.57 0.45 0.37 0.37 0.42 0.53 0.67 0.80 1.06 1.36 1.52 1.64 1.64 1.59 1.33 1.22 1.20 1.14 1.20 1.01 0.81 0.68 0.60

GEFSMA_prec_meanprecacc_156.txt.gz
Total_Precipitation_Accumulation
0.07 0.07 0.06 0.05 0.04 0.05 0.06 0.07 0.07 0.08 0.10 0.14 0.17 0.18 0.23 0.24 0.21 0.20 0.17 0.13 0.11 0.15 0.25 0.36 0.51 0.72 0.93 1.03 1.06 0.99 0.94 0.86 0.76 0.69 0.68 0.71 0.81 0.91 0.98 0.94 0.98 1.03 1.00
0.04 0.04 0.04 0.03 0.02 0.02 0.03 0.03 0.04 0.05 0.06 0.09 0.09 0.12 0.16 0.16 0.15 0.18 0.19 0.19 0.16 0.15 0.23 0.28 0.36 0.50 0.78 1.01 1.11 1.08 1.03 1.01 0.97 0.91 0.81 0.77 0.81 0.89 0.99 1.05 0.91 0.85 0.82
0.02 0.02 0.02 0.02 0.02 0.02 0.03 0.03 0.03 0.04 0.05 0.06 0.08 0.10 0.11 0.12 0.13 0.16 0.20 0.22 0.22 0.20 0.22 0.31 0.35 0.42 0.60 0.85 1.09 1.27 1.15 1.10 1.15 1.14 1.00 0.89 0.83 0.89 0.93 1.05 1.08 0.98 0.87
0.02 0.03 0.03 0.03 0.02 0.03 0.06 0.06 0.06 0.07 0.06 0.08 0.10 0.13 0.13 0.14 0.13 0.16 0.22 0.22 0.24 0.23 0.22 0.27 0.37 0.43 0.54 0.68 0.89 1.23 1.35 1.31 1.30 1.29 1.22 1.11 0.95 0.95 0.98 1.03 1.11 1.13 1.07
0.03 0.04 0.04 0.06 0.06 0.08 0.10 0.12 0.11 0.13 0.12 0.11 0.12 0.16 0.18 0.21 0.22 0.22 0.27 0.28 0.27 0.25 0.25 0.26 0.32 0.35 0.44 0.59 0.78 1.05 1.35 1.50 1.48 1.48 1.43 1.35 1.20 1.04 1.04 1.08 1.13 1.23 1.25
0.03 0.03 0.03 0.04 0.07 0.12 0.15 0.18 0.15 0.15 0.16 0.17 0.22 0.24 0.28 0.29 0.27 0.22 0.26 0.32 0.32 0.29 0.32 0.31 0.30 0.29 0.31 0.40 0.60 0.85 1.14 1.42 1.56 1.60 1.63 1.61 1.49 1.32 1.14 1.11 1.12 1.24 1.38
0.02 0.03 0.03 0.04 0.05 0.06 0.08 0.10 0.12 0.11 0.11 0.12 0.17 0.19 0.20 0.23 0.22 0.19 0.22 0.30 0.38 0.42 0.43 0.44 0.42 0.37 0.34 0.34 0.35 0.50 0.76 1.12 1.45 1.60 1.70 1.74 1.70 1.60 1.43 1.26 1.20 1.24 1.36
0.02 0.02 0.02 0.03 0.03 0.03 0.02 0.02 0.04 0.06 0.06 0.07 0.13 0.18 0.15 0.14 0.13 0.13 0.16 0.23 0.32 0.41 0.46 0.49 0.51 0.51 0.46 0.41 0.30 0.29 0.41 0.70 1.10 1.50 1.73 1.84 1.96 1.94 1.78 1.57 1.42 1.38 1.43
0.02 0.02 0.02 0.02 0.02 0.02 0.02 0.02 0.03 0.05 0.05 0.04 0.08 0.20 0.28 0.21 0.14 0.07 0.09 0.13 0.18 0.22 0.29 0.36 0.44 0.50 0.52 0.51 0.43 0.33 0.30 0.46 0.74 1.14 1.59 1.90 2.14 2.34 2.27 1.99 1.76 1.64 1.60
0.02 0.02 0.02 0.02 0.02 0.02 0.02 0.03 0.03 0.04 0.06 0.08 0.07 0.10 0.18 0.23 0.28 0.15 0.04 0.04 0.05 0.08 0.11 0.17 0.24 0.32 0.41 0.46 0.49 0.51 0.46 0.43 0.64 0.87 1.23 1.71 2.18 2.59 2.84 2.61 2.20 1.89 1.77
0.01 0.01 0.01 0.02 0.02 0.03 0.03 0.03 0.03 0.05 0.07 0.10 0.13 0.13 0.13 0.12 0.17 0.27 0.13 0.02 0.02 0.03 0.04 0.08 0.12 0.18 0.26 0.35 0.43 0.51 0.58 0.57 0.70 0.86 1.02 1.37 1.87 2.51 2.99 3.03 2.70 2.30 1.99
0.02 0.02 0.02 0.03 0.03 0.03 0.04 0.05 0.06 0.07 0.08 0.11 0.14 0.16 0.20 0.23 0.20 0.26 0.24 0.08 0.03 0.02 0.03 0.04 0.07 0.13 0.21 0.30 0.39 0.53 0.61 0.65 0.73 0.86 0.88 1.05 1.40 1.96 2.68 3.09 3.03 2.74 2.40
0.02 0.02 0.03 0.04 0.05 0.05 0.06 0.07 0.10 0.11 0.12 0.15 0.16 0.17 0.19 0.21 0.22 0.29 0.33 0.19 0.08 0.03 0.02 0.04 0.06 0.11 0.19 0.26 0.32 0.42 0.49 0.54 0.61 0.72 0.75 0.74 0.87 1.28 2.01 2.79 3.20 3.13 2.89
0.02 0.02 0.04 0.05 0.06 0.07 0.09 0.10 0.13 0.15 0.18 0.20 0.20 0.21 0.23 0.21 0.24 0.30 0.37 0.40 0.29 0.09 0.03 0.03 0.04 0.09 0.14 0.19 0.26 0.34 0.35 0.40 0.45 0.54 0.64 0.65 0.65 0.75 1.18 1.97 2.80 3.32 3.29
0.02 0.03 0.05 0.08 0.10 0.11 0.13 0.15 0.17 0.19 0.21 0.23 0.25 0.27 0.30 0.29 0.28 0.28 0.31 0.42 0.59 0.42 0.11 0.03 0.05 0.08 0.12 0.15 0.21 0.27 0.27 0.32 0.37 0.43 0.51 0.58 0.61 0.64 0.77 1.11 1.83 2.68 3.31
0.03 0.04 0.07 0.09 0.12 0.16 0.18 0.22 0.23 0.23 0.24 0.25 0.28 0.32 0.35 0.34 0.33 0.32 0.33 0.36 0.48 0.59 0.36 0.07 0.06 0.09 0.14 0.16 0.21 0.25 0.24 0.30 0.34 0.39 0.41 0.45 0.53 0.62 0.70 0.84 1.13 1.80 2.57
0.06 0.07 0.08 0.10 0.12 0.17 0.21 0.25 0.27 0.29 0.32 0.32 0.34 0.38 0.37 0.37 0.41 0.40 0.40 0.41 0.41 0.50 0.50 0.14 0.06 0.09 0.16 0.23 0.22 0.23 0.23 0.24 0.28 0.34 0.38 0.39 0.44 0.52 0.61 0.71 0.85 1.21 1.87
0.10 0.11 0.13 0.14 0.15 0.18 0.23 0.28 0.31 0.33 0.38 0.43 0.44 0.44 0.44 0.44 0.45 0.46 0.51 0.50 0.45 0.44 0.51 0.33 0.10 0.09 0.14 0.23 0.27 0.26 0.24 0.23 0.23 0.29 0.35 0.40 0.43 0.48 0.55 0.63 0.73 0.87 1.25
0.18 0.19 0.21 0.24 0.26 0.28 0.34 0.36 0.37 0.41 0.43 0.46 0.50 0.55 0.55 0.55 0.54 0.53 0.57 0.59 0.55 0.48 0.49 0.47 0.25 0.14 0.18 0.24 0.30 0.30 0.29 0.28 0.27 0.30 0.32 0.38 0.45 0.49 0.53 0.58 0.65 0.74 0.85
0.29 0.32 0.36 0.38 0.40 0.45 0.63 0.68 0.56 0.51 0.50 0.51 0.54 0.59 0.63 0.68 0.69 0.70 0.75 0.73 0.69 0.65 0.57 0.54 0.42 0.30 0.28 0.30 0.37 0.39 0.34 0.32 0.36 0.35 0.35 0.34 0.40 0.46 0.50 0.49 0.49 0.54 0.68
0.38 0.42 0.44 0.45 0.47 0.59 0.95 1.10 0.85 0.70 0.62 0.58 0.57 0.61 0.64 0.74 0.89 1.04 1.15 1.07 0.92 0.90 0.83 0.77 0.63 0.48 0.41 0.44 0.52 0.48 0.49 0.40 0.41 0.46 0.42 0.35 0.33 0.32 0.37 0.45 0.50 0.52 0.57
0.41 0.42 0.44 0.44 0.43 0.56 0.92 1.10 0.88 0.69 0.55 0.52 0.52 0.50 0.51 0.58 0.69 0.82 1.00 1.02 0.98 1.08 1.13 1.03 0.89 0.76 0.58 0.52 0.60 0.69 0.73 0.70 0.60 0.49 0.50 0.47 0.42 0.41 0.38 0.38 0.48 0.52 0.60
0.29 0.28 0.28 0.27 0.26 0.36 0.75 0.92 0.74 0.47 0.33 0.35 0.37 0.38 0.38 0.42 0.49 0.50 0.60 0.65 0.70 0.81 0.98 1.11 1.15 0.94 0.76 0.67 0.79 0.93 0.94 0.93 0.73 0.61 0.70 0.75 0.63 0.56 0.50 0.50 0.57 0.55 0.60
0.18 0.16 0.13 0.12 0.11 0.18 0.56 0.81 0.63 0.28 0.22 0.26 0.31 0.34 0.35 0.37 0.43 0.54 0.59 0.53 0.48 0.50 0.68 0.88 1.08 1.01 0.91 0.92 1.09 1.29 1.34 1.32 1.08 0.85 0.83 0.98 0.85 0.77 0.70 0.64 0.61 0.55 0.56
0.11 0.09 0.07 0.05 0.05 0.08 0.36 0.75 0.62 0.26 0.21 0.23 0.27 0.34 0.38 0.35 0.42 0.58 0.64 0.58 0.44 0.41 0.46 0.67 0.90 1.02 1.08 1.21 1.40 1.65 1.73 1.75 1.61 1.29 1.08 1.09 1.01 0.92 0.89 0.85 0.76 0.67 0.59
0.07 0.06 0.05 0.04 0.03 0.05 0.20 0.62 0.72 0.34 0.24 0.22 0.22 0.30 0.44 0.48 0.48 0.55 0.59 0.60 0.58 0.45 0.37 0.38 0.43 0.54 0.68 0.80 1.07 1.37 1.54 1.66 1.65 1.61 1.33 1.23 1.21 1.15 1.22 1.02 0.82 0.68 0.60

GEFSMA_prec_meanprecacc_162.txt.gz
Total_Precipitation_Accumulation
0.07 0.07 0.06 0.05 0.04 0.05 0.06 0.07 0.07 0.08 0.10 0.14 0.17 0.18 0.23 0.24 0.21 0.20 0.17 0.13 0.11 0.15 0.25 0.36 0.51 0.72 0.93 1.03 1.06 0.99 0.94 0.87 0.77 0.69 0.68 0.71 0.81 0.92 0.99 0.95 0.99 1.03 1.00
0.04 0.04 0.04 0.03 0.02 0.02 0.03 0.03 0.04 0.05 0.06 0.09 0.09 0.12 0.16 0.16 0.15 0.18 0.19 0.19 0.16 0.15 0.23 0.28 0.36 0.50 0.78 1.01 1.11 1.08 1.03 1.01 0.98 0.92 0.81 0.78 0.81 0.89 0.99 1.05 0.91 0.86 0.83
0.02 0.02 0.02 0.02 0.02 0.02 0.03 0.03 0.03 0.04 0.05 0.06 0.08 0.10 0.11 0.12 0.13 0.16 0.20 0.22 0.22 0.20 0.22 0.31 0.35 0.42 0.60 0.85 1.09 1.27 1.15 1.10 1.15 1.14 1.00 0.89 0.84 0.90 0.93 1.06 1.08 0.99 0.88
0.02 0.03 0.03 0.03 0.02 0.03 0.06 0.06 0.06 0.07 0.06 0.08 0.10 0.13 0.13 0.14 0.13 0.16 0.22 0.22 0.24 0.23 0.22 0.27 0.37 0.43 0.54 0.68 0.89 1.23 1.35 1.31 1.30 1.29 1.23 1.11 0.95 0.96 0.99 1.04 1.12 1.14 1.08
0.03 0.04 0.04 0.06 0.06 0.08 0.10 0.12 0.11 0.13 0.12 0.11 0.12 0.16 0.18 0.21 0.22 0.22 0.27 0.28 0.27 0.25 0.25 0.26 0.32 0.35 0.44 0.59 0.79 1.05 1.35 1.50 1.48 1.48 1.43 1.35 1.20 1.05 1.05 1.09 1.15 1.25 1.27
0.03 0.03 0.03 0.04 0.07 0.12 0.15 0.18 0.15 0.15 0.16 0.17 0.22 0.24 0.28 0.29 0.27 0.22 0.26 0.32 0.32 0.29 0.32 0.31 0.30 0.29 0.31 0.40 0.60 0.85 1.14 1.42 1.56 1.60 1.63 1.61 1.50 1.33 1.16 1.12 1.14 1.26 1.40
0.03 0.03 0.03 0.04 0.05 0.06 0.08 0.10 0.12 0.11 0.11 0.12 0.17 0.19 0.20 0.23 0.22 0.19 0.22 0.30 0.38 0.42 0.43 0.44 0.42 0.37 0.34 0.34 0.35 0.50 0.76 1.12 1.45 1.60 1.70 1.74 1.71 1.61 1.44 1.28 1.22 1.26 1.39
0.02 0.02 0.02 0.03 0.03 0.03 0.02 0.02 0.04 0.07 0.06 0.07 0.13 0.18 0.15 0.14 0.13 0.13 0.16 0.23 0.32 0.41 0.46 0.49 0.51 0.51 0.46 0.41 0.30 0.29 0.41 0.70 1.10 1.50 1.73 1.85 1.97 1.95 1.79 1.58 1.44 1.41 1.45
0.02 0.02 0.02 0.02 0.02 0.02 0.02 0.02 0.03 0.05 0.06 0.04 0.08 0.21 0.29 0.21 0.14 0.07 0.09 0.13 0.18 0.22 0.29 0.36 0.44 0.50 0.52 0.51 0.43 0.33 0.30 0.46 0.74 1.14 1.59 1.90 2.14 2.35 2.29 2.00 1.77 1.66 1.62
0.02 0.02 0.02 0.02 0.02 0.02 0.03 0.03 0.03 0.04 0.07 0.08 0.07 0.11 0.19 0.23 0.29 0.16 0.04 0.04 0.05 0.08 0.11 0.17 0.24 0.32 0.41 0.46 0.49 0.51 0.46 0.43 0.64 0.87 1.23 1.71 2.18 2.59 2.85 2.63 2.22 1.91 1.80
0.01 0.01 0.01 0.02 0.02 0.03 0.03 0.03 0.04 0.05 0.07 0.10 0.13 0.13 0.13 0.12 0.17 0.27 0.13 0.02 0.02 0.03 0.04 0.08 0.12 0.18 0.26 0.35 0.43 0.51 0.58 0.57 0.70 0.86 1.02 1.37 1.87 2.52 3.01 3.04 2.72 2.32 2.01
0.02 0.02 0.02 0.03 0.03 0.03 0.04 0.05 0.06 0.07 0.09 0.11 0.14 0.16 0.20 0.24 0.21 0.26 0.24 0.08 0.03 0.02 0.03 0.04 0.07 0.13 0.21 0.30 0.39 0.53 0.61 0.65 0.73 0.86 0.88 1.05 1.40 1.96 2.69 3.11 3.04 2.76 2.42
0.02 0.02 0.03 0.04 0.05 0.05 0.06 0.07 0.10 0.11 0.13 0.15 0.16 0.18 0.20 0.21 0.23 0.30 0.34 0.19 0.08 0.03 0.02 0.04 0.06 0.11 0.19 0.26 0.32 0.42 0.49 0.54 0.61 0.72 0.75 0.75 0.87 1.29 2.01 2.80 3.22 3.15 2.91
0.02 0.02 0.04 0.05 0.06 0.07 0.09 0.10 0.13 0.15 0.18 0.20 0.20 0.22 0.23 0.21 0.24 0.30 0.37 0.40 0.29 0.09 0.03 0.03 0.04 0.09 0.14 0.19 0.26 0.34 0.35 0.40 0.45 0.54 0.64 0.66 0.65 0.76 1.18 1.98 2.82 3.34 3.31
0.02 0.03 0.05 0.08 0.10 0.11 0.13 0.15 0.18 0.19 0.21 0.23 0.25 0.27 0.30 0.29 0.28 0.28 0.32 0.43 0.59 0.43 0.12 0.03 0.05 0.08 0.12 0.15 0.22 0.27 0.27 0.32 0.37 0.43 0.51 0.59 0.61 0.64 0.78 1.12 1.84 2.70 3.33
0.03 0.04 0.07 0.09 0.12 0.16 0.18 0.22 0.23 0.23 0.25 0.25 0.28 0.32 0.35 0.34 0.33 0.32 0.34 0.36 0.48 0.59 0.37 0.07 0.06 0.09 0.14 0.16 0.22 0.25 0.24 0.30 0.34 0.39 0.41 0.45 0.54 0.63 0.71 0.85 1.15 1.82 2.59
0.06 0.07 0.09 0.10 0.12 0.17 0.22 0.25 0.27 0.29 0.32 0.32 0.34 0.38 0.37 0.37 0.41 0.41 0.41 0.41 0.41 0.50 0.51 0.15 0.06 0.09 0.17 0.23 0.22 0.23 0.23 0.24 0.28 0.34 0.38 0.40 0.44 0.52 0.62 0.72 0.86 1.22 1.90
0.10 0.11 0.13 0.14 0.15 0.18 0.23 0.28 0.31 0.33 0.38 0.43 0.44 0.44 0.44 0.44 0.45 0.46 0.51 0.51 0.46 0.45 0.52 0.33 0.11 0.09 0.15 0.23 0.27 0.26 0.24 0.23 0.24 0.29 0.35 0.40 0.44 0.49 0.56 0.64 0.75 0.88 1.26
0.19 0.20 0.21 0.25 0.26 0.28 0.35 0.36 0.37 0.41 0.43 0.47 0.50 0.55 0.55 0.55 0.55 0.54 0.58 0.59 0.55 0.48 0.49 0.48 0.25 0.15 0.18 0.24 0.30 0.31 0.29 0.28 0.27 0.30 0.32 0.38 0.45 0.50 0.53 0.58 0.67 0.76 0.86
0.31 0.33 0.36 0.39 0.40 0.45 0.63 0.68 0.56 0.51 0.50 0.51 0.54 0.59 0.63 0.69 0.70 0.71 0.76 0.74 0.70 0.66 0.58 0.55 0.42 0.30 0.29 0.30 0.38 0.39 0.35 0.33 0.36 0.36 0.35 0.35 0.40 0.47 0.50 0.50 0.49 0.55 0.69
0.41 0.44 0.45 0.46 0.48 0.60 0.95 1.10 0.85 0.71 0.62 0.59 0.57 0.61 0.65 0.75 0.90 1.06 1.16 1.07 0.93 0.91 0.83 0.77 0.64 0.49 0.42 0.44 0.52 0.49 0.49 0.40 0.42 0.46 0.43 0.35 0.33 0.33 0.37 0.45 0.50 0.53 0.58
0.45 0.45 0.47 0.45 0.44 0.56 0.93 1.10 0.88 0.69 0.55 0.53 0.53 0.50 0.52 0.59 0.71 0.83 1.01 1.02 0.98 1.09 1.14 1.04 0.90 0.77 0.58 0.52 0.61 0.70 0.74 0.71 0.61 0.49 0.50 0.47 0.42 0.41 0.39 0.39 0.48 0.53 0.61
0.32 0.32 0.33 0.32 0.28 0.37 0.75 0.93 0.75 0.47 0.34 0.36 0.38 0.38 0.39 0.42 0.50 0.51 0.61 0.65 0.71 0.82 0.99 1.12 1.16 0.94 0.77 0.68 0.81 0.94 0.95 0.94 0.73 0.61 0.70 0.75 0.63 0.56 0.50 0.51 0.57 0.55 0.61
0.19 0.17 0.16 0.16 0.16 0.21 0.58 0.82 0.63 0.29 0.22 0.27 0.32 0.35 0.35 0.37 0.43 0.55 0.60 0.55 0.49 0.51 0.68 0.89 1.08 1.01 0.91 0.93 1.10 1.30 1.35 1.32 1.08 0.85 0.83 0.98 0.85 0.77 0.70 0.64 0.61 0.55 0.56
0.12 0.11 0.08 0.08 0.08 0.12 0.40 0.77 0.63 0.27 0.22 0.23 0.27 0.35 0.38 0.35 0.42 0.59 0.65 0.58 0.45 0.41 0.46 0.67 0.90 1.03 1.09 1.21 1.41 1.65 1.73 1.76 1.62 1.29 1.08 1.10 1.01 0.92 0.89 0.85 0.76 0.67 0.59
0.07 0.07 0.06 0.05 0.05 0.07 0.23 0.64 0.75 0.36 0.26 0.23 0.23 0.30 0.45 0.48 0.49 0.55 0.59 0.60 0.58 0.45 0.37 0.38 0.43 0.54 0.68 0.80 1.08 1.38 1.54 1.67 1.66 1.61 1.34 1.23 1.22 1.16 1.23 1.02 0.82 0.68 0.60

GEFSMA_prec_meanprecacc_168.txt.gz
Total_Precipitation_Accumulation
0.07 0.07 0.06 0.05 0.04 0.05 0.06 0.07 0.07 0.08 0.10 0.14 0.17 0.18 0.23 0.24 0.21 0.20 0.17 0.13 0.11 0.15 0.25 0.36 0.51 0.72 0.94 1.03 1.07 1.00 0.94 0.87 0.77 0.70 0.68 0.71 0.82 0.92 0.99 0.95 1.00 1.04 1.02
0.04 0.04 0.04 0.03 0.02 0.02 0.03 0.03 0.04 0.05 0.06 0.09 0.09 0.12 0.16 0.16 0.15 0.18 0.19 0.19 0.16 0.15 0.23 0.28 0.36 0.50 0.78 1.01 1.11 1.09 1.03 1.01 0.98 0.92 0.81 0.78 0.82 0.90 1.00 1.06 0.93 0.87 0.84
0.02 0.02 0.02 0.02 0.02 0.02 0.03 0.03 0.03 0.04 0.05 0.06 0.08 0.10 0.11 0.12 0.13 0.16 0.20 0.22 0.22 0.20 0.22 0.31 0.35 0.42 0.60 0.85 1.09 1.27 1.15 1.11 1.15 1.14 1.00 0.89 0.84 0.90 0.94 1.07 1.10 1.00 0.89
0.02 0.03 0.03 0.03 0.02 0.03 0.06 0.06 0.06 0.07 0.06 0.08 0.10 0.13 0.13 0.14 0.13 0.16 0.22 0.22 0.24 0.23 0.22 0.27 0.37 0.43 0.54 0.68 0.90 1.24 1.36 1.32 1.31 1.30 1.23 1.11 0.96 0.96 1.00 1.05 1.14 1.16 1.10
0.03 0.04 0.04 0.06 0.06 0.08 0.10 0.12 0.11 0.13 0.12 0.11 0.12 0.16 0.18 0.21 0.22 0.22 0.27 0.28 0.27 0.25 0.25 0.26 0.32 0.35 0.44 0.59 0.79 1.06 1.35 1.50 1.48 1.48 1.44 1.35 1.21 1.06 1.06 1.11 1.16 1.27 1.29
0.03 0.03 0.03 0.04 0.07 0.12 0.15 0.18 0.15 0.15 0.16 0.17 0.22 0.24 0.28 0.29 0.27 0.22 0.26 0.32 0.32 0.29 0.32 0.31 0.30 0.29 0.31 0.40 0.60 0.85 1.15 1.42 1.56 1.60 1.64 1.62 1.51 1.34 1.17 1.13 1.15 1.27 1.42
0.03 0.03 0.03 0.04 0.05 0.06 0.08 0.10 0.12 0.11 0.11 0.12 0.17 0.19 0.20 0.23 0.22 0.19 0.22 0.30 0.38 0.42 0.43 0.44 0.42 0.37 0.34 0.34 0.35 0.50 0.77 1.13 1.45 1.61 1.70 1.75 1.72 1.62 1.45 1.29 1.23 1.28 1.41
0.02 0.02 0.02 0.03 0.03 0.03 0.02 0.02 0.04 0.07 0.06 0.07 0.13 0.18 0.15 0.14 0.13 0.13 0.16 0.23 0.32 0.41 0.46 0.49 0.51 0.51 0.46 0.41 0.30 0.29 0.41 0.70 1.10 1.50 1.73 1.85 1.98 1.96 1.81 1.60 1.45 1.43 1.48
0.02 0.02 0.02 0.02 0.02 0.02 0.02 0.02 0.03 0.05 0.06 0.05 0.08 0.21 0.29 0.21 0.14 0.07 0.09 0.13 0.18 0.22 0.29 0.36 0.44 0.50 0.52 0.51 0.43 0.33 0.30 0.46 0.74 1.14 1.60 1.91 2.15 2.36 2.30 2.02 1.80 1.69 1.65
0.02 0.02 0.02 0.02 0.03 0.03 0.03 0.03 0.03 0.05 0.07 0.08 0.07 0.11 0.19 0.23 0.29 0.16 0.04 0.04 0.05 0.08 0.11 0.17 0.24 0.32 0.41 0.46 0.50 0.51 0.46 0.43 0.64 0.87 1.23 1.72 2.19 2.61 2.87 2.65 2.24 1.94 1.83
0.01 0.01 0.02 0.02 0.03 0.03 0.03 0.03 0.04 0.05 0.08 0.11 0.13 0.13 0.13 0.12 0.17 0.27 0.13 0.02 0.02 0.03 0.04 0.08 0.12 0.18 0.26 0.35 0.43 0.51 0.58 0.57 0.70 0.86 1.02 1.37 1.88 2.53 3.02 3.06 2.74 2.35 2.04
0.02 0.02 0.02 0.03 0.03 0.04 0.04 0.05 0.06 0.07 0.09 0.11 0.14 0.17 0.21 0.24 0.21 0.27 0.24 0.09 0.03 0.02 0.03 0.04 0.07 0.13 0.21 0.30 0.39 0.53 0.61 0.65 0.73 0.86 0.88 1.06 1.41 1.97 2.69 3.11 3.05 2.78 2.45
0.03 0.03 0.03 0.04 0.05 0.05 0.06 0.07 0.10 0.12 0.13 0.16 0.16 0.18 0.20 0.22 0.23 0.30 0.34 0.20 0.08 0.03 0.02 0.04 0.06 0.11 0.19 0.26 0.32 0.43 0.49 0.54 0.61 0.72 0.75 0.75 0.88 1.29 2.02 2.81 3.23 3.17 2.93
0.02 0.03 0.04 0.06 0.06 0.07 0.09 0.10 0.13 0.15 0.18 0.20 0.20 0.22 0.24 0.22 0.25 0.30 0.37 0.40 0.30 0.10 0.03 0.03 0.04 0.09 0.15 0.19 0.26 0.34 0.35 0.40 0.45 0.54 0.64 0.66 0.65 0.76 1.19 1.99 2.83 3.35 3.33
0.02 0.03 0.05 0.08 0.10 0.11 0.13 0.15 0.18 0.19 0.21 0.23 0.25 0.27 0.30 0.29 0.28 0.28 0.32 0.43 0.60 0.44 0.12 0.03 0.05 0.08 0.12 0.15 0.22 0.27 0.27 0.32 0.38 0.43 0.51 0.59 0.62 0.65 0.79 1.13 1.85 2.71 3.35
0.03 0.05 0.07 0.10 0.13 0.16 0.19 0.22 0.23 0.23 0.25 0.26 0.29 0.33 0.35 0.35 0.33 0.33 0.34 0.36 0.48 0.60 0.38 0.08 0.07 0.10 0.14 0.16 0.22 0.25 0.25 0.30 0.34 0.39 0.41 0.45 0.54 0.63 0.72 0.86 1.16 1.83 2.61
0.06 0.07 0.09 0.10 0.13 0.17 0.22 0.25 0.27 0.30 0.33 0.33 0.34 0.38 0.37 0.38 0.42 0.41 0.41 0.41 0.42 0.51 0.52 0.15 0.07 0.09 0.17 0.23 0.23 0.23 0.24 0.24 0.28 0.34 0.38 0.40 0.45 0.53 0.63 0.73 0.87 1.24 1.91
0.11 0.11 0.13 0.15 0.16 0.18 0.24 0.28 0.31 0.33 0.39 0.44 0.45 0.45 0.44 0.44 0.46 0.47 0.52 0.51 0.47 0.45 0.53 0.34 0.11 0.10 0.15 0.24 0.27 0.26 0.25 0.23 0.24 0.29 0.35 0.40 0.44 0.49 0.56 0.65 0.76 0.90 1.28
0.20 0.20 0.22 0.25 0.26 0.28 0.35 0.36 0.38 0.41 0.44 0.47 0.51 0.55 0.56 0.56 0.56 0.55 0.59 0.60 0.57 0.49 0.50 0.49 0.27 0.16 0.19 0.25 0.30 0.31 0.29 0.28 0.27 0.30 0.32 0.38 0.45 0.50 0.53 0.59 0.67 0.77 0.87
0.32 0.34 0.37 0.39 0.40 0.45 0.63 0.69 0.57 0.51 0.50 0.52 0.55 0.59 0.64 0.69 0.71 0.72 0.77 0.75 0.72 0.68 0.60 0.56 0.44 0.31 0.29 0.30 0.38 0.39 0.35 0.33 0.36 0.36 0.35 0.35 0.40 0.47 0.50 0.50 0.50 0.56 0.70
0.42 0.45 0.46 0.47 0.48 0.60 0.96 1.11 0.86 0.71 0.63 0.59 0.58 0.62 0.66 0.75 0.91 1.06 1.17 1.09 0.95 0.93 0.85 0.78 0.65 0.49 0.42 0.45 0.52 0.49 0.49 0.40 0.42 0.46 0.43 0.35 0.33 0.33 0.37 0.45 0.51 0.53 0.59
0.45 0.47 0.48 0.46 0.44 0.56 0.93 1.11 0.89 0.70 0.56 0.54 0.54 0.51 0.53 0.60 0.71 0.84 1.02 1.03 0.99 1.10 1.15 1.05 0.92 0.78 0.59 0.53 0.62 0.71 0.74 0.72 0.61 0.49 0.50 0.47 0.42 0.41 0.39 0.39 0.49 0.54 0.62
0.33 0.33 0.34 0.33 0.30 0.38 0.76 0.93 0.75 0.48 0.35 0.37 0.39 0.39 0.39 0.43 0.51 0.51 0.62 0.67 0.72 0.82 1.00 1.13 1.17 0.95 0.77 0.69 0.82 0.95 0.96 0.94 0.74 0.62 0.70 0.75 0.63 0.56 0.50 0.51 0.57 0.55 0.62
0.19 0.18 0.17 0.17 0.18 0.24 0.62 0.86 0.67 0.32 0.25 0.28 0.33 0.36 0.36 0.38 0.44 0.56 0.61 0.55 0.49 0.52 0.69 0.90 1.09 1.02 0.92 0.93 1.11 1.30 1.35 1.33 1.09 0.85 0.83 0.98 0.85 0.77 0.70 0.64 0.61 0.55 0.56
0.13 0.11 0.09 0.08 0.09 0.13 0.42 0.81 0.69 0.33 0.29 0.29 0.31 0.37 0.39 0.36 0.43 0.59 0.66 0.59 0.46 0.42 0.47 0.68 0.91 1.03 1.09 1.22 1.41 1.65 1.73 1.76 1.62 1.29 1.08 1.10 1.01 0.92 0.89 0.85 0.76 0.67 0.59
0.08 0.07 0.06 0.05 0.05 0.07 0.24 0.65 0.76 0.39 0.30 0.28 0.27 0.33 0.47 0.50 0.50 0.56 0.60 0.61 0.59 0.46 0.38 0.39 0.44 0.55 0.68 0.81 1.08 1.38 1.54 1.67 1.67 1.61 1.34 1.24 1.22 1.16 1.23 1.02 0.82 0.68 0.60

GEFSMA_prec_meanprecacc_174.txt.gz
Total_Precipitation_Accumulation
0.07 0.07 0.06 0.05 0.05 0.05 0.06 0.07 0.07 0.08 0.10 0.14 0.17 0.18 0.23 0.24 0.21 0.20 0.17 0.13 0.11 0.15 0.25 0.36 0.51 0.72 0.94 1.03 1.07 1.00 0.94 0.87 0.77 0.70 0.69 0.72 0.82 0.93 1.00 0.96 1.00 1.05 1.02
0.04 0.04 0.04 0.03 0.03 0.02 0.03 0.03 0.04 0.05 0.06 0.09 0.09 0.12 0.16 0.16 0.15 0.18 0.19 0.19 0.16 0.15 0.23 0.28 0.36 0.50 0.78 1.01 1.11 1.09 1.03 1.01 0.98 0.92 0.81 0.78 0.82 0.90 1.00 1.07 0.93 0.88 0.85
0.02 0.02 0.02 0.02 0.02 0.02 0.03 0.03 0.03 0.04 0.05 0.06 0.08 0.10 0.11 0.12 0.13 0.16 0.20 0.22 0.22 0.20 0.22 0.31 0.35 0.42 0.60 0.85 1.09 1.27 1.15 1.11 1.15 1.14 1.00 0.90 0.85 0.91 0.95 1.07 1.10 1.01 0.90
0.02 0.03 0.03 0.03 0.02 0.03 0.06 0.06 0.06 0.07 0.06 0.08 0.10 0.13 0.13 0.14 0.13 0.16 0.22 0.22 0.24 0.23 0.22 0.27 0.37 0.43 0.54 0.68 0.90 1.24 1.36 1.32 1.31 1.30 1.23 1.12 0.96 0.97 1.00 1.06 1.15 1.17 1.12
0.03 0.04 0.05 0.06 0.06 0.08 0.10 0.12 0.11 0.13 0.12 0.11 0.12 0.16 0.18 0.21 0.22 0.22 0.27 0.28 0.27 0.25 0.25 0.26 0.32 0.35 0.44 0.59 0.79 1.06 1.35 1.50 1.49 1.48 1.44 1.36 1.21 1.06 1.06 1.11 1.17 1.28 1.31
0.03 0.03 0.04 0.04 0.07 0.12 0.15 0.18 0.15 0.15 0.16 0.17 0.22 0.24 0.28 0.29 0.27 0.22 0.26 0.32 0.32 0.29 0.32 0.31 0.30 0.29 0.31 0.40 0.60 0.85 1.15 1.42 1.56 1.61 1.64 1.62 1.51 1.35 1.17 1.15 1.17 1.29 1.44
0.03 0.03 0.03 0.04 0.05 0.06 0.08 0.10 0.12 0.11 0.11 0.12 0.17 0.19 0.20 0.23 0.22 0.19 0.22 0.30 0.38 0.42 0.43 0.44 0.42 0.37 0.34 0.34 0.35 0.50 0.77 1.13 1.45 1.61 1.71 1.75 1.72 1.63 1.46 1.31 1.25 1.30 1.43
0.02 0.02 0.02 0.03 0.03 0.03 0.02 0.03 0.04 0.07 0.06 0.07 0.13 0.18 0.15 0.14 0.13 0.13 0.16 0.23 0.32 0.41 0.46 0.49 0.51 0.51 0.46 0.41 0.30 0.29 0.41 0.70 1.10 1.51 1.73 1.86 1.98 1.97 1.81 1.61 1.47 1.45 1.50
0.02 0.02 0.02 0.02 0.02 0.02 0.02 0.02 0.03 0.06 0.06 0.05 0.08 0.21 0.29 0.22 0.14 0.07 0.09 0.13 0.18 0.22 0.29 0.36 0.44 0.50 0.52 0.51 0.43 0.33 0.30 0.46 0.74 1.14 1.60 1.91 2.15 2.37 2.31 2.03 1.82 1.72 1.68
0.02 0.02 0.02 0.02 0.03 0.03 0.03 0.03 0.03 0.05 0.07 0.09 0.07 0.11 0.19 0.23 0.29 0.16 0.04 0.04 0.05 0.08 0.11 0.17 0.24 0.32 0.41 0.46 0.50 0.51 0.46 0.43 0.64 0.87 1.24 1.72 2.19 2.61 2.88 2.67 2.26 1.96 1.85
0.02 0.02 0.02 0.02 0.03 0.03 0.04 0.04 0.04 0.05 0.08 0.11 0.13 0.14 0.13 0.12 0.17 0.28 0.14 0.02 0.02 0.03 0.04 0.08 0.12 0.18 0.26 0.35 0.43 0.51 0.58 0.57 0.70 0.86 1.02 1.37 1.88 2.54 3.03 3.08 2.75 2.36 2.06
0.02 0.02 0.03 0.03 0.03 0.04 0.04 0.05 0.06 0.07 0.09 0.11 0.14 0.17 0.21 0.24 0.21 0.27 0.24 0.09 0.03 0.02 0.03 0.04 0.07 0.13 0.21 0.30 0.39 0.53 0.61 0.65 0.73 0.86 0.88 1.06 1.41 1.97 2.70 3.13 3.07 2.79 2.47
0.03 0.03 0.03 0.04 0.05 0.06 0.06 0.08 0.10 0.12 0.13 0.16 0.16 0.18 0.20 0.22 0.23 0.30 0.34 0.20 0.09 0.03 0.02 0.04 0.06 0.11 0.19 0.26 0.32 0.43 0.49 0.54 0.61 0.72 0.75 0.75 0.88 1.30 2.03 2.82 3.24 3.18 2.95
0.02 0.03 0.04 0.06 0.07 0.07 0.09 0.11 0.13 0.15 0.18 0.20 0.20 0.22 0.24 0.22 0.25 0.31 0.38 0.41 0.30 0.10 0.03 0.03 0.04 0.09 0.15 0.19 0.26 0.34 0.35 0.40 0.45 0.54 0.64 0.66 0.65 0.77 1.20 2.00 2.84 3.36 3.34
0.02 0.03 0.05 0.08 0.10 0.12 0.13 0.15 0.18 0.19 0.21 0.23 0.25 0.27 0.30 0.29 0.28 0.28 0.32 0.43 0.60 0.44 0.12 0.03 0.05 0.08 0.12 0.16 0.22 0.27 0.27 0.32 0.38 0.43 0.51 0.59 0.62 0.65 0.79 1.13 1.86 2.72 3.36
0.03 0.05 0.07 0.10 0.13 0.16 0.19 0.22 0.23 0.24 0.25 0.26 0.29 0.33 0.35 0.35 0.33 0.33 0.34 0.36 0.49 0.61 0.38 0.08 0.07 0.10 0.14 0.16 0.22 0.26 0.25 0.30 0.35 0.39 0.41 0.45 0.54 0.63 0.72 0.86 1.16 1.85 2.62
0.06 0.07 0.09 0.10 0.13 0.17 0.22 0.25 0.27 0.30 0.33 0.33 0.35 0.39 0.38 0.38 0.42 0.41 0.41 0.41 0.42 0.51 0.53 0.16 0.07 0.10 0.18 0.24 0.24 0.24 0.24 0.25 0.28 0.34 0.39 0.40 0.45 0.53 0.63 0.73 0.88 1.25 1.93
0.11 0.11 0.13 0.15 0.16 0.18 0.24 0.28 0.31 0.33 0.39 0.44 0.45 0.46 0.45 0.45 0.46 0.47 0.52 0.52 0.48 0.47 0.54 0.35 0.12 0.11 0.17 0.25 0.28 0.26 0.25 0.23 0.24 0.29 0.35 0.41 0.44 0.49 0.57 0.66 0.76 0.91 1.28
0.21 0.21 0.22 0.25 0.26 0.28 0.35 0.36 0.38 0.41 0.44 0.48 0.51 0.56 0.57 0.57 0.57 0.56 0.59 0.61 0.58 0.51 0.51 0.50 0.28 0.17 0.19 0.25 0.31 0.31 0.29 0.29 0.27 0.30 0.32 0.38 0.45 0.50 0.53 0.59 0.68 0.77 0.88
0.32 0.35 0.37 0.39 0.40 0.45 0.64 0.69 0.57 0.52 0.50 0.52 0.55 0.60 0.65 0.70 0.72 0.73 0.77 0.76 0.73 0.69 0.61 0.57 0.45 0.32 0.30 0.31 0.38 0.39 0.35 0.33 0.36 0.36 0.35 0.35 0.40 0.47 0.50 0.50 0.50 0.56 0.71
0.43 0.46 0.47 0.47 0.48 0.60 0.96 1.11 0.86 0.71 0.63 0.59 0.58 0.62 0.66 0.76 0.92 1.07 1.18 1.10 0.96 0.93 0.86 0.79 0.66 0.50 0.43 0.45 0.53 0.49 0.50 0.41 0.42 0.46 0.43 0.36 0.33 0.33 0.37 0.45 0.51 0.54 0.60
0.47 0.48 0.49 0.47 0.45 0.57 0.93 1.11 0.89 0.70 0.56 0.54 0.54 0.51 0.53 0.61 0.72 0.85 1.02 1.04 1.00 1.11 1.16 1.07 0.93 0.79 0.60 0.54 0.62 0.71 0.74 0.72 0.61 0.50 0.50 0.47 0.42 0.41 0.39 0.39 0.49 0.54 0.62
0.34 0.34 0.35 0.34 0.30 0.39 0.77 0.93 0.76 0.48 0.35 0.37 0.39 0.39 0.40 0.43 0.51 0.52 0.63 0.68 0.74 0.84 1.01 1.14 1.17 0.96 0.78 0.69 0.82 0.95 0.96 0.94 0.74 0.62 0.70 0.75 0.63 0.56 0.51 0.51 0.57 0.55 0.62
0.22 0.20 0.18 0.18 0.19 0.25 0.63 0.86 0.67 0.32 0.25 0.28 0.33 0.36 0.36 0.38 0.44 0.56 0.62 0.56 0.50 0.52 0.70 0.90 1.09 1.02 0.92 0.93 1.11 1.30 1.35 1.33 1.09 0.85 0.83 0.98 0.85 0.77 0.70 0.64 0.61 0.55 0.56
0.14 0.13 0.10 0.09 0.10 0.14 0.44 0.82 0.70 0.34 0.30 0.30 0.32 0.38 0.40 0.36 0.44 0.60 0.66 0.59 0.46 0.42 0.47 0.69 0.91 1.04 1.10 1.22 1.42 1.65 1.73 1.76 1.62 1.29 1.08 1.10 1.01 0.92 0.89 0.85 0.76 0.67 0.59
0.08 0.08 0.08 0.07 0.06 0.08 0.25 0.66 0.77 0.40 0.31 0.28 0.28 0.34 0.48 0.50 0.51 0.56 0.60 0.61 0.59 0.46 0.38 0.39 0.44 0.55 0.69 0.81 1.08 1.38 1.55 1.68 1.67 1.62 1.34 1.24 1.22 1.16 1.23 1.02 0.82 0.68 0.60

GEFSMA_prec_meanprecacc_180.txt.gz
Total_Precipitation_Accumulation
0.07 0.07 0.07 0.05 0.05 0.05 0.06 0.07 0.07 0.08 0.10 0.14 0.17 0.18 0.23 0.24 0.21 0.20 0.17 0.13 0.11 0.15 0.25 0.36 0.51 0.72 0.94 1.03 1.07 1.00 0.94 0.87 0.77 0.70 0.69 0.72 0.83 0.93 1.00 0.96 1.01 1.05 1.03
0.04 0.04 0.04 0.04 0.03 0.03 0.03 0.03 0.04 0.05 0.06 0.09 0.09 0.12 0.16 0.16 0.15 0.18 0.19 0.19 0.16 0.15 0.23 0.28 0.36 0.50 0.78 1.01 1.12 1.09 1.03 1.01 0.98 0.92 0.81 0.79 0.83 0.91 1.01 1.07 0.93 0.88 0.86
0.02 0.02 0.02 0.02 0.02 0.02 0.03 0.03 0.03 0.04 0.05 0.06 0.08 0.10 0.11 0.12 0.13 0.16 0.20 0.22 0.22 0.20 0.22 0.31 0.35 0.42 0.60 0.85 1.09 1.27 1.15 1.11 1.15 1.14 1.00 0.90 0.85 0.91 0.95 1.08 1.11 1.02 0.91
0.03 0.03 0.04 0.04 0.02 0.03 0.06 0.07 0.06 0.07 0.06 0.08 0.10 0.13 0.13 0.14 0.13 0.16 0.22 0.22 0.24 0.23 0.22 0.27 0.37 0.43 0.54 0.68 0.90 1.24 1.36 1.32 1.31 1.30 1.23 1.12 0.96 0.97 1.00 1.06 1.15 1.18 1.12
0.04 0.04 0.05 0.06 0.07 0.08 0.10 0.12 0.11 0.13 0.12 0.11 0.12 0.16 0.18 0.21 0.22 0.22 0.27 0.28 0.27 0.25 0.25 0.26 0.32 0.35 0.44 0.59 0.79 1.06 1.36 1.50 1.49 1.49 1.44 1.36 1.22 1.06 1.07 1.12 1.18 1.29 1.32
0.03 0.04 0.04 0.05 0.08 0.12 0.15 0.18 0.15 0.15 0.16 0.17 0.22 0.24 0.28 0.30 0.27 0.22 0.26 0.32 0.32 0.29 0.32 0.31 0.30 0.29 0.31 0.40 0.60 0.85 1.15 1.43 1.56 1.61 1.65 1.63 1.51 1.35 1.18 1.15 1.18 1.30 1.45
0.03 0.03 0.03 0.04 0.05 0.07 0.08 0.10 0.12 0.11 0.11 0.13 0.18 0.19 0.20 0.23 0.22 0.19 0.22 0.30 0.38 0.42 0.43 0.44 0.42 0.37 0.34 0.34 0.35 0.50 0.77 1.13 1.45 1.61 1.71 1.75 1.73 1.63 1.47 1.32 1.26 1.31 1.45
0.03 0.03 0.03 0.03 0.03 0.03 0.03 0.03 0.04 0.07 0.06 0.07 0.14 0.18 0.16 0.14 0.13 0.13 0.16 0.23 0.32 0.41 0.46 0.49 0.51 0.51 0.46 0.41 0.30 0.29 0.41 0.70 1.10 1.51 1.74 1.86 1.98 1.97 1.82 1.62 1.48 1.47 1.53
0.03 0.02 0.02 0.02 0.02 0.02 0.03 0.03 0.04 0.06 0.06 0.05 0.08 0.22 0.30 0.22 0.14 0.07 0.09 0.13 0.18 0.22 0.29 0.36 0.44 0.50 0.52 0.51 0.43 0.33 0.30 0.46 0.74 1.14 1.60 1.91 2.16 2.37 2.32 2.05 1.83 1.74 1.70
0.02 0.02 0.02 0.02 0.03 0.03 0.03 0.03 0.04 0.05 0.08 0.09 0.08 0.11 0.19 0.23 0.29 0.16 0.04 0.04 0.05 0.08 0.11 0.17 0.24 0.32 0.41 0.46 0.50 0.51 0.46 0.43 0.64 0.87 1.24 1.72 2.20 2.62 2.89 2.68 2.28 1.98 1.87
0.02 0.02 0.02 0.02 0.03 0.03 0.04 0.04 0.04 0.05 0.08 0.12 0.14 0.14 0.13 0.12 0.18 0.28 0.14 0.02 0.02 0.03 0.04 0.08 0.12 0.18 0.26 0.35 0.43 0.51 0.58 0.57 0.70 0.86 1.02 1.37 1.88 2.54 3.04 3.09 2.77 2.38 2.08
0.03 0.03 0.03 0.03 0.03 0.04 0.04 0.05 0.06 0.07 0.09 0.12 0.15 0.17 0.21 0.24 0.21 0.27 0.25 0.09 0.03 0.02 0.03 0.04 0.07 0.13 0.21 0.30 0.39 0.53 0.61 0.65 0.73 0.86 0.88 1.06 1.41 1.97 2.70 3.13 3.08 2.80 2.49
0.03 0.03 0.04 0.04 0.05 0.06 0.06 0.08 0.10 0.12 0.13 0.16 0.17 0.18 0.20 0.22 0.23 0.30 0.35 0.20 0.09 0.03 0.02 0.04 0.06 0.11 0.19 0.26 0.32 0.43 0.49 0.54 0.61 0.72 0.75 0.75 0.88 1.30 2.03 2.82 3.25 3.19 2.97
0.03 0.03 0.04 0.06 0.07 0.07 0.09 0.11 0.13 0.16 0.18 0.20 0.20 0.22 0.24 0.22 0.25 0.31 0.38 0.41 0.30 0.10 0.03 0.03 0.04 0.09 0.15 0.19 0.26 0.34 0.35 0.40 0.45 0.54 0.64 0.66 0.66 0.77 1.20 2.00 2.84 3.37 3.35
0.03 0.04 0.06 0.08 0.11 0.12 0.13 0.15 0.18 0.19 0.21 0.23 0.25 0.27 0.30 0.29 0.28 0.28 0.32 0.44 0.61 0.45 0.12 0.03 0.05 0.08 0.12 0.16 0.22 0.27 0.27 0.32 0.38 0.43 0.51 0.59 0.62 0.65 0.80 1.14 1.86 2.73 3.38
0.04 0.05 0.08 0.10 0.13 0.16 0.19 0.22 0.23 0.24 0.25 0.26 0.29 0.33 0.35 0.35 0.33 0.33 0.34 0.36 0.49 0.61 0.39 0.08 0.07 0.10 0.14 0.16 0.22 0.26 0.25 0.31 0.35 0.39 0.41 0.45 0.54 0.63 0.72 0.87 1.17 1.85 2.63
0.07 0.08 0.10 0.11 0.13 0.17 0.22 0.25 0.27 0.30 0.33 0.33 0.35 0.39 0.38 0.38 0.42 0.41 0.41 0.42 0.42 0.52 0.53 0.16 0.07 0.10 0.18 0.25 0.24 0.24 0.24 0.25 0.28 0.35 0.39 0.40 0.45 0.53 0.63 0.73 0.89 1.26 1.93
0.12 0.12 0.14 0.15 0.16 0.19 0.24 0.28 0.31 0.33 0.39 0.44 0.46 0.46 0.45 0.45 0.46 0.48 0.53 0.52 0.48 0.47 0.54 0.36 0.13 0.11 0.17 0.25 0.28 0.27 0.25 0.23 0.24 0.30 0.35 0.41 0.44 0.49 0.57 0.66 0.77 0.91 1.29
0.23 0.22 0.23 0.26 0.27 0.29 0.35 0.36 0.38 0.41 0.44 0.48 0.52 0.56 0.57 0.57 0.57 0.56 0.60 0.62 0.58 0.51 0.52 0.51 0.29 0.18 0.20 0.26 0.32 0.32 0.30 0.29 0.27 0.30 0.32 0.38 0.45 0.50 0.53 0.59 0.68 0.77 0.88
0.36 0.37 0.38 0.40 0.41 0.45 0.64 0.69 0.57 0.52 0.51 0.52 0.56 0.60 0.65 0.70 0.72 0.73 0.78 0.77 0.74 0.70 0.62 0.58 0.46 0.33 0.31 0.32 0.39 0.39 0.35 0.33 0.36 0.36 0.35 0.35 0.40 0.47 0.50 0.50 0.50 0.56 0.71
0.48 0.49 0.49 0.48 0.49 0.61 0.96 1.11 0.86 0.71 0.63 0.60 0.58 0.62 0.66 0.76 0.92 1.07 1.18 1.11 0.96 0.94 0.86 0.80 0.67 0.52 0.44 0.46 0.53 0.49 0.50 0.41 0.42 0.46 0.43 0.36 0.33 0.33 0.37 0.45 0.51 0.54 0.60
0.55 0.53 0.52 0.49 0.46 0.58 0.94 1.12 0.89 0.70 0.56 0.54 0.54 0.52 0.54 0.61 0.72 0.85 1.03 1.04 1.00 1.12 1.17 1.08 0.94 0.80 0.60 0.54 0.62 0.71 0.75 0.72 0.61 0.50 0.50 0.47 0.42 0.41 0.39 0.39 0.49 0.54 0.62
0.45 0.42 0.40 0.37 0.32 0.40 0.78 0.94 0.76 0.49 0.35 0.38 0.39 0.40 0.40 0.44 0.52 0.52 0.63 0.69 0.75 0.85 1.02 1.14 1.17 0.96 0.78 0.69 0.82 0.95 0.96 0.94 0.74 0.62 0.70 0.76 0.63 0.56 0.51 0.51 0.57 0.55 0.62
0.31 0.29 0.25 0.23 0.21 0.27 0.65 0.88 0.69 0.33 0.25 0.29 0.33 0.36 0.37 0.39 0.45 0.57 0.62 0.57 0.50 0.52 0.70 0.91 1.10 1.02 0.92 0.94 1.12 1.31 1.36 1.33 1.09 0.85 0.83 0.98 0.85 0.77 0.70 0.64 0.61 0.55 0.56
0.22 0.22 0.18 0.15 0.14 0.17 0.46 0.84 0.72 0.35 0.31 0.30 0.33 0.38 0.41 0.37 0.45 0.61 0.67 0.60 0.46 0.43 0.48 0.69 0.92 1.04 1.10 1.22 1.42 1.66 1.74 1.77 1.62 1.29 1.08 1.10 1.01 0.92 0.89 0.85 0.76 0.67 0.60
0.15 0.15 0.14 0.13 0.11 0.11 0.28 0.69 0.80 0.42 0.33 0.30 0.29 0.35 0.50 0.51 0.52 0.57 0.60 0.62 0.59 0.47 0.38 0.39 0.45 0.56 0.69 0.82 1.09 1.39 1.55 1.68 1.68 1.62 1.34 1.24 1.22 1.16 1.23 1.02 0.82 0.68 0.60

GEFSMA_prec_meanprecacc_186.txt.gz
Total_Precipitation_Accumulation
0.08 0.08 0.08 0.06 0.06 0.06 0.06 0.07 0.07 0.08 0.10 0.14 0.17 0.18 0.23 0.24 0.21 0.20 0.17 0.13 0.11 0.15 0.25 0.36 0.51 0.72 0.94 1.03 1.07 1.00 0.94 0.87 0.77 0.70 0.69 0.72 0.83 0.93 1.01 0.97 1.01 1.05 1.04
0.05 0.05 0.05 0.04 0.04 0.03 0.03 0.03 0.04 0.05 0.06 0.09 0.09 0.12 0.16 0.16 0.15 0.18 0.19 0.19 0.16 0.15 0.23 0.29 0.36 0.50 0.78 1.02 1.12 1.09 1.03 1.01 0.98 0.92 0.81 0.79 0.83 0.91 1.01 1.08 0.94 0.89 0.86
0.03 0.03 0.03 0.03 0.03 0.03 0.03 0.03 0.03 0.04 0.05 0.06 0.08 0.10 0.11 0.12 0.13 0.16 0.20 0.22 0.22 0.20 0.22 0.31 0.35 0.42 0.60 0.85 1.09 1.27 1.15 1.11 1.15 1.15 1.00 0.90 0.85 0.91 0.95 1.08 1.11 1.02 0.91
0.04 0.04 0.04 0.04 0.03 0.03 0.06 0.07 0.06 0.07 0.06 0.08 0.10 0.13 0.13 0.14 0.13 0.16 0.22 0.22 0.24 0.23 0.22 0.27 0.37 0.43 0.54 0.68 0.90 1.24 1.36 1.32 1.31 1.30 1.23 1.12 0.96 0.97 1.01 1.06 1.15 1.18 1.13
0.05 0.05 0.06 0.07 0.07 0.08 0.11 0.13 0.11 0.13 0.12 0.11 0.12 0.16 0.18 0.21 0.22 0.22 0.27 0.28 0.27 0.25 0.25 0.26 0.32 0.35 0.44 0.59 0.79 1.06 1.36 1.50 1.49 1.49 1.44 1.36 1.22 1.07 1.07 1.12 1.18 1.30 1.33
0.05 0.05 0.05 0.05 0.08 0.12 0.16 0.18 0.15 0.15 0.16 0.17 0.22 0.24 0.28 0.30 0.27 0.22 0.26 0.32 0.32 0.29 0.32 0.31 0.30 0.29 0.31 0.40 0.60 0.85 1.15 1.43 1.57 1.61 1.65 1.63 1.52 1.35 1.18 1.16 1.18 1.31 1.46
0.07 0.05 0.05 0.05 0.06 0.07 0.09 0.10 0.12 0.12 0.11 0.13 0.18 0.19 0.20 0.23 0.22 0.19 0.22 0.30 0.38 0.42 0.43 0.44 0.42 0.37 0.34 0.34 0.35 0.50 0.77 1.13 1.45 1.61 1.71 1.76 1.73 1.64 1.48 1.32 1.27 1.32 1.47
0.09 0.06 0.05 0.04 0.04 0.03 0.03 0.03 0.04 0.07 0.06 0.07 0.14 0.19 0.16 0.14 0.13 0.13 0.16 0.23 0.32 0.41 0.46 0.49 0.51 0.51 0.46 0.41 0.30 0.29 0.41 0.70 1.10 1.51 1.74 1.86 1.98 1.98 1.83 1.63 1.50 1.49 1.55
0.09 0.07 0.05 0.04 0.03 0.02 0.03 0.03 0.04 0.06 0.06 0.05 0.08 0.22 0.30 0.22 0.14 0.07 0.09 0.13 0.18 0.22 0.29 0.36 0.44 0.50 0.52 0.51 0.43 0.33 0.30 0.46 0.74 1.14 1.60 1.92 2.16 2.38 2.33 2.06 1.85 1.75 1.72
0.10 0.07 0.06 0.05 0.04 0.03 0.03 0.03 0.04 0.05 0.08 0.09 0.08 0.11 0.19 0.23 0.30 0.16 0.04 0.04 0.05 0.08 0.11 0.17 0.24 0.32 0.41 0.46 0.50 0.51 0.46 0.43 0.64 0.87 1.24 1.72 2.20 2.62 2.89 2.69 2.29 1.99 1.88
0.11 0.08 0.06 0.05 0.05 0.04 0.04 0.04 0.04 0.05 0.08 0.12 0.14 0.14 0.13 0.13 0.18 0.28 0.14 0.02 0.02 0.03 0.04 0.08 0.12 0.18 0.26 0.35 0.43 0.51 0.58 0.57 0.70 0.86 1.02 1.37 1.89 2.54 3.04 3.10 2.78 2.39 2.10
0.15 0.11 0.09 0.07 0.05 0.05 0.05 0.05 0.06 0.08 0.09 0.12 0.15 0.17 0.21 0.24 0.21 0.27 0.25 0.09 0.03 0.02 0.03 0.04 0.07 0.13 0.21 0.30 0.39 0.53 0.61 0.65 0.73 0.86 0.88 1.06 1.41 1.98 2.71 3.14 3.08 2.81 2.50
0.18 0.14 0.10 0.09 0.08 0.07 0.07 0.08 0.10 0.12 0.13 0.16 0.17 0.18 0.20 0.22 0.23 0.30 0.35 0.20 0.09 0.03 0.02 0.04 0.06 0.11 0.19 0.26 0.32 0.43 0.49 0.54 0.61 0.72 0.76 0.75 0.88 1.30 2.03 2.82 3.25 3.20 2.98
0.15 0.14 0.11 0.10 0.09 0.09 0.10 0.11 0.13 0.16 0.18 0.20 0.21 0.22 0.24 0.22 0.25 0.31 0.38 0.41 0.30 0.10 0.03 0.03 0.04 0.09 0.15 0.19 0.26 0.34 0.35 0.40 0.45 0.55 0.64 0.66 0.66 0.77 1.20 2.00 2.85 3.38 3.36
0.17 0.16 0.15 0.14 0.14 0.14 0.14 0.16 0.19 0.20 0.22 0.23 0.25 0.27 0.31 0.29 0.28 0.29 0.32 0.44 0.61 0.45 0.12 0.03 0.05 0.08 0.12 0.16 0.22 0.27 0.27 0.33 0.38 0.43 0.51 0.59 0.62 0.65 0.80 1.14 1.87 2.74 3.38
0.17 0.19 0.20 0.19 0.18 0.19 0.21 0.23 0.24 0.24 0.26 0.26 0.29 0.33 0.35 0.35 0.33 0.33 0.34 0.37 0.49 0.61 0.39 0.08 0.07 0.10 0.14 0.16 0.22 0.26 0.25 0.31 0.35 0.39 0.41 0.45 0.54 0.63 0.72 0.87 1.17 1.86 2.64
0.20 0.20 0.21 0.21 0.22 0.23 0.26 0.28 0.28 0.30 0.33 0.33 0.35 0.39 0.38 0.39 0.42 0.42 0.42 0.42 0.43 0.52 0.53 0.16 0.07 0.10 0.18 0.25 0.24 0.24 0.24 0.25 0.28 0.35 0.39 0.40 0.45 0.53 0.63 0.73 0.89 1.26 1.93
0.25 0.24 0.25 0.26 0.25 0.26 0.30 0.33 0.34 0.35 0.40 0.44 0.46 0.46 0.46 0.46 0.47 0.48 0.53 0.53 0.48 0.47 0.54 0.36 0.13 0.12 0.18 0.25 0.28 0.27 0.25 0.23 0.24 0.30 0.35 0.41 0.44 0.49 0.57 0.66 0.77 0.91 1.29
0.38 0.34 0.34 0.36 0.35 0.36 0.41 0.42 0.43 0.44 0.46 0.49 0.52 0.57 0.58 0.58 0.58 0.56 0.60 0.62 0.59 0.51 0.52 0.52 0.30 0.18 0.20 0.26 0.32 0.32 0.30 0.29 0.27 0.30 0.32 0.38 0.45 0.50 0.53 0.59 0.68 0.78 0.88
0.52 0.49 0.47 0.48 0.48 0.52 0.69 0.73 0.62 0.56 0.54 0.54 0.57 0.62 0.67 0.72 0.73 0.74 0.79 0.77 0.74 0.71 0.63 0.59 0.46 0.33 0.32 0.32 0.39 0.40 0.35 0.33 0.36 0.36 0.35 0.35 0.40 0.47 0.50 0.50 0.50 0.56 0.71
0.67 0.63 0.59 0.55 0.54 0.66 1.00 1.15 0.90 0.75 0.67 0.63 0.61 0.64 0.68 0.78 0.94 1.09 1.20 1.12 0.97 0.95 0.87 0.81 0.68 0.53 0.45 0.46 0.53 0.50 0.50 0.41 0.42 0.46 0.43 0.36 0.34 0.33 0.37 0.46 0.51 0.54 0.60
0.75 0.72 0.66 0.58 0.52 0.61 0.97 1.15 0.92 0.73 0.59 0.58 0.57 0.54 0.56 0.63 0.74 0.87 1.04 1.06 1.02 1.13 1.19 1.10 0.95 0.81 0.61 0.54 0.63 0.72 0.75 0.72 0.61 0.50 0.50 0.48 0.42 0.41 0.39 0.39 0.49 0.54 0.63
0.60 0.59 0.57 0.49 0.39 0.44 0.80 0.96 0.78 0.51 0.37 0.40 0.42 0.42 0.42 0.46 0.53 0.53 0.65 0.71 0.77 0.87 1.04 1.16 1.19 0.97 0.79 0.70 0.83 0.96 0.97 0.95 0.74 0.62 0.71 0.76 0.64 0.57 0.51 0.51 0.58 0.56 0.62
0.46 0.43 0.40 0.36 0.31 0.32 0.67 0.89 0.70 0.35 0.27 0.31 0.35 0.39 0.39 0.41 0.47 0.59 0.64 0.59 0.53 0.55 0.73 0.93 1.11 1.03 0.93 0.95 1.12 1.31 1.36 1.34 1.09 0.86 0.83 0.99 0.86 0.78 0.70 0.65 0.62 0.56 0.57
0.35 0.36 0.34 0.29 0.25 0.23 0.49 0.86 0.73 0.37 0.32 0.32 0.34 0.40 0.43 0.39 0.48 0.64 0.70 0.64 0.51 0.46 0.51 0.72 0.94 1.06 1.12 1.24 1.43 1.67 1.75 1.77 1.63 1.30 1.09 1.11 1.02 0.93 0.90 0.86 0.77 0.68 0.60
0.27 0.28 0.30 0.29 0.25 0.21 0.33 0.72 0.82 0.43 0.34 0.31 0.30 0.37 0.52 0.54 0.54 0.60 0.64 0.66 0.64 0.50 0.41 0.43 0.48 0.59 0.72 0.84 1.12 1.41 1.57 1.70 1.69 1.64 1.35 1.25 1.23 1.17 1.25 1.03 0.83 0.69 0.61

GEFSMA_prec_meanprecacc_192.txt.gz
Total_Precipitation_Accumulation
0.11 0.12 0.12 0.10 0.08 0.08 0.08 0.08 0.09 0.09 0.10 0.14 0.17 0.18 0.23 0.24 0.21 0.20 0.17 0.14 0.11 0.15 0.26 0.36 0.51 0.73 0.94 1.04 1.07 1.00 0.95 0.87 0.77 0.70 0.69 0.72 0.83 0.93 1.01 0.97 1.01 1.06 1.04
0.08 0.08 0.08 0.08 0.06 0.05 0.05 0.05 0.05 0.06 0.07 0.09 0.10 0.12 0.16 0.16 0.16 0.18 0.19 0.19 0.16 0.16 0.24 0.29 0.36 0.51 0.79 1.02 1.12 1.09 1.04 1.01 0.98 0.92 0.82 0.79 0.83 0.91 1.01 1.08 0.94 0.89 0.87
0.08 0.07 0.06 0.06 0.05 0.05 0.05 0.04 0.04 0.04 0.05 0.06 0.08 0.10 0.11 0.12 0.13 0.16 0.20 0.22 0.22 0.20 0.22 0.32 0.36 0.42 0.60 0.86 1.10 1.28 1.16 1.11 1.16 1.15 1.00 0.90 0.85 0.91 0.95 1.08 1.11 1.02 0.92
0.10 0.10 0.10 0.08 0.05 0.05 0.07 0.08 0.07 0.07 0.07 0.08 0.10 0.13 0.13 0.14 0.13 0.16 0.22 0.22 0.24 0.23 0.22 0.27 0.37 0.43 0.54 0.69 0.90 1.24 1.37 1.32 1.31 1.30 1.23 1.12 0.97 0.97 1.01 1.07 1.16 1.19 1.14
0.12 0.11 0.12 0.12 0.11 0.11 0.12 0.14 0.12 0.14 0.13 0.11 0.12 0.16 0.18 0.21 0.23 0.22 0.27 0.28 0.27 0.25 0.25 0.26 0.32 0.35 0.45 0.60 0.79 1.06 1.36 1.51 1.49 1.49 1.44 1.36 1.22 1.07 1.08 1.13 1.19 1.31 1.34
0.13 0.13 0.13 0.12 0.14 0.16 0.18 0.19 0.16 0.15 0.16 0.17 0.22 0.24 0.28 0.30 0.27 0.22 0.26 0.32 0.32 0.29 0.32 0.31 0.30 0.29 0.31 0.41 0.60 0.86 1.15 1.43 1.57 1.61 1.65 1.63 1.52 1.36 1.19 1.17 1.19 1.33 1.48
0.15 0.14 0.13 0.13 0.13 0.12 0.12 0.12 0.13 0.13 0.12 0.13 0.18 0.20 0.20 0.23 0.22 0.19 0.22 0.30 0.38 0.42 0.43 0.44 0.42 0.37 0.34 0.34 0.35 0.50 0.77 1.13 1.46 1.62 1.71 1.76 1.73 1.64 1.48 1.34 1.29 1.34 1.49
0.19 0.16 0.14 0.12 0.12 0.10 0.08 0.06 0.06 0.09 0.07 0.07 0.14 0.19 0.16 0.15 0.13 0.13 0.16 0.23 0.32 0.41 0.46 0.49 0.51 0.51 0.46 0.41 0.30 0.29 0.41 0.70 1.11 1.52 1.75 1.87 1.99 1.98 1.84 1.65 1.51 1.50 1.56
0.20 0.16 0.14 0.13 0.12 0.11 0.09 0.07 0.06 0.07 0.08 0.06 0.09 0.23 0.30 0.22 0.14 0.07 0.09 0.13 0.18 0.22 0.29 0.36 0.44 0.50 0.52 0.51 0.43 0.33 0.30 0.46 0.74 1.15 1.61 1.93 2.17 2.39 2.34 2.07 1.86 1.76 1.73
0.20 0.17 0.15 0.13 0.13 0.12 0.12 0.10 0.07 0.07 0.09 0.11 0.09 0.12 0.20 0.24 0.30 0.16 0.04 0.04 0.05 0.08 0.11 0.17 0.24 0.32 0.41 0.46 0.50 0.51 0.46 0.43 0.64 0.87 1.24 1.73 2.21 2.63 2.90 2.70 2.30 2.00 1.90
0.23 0.20 0.17 0.15 0.14 0.14 0.13 0.12 0.10 0.10 0.11 0.14 0.15 0.14 0.14 0.13 0.18 0.29 0.14 0.02 0.02 0.03 0.04 0.08 0.12 0.18 0.26 0.35 0.43 0.51 0.58 0.57 0.70 0.86 1.03 1.38 1.89 2.55 3.05 3.10 2.78 2.40 2.11
0.28 0.24 0.21 0.18 0.14 0.13 0.14 0.13 0.13 0.13 0.13 0.14 0.16 0.18 0.21 0.25 0.21 0.27 0.25 0.09 0.03 0.02 0.03 0.04 0.07 0.13 0.21 0.30 0.39 0.53 0.61 0.65 0.73 0.86 0.88 1.06 1.41 1.98 2.71 3.14 3.09 2.82 2.51
0.31 0.28 0.25 0.22 0.18 0.15 0.14 0.16 0.18 0.18 0.18 0.20 0.19 0.20 0.21 0.22 0.24 0.31 0.35 0.20 0.09 0.03 0.02 0.04 0.06 0.11 0.19 0.26 0.32 0.43 0.49 0.54 0.61 0.72 0.76 0.75 0.88 1.30 2.03 2.83 3.26 3.21 2.99
0.28 0.27 0.27 0.25 0.22 0.19 0.18 0.19 0.20 0.22 0.24 0.25 0.24 0.24 0.25 0.23 0.26 0.31 0.38 0.42 0.31 0.10 0.03 0.03 0.04 0.09 0.15 0.19 0.26 0.34 0.35 0.40 0.45 0.55 0.64 0.66 0.66 0.77 1.20 2.00 2.85 3.38 3.37
0.31 0.30 0.31 0.31 0.29 0.27 0.27 0.27 0.27 0.26 0.27 0.28 0.29 0.30 0.32 0.30 0.29 0.29 0.33 0.44 0.61 0.45 0.13 0.03 0.05 0.08 0.12 0.16 0.22 0.27 0.27 0.33 0.38 0.43 0.51 0.59 0.62 0.65 0.80 1.14 1.87 2.74 3.39
0.34 0.35 0.36 0.36 0.34 0.33 0.34 0.38 0.36 0.33 0.32 0.31 0.33 0.36 0.37 0.36 0.34 0.33 0.35 0.37 0.50 0.62 0.39 0.08 0.07 0.10 0.14 0.16 0.23 0.26 0.25 0.31 0.35 0.39 0.41 0.45 0.54 0.63 0.72 0.87 1.17 1.86 2.64
0.37 0.37 0.37 0.38 0.38 0.37 0.39 0.41 0.41 0.41 0.42 0.39 0.39 0.42 0.41 0.40 0.44 0.43 0.42 0.43 0.44 0.53 0.54 0.17 0.08 0.10 0.19 0.25 0.25 0.24 0.24 0.25 0.28 0.35 0.39 0.40 0.45 0.53 0.63 0.73 0.89 1.26 1.94
0.38 0.40 0.40 0.40 0.40 0.41 0.45 0.48 0.47 0.46 0.49 0.51 0.51 0.50 0.48 0.48 0.49 0.50 0.54 0.54 0.50 0.48 0.56 0.37 0.14 0.13 0.18 0.26 0.29 0.28 0.25 0.23 0.24 0.30 0.35 0.41 0.44 0.49 0.57 0.66 0.77 0.91 1.29
0.48 0.49 0.50 0.50 0.48 0.49 0.56 0.58 0.59 0.58 0.55 0.57 0.59 0.63 0.63 0.62 0.61 0.59 0.62 0.64 0.60 0.53 0.54 0.53 0.31 0.19 0.21 0.27 0.33 0.33 0.30 0.29 0.27 0.31 0.33 0.39 0.45 0.50 0.53 0.59 0.68 0.78 0.89
0.61 0.62 0.63 0.61 0.60 0.64 0.83 0.89 0.77 0.72 0.66 0.63 0.64 0.68 0.73 0.78 0.79 0.80 0.84 0.82 0.78 0.75 0.66 0.62 0.48 0.35 0.33 0.34 0.41 0.41 0.37 0.34 0.36 0.36 0.35 0.35 0.40 0.47 0.50 0.50 0.50 0.56 0.71
0.75 0.74 0.73 0.70 0.67 0.77 1.12 1.27 1.03 0.89 0.81 0.75 0.70 0.72 0.74 0.83 0.98 1.13 1.24 1.17 1.02 1.00 0.93 0.86 0.73 0.57 0.48 0.50 0.57 0.53 0.53 0.44 0.44 0.47 0.44 0.36 0.34 0.33 0.38 0.46 0.51 0.54 0.61
0.84 0.84 0.80 0.73 0.66 0.75 1.09 1.24 1.02 0.83 0.70 0.69 0.67 0.62 0.63 0.69 0.78 0.90 1.06 1.08 1.05 1.17 1.23 1.14 1.00 0.85 0.65 0.59 0.68 0.77 0.81 0.77 0.65 0.52 0.52 0.49 0.43 0.42 0.39 0.39 0.50 0.55 0.63
0.68 0.68 0.69 0.65 0.56 0.58 0.93 1.07 0.86 0.59 0.46 0.49 0.50 0.48 0.47 0.50 0.58 0.57 0.68 0.74 0.80 0.90 1.07 1.20 1.23 1.02 0.84 0.75 0.89 1.02 1.02 0.99 0.78 0.64 0.72 0.77 0.65 0.57 0.51 0.52 0.58 0.56 0.63
0.55 0.52 0.48 0.46 0.45 0.48 0.81 1.01 0.80 0.43 0.35 0.38 0.42 0.44 0.43 0.43 0.49 0.62 0.69 0.63 0.56 0.58 0.76 0.96 1.16 1.09 0.99 1.00 1.18 1.37 1.42 1.39 1.13 0.89 0.85 1.00 0.87 0.78 0.71 0.65 0.63 0.57 0.58
0.43 0.44 0.42 0.38 0.34 0.33 0.60 0.96 0.83 0.46 0.40 0.39 0.40 0.45 0.46 0.41 0.49 0.66 0.73 0.67 0.54 0.50 0.55 0.76 0.98 1.11 1.18 1.31 1.51 1.75 1.83 1.85 1.69 1.34 1.11 1.12 1.04 0.95 0.92 0.88 0.79 0.70 0.62
0.35 0.34 0.37 0.37 0.34 0.30 0.41 0.79 0.91 0.52 0.42 0.38 0.36 0.41 0.56 0.55 0.56 0.62 0.66 0.69 0.67 0.53 0.45 0.47 0.53 0.64 0.78 0.92 1.21 1.49 1.65 1.78 1.76 1.68 1.37 1.27 1.26 1.21 1.29 1.07 0.86 0.72 0.63

GEFSMA_prec_meanprecacc_198.txt.gz
Total_Precipitation_Accumulation
0.19 0.19 0.19 0.17 0.15 0.14 0.13 0.12 0.12 0.12 0.13 0.16 0.19 0.19 0.23 0.24 0.21 0.20 0.17 0.14 0.12 0.16 0.27 0.38 0.53 0.74 0.95 1.04 1.08 1.01 0.95 0.88 0.77 0.70 0.69 0.72 0.83 0.94 1.01 0.97 1.01 1.06 1.04
0.17 0.17 0.17 0.17 0.14 0.12 0.11 0.11 0.10 0.10 0.10 0.11 0.11 0.13 0.16 0.17 0.16 0.18 0.19 0.20 0.17 0.16 0.25 0.31 0.38 0.52 0.79 1.02 1.12 1.10 1.04 1.02 0.98 0.92 0.82 0.79 0.83 0.91 1.01 1.08 0.94 0.89 0.87
0.19 0.16 0.15 0.16 0.15 0.13 0.12 0.10 0.09 0.09 0.09 0.09 0.11 0.12 0.12 0.12 0.13 0.16 0.20 0.22 0.23 0.21 0.23 0.33 0.37 0.43 0.62 0.86 1.10 1.28 1.16 1.11 1.16 1.15 1.01 0.90 0.85 0.91 0.96 1.08 1.11 1.03 0.93
0.21 0.22 0.19 0.17 0.15 0.14 0.15 0.14 0.12 0.11 0.10 0.10 0.12 0.14 0.14 0.14 0.14 0.16 0.22 0.23 0.24 0.23 0.22 0.28 0.38 0.44 0.55 0.70 0.91 1.25 1.37 1.33 1.31 1.30 1.24 1.12 0.97 0.98 1.01 1.07 1.16 1.20 1.15
0.21 0.22 0.23 0.22 0.21 0.21 0.19 0.20 0.17 0.18 0.16 0.13 0.14 0.18 0.19 0.21 0.23 0.22 0.27 0.28 0.27 0.26 0.26 0.27 0.32 0.36 0.45 0.61 0.80 1.07 1.36 1.51 1.49 1.49 1.45 1.36 1.22 1.07 1.08 1.13 1.20 1.32 1.36
0.21 0.22 0.23 0.24 0.25 0.28 0.27 0.26 0.22 0.20 0.20 0.20 0.24 0.26 0.29 0.30 0.27 0.23 0.26 0.32 0.32 0.29 0.32 0.31 0.31 0.29 0.31 0.41 0.61 0.87 1.16 1.44 1.58 1.62 1.65 1.63 1.52 1.36 1.20 1.17 1.21 1.34 1.49
0.21 0.22 0.22 0.24 0.25 0.24 0.23 0.21 0.21 0.19 0.17 0.18 0.22 0.23 0.23 0.25 0.22 0.19 0.22 0.30 0.38 0.42 0.43 0.44 0.42 0.37 0.35 0.35 0.36 0.51 0.78 1.14 1.47 1.63 1.72 1.76 1.74 1.65 1.49 1.35 1.30 1.35 1.50
0.23 0.24 0.24 0.22 0.22 0.22 0.20 0.17 0.16 0.17 0.15 0.15 0.20 0.24 0.20 0.18 0.15 0.14 0.17 0.23 0.32 0.41 0.46 0.49 0.51 0.51 0.47 0.41 0.30 0.30 0.42 0.71 1.12 1.53 1.76 1.88 2.00 1.99 1.85 1.66 1.52 1.51 1.57
0.23 0.22 0.23 0.25 0.23 0.21 0.20 0.18 0.16 0.17 0.16 0.13 0.15 0.29 0.36 0.26 0.16 0.08 0.10 0.13 0.18 0.22 0.29 0.36 0.44 0.50 0.53 0.51 0.44 0.33 0.31 0.46 0.75 1.15 1.62 1.94 2.19 2.40 2.36 2.08 1.87 1.78 1.74
0.24 0.22 0.21 0.23 0.25 0.25 0.22 0.20 0.18 0.18 0.19 0.19 0.15 0.17 0.24 0.27 0.32 0.18 0.05 0.05 0.06 0.08 0.11 0.17 0.24 0.32 0.41 0.46 0.50 0.51 0.46 0.44 0.64 0.87 1.25 1.74 2.22 2.65 2.92 2.72 2.32 2.02 1.91
0.28 0.25 0.23 0.22 0.24 0.26 0.24 0.22 0.21 0.21 0.22 0.23 0.23 0.21 0.19 0.17 0.21 0.31 0.16 0.04 0.03 0.03 0.04 0.08 0.12 0.18 0.26 0.35 0.43 0.51 0.58 0.57 0.70 0.86 1.03 1.38 1.90 2.57 3.07 3.12 2.80 2.41 2.12
0.34 0.31 0.28 0.25 0.22 0.23 0.24 0.24 0.24 0.23 0.22 0.23 0.25 0.26 0.28 0.30 0.25 0.30 0.27 0.10 0.05 0.03 0.03 0.04 0.07 0.13 0.21 0.30 0.39 0.53 0.61 0.65 0.73 0.86 0.88 1.06 1.42 1.99 2.73 3.16 3.10 2.83 2.52
0.38 0.35 0.33 0.29 0.26 0.24 0.23 0.25 0.29 0.29 0.28 0.28 0.27 0.26 0.27 0.27 0.28 0.35 0.38 0.23 0.10 0.04 0.03 0.04 0.06 0.11 0.19 0.26 0.32 0.43 0.49 0.54 0.61 0.72 0.76 0.75 0.88 1.30 2.04 2.83 3.26 3.22 3.00
0.35 0.33 0.34 0.34 0.31 0.28 0.28 0.29 0.30 0.33 0.35 0.34 0.31 0.31 0.31 0.27 0.30 0.35 0.42 0.45 0.33 0.12 0.04 0.03 0.04 0.09 0.15 0.19 0.26 0.34 0.35 0.40 0.45 0.55 0.64 0.66 0.66 0.77 1.20 2.00 2.85 3.39 3.37
0.39 0.36 0.38 0.40 0.40 0.38 0.39 0.38 0.38 0.37 0.38 0.39 0.38 0.37 0.39 0.36 0.34 0.33 0.36 0.47 0.64 0.48 0.14 0.03 0.05 0.08 0.12 0.16 0.22 0.27 0.27 0.33 0.38 0.43 0.51 0.59 0.62 0.65 0.80 1.14 1.87 2.74 3.39
0.43 0.42 0.43 0.43 0.43 0.44 0.47 0.51 0.49 0.45 0.44 0.43 0.43 0.45 0.45 0.43 0.40 0.39 0.40 0.42 0.54 0.65 0.41 0.09 0.07 0.10 0.15 0.17 0.23 0.26 0.25 0.31 0.35 0.39 0.41 0.46 0.55 0.64 0.72 0.87 1.18 1.86 2.64
0.46 0.45 0.46 0.47 0.46 0.48 0.51 0.55 0.55 0.55 0.56 0.53 0.52 0.53 0.49 0.47 0.50 0.48 0.48 0.48 0.48 0.58 0.58 0.19 0.08 0.11 0.19 0.26 0.25 0.25 0.25 0.25 0.28 0.35 0.39 0.40 0.45 0.53 0.64 0.74 0.89 1.26 1.94
0.46 0.47 0.48 0.50 0.50 0.50 0.55 0.60 0.60 0.60 0.63 0.65 0.64 0.62 0.58 0.56 0.57 0.57 0.61 0.60 0.55 0.53 0.60 0.41 0.15 0.13 0.19 0.27 0.29 0.28 0.27 0.24 0.25 0.31 0.36 0.41 0.44 0.50 0.57 0.66 0.77 0.92 1.30
0.58 0.56 0.57 0.59 0.57 0.57 0.63 0.66 0.68 0.68 0.67 0.68 0.70 0.74 0.72 0.71 0.69 0.67 0.69 0.71 0.66 0.58 0.59 0.58 0.34 0.21 0.23 0.28 0.34 0.34 0.32 0.30 0.28 0.31 0.34 0.40 0.46 0.51 0.54 0.60 0.69 0.78 0.89
0.71 0.73 0.71 0.70 0.69 0.72 0.91 0.96 0.85 0.80 0.76 0.73 0.74 0.78 0.82 0.86 0.87 0.88 0.92 0.90 0.86 0.83 0.75 0.71 0.55 0.39 0.36 0.36 0.43 0.43 0.38 0.36 0.38 0.38 0.37 0.37 0.42 0.48 0.51 0.51 0.51 0.57 0.72
0.82 0.84 0.83 0.79 0.76 0.87 1.20 1.34 1.11 0.97 0.90 0.84 0.79 0.81 0.83 0.91 1.06 1.21 1.32 1.23 1.10 1.09 1.02 0.95 0.80 0.63 0.53 0.53 0.60 0.56 0.56 0.46 0.47 0.49 0.45 0.38 0.36 0.35 0.39 0.48 0.53 0.56 0.62
0.90 0.92 0.91 0.84 0.76 0.85 1.19 1.32 1.09 0.91 0.78 0.77 0.75 0.70 0.71 0.77 0.86 0.98 1.15 1.15 1.12 1.24 1.30 1.20 1.05 0.89 0.68 0.62 0.70 0.80 0.83 0.81 0.69 0.55 0.55 0.52 0.47 0.45 0.42 0.42 0.53 0.57 0.65
0.75 0.75 0.78 0.76 0.70 0.71 1.06 1.18 0.95 0.66 0.53 0.57 0.57 0.56 0.55 0.59 0.66 0.65 0.77 0.82 0.88 0.97 1.14 1.26 1.28 1.04 0.86 0.77 0.91 1.04 1.05 1.02 0.80 0.67 0.75 0.81 0.69 0.61 0.55 0.55 0.62 0.59 0.65
0.63 0.60 0.55 0.54 0.52 0.56 0.92 1.15 0.93 0.53 0.43 0.46 0.50 0.52 0.52 0.52 0.57 0.70 0.77 0.73 0.66 0.66 0.83 1.03 1.22 1.12 1.00 1.02 1.21 1.40 1.45 1.42 1.17 0.92 0.89 1.04 0.91 0.83 0.75 0.69 0.67 0.60 0.61
0.48 0.53 0.50 0.46 0.44 0.42 0.68 1.06 0.96 0.58 0.52 0.50 0.50 0.54 0.56 0.50 0.57 0.73 0.81 0.76 0.63 0.58 0.63 0.84 1.05 1.16 1.22 1.35 1.56 1.80 1.88 1.90 1.73 1.37 1.14 1.16 1.08 0.99 0.96 0.92 0.83 0.74 0.65
0.40 0.41 0.45 0.45 0.44 0.42 0.52 0.88 1.02 0.63 0.53 0.49 0.48 0.51 0.65 0.65 0.63 0.69 0.73 0.76 0.74 0.60 0.51 0.53 0.59 0.70 0.83 0.97 1.27 1.55 1.70 1.83 1.80 1.72 1.41 1.31 1.30 1.25 1.34 1.11 0.90 0.76 0.68

GEFSMA_prec_meanprecacc_204.txt.gz
Total_Precipitation_Accumulation
0.22 0.22 0.22 0.21 0.20 0.18 0.18 0.17 0.17 0.18 0.19 0.22 0.24 0.23 0.26 0.26 0.23 0.21 0.17 0.14 0.13 0.18 0.29 0.40 0.55 0.75 0.95 1.04 1.08 1.01 0.95 0.88 0.78 0.70 0.69 0.73 0.83 0.94 1.01 0.97 1.02 1.06 1.05
0.19 0.20 0.20 0.21 0.19 0.17 0.17 0.17 0.16 0.16 0.17 0.17 0.17 0.19 0.21 0.20 0.19 0.21 0.21 0.20 0.17 0.17 0.27 0.33 0.40 0.53 0.80 1.03 1.13 1.10 1.04 1.02 0.98 0.93 0.82 0.79 0.83 0.91 1.02 1.08 0.94 0.89 0.88
0.21 0.18 0.18 0.18 0.19 0.19 0.20 0.19 0.17 0.17 0.16 0.16 0.17 0.18 0.18 0.17 0.17 0.20 0.23 0.23 0.23 0.21 0.25 0.35 0.38 0.44 0.62 0.88 1.11 1.29 1.16 1.12 1.16 1.15 1.01 0.90 0.86 0.92 0.96 1.09 1.12 1.03 0.93
0.22 0.24 0.22 0.20 0.18 0.20 0.24 0.23 0.21 0.19 0.17 0.16 0.17 0.19 0.19 0.19 0.17 0.18 0.23 0.23 0.25 0.23 0.23 0.29 0.39 0.44 0.56 0.71 0.92 1.25 1.37 1.33 1.32 1.31 1.24 1.13 0.97 0.98 1.02 1.08 1.17 1.20 1.16
0.24 0.24 0.26 0.24 0.25 0.26 0.26 0.28 0.25 0.26 0.23 0.19 0.19 0.23 0.24 0.26 0.27 0.25 0.29 0.29 0.27 0.26 0.26 0.27 0.33 0.36 0.46 0.61 0.81 1.08 1.37 1.52 1.50 1.49 1.45 1.37 1.22 1.08 1.09 1.14 1.20 1.32 1.36
0.24 0.25 0.25 0.26 0.28 0.32 0.33 0.32 0.28 0.26 0.27 0.27 0.32 0.32 0.35 0.35 0.32 0.26 0.28 0.33 0.33 0.30 0.32 0.31 0.31 0.30 0.32 0.42 0.62 0.87 1.17 1.45 1.59 1.62 1.66 1.64 1.53 1.37 1.20 1.18 1.21 1.34 1.49
0.24 0.25 0.25 0.26 0.27 0.27 0.27 0.26 0.26 0.26 0.25 0.26 0.31 0.32 0.30 0.31 0.28 0.24 0.25 0.32 0.40 0.43 0.43 0.45 0.42 0.38 0.35 0.35 0.37 0.52 0.78 1.15 1.48 1.64 1.73 1.77 1.74 1.65 1.50 1.35 1.30 1.35 1.50
0.28 0.27 0.27 0.25 0.25 0.24 0.23 0.21 0.22 0.24 0.23 0.23 0.29 0.34 0.29 0.25 0.22 0.19 0.21 0.27 0.34 0.42 0.47 0.49 0.51 0.52 0.47 0.41 0.30 0.30 0.43 0.72 1.13 1.54 1.77 1.89 2.01 2.00 1.85 1.66 1.52 1.52 1.58
0.28 0.26 0.25 0.28 0.26 0.25 0.23 0.22 0.21 0.23 0.24 0.22 0.23 0.39 0.45 0.33 0.21 0.13 0.15 0.18 0.22 0.25 0.31 0.37 0.44 0.50 0.53 0.51 0.44 0.34 0.31 0.47 0.76 1.16 1.63 1.95 2.20 2.42 2.37 2.09 1.88 1.78 1.75
0.30 0.27 0.25 0.27 0.29 0.28 0.25 0.24 0.23 0.24 0.26 0.27 0.25 0.26 0.32 0.34 0.38 0.23 0.09 0.09 0.10 0.12 0.14 0.19 0.25 0.32 0.41 0.47 0.50 0.51 0.46 0.44 0.65 0.89 1.26 1.75 2.23 2.66 2.94 2.73 2.33 2.03 1.92
0.33 0.30 0.27 0.27 0.29 0.30 0.29 0.26 0.25 0.26 0.28 0.30 0.31 0.30 0.28 0.26 0.29 0.38 0.22 0.09 0.09 0.08 0.08 0.11 0.14 0.20 0.27 0.36 0.43 0.51 0.58 0.57 0.70 0.87 1.04 1.40 1.92 2.58 3.09 3.14 2.81 2.43 2.14
0.40 0.36 0.32 0.30 0.28 0.29 0.29 0.29 0.28 0.28 0.27 0.29 0.32 0.33 0.36 0.38 0.34 0.37 0.33 0.16 0.10 0.09 0.08 0.09 0.11 0.16 0.23 0.32 0.40 0.54 0.61 0.65 0.73 0.86 0.89 1.07 1.43 2.00 2.74 3.18 3.12 2.84 2.54
0.44 0.41 0.38 0.34 0.31 0.30 0.29 0.31 0.34 0.35 0.34 0.34 0.33 0.34 0.33 0.33 0.33 0.40 0.45 0.29 0.16 0.10 0.09 0.09 0.10 0.15 0.22 0.28 0.33 0.43 0.49 0.55 0.61 0.72 0.76 0.75 0.88 1.31 2.05 2.85 3.28 3.24 3.02
0.41 0.39 0.41 0.40 0.37 0.35 0.36 0.36 0.37 0.39 0.41 0.41 0.38 0.38 0.39 0.34 0.36 0.41 0.49 0.52 0.41 0.19 0.11 0.08 0.08 0.12 0.18 0.21 0.28 0.36 0.36 0.41 0.45 0.55 0.65 0.66 0.66 0.77 1.21 2.01 2.86 3.40 3.39
0.48 0.44 0.44 0.46 0.46 0.46 0.47 0.48 0.47 0.45 0.46 0.46 0.45 0.44 0.47 0.44 0.41 0.40 0.43 0.54 0.72 0.55 0.20 0.08 0.08 0.11 0.14 0.18 0.24 0.29 0.28 0.34 0.39 0.43 0.52 0.59 0.62 0.66 0.80 1.14 1.88 2.75 3.40
0.56 0.55 0.54 0.50 0.49 0.52 0.57 0.63 0.61 0.55 0.54 0.52 0.51 0.52 0.52 0.51 0.49 0.46 0.47 0.48 0.60 0.72 0.48 0.13 0.10 0.12 0.17 0.19 0.25 0.28 0.27 0.32 0.36 0.39 0.42 0.46 0.55 0.64 0.73 0.87 1.18 1.87 2.65
0.59 0.61 0.61 0.59 0.55 0.56 0.60 0.64 0.64 0.64 0.64 0.62 0.62 0.64 0.59 0.56 0.60 0.59 0.57 0.56 0.55 0.65 0.67 0.24 0.12 0.14 0.23 0.29 0.28 0.27 0.26 0.27 0.29 0.36 0.40 0.41 0.45 0.54 0.64 0.74 0.90 1.27 1.94
0.58 0.63 0.63 0.64 0.61 0.59 0.64 0.69 0.68 0.66 0.69 0.71 0.70 0.70 0.67 0.66 0.67 0.67 0.71 0.69 0.62 0.60 0.68 0.48 0.21 0.18 0.24 0.31 0.34 0.32 0.29 0.26 0.26 0.31 0.37 0.42 0.45 0.50 0.58 0.67 0.78 0.93 1.30
0.68 0.70 0.71 0.73 0.69 0.67 0.71 0.74 0.75 0.73 0.71 0.72 0.75 0.80 0.79 0.79 0.78 0.76 0.78 0.79 0.74 0.65 0.66 0.64 0.39 0.25 0.27 0.33 0.39 0.38 0.34 0.32 0.29 0.32 0.35 0.41 0.47 0.51 0.55 0.60 0.69 0.79 0.90
0.78 0.84 0.83 0.83 0.82 0.84 1.00 1.04 0.92 0.86 0.81 0.77 0.78 0.83 0.87 0.92 0.94 0.95 1.01 0.98 0.95 0.92 0.83 0.78 0.60 0.44 0.40 0.40 0.47 0.46 0.41 0.37 0.40 0.39 0.38 0.38 0.43 0.49 0.52 0.52 0.52 0.58 0.74
0.89 0.92 0.94 0.91 0.90 1.00 1.31 1.44 1.19 1.04 0.95 0.89 0.84 0.85 0.87 0.96 1.11 1.27 1.39 1.31 1.18 1.18 1.11 1.04 0.88 0.69 0.57 0.58 0.64 0.59 0.59 0.48 0.48 0.50 0.47 0.39 0.37 0.36 0.41 0.50 0.55 0.58 0.64
0.96 0.98 0.98 0.96 0.90 0.97 1.32 1.44 1.19 1.00 0.85 0.82 0.80 0.75 0.76 0.82 0.91 1.04 1.21 1.22 1.19 1.31 1.37 1.28 1.12 0.95 0.72 0.65 0.74 0.83 0.86 0.83 0.71 0.56 0.57 0.54 0.48 0.47 0.44 0.44 0.55 0.60 0.68
0.80 0.80 0.83 0.84 0.80 0.82 1.17 1.30 1.07 0.77 0.63 0.64 0.63 0.62 0.61 0.64 0.73 0.71 0.83 0.90 0.95 1.04 1.19 1.30 1.33 1.09 0.89 0.81 0.95 1.08 1.08 1.04 0.82 0.68 0.78 0.83 0.71 0.64 0.57 0.57 0.64 0.62 0.68
0.68 0.65 0.60 0.59 0.60 0.67 1.02 1.24 1.05 0.65 0.55 0.56 0.58 0.60 0.59 0.58 0.64 0.77 0.84 0.79 0.72 0.73 0.89 1.08 1.26 1.16 1.04 1.06 1.26 1.45 1.50 1.46 1.20 0.94 0.91 1.06 0.93 0.84 0.77 0.71 0.69 0.63 0.64
0.53 0.57 0.54 0.50 0.48 0.48 0.77 1.15 1.06 0.71 0.65 0.60 0.58 0.62 0.64 0.58 0.66 0.82 0.89 0.83 0.69 0.64 0.70 0.91 1.12 1.22 1.28 1.41 1.63 1.88 1.96 1.97 1.79 1.41 1.17 1.19 1.10 1.01 0.98 0.94 0.85 0.77 0.69
0.44 0.45 0.49 0.49 0.48 0.45 0.58 0.96 1.11 0.76 0.67 0.61 0.58 0.61 0.74 0.74 0.74 0.79 0.81 0.85 0.82 0.66 0.58 0.61 0.67 0.78 0.89 1.04 1.35 1.62 1.77 1.89 1.86 1.76 1.43 1.33 1.32 1.28 1.37 1.14 0.93 0.79 0.72

GEFSMA_prec_meanprecacc_210.txt.gz
Total_Precipitation_Accumulation
0.24 0.24 0.23 0.21 0.20 0.20 0.20 0.21 0.21 0.22 0.23 0.26 0.27 0.26 0.29 0.29 0.25 0.23 0.19 0.16 0.15 0.20 0.32 0.43 0.58 0.77 0.97 1.05 1.09 1.01 0.96 0.88 0.78 0.71 0.70 0.73 0.84 0.94 1.02 0.98 1.02 1.06 1.05
0.22 0.22 0.22 0.22 0.19 0.18 0.20 0.20 0.19 0.20 0.21 0.22 0.21 0.21 0.24 0.24 0.22 0.24 0.23 0.22 0.19 0.19 0.28 0.36 0.43 0.57 0.83 1.05 1.14 1.11 1.05 1.03 0.99 0.93 0.82 0.80 0.84 0.92 1.02 1.09 0.95 0.90 0.88
0.24 0.21 0.20 0.20 0.19 0.20 0.22 0.22 0.21 0.21 0.20 0.20 0.21 0.21 0.22 0.21 0.21 0.24 0.26 0.26 0.25 0.23 0.26 0.37 0.42 0.49 0.66 0.90 1.13 1.30 1.17 1.12 1.17 1.16 1.02 0.91 0.86 0.92 0.97 1.09 1.12 1.03 0.94
0.26 0.28 0.25 0.22 0.19 0.21 0.26 0.27 0.24 0.23 0.20 0.19 0.20 0.22 0.22 0.22 0.21 0.22 0.26 0.26 0.27 0.25 0.25 0.31 0.42 0.49 0.61 0.74 0.94 1.27 1.39 1.34 1.33 1.31 1.25 1.13 0.97 0.98 1.02 1.08 1.17 1.21 1.16
0.29 0.29 0.29 0.27 0.28 0.28 0.28 0.30 0.28 0.29 0.26 0.22 0.22 0.26 0.27 0.29 0.30 0.30 0.33 0.32 0.30 0.28 0.28 0.29 0.35 0.40 0.50 0.65 0.84 1.10 1.39 1.53 1.52 1.51 1.46 1.38 1.23 1.08 1.09 1.15 1.21 1.33 1.37
0.31 0.32 0.30 0.29 0.31 0.35 0.36 0.35 0.31 0.30 0.30 0.31 0.36 0.36 0.39 0.39 0.36 0.30 0.32 0.37 0.36 0.32 0.34 0.33 0.33 0.31 0.34 0.45 0.65 0.90 1.19 1.46 1.60 1.64 1.67 1.65 1.54 1.38 1.21 1.19 1.22 1.35 1.50
0.33 0.34 0.33 0.32 0.31 0.30 0.30 0.29 0.30 0.30 0.28 0.30 0.37 0.38 0.36 0.36 0.32 0.28 0.29 0.36 0.44 0.46 0.46 0.47 0.44 0.39 0.37 0.38 0.40 0.55 0.81 1.17 1.50 1.65 1.74 1.79 1.76 1.67 1.51 1.36 1.31 1.36 1.51
0.37 0.36 0.36 0.34 0.31 0.27 0.26 0.24 0.25 0.27 0.26 0.27 0.34 0.39 0.35 0.32 0.28 0.23 0.25 0.30 0.38 0.46 0.50 0.51 0.53 0.54 0.49 0.44 0.33 0.34 0.46 0.75 1.15 1.56 1.79 1.90 2.02 2.02 1.87 1.68 1.54 1.53 1.59
0.38 0.35 0.35 0.38 0.35 0.30 0.26 0.24 0.24 0.26 0.27 0.26 0.28 0.44 0.51 0.38 0.25 0.17 0.19 0.21 0.25 0.29 0.34 0.40 0.47 0.52 0.55 0.53 0.46 0.36 0.34 0.51 0.79 1.19 1.65 1.97 2.22 2.43 2.39 2.11 1.90 1.80 1.77
0.42 0.37 0.34 0.35 0.38 0.36 0.30 0.27 0.26 0.27 0.30 0.32 0.30 0.32 0.37 0.38 0.42 0.28 0.14 0.13 0.14 0.16 0.18 0.23 0.29 0.36 0.44 0.49 0.52 0.53 0.49 0.47 0.68 0.92 1.29 1.78 2.26 2.69 2.96 2.75 2.36 2.06 1.95
0.46 0.41 0.37 0.35 0.36 0.37 0.34 0.30 0.28 0.30 0.32 0.34 0.36 0.36 0.34 0.31 0.33 0.42 0.26 0.14 0.13 0.12 0.13 0.15 0.19 0.24 0.31 0.39 0.46 0.54 0.60 0.60 0.73 0.90 1.07 1.42 1.94 2.61 3.12 3.16 2.84 2.45 2.17
0.51 0.46 0.42 0.37 0.34 0.34 0.34 0.33 0.31 0.31 0.32 0.33 0.36 0.38 0.42 0.44 0.38 0.42 0.38 0.20 0.16 0.14 0.14 0.15 0.17 0.21 0.28 0.37 0.44 0.58 0.65 0.69 0.77 0.89 0.91 1.08 1.45 2.03 2.78 3.21 3.15 2.87 2.56
0.53 0.49 0.46 0.41 0.37 0.34 0.33 0.34 0.37 0.38 0.37 0.38 0.38 0.38 0.39 0.38 0.38 0.45 0.51 0.35 0.22 0.15 0.14 0.15 0.16 0.20 0.27 0.34 0.39 0.49 0.54 0.59 0.66 0.76 0.79 0.78 0.90 1.33 2.07 2.88 3.32 3.27 3.04
0.50 0.46 0.47 0.46 0.42 0.39 0.39 0.39 0.40 0.42 0.44 0.45 0.43 0.43 0.44 0.41 0.42 0.47 0.56 0.60 0.49 0.26 0.16 0.12 0.11 0.16 0.22 0.27 0.33 0.41 0.40 0.45 0.49 0.59 0.69 0.70 0.68 0.79 1.22 2.03 2.88 3.43 3.42
0.58 0.53 0.53 0.54 0.53 0.51 0.51 0.51 0.50 0.48 0.49 0.49 0.49 0.50 0.53 0.50 0.48 0.47 0.50 0.62 0.82 0.66 0.28 0.13 0.12 0.14 0.18 0.23 0.30 0.34 0.32 0.37 0.42 0.47 0.56 0.63 0.66 0.69 0.83 1.16 1.89 2.76 3.42
0.65 0.64 0.62 0.58 0.56 0.58 0.61 0.66 0.64 0.58 0.57 0.56 0.55 0.57 0.58 0.57 0.56 0.55 0.55 0.57 0.69 0.82 0.56 0.18 0.14 0.16 0.21 0.24 0.31 0.34 0.31 0.36 0.40 0.43 0.46 0.50 0.59 0.68 0.76 0.90 1.20 1.89 2.67
0.67 0.69 0.70 0.67 0.62 0.62 0.65 0.69 0.68 0.68 0.69 0.67 0.67 0.69 0.64 0.61 0.65 0.64 0.63 0.62 0.62 0.73 0.74 0.29 0.15 0.17 0.27 0.34 0.33 0.33 0.33 0.32 0.34 0.40 0.44 0.45 0.49 0.57 0.67 0.78 0.93 1.29 1.96
0.64 0.70 0.73 0.72 0.68 0.66 0.70 0.75 0.73 0.72 0.76 0.78 0.76 0.75 0.72 0.71 0.72 0.72 0.77 0.74 0.67 0.64 0.73 0.53 0.25 0.22 0.27 0.35 0.38 0.37 0.34 0.32 0.31 0.36 0.41 0.45 0.48 0.54 0.61 0.70 0.81 0.95 1.33
0.74 0.77 0.81 0.83 0.78 0.76 0.79 0.80 0.81 0.79 0.77 0.79 0.80 0.84 0.83 0.83 0.83 0.81 0.84 0.85 0.80 0.71 0.70 0.69 0.44 0.30 0.31 0.37 0.44 0.44 0.40 0.38 0.35 0.38 0.39 0.44 0.50 0.54 0.58 0.63 0.72 0.82 0.92
0.86 0.91 0.91 0.92 0.92 0.93 1.10 1.13 1.00 0.93 0.88 0.84 0.84 0.88 0.92 0.96 0.97 0.99 1.05 1.04 1.01 0.98 0.89 0.84 0.66 0.49 0.46 0.45 0.53 0.54 0.48 0.43 0.46 0.45 0.43 0.42 0.46 0.52 0.55 0.55 0.55 0.61 0.76
1.02 1.01 1.01 0.98 0.99 1.10 1.40 1.52 1.27 1.11 1.03 0.97 0.91 0.92 0.93 1.00 1.14 1.31 1.43 1.36 1.24 1.25 1.18 1.11 0.96 0.77 0.65 0.64 0.71 0.66 0.65 0.55 0.54 0.56 0.52 0.43 0.40 0.39 0.44 0.53 0.59 0.61 0.67
1.10 1.11 1.07 1.03 0.98 1.08 1.43 1.53 1.27 1.07 0.91 0.89 0.86 0.80 0.80 0.86 0.94 1.07 1.25 1.27 1.24 1.37 1.43 1.35 1.19 1.02 0.78 0.70 0.79 0.88 0.92 0.90 0.79 0.62 0.61 0.57 0.51 0.50 0.47 0.47 0.58 0.63 0.71
0.92 0.93 0.94 0.94 0.90 0.92 1.29 1.42 1.16 0.85 0.70 0.71 0.69 0.66 0.64 0.67 0.75 0.73 0.86 0.93 0.99 1.08 1.24 1.36 1.39 1.14 0.94 0.86 1.01 1.15 1.13 1.09 0.87 0.72 0.81 0.88 0.75 0.67 0.59 0.59 0.67 0.64 0.70
0.79 0.77 0.72 0.70 0.70 0.77 1.13 1.37 1.18 0.75 0.63 0.64 0.65 0.65 0.63 0.61 0.67 0.80 0.88 0.84 0.76 0.77 0.94 1.14 1.31 1.21 1.09 1.11 1.33 1.53 1.57 1.53 1.26 0.99 0.95 1.11 0.96 0.87 0.79 0.73 0.72 0.66 0.66
0.62 0.65 0.64 0.60 0.58 0.59 0.88 1.26 1.18 0.81 0.75 0.70 0.68 0.71 0.71 0.63 0.69 0.86 0.94 0.89 0.75 0.69 0.75 0.98 1.19 1.29 1.35 1.49 1.73 2.00 2.06 2.07 1.87 1.47 1.21 1.22 1.12 1.03 1.00 0.96 0.88 0.80 0.71
0.51 0.51 0.55 0.56 0.55 0.53 0.67 1.05 1.21 0.85 0.76 0.70 0.68 0.72 0.85 0.82 0.81 0.85 0.87 0.91 0.89 0.72 0.63 0.68 0.76 0.88 0.99 1.15 1.46 1.72 1.85 1.97 1.93 1.82 1.47 1.36 1.34 1.30 1.40 1.16 0.94 0.81 0.74

GEFSMA_prec_meanprecacc_216.txt.gz
Total_Precipitation_Accumulation
0.27 0.27 0.25 0.23 0.22 0.21 0.22 0.22 0.22 0.24 0.26 0.29 0.31 0.29 0.32 0.31 0.27 0.25 0.20 0.18 0.17 0.23 0.35 0.48 0.64 0.84 1.04 1.12 1.14 1.05 0.98 0.90 0.79 0.72 0.71 0.74 0.85 0.95 1.02 0.99 1.03 1.07 1.06
0.25 0.25 0.25 0.24 0.21 0.20 0.21 0.21 0.21 0.23 0.24 0.25 0.24 0.24 0.27 0.26 0.24 0.25 0.24 0.24 0.21 0.21 0.31 0.40 0.49 0.65 0.92 1.14 1.22 1.16 1.09 1.06 1.02 0.96 0.84 0.81 0.85 0.93 1.03 1.09 0.96 0.91 0.89
0.27 0.24 0.23 0.23 0.22 0.22 0.24 0.24 0.23 0.24 0.23 0.23 0.24 0.24 0.24 0.23 0.22 0.25 0.27 0.27 0.27 0.24 0.28 0.41 0.47 0.55 0.76 1.01 1.23 1.38 1.23 1.17 1.21 1.20 1.04 0.93 0.88 0.93 0.98 1.10 1.13 1.04 0.95
0.30 0.31 0.29 0.25 0.23 0.24 0.29 0.29 0.26 0.25 0.22 0.22 0.22 0.24 0.24 0.24 0.23 0.23 0.28 0.27 0.28 0.27 0.27 0.34 0.46 0.54 0.68 0.84 1.05 1.36 1.46 1.39 1.37 1.35 1.28 1.16 1.00 1.00 1.04 1.10 1.18 1.21 1.17
0.32 0.32 0.32 0.31 0.31 0.32 0.31 0.33 0.31 0.31 0.29 0.24 0.24 0.27 0.29 0.31 0.32 0.32 0.34 0.34 0.31 0.30 0.30 0.32 0.39 0.44 0.56 0.74 0.95 1.20 1.48 1.59 1.56 1.54 1.49 1.41 1.26 1.11 1.11 1.17 1.22 1.34 1.38
0.35 0.34 0.32 0.33 0.36 0.39 0.39 0.38 0.34 0.32 0.33 0.34 0.39 0.38 0.41 0.41 0.38 0.32 0.34 0.38 0.37 0.33 0.36 0.36 0.36 0.35 0.39 0.51 0.74 1.00 1.29 1.55 1.66 1.68 1.71 1.68 1.57 1.41 1.24 1.21 1.24 1.37 1.52
0.37 0.38 0.36 0.36 0.36 0.35 0.34 0.32 0.33 0.33 0.31 0.32 0.40 0.41 0.38 0.39 0.35 0.30 0.31 0.38 0.45 0.48 0.48 0.49 0.47 0.42 0.40 0.42 0.45 0.62 0.90 1.27 1.59 1.72 1.79 1.82 1.79 1.70 1.54 1.40 1.34 1.39 1.54
0.43 0.43 0.42 0.40 0.37 0.34 0.32 0.29 0.29 0.31 0.30 0.30 0.36 0.42 0.38 0.35 0.31 0.26 0.27 0.32 0.40 0.48 0.52 0.54 0.56 0.57 0.52 0.47 0.36 0.38 0.52 0.83 1.27 1.68 1.88 1.97 2.08 2.07 1.91 1.71 1.57 1.56 1.62
0.45 0.43 0.43 0.45 0.42 0.38 0.34 0.31 0.30 0.30 0.31 0.29 0.31 0.47 0.53 0.40 0.27 0.19 0.21 0.23 0.27 0.31 0.37 0.43 0.49 0.55 0.58 0.56 0.49 0.39 0.38 0.56 0.88 1.30 1.77 2.07 2.30 2.51 2.45 2.16 1.94 1.83 1.79
0.48 0.44 0.42 0.44 0.45 0.42 0.37 0.34 0.33 0.33 0.35 0.36 0.33 0.34 0.39 0.40 0.45 0.29 0.15 0.15 0.17 0.19 0.22 0.27 0.31 0.38 0.47 0.52 0.55 0.56 0.53 0.52 0.75 1.01 1.40 1.89 2.36 2.78 3.04 2.82 2.41 2.10 1.98
0.50 0.46 0.44 0.43 0.44 0.42 0.39 0.36 0.35 0.37 0.38 0.40 0.41 0.40 0.36 0.33 0.35 0.45 0.28 0.15 0.15 0.15 0.16 0.20 0.24 0.28 0.34 0.43 0.49 0.57 0.64 0.64 0.79 0.97 1.16 1.53 2.05 2.72 3.22 3.25 2.90 2.50 2.21
0.55 0.52 0.48 0.45 0.42 0.40 0.38 0.37 0.37 0.37 0.37 0.38 0.41 0.43 0.45 0.47 0.40 0.44 0.40 0.22 0.18 0.16 0.17 0.18 0.21 0.26 0.33 0.42 0.48 0.62 0.69 0.73 0.82 0.96 0.99 1.18 1.54 2.13 2.88 3.32 3.24 2.93 2.61
0.56 0.53 0.52 0.48 0.45 0.42 0.39 0.38 0.42 0.43 0.42 0.43 0.42 0.43 0.42 0.41 0.40 0.48 0.54 0.38 0.25 0.18 0.18 0.20 0.21 0.25 0.32 0.40 0.45 0.56 0.60 0.64 0.71 0.82 0.87 0.86 1.00 1.42 2.16 2.96 3.41 3.34 3.10
0.54 0.51 0.52 0.52 0.48 0.45 0.45 0.44 0.45 0.46 0.48 0.49 0.47 0.46 0.48 0.44 0.44 0.50 0.59 0.64 0.53 0.30 0.20 0.17 0.16 0.21 0.28 0.33 0.40 0.49 0.48 0.53 0.56 0.66 0.77 0.80 0.79 0.90 1.32 2.10 2.95 3.50 3.48
0.61 0.57 0.57 0.59 0.58 0.57 0.57 0.57 0.55 0.52 0.53 0.53 0.53 0.54 0.57 0.53 0.51 0.49 0.53 0.66 0.87 0.71 0.33 0.17 0.15 0.18 0.23 0.30 0.38 0.43 0.41 0.47 0.51 0.55 0.65 0.73 0.78 0.82 0.94 1.25 1.96 2.83 3.48
0.67 0.66 0.65 0.62 0.61 0.62 0.67 0.72 0.70 0.62 0.61 0.60 0.60 0.61 0.62 0.61 0.60 0.58 0.58 0.60 0.73 0.87 0.62 0.23 0.18 0.20 0.26 0.30 0.39 0.43 0.41 0.47 0.49 0.53 0.55 0.60 0.69 0.80 0.90 1.01 1.29 1.96 2.74
0.69 0.71 0.72 0.70 0.66 0.66 0.69 0.73 0.73 0.73 0.73 0.71 0.71 0.73 0.68 0.65 0.70 0.68 0.67 0.66 0.66 0.77 0.78 0.33 0.19 0.22 0.32 0.41 0.40 0.40 0.40 0.41 0.43 0.49 0.53 0.55 0.60 0.68 0.79 0.91 1.04 1.38 2.04
0.66 0.71 0.74 0.74 0.71 0.69 0.73 0.78 0.77 0.75 0.79 0.81 0.80 0.80 0.77 0.75 0.77 0.76 0.80 0.78 0.70 0.67 0.77 0.56 0.28 0.25 0.31 0.39 0.42 0.42 0.41 0.39 0.39 0.46 0.51 0.56 0.60 0.65 0.72 0.81 0.93 1.07 1.42
0.77 0.79 0.82 0.85 0.81 0.79 0.82 0.83 0.84 0.83 0.81 0.83 0.84 0.88 0.87 0.88 0.88 0.86 0.88 0.88 0.83 0.73 0.73 0.72 0.46 0.32 0.33 0.40 0.49 0.49 0.46 0.45 0.44 0.47 0.49 0.55 0.62 0.66 0.70 0.75 0.83 0.93 1.03
0.91 0.95 0.94 0.94 0.95 0.97 1.14 1.17 1.04 0.98 0.92 0.88 0.88 0.92 0.96 1.01 1.02 1.03 1.10 1.08 1.04 1.01 0.92 0.87 0.68 0.52 0.48 0.48 0.57 0.60 0.55 0.51 0.54 0.53 0.55 0.54 0.59 0.65 0.68 0.68 0.66 0.71 0.85
1.06 1.06 1.07 1.03 1.03 1.14 1.44 1.56 1.31 1.16 1.08 1.02 0.95 0.95 0.97 1.05 1.20 1.36 1.48 1.41 1.29 1.29 1.22 1.15 0.98 0.79 0.67 0.67 0.74 0.70 0.71 0.61 0.62 0.64 0.62 0.56 0.53 0.52 0.56 0.64 0.69 0.70 0.76
1.15 1.15 1.12 1.08 1.02 1.13 1.49 1.59 1.31 1.11 0.96 0.94 0.91 0.85 0.85 0.91 0.98 1.12 1.30 1.32 1.30 1.43 1.48 1.39 1.22 1.05 0.81 0.73 0.82 0.93 0.98 0.98 0.88 0.72 0.70 0.68 0.61 0.60 0.56 0.55 0.67 0.71 0.79
0.98 0.98 0.98 0.98 0.94 0.96 1.34 1.46 1.21 0.89 0.76 0.76 0.73 0.71 0.68 0.71 0.80 0.78 0.91 0.98 1.04 1.13 1.30 1.41 1.43 1.18 0.98 0.89 1.06 1.21 1.20 1.17 0.95 0.80 0.90 0.97 0.84 0.75 0.67 0.67 0.75 0.71 0.77
0.88 0.84 0.77 0.75 0.75 0.82 1.19 1.43 1.23 0.80 0.69 0.70 0.70 0.69 0.67 0.65 0.71 0.85 0.93 0.89 0.81 0.82 0.99 1.19 1.36 1.25 1.14 1.16 1.39 1.60 1.66 1.65 1.38 1.10 1.04 1.21 1.05 0.95 0.87 0.82 0.80 0.72 0.72
0.69 0.73 0.71 0.65 0.63 0.65 0.95 1.33 1.26 0.88 0.82 0.76 0.75 0.77 0.77 0.68 0.75 0.94 1.01 0.95 0.80 0.74 0.80 1.03 1.23 1.34 1.41 1.56 1.79 2.08 2.17 2.21 2.02 1.61 1.33 1.32 1.21 1.11 1.08 1.03 0.95 0.86 0.77
0.56 0.58 0.62 0.62 0.60 0.58 0.73 1.13 1.29 0.94 0.85 0.79 0.77 0.81 0.94 0.91 0.90 0.94 0.97 1.01 0.97 0.78 0.69 0.75 0.82 0.93 1.05 1.21 1.53 1.79 1.94 2.10 2.05 1.94 1.59 1.46 1.44 1.38 1.48 1.24 1.00 0.86 0.78

GEFSMA_prec_meanprecacc_222.txt.gz
Total_Precipitation_Accumulation
0.29 0.29 0.27 0.25 0.24 0.23 0.23 0.24 0.25 0.26 0.28 0.31 0.33 0.32 0.34 0.33 0.29 0.26 0.22 0.19 0.19 0.26 0.38 0.50 0.68 0.89 1.10 1.19 1.20 1.11 1.05 0.96 0.85 0.78 0.76 0.79 0.88 0.97 1.04 1.00 1.04 1.09 1.07
0.27 0.27 0.27 0.26 0.23 0.22 0.23 0.23 0.23 0.24 0.26 0.27 0.26 0.26 0.29 0.28 0.26 0.27 0.25 0.25 0.22 0.23 0.33 0.42 0.52 0.70 1.00 1.23 1.31 1.25 1.16 1.13 1.08 1.02 0.91 0.87 0.90 0.97 1.05 1.11 0.97 0.93 0.91
0.32 0.28 0.27 0.26 0.25 0.26 0.27 0.26 0.25 0.26 0.25 0.25 0.25 0.25 0.25 0.25 0.24 0.26 0.28 0.28 0.28 0.26 0.30 0.42 0.49 0.59 0.81 1.09 1.33 1.49 1.34 1.26 1.30 1.29 1.14 1.01 0.94 0.98 1.01 1.12 1.15 1.06 0.97
0.33 0.36 0.34 0.30 0.28 0.29 0.34 0.33 0.29 0.27 0.25 0.24 0.24 0.25 0.24 0.25 0.24 0.25 0.29 0.28 0.29 0.28 0.28 0.35 0.47 0.56 0.72 0.91 1.14 1.47 1.56 1.49 1.46 1.45 1.38 1.25 1.07 1.06 1.09 1.14 1.22 1.24 1.20
0.35 0.37 0.39 0.36 0.38 0.40 0.37 0.37 0.33 0.34 0.32 0.27 0.27 0.30 0.30 0.31 0.33 0.33 0.36 0.35 0.32 0.30 0.30 0.33 0.41 0.45 0.58 0.78 1.01 1.30 1.58 1.68 1.64 1.62 1.57 1.49 1.33 1.17 1.17 1.21 1.26 1.38 1.41
0.37 0.38 0.38 0.40 0.43 0.47 0.46 0.44 0.38 0.35 0.35 0.37 0.42 0.42 0.43 0.42 0.39 0.33 0.35 0.39 0.38 0.34 0.37 0.37 0.37 0.36 0.40 0.53 0.78 1.07 1.38 1.65 1.75 1.76 1.77 1.75 1.65 1.48 1.31 1.27 1.28 1.40 1.56
0.39 0.41 0.39 0.41 0.44 0.43 0.40 0.39 0.40 0.37 0.34 0.36 0.44 0.45 0.42 0.41 0.36 0.31 0.32 0.39 0.46 0.48 0.49 0.50 0.48 0.43 0.41 0.43 0.47 0.66 0.98 1.38 1.70 1.82 1.87 1.90 1.87 1.78 1.62 1.46 1.40 1.43 1.58
0.45 0.45 0.46 0.44 0.43 0.41 0.38 0.35 0.35 0.36 0.34 0.34 0.41 0.46 0.41 0.37 0.33 0.27 0.28 0.33 0.40 0.49 0.53 0.55 0.57 0.59 0.54 0.49 0.38 0.41 0.56 0.91 1.38 1.80 1.99 2.07 2.17 2.15 2.00 1.80 1.65 1.62 1.68
0.46 0.45 0.47 0.50 0.49 0.45 0.41 0.37 0.34 0.35 0.35 0.33 0.35 0.52 0.57 0.42 0.28 0.20 0.21 0.24 0.28 0.33 0.38 0.44 0.50 0.56 0.59 0.58 0.51 0.41 0.41 0.60 0.94 1.40 1.90 2.21 2.42 2.61 2.54 2.25 2.03 1.92 1.87
0.49 0.46 0.47 0.48 0.50 0.47 0.42 0.38 0.37 0.36 0.39 0.41 0.37 0.37 0.42 0.42 0.47 0.31 0.16 0.16 0.17 0.20 0.24 0.29 0.33 0.39 0.48 0.53 0.56 0.58 0.55 0.55 0.79 1.07 1.49 2.01 2.50 2.91 3.16 2.93 2.50 2.19 2.06
0.51 0.48 0.47 0.48 0.48 0.46 0.43 0.40 0.38 0.40 0.42 0.44 0.45 0.43 0.39 0.35 0.37 0.47 0.30 0.16 0.16 0.16 0.17 0.21 0.25 0.29 0.35 0.44 0.51 0.59 0.66 0.67 0.82 1.01 1.23 1.62 2.17 2.87 3.37 3.39 3.02 2.60 2.30
0.56 0.53 0.51 0.49 0.47 0.44 0.42 0.41 0.40 0.40 0.40 0.41 0.43 0.45 0.48 0.49 0.43 0.47 0.43 0.24 0.20 0.18 0.18 0.19 0.22 0.27 0.35 0.44 0.50 0.64 0.71 0.75 0.85 1.00 1.04 1.25 1.65 2.27 3.05 3.50 3.40 3.08 2.74
0.57 0.55 0.55 0.52 0.49 0.46 0.43 0.42 0.44 0.45 0.45 0.46 0.44 0.44 0.44 0.43 0.42 0.50 0.56 0.40 0.27 0.20 0.21 0.22 0.22 0.26 0.34 0.43 0.49 0.60 0.64 0.68 0.75 0.87 0.91 0.91 1.07 1.53 2.31 3.16 3.60 3.52 3.25
0.56 0.52 0.54 0.54 0.50 0.48 0.48 0.47 0.47 0.48 0.50 0.51 0.49 0.48 0.50 0.45 0.46 0.52 0.61 0.67 0.57 0.32 0.22 0.19 0.18 0.22 0.29 0.35 0.43 0.54 0.53 0.59 0.63 0.73 0.84 0.87 0.87 1.00 1.44 2.27 3.13 3.68 3.66
0.62 0.58 0.59 0.61 0.59 0.58 0.59 0.59 0.57 0.55 0.56 0.56 0.55 0.56 0.58 0.55 0.53 0.52 0.55 0.70 0.92 0.76 0.37 0.18 0.17 0.20 0.25 0.32 0.40 0.45 0.44 0.52 0.58 0.63 0.73 0.82 0.87 0.90 1.04 1.38 2.10 2.96 3.63
0.68 0.68 0.67 0.63 0.61 0.63 0.68 0.74 0.72 0.64 0.64 0.63 0.62 0.63 0.64 0.63 0.62 0.60 0.61 0.63 0.77 0.92 0.66 0.26 0.21 0.22 0.29 0.33 0.41 0.45 0.43 0.50 0.54 0.58 0.62 0.67 0.78 0.88 0.98 1.12 1.42 2.10 2.87
0.73 0.74 0.75 0.72 0.67 0.67 0.70 0.75 0.75 0.75 0.76 0.73 0.73 0.75 0.69 0.66 0.71 0.70 0.69 0.69 0.70 0.82 0.83 0.37 0.23 0.25 0.36 0.44 0.42 0.42 0.42 0.43 0.46 0.53 0.57 0.60 0.66 0.74 0.86 1.00 1.15 1.52 2.18
0.70 0.75 0.78 0.78 0.73 0.71 0.75 0.80 0.79 0.78 0.82 0.83 0.82 0.81 0.78 0.77 0.78 0.77 0.82 0.80 0.73 0.72 0.82 0.60 0.32 0.29 0.35 0.43 0.45 0.45 0.43 0.42 0.42 0.48 0.54 0.60 0.65 0.71 0.78 0.90 1.04 1.19 1.56
0.81 0.82 0.85 0.87 0.82 0.80 0.84 0.85 0.87 0.86 0.84 0.85 0.86 0.90 0.88 0.89 0.89 0.87 0.89 0.90 0.85 0.77 0.78 0.77 0.50 0.36 0.38 0.44 0.52 0.52 0.49 0.49 0.47 0.51 0.54 0.59 0.67 0.73 0.77 0.85 0.95 1.07 1.18
0.95 0.98 0.97 0.96 0.96 0.97 1.15 1.18 1.06 1.00 0.94 0.90 0.90 0.95 0.98 1.03 1.03 1.05 1.11 1.10 1.07 1.05 0.97 0.93 0.75 0.57 0.53 0.54 0.63 0.65 0.58 0.54 0.58 0.58 0.60 0.59 0.64 0.71 0.75 0.76 0.78 0.84 1.00
1.10 1.09 1.10 1.06 1.05 1.15 1.45 1.58 1.33 1.18 1.10 1.04 0.97 0.97 0.98 1.08 1.22 1.38 1.51 1.44 1.33 1.34 1.27 1.21 1.05 0.86 0.73 0.74 0.82 0.76 0.76 0.65 0.66 0.69 0.67 0.62 0.60 0.58 0.63 0.73 0.80 0.84 0.91
1.17 1.18 1.14 1.10 1.04 1.15 1.52 1.61 1.34 1.13 0.98 0.96 0.93 0.87 0.87 0.93 1.01 1.15 1.34 1.36 1.34 1.47 1.54 1.46 1.29 1.11 0.87 0.79 0.88 1.00 1.04 1.03 0.93 0.77 0.77 0.76 0.70 0.69 0.67 0.68 0.81 0.87 0.94
1.00 1.00 1.00 1.00 0.95 0.98 1.36 1.49 1.24 0.92 0.79 0.79 0.76 0.74 0.72 0.74 0.83 0.80 0.93 1.01 1.06 1.16 1.33 1.46 1.50 1.23 1.03 0.94 1.11 1.27 1.26 1.23 0.99 0.85 0.97 1.06 0.93 0.87 0.79 0.80 0.89 0.86 0.93
0.90 0.86 0.79 0.76 0.77 0.84 1.21 1.45 1.26 0.83 0.71 0.73 0.73 0.72 0.69 0.68 0.73 0.87 0.95 0.91 0.83 0.84 1.01 1.22 1.40 1.29 1.18 1.21 1.44 1.67 1.72 1.71 1.43 1.14 1.11 1.30 1.16 1.07 0.99 0.94 0.94 0.87 0.88
0.71 0.74 0.72 0.67 0.65 0.68 0.99 1.36 1.29 0.92 0.85 0.79 0.78 0.80 0.79 0.70 0.78 0.97 1.04 0.98 0.83 0.76 0.83 1.06 1.28 1.39 1.47 1.62 1.85 2.15 2.24 2.27 2.08 1.68 1.41 1.41 1.32 1.22 1.19 1.15 1.09 1.01 0.92
0.58 0.59 0.64 0.65 0.63 0.62 0.77 1.16 1.33 0.98 0.89 0.82 0.80 0.84 0.97 0.94 0.93 0.99 1.02 1.05 1.01 0.81 0.73 0.80 0.88 1.00 1.10 1.27 1.59 1.85 2.01 2.17 2.12 2.01 1.67 1.55 1.53 1.48 1.59 1.35 1.14 1.02 0.94

GEFSMA_prec_meanprecacc_228.txt.gz
Total_Precipitation_Accumulation
0.34 0.34 0.31 0.29 0.26 0.25 0.27 0.27 0.27 0.29 0.30 0.34 0.35 0.34 0.36 0.35 0.30 0.28 0.23 0.20 0.19 0.27 0.39 0.52 0.70 0.93 1.15 1.24 1.26 1.17 1.10 1.00 0.88 0.80 0.79 0.82 0.93 1.03 1.10 1.06 1.10 1.14 1.11
0.31 0.32 0.32 0.31 0.28 0.26 0.27 0.27 0.26 0.28 0.29 0.30 0.29 0.29 0.31 0.30 0.27 0.28 0.27 0.26 0.23 0.24 0.34 0.44 0.55 0.73 1.03 1.28 1.38 1.32 1.23 1.19 1.14 1.06 0.95 0.92 0.95 1.02 1.12 1.18 1.05 1.00 0.97
0.34 0.31 0.32 0.31 0.30 0.31 0.32 0.31 0.31 0.32 0.30 0.29 0.29 0.29 0.29 0.26 0.25 0.27 0.29 0.29 0.29 0.28 0.31 0.44 0.51 0.61 0.84 1.13 1.39 1.56 1.40 1.33 1.36 1.35 1.21 1.07 0.99 1.04 1.07 1.19 1.22 1.14 1.04
0.35 0.38 0.36 0.33 0.31 0.34 0.39 0.39 0.35 0.33 0.31 0.29 0.27 0.28 0.28 0.28 0.26 0.26 0.30 0.29 0.30 0.30 0.30 0.37 0.48 0.57 0.74 0.93 1.18 1.52 1.62 1.55 1.53 1.51 1.44 1.31 1.13 1.11 1.15 1.20 1.28 1.31 1.26
0.36 0.38 0.40 0.39 0.41 0.43 0.43 0.45 0.43 0.45 0.41 0.35 0.32 0.32 0.33 0.35 0.35 0.33 0.36 0.35 0.33 0.31 0.32 0.35 0.41 0.46 0.59 0.79 1.03 1.33 1.62 1.73 1.69 1.67 1.62 1.55 1.40 1.24 1.23 1.27 1.32 1.44 1.48
0.38 0.39 0.39 0.42 0.45 0.50 0.51 0.50 0.47 0.46 0.46 0.46 0.48 0.46 0.46 0.45 0.41 0.35 0.36 0.40 0.38 0.35 0.38 0.38 0.38 0.37 0.41 0.54 0.79 1.09 1.41 1.68 1.79 1.80 1.83 1.81 1.71 1.55 1.37 1.34 1.35 1.46 1.61
0.40 0.42 0.40 0.42 0.46 0.45 0.44 0.43 0.46 0.46 0.43 0.44 0.50 0.51 0.46 0.43 0.39 0.32 0.33 0.40 0.47 0.50 0.50 0.51 0.49 0.44 0.42 0.44 0.49 0.68 1.00 1.40 1.73 1.86 1.92 1.95 1.94 1.85 1.69 1.53 1.47 1.51 1.65
0.46 0.46 0.47 0.46 0.45 0.44 0.41 0.39 0.40 0.42 0.39 0.38 0.46 0.51 0.47 0.41 0.35 0.29 0.29 0.34 0.42 0.50 0.55 0.56 0.59 0.60 0.55 0.50 0.39 0.42 0.58 0.94 1.41 1.84 2.04 2.12 2.22 2.21 2.07 1.87 1.73 1.72 1.78
0.47 0.46 0.49 0.52 0.51 0.48 0.45 0.42 0.41 0.40 0.40 0.37 0.39 0.56 0.61 0.46 0.31 0.21 0.22 0.25 0.29 0.33 0.39 0.45 0.52 0.57 0.60 0.59 0.52 0.42 0.42 0.61 0.96 1.44 1.96 2.27 2.49 2.68 2.61 2.32 2.10 2.00 1.96
0.51 0.48 0.50 0.53 0.54 0.50 0.46 0.44 0.43 0.42 0.43 0.45 0.41 0.41 0.45 0.45 0.50 0.33 0.17 0.16 0.18 0.20 0.24 0.29 0.34 0.40 0.49 0.54 0.57 0.59 0.56 0.56 0.80 1.08 1.53 2.08 2.58 3.00 3.25 3.02 2.60 2.28 2.15
0.54 0.52 0.51 0.52 0.53 0.50 0.47 0.45 0.43 0.44 0.46 0.48 0.49 0.47 0.42 0.37 0.40 0.49 0.31 0.17 0.17 0.16 0.17 0.22 0.26 0.30 0.36 0.44 0.51 0.59 0.67 0.68 0.84 1.03 1.25 1.66 2.24 2.95 3.46 3.48 3.13 2.72 2.43
0.60 0.57 0.56 0.52 0.49 0.47 0.44 0.43 0.42 0.42 0.42 0.43 0.46 0.49 0.51 0.52 0.44 0.48 0.44 0.25 0.20 0.19 0.19 0.20 0.23 0.28 0.35 0.44 0.51 0.65 0.72 0.76 0.86 1.01 1.06 1.28 1.69 2.33 3.14 3.58 3.49 3.18 2.84
0.60 0.57 0.58 0.54 0.51 0.48 0.45 0.44 0.46 0.46 0.46 0.48 0.47 0.47 0.47 0.45 0.44 0.52 0.57 0.41 0.28 0.21 0.22 0.23 0.23 0.27 0.35 0.43 0.49 0.61 0.64 0.69 0.76 0.89 0.94 0.94 1.09 1.56 2.37 3.22 3.68 3.61 3.35
0.58 0.54 0.57 0.56 0.52 0.50 0.50 0.49 0.49 0.50 0.52 0.53 0.51 0.50 0.52 0.47 0.47 0.53 0.62 0.68 0.58 0.34 0.24 0.20 0.19 0.23 0.30 0.36 0.44 0.55 0.54 0.60 0.64 0.75 0.87 0.90 0.89 1.02 1.48 2.31 3.19 3.76 3.75
0.64 0.60 0.61 0.62 0.61 0.60 0.61 0.61 0.60 0.57 0.58 0.58 0.58 0.58 0.61 0.56 0.54 0.53 0.56 0.71 0.93 0.78 0.39 0.20 0.18 0.20 0.26 0.32 0.41 0.47 0.45 0.54 0.60 0.65 0.75 0.85 0.90 0.94 1.08 1.42 2.14 3.02 3.70
0.70 0.70 0.68 0.65 0.63 0.65 0.71 0.77 0.74 0.67 0.67 0.66 0.65 0.66 0.67 0.65 0.63 0.61 0.62 0.64 0.79 0.95 0.68 0.27 0.22 0.23 0.29 0.34 0.43 0.46 0.44 0.52 0.57 0.62 0.65 0.70 0.80 0.91 1.02 1.16 1.47 2.14 2.92
0.74 0.76 0.76 0.74 0.70 0.69 0.72 0.76 0.77 0.77 0.79 0.76 0.76 0.78 0.72 0.69 0.73 0.71 0.70 0.70 0.71 0.84 0.85 0.37 0.24 0.27 0.38 0.46 0.45 0.45 0.45 0.46 0.48 0.56 0.62 0.64 0.68 0.76 0.88 1.02 1.18 1.56 2.23
0.71 0.76 0.80 0.80 0.76 0.74 0.77 0.82 0.80 0.79 0.83 0.86 0.84 0.84 0.81 0.79 0.80 0.79 0.83 0.81 0.75 0.73 0.84 0.61 0.33 0.31 0.36 0.45 0.48 0.49 0.47 0.46 0.45 0.51 0.57 0.64 0.69 0.74 0.80 0.91 1.06 1.23 1.60
0.82 0.83 0.87 0.90 0.85 0.83 0.87 0.88 0.88 0.87 0.85 0.86 0.88 0.93 0.91 0.91 0.91 0.88 0.90 0.91 0.87 0.78 0.79 0.79 0.52 0.38 0.39 0.46 0.55 0.56 0.53 0.54 0.52 0.55 0.57 0.64 0.72 0.77 0.80 0.87 0.98 1.11 1.23
0.96 0.99 0.99 0.99 0.99 1.00 1.18 1.21 1.07 1.01 0.96 0.91 0.91 0.96 1.00 1.05 1.05 1.06 1.13 1.11 1.08 1.06 0.98 0.95 0.76 0.58 0.55 0.56 0.67 0.69 0.63 0.60 0.63 0.62 0.64 0.64 0.69 0.76 0.78 0.79 0.81 0.89 1.06
1.12 1.10 1.12 1.09 1.09 1.18 1.48 1.60 1.35 1.19 1.11 1.05 0.98 0.98 0.99 1.09 1.24 1.40 1.53 1.46 1.35 1.36 1.29 1.24 1.07 0.87 0.74 0.76 0.85 0.79 0.79 0.70 0.72 0.74 0.72 0.67 0.65 0.64 0.69 0.78 0.86 0.91 0.98
1.18 1.20 1.16 1.13 1.07 1.18 1.55 1.64 1.36 1.15 0.99 0.97 0.94 0.88 0.88 0.94 1.03 1.17 1.35 1.37 1.35 1.49 1.56 1.49 1.32 1.13 0.88 0.80 0.90 1.03 1.10 1.10 0.99 0.83 0.84 0.82 0.77 0.77 0.75 0.76 0.88 0.94 1.02
1.00 1.02 1.03 1.02 0.98 1.00 1.39 1.51 1.26 0.94 0.80 0.80 0.78 0.75 0.73 0.76 0.86 0.83 0.96 1.03 1.09 1.18 1.36 1.49 1.53 1.26 1.05 0.96 1.14 1.31 1.32 1.29 1.04 0.89 1.03 1.13 1.01 0.95 0.88 0.90 0.98 0.94 1.00
0.90 0.87 0.81 0.79 0.79 0.87 1.23 1.47 1.28 0.84 0.73 0.74 0.74 0.73 0.71 0.70 0.76 0.90 0.98 0.94 0.86 0.86 1.04 1.25 1.43 1.32 1.21 1.24 1.47 1.70 1.77 1.78 1.49 1.19 1.16 1.37 1.23 1.16 1.09 1.03 1.04 0.95 0.97
0.71 0.75 0.74 0.69 0.68 0.71 1.02 1.39 1.31 0.94 0.87 0.81 0.79 0.81 0.81 0.72 0.81 1.00 1.07 1.01 0.86 0.78 0.86 1.09 1.31 1.42 1.50 1.65 1.89 2.19 2.29 2.34 2.15 1.73 1.46 1.47 1.39 1.31 1.28 1.23 1.17 1.10 1.03
0.58 0.60 0.65 0.67 0.65 0.64 0.80 1.19 1.36 1.01 0.91 0.84 0.82 0.86 0.99 0.96 0.96 1.02 1.05 1.09 1.05 0.84 0.75 0.82 0.90 1.02 1.13 1.30 1.63 1.89 2.05 2.23 2.19 2.07 1.71 1.60 1.60 1.56 1.68 1.42 1.21 1.11 1.06

GEFSMA_prec_meanprecacc_234.txt.gz
Total_Precipitation_Accumulation
0.36 0.35 0.32 0.29 0.26 0.25 0.27 0.28 0.28 0.30 0.32 0.36 0.37 0.35 0.37 0.35 0.30 0.29 0.24 0.21 0.21 0.29 0.42 0.55 0.72 0.95 1.17 1.27 1.29 1.20 1.13 1.03 0.92 0.84 0.83 0.85 0.95 1.05 1.12 1.08 1.12 1.16 1.14
0.32 0.33 0.35 0.33 0.29 0.26 0.27 0.28 0.27 0.30 0.32 0.33 0.31 0.30 0.32 0.30 0.28 0.29 0.28 0.28 0.25 0.25 0.36 0.46 0.57 0.75 1.05 1.30 1.40 1.34 1.25 1.22 1.18 1.11 1.00 0.96 0.98 1.04 1.14 1.21 1.07 1.02 0.99
0.34 0.32 0.32 0.32 0.32 0.33 0.34 0.32 0.32 0.34 0.33 0.33 0.33 0.32 0.31 0.28 0.28 0.30 0.31 0.30 0.30 0.29 0.33 0.45 0.52 0.63 0.85 1.15 1.43 1.59 1.43 1.36 1.39 1.38 1.24 1.12 1.04 1.08 1.11 1.23 1.26 1.17 1.08
0.35 0.39 0.37 0.34 0.33 0.36 0.41 0.41 0.37 0.36 0.34 0.33 0.33 0.33 0.32 0.31 0.28 0.29 0.33 0.31 0.32 0.31 0.31 0.38 0.49 0.58 0.76 0.96 1.23 1.58 1.67 1.59 1.56 1.54 1.47 1.35 1.18 1.16 1.19 1.24 1.32 1.36 1.31
0.36 0.38 0.41 0.39 0.42 0.45 0.44 0.46 0.44 0.47 0.45 0.40 0.39 0.40 0.40 0.41 0.39 0.36 0.39 0.38 0.35 0.33 0.33 0.36 0.42 0.47 0.60 0.82 1.06 1.36 1.65 1.76 1.72 1.70 1.65 1.58 1.43 1.27 1.26 1.31 1.38 1.51 1.55
0.38 0.39 0.39 0.42 0.46 0.51 0.53 0.52 0.49 0.49 0.50 0.52 0.56 0.54 0.54 0.53 0.49 0.41 0.39 0.42 0.40 0.36 0.38 0.38 0.39 0.37 0.42 0.55 0.80 1.11 1.43 1.70 1.81 1.83 1.85 1.83 1.73 1.58 1.41 1.37 1.40 1.53 1.69
0.41 0.42 0.41 0.43 0.47 0.47 0.46 0.45 0.49 0.49 0.45 0.48 0.55 0.56 0.52 0.50 0.45 0.39 0.39 0.43 0.49 0.51 0.51 0.52 0.50 0.45 0.42 0.45 0.49 0.69 1.02 1.43 1.76 1.88 1.94 1.97 1.96 1.88 1.73 1.56 1.50 1.55 1.71
0.47 0.47 0.47 0.46 0.46 0.45 0.43 0.40 0.42 0.44 0.41 0.41 0.49 0.55 0.51 0.47 0.39 0.32 0.33 0.39 0.45 0.51 0.56 0.57 0.60 0.61 0.56 0.50 0.40 0.43 0.59 0.96 1.44 1.87 2.07 2.15 2.25 2.24 2.11 1.91 1.76 1.74 1.81
0.49 0.48 0.51 0.54 0.52 0.49 0.45 0.43 0.42 0.42 0.42 0.39 0.42 0.59 0.64 0.50 0.35 0.25 0.24 0.26 0.30 0.34 0.40 0.46 0.52 0.58 0.61 0.60 0.53 0.43 0.42 0.62 0.97 1.47 1.99 2.31 2.54 2.73 2.66 2.38 2.15 2.02 1.98
0.54 0.50 0.52 0.55 0.56 0.52 0.47 0.45 0.45 0.44 0.45 0.47 0.43 0.43 0.47 0.47 0.53 0.38 0.20 0.18 0.19 0.21 0.25 0.30 0.34 0.40 0.49 0.54 0.57 0.60 0.57 0.56 0.81 1.10 1.56 2.11 2.63 3.07 3.33 3.09 2.67 2.34 2.19
0.59 0.56 0.57 0.57 0.58 0.54 0.50 0.47 0.46 0.47 0.48 0.50 0.51 0.48 0.43 0.39 0.42 0.53 0.36 0.20 0.18 0.17 0.18 0.22 0.26 0.30 0.36 0.45 0.51 0.59 0.67 0.68 0.84 1.04 1.26 1.68 2.27 2.99 3.53 3.59 3.24 2.82 2.49
0.68 0.66 0.66 0.60 0.56 0.52 0.48 0.46 0.46 0.46 0.45 0.46 0.49 0.51 0.53 0.53 0.45 0.49 0.45 0.27 0.22 0.20 0.19 0.20 0.24 0.29 0.36 0.45 0.51 0.65 0.72 0.76 0.87 1.02 1.07 1.30 1.71 2.36 3.17 3.63 3.59 3.31 2.95
0.66 0.63 0.63 0.60 0.56 0.52 0.48 0.46 0.49 0.50 0.49 0.50 0.48 0.49 0.48 0.46 0.45 0.53 0.59 0.42 0.29 0.21 0.22 0.23 0.23 0.27 0.35 0.44 0.50 0.61 0.64 0.69 0.77 0.90 0.95 0.96 1.11 1.58 2.39 3.26 3.73 3.71 3.49
0.64 0.59 0.62 0.61 0.57 0.53 0.52 0.50 0.51 0.52 0.53 0.55 0.53 0.52 0.54 0.49 0.49 0.55 0.64 0.70 0.59 0.34 0.24 0.20 0.19 0.23 0.30 0.36 0.44 0.56 0.54 0.60 0.64 0.75 0.87 0.91 0.91 1.04 1.50 2.34 3.25 3.84 3.86
0.68 0.64 0.65 0.66 0.65 0.64 0.65 0.64 0.62 0.59 0.60 0.60 0.60 0.60 0.63 0.59 0.56 0.55 0.58 0.72 0.95 0.79 0.39 0.20 0.18 0.21 0.26 0.33 0.42 0.47 0.46 0.54 0.61 0.65 0.76 0.86 0.93 0.97 1.12 1.46 2.18 3.06 3.75
0.71 0.71 0.70 0.66 0.65 0.68 0.73 0.80 0.77 0.70 0.69 0.68 0.67 0.68 0.69 0.67 0.64 0.62 0.63 0.65 0.80 0.96 0.69 0.28 0.22 0.23 0.30 0.35 0.43 0.47 0.45 0.53 0.58 0.63 0.67 0.72 0.82 0.94 1.05 1.19 1.50 2.17 2.95
0.74 0.76 0.77 0.74 0.71 0.71 0.74 0.78 0.79 0.79 0.80 0.78 0.78 0.80 0.74 0.70 0.74 0.72 0.71 0.71 0.72 0.85 0.86 0.38 0.24 0.27 0.38 0.47 0.47 0.46 0.45 0.46 0.49 0.58 0.63 0.66 0.70 0.79 0.92 1.05 1.21 1.59 2.26
0.71 0.77 0.81 0.81 0.77 0.75 0.78 0.83 0.82 0.81 0.85 0.88 0.87 0.87 0.83 0.81 0.81 0.80 0.84 0.82 0.76 0.74 0.84 0.62 0.33 0.31 0.37 0.46 0.50 0.51 0.49 0.47 0.46 0.53 0.59 0.66 0.71 0.77 0.84 0.95 1.09 1.26 1.64
0.83 0.84 0.87 0.90 0.86 0.83 0.88 0.89 0.89 0.88 0.86 0.88 0.90 0.95 0.94 0.94 0.93 0.90 0.91 0.92 0.87 0.79 0.80 0.80 0.52 0.38 0.40 0.46 0.56 0.57 0.55 0.56 0.54 0.57 0.60 0.66 0.75 0.80 0.83 0.90 1.02 1.15 1.27
0.97 1.00 0.99 1.00 0.99 1.01 1.19 1.22 1.10 1.03 0.97 0.93 0.93 0.98 1.02 1.07 1.07 1.09 1.15 1.13 1.10 1.08 1.00 0.96 0.78 0.59 0.55 0.56 0.67 0.69 0.64 0.62 0.65 0.64 0.66 0.66 0.72 0.78 0.81 0.82 0.85 0.93 1.10
1.12 1.11 1.13 1.09 1.09 1.19 1.49 1.61 1.36 1.21 1.14 1.08 1.01 1.00 1.02 1.11 1.25 1.42 1.55 1.48 1.37 1.38 1.31 1.25 1.09 0.88 0.75 0.76 0.85 0.80 0.80 0.71 0.73 0.75 0.74 0.69 0.67 0.66 0.72 0.82 0.91 0.97 1.04
1.18 1.20 1.17 1.13 1.08 1.19 1.56 1.65 1.38 1.17 1.01 0.99 0.97 0.90 0.90 0.96 1.04 1.19 1.37 1.39 1.37 1.51 1.58 1.50 1.34 1.15 0.89 0.81 0.91 1.04 1.11 1.11 1.01 0.84 0.85 0.84 0.79 0.79 0.77 0.79 0.93 1.00 1.09
1.01 1.02 1.04 1.03 0.99 1.01 1.39 1.52 1.27 0.95 0.82 0.82 0.79 0.77 0.76 0.78 0.87 0.84 0.97 1.05 1.10 1.20 1.37 1.51 1.55 1.27 1.06 0.97 1.15 1.33 1.34 1.30 1.06 0.90 1.04 1.15 1.03 0.98 0.91 0.93 1.03 0.99 1.07
0.91 0.88 0.82 0.80 0.80 0.88 1.24 1.48 1.29 0.85 0.73 0.74 0.74 0.74 0.72 0.71 0.77 0.92 0.99 0.96 0.88 0.88 1.06 1.26 1.44 1.33 1.22 1.26 1.50 1.73 1.80 1.80 1.51 1.20 1.18 1.39 1.25 1.19 1.13 1.09 1.10 1.02 1.05
0.72 0.76 0.75 0.70 0.69 0.72 1.02 1.40 1.32 0.94 0.88 0.82 0.80 0.81 0.81 0.72 0.82 1.01 1.09 1.03 0.87 0.80 0.87 1.11 1.33 1.44 1.52 1.68 1.92 2.22 2.32 2.37 2.18 1.75 1.47 1.50 1.41 1.35 1.34 1.30 1.25 1.18 1.10
0.59 0.61 0.66 0.67 0.65 0.64 0.81 1.20 1.37 1.02 0.92 0.85 0.83 0.87 1.00 0.97 0.97 1.04 1.07 1.11 1.07 0.85 0.76 0.83 0.93 1.04 1.15 1.33 1.66 1.91 2.08 2.28 2.23 2.10 1.72 1.63 1.63 1.60 1.74 1.48 1.28 1.18 1.12

GEFSMA_prec_meanprecacc_240.txt.gz
Total_Precipitation_Accumulation
0.36 0.35 0.32 0.30 0.27 0.26 0.27 0.28 0.28 0.30 0.32 0.36 0.38 0.36 0.38 0.36 0.31 0.30 0.25 0.22 0.22 0.30 0.44 0.61 0.80 1.01 1.21 1.29 1.30 1.22 1.14 1.05 0.93 0.86 0.85 0.89 0.99 1.09 1.15 1.11 1.16 1.20 1.18
0.33 0.34 0.35 0.34 0.30 0.27 0.28 0.28 0.27 0.30 0.32 0.33 0.32 0.32 0.33 0.31 0.29 0.30 0.30 0.29 0.26 0.28 0.38 0.50 0.63 0.81 1.10 1.34 1.43 1.35 1.26 1.23 1.19 1.13 1.02 0.98 1.00 1.07 1.17 1.24 1.10 1.05 1.03
0.38 0.34 0.34 0.34 0.34 0.35 0.35 0.33 0.33 0.35 0.34 0.33 0.34 0.33 0.33 0.30 0.29 0.32 0.33 0.31 0.31 0.30 0.35 0.47 0.56 0.68 0.92 1.22 1.48 1.63 1.46 1.38 1.41 1.40 1.26 1.13 1.06 1.11 1.14 1.26 1.30 1.21 1.11
0.38 0.42 0.40 0.37 0.36 0.38 0.43 0.43 0.38 0.37 0.35 0.34 0.34 0.35 0.34 0.34 0.31 0.31 0.35 0.34 0.34 0.33 0.33 0.39 0.50 0.61 0.81 1.03 1.30 1.66 1.74 1.64 1.60 1.58 1.51 1.39 1.22 1.20 1.24 1.30 1.38 1.41 1.35
0.37 0.40 0.42 0.41 0.44 0.47 0.47 0.49 0.47 0.50 0.47 0.42 0.40 0.41 0.42 0.43 0.42 0.40 0.42 0.41 0.38 0.35 0.34 0.37 0.43 0.47 0.61 0.84 1.10 1.41 1.69 1.80 1.75 1.74 1.69 1.62 1.48 1.31 1.31 1.38 1.44 1.55 1.59
0.40 0.40 0.41 0.44 0.48 0.53 0.54 0.53 0.50 0.50 0.52 0.54 0.58 0.55 0.55 0.55 0.51 0.44 0.44 0.46 0.43 0.39 0.41 0.40 0.40 0.38 0.42 0.56 0.82 1.13 1.46 1.73 1.84 1.86 1.89 1.87 1.76 1.61 1.43 1.41 1.43 1.57 1.73
0.44 0.45 0.44 0.45 0.48 0.48 0.46 0.46 0.50 0.50 0.47 0.49 0.57 0.57 0.53 0.51 0.47 0.43 0.45 0.51 0.57 0.57 0.56 0.56 0.54 0.46 0.43 0.45 0.50 0.70 1.03 1.45 1.79 1.92 1.97 2.00 1.98 1.91 1.76 1.60 1.54 1.59 1.75
0.50 0.50 0.50 0.49 0.48 0.47 0.44 0.41 0.43 0.45 0.43 0.43 0.51 0.56 0.52 0.48 0.41 0.34 0.37 0.46 0.54 0.60 0.64 0.63 0.64 0.63 0.57 0.51 0.41 0.43 0.60 0.97 1.46 1.90 2.10 2.18 2.28 2.27 2.15 1.95 1.80 1.80 1.88
0.51 0.50 0.53 0.56 0.54 0.51 0.47 0.44 0.43 0.43 0.43 0.41 0.44 0.62 0.67 0.52 0.36 0.26 0.26 0.30 0.35 0.39 0.44 0.49 0.55 0.60 0.63 0.61 0.53 0.44 0.43 0.63 0.98 1.48 2.02 2.35 2.58 2.77 2.70 2.42 2.20 2.07 2.04
0.56 0.53 0.55 0.58 0.60 0.55 0.49 0.47 0.46 0.45 0.47 0.49 0.45 0.45 0.49 0.49 0.55 0.40 0.22 0.20 0.21 0.23 0.27 0.32 0.36 0.42 0.50 0.55 0.59 0.61 0.58 0.57 0.82 1.11 1.58 2.14 2.67 3.11 3.38 3.14 2.72 2.40 2.25
0.60 0.58 0.59 0.59 0.60 0.56 0.53 0.51 0.49 0.50 0.51 0.52 0.53 0.50 0.45 0.40 0.43 0.54 0.37 0.22 0.20 0.18 0.19 0.23 0.27 0.31 0.36 0.45 0.52 0.61 0.69 0.69 0.85 1.04 1.27 1.69 2.28 3.02 3.57 3.62 3.28 2.88 2.57
0.69 0.67 0.67 0.62 0.59 0.54 0.52 0.51 0.50 0.50 0.49 0.49 0.52 0.54 0.54 0.54 0.47 0.50 0.46 0.28 0.24 0.21 0.20 0.21 0.25 0.30 0.37 0.45 0.52 0.67 0.73 0.78 0.88 1.03 1.08 1.31 1.72 2.37 3.19 3.66 3.61 3.34 3.02
0.67 0.65 0.64 0.61 0.59 0.55 0.51 0.51 0.53 0.54 0.53 0.54 0.53 0.52 0.50 0.48 0.46 0.54 0.60 0.44 0.31 0.23 0.23 0.25 0.24 0.28 0.36 0.44 0.50 0.62 0.65 0.70 0.78 0.90 0.96 0.96 1.11 1.59 2.40 3.28 3.76 3.73 3.54
0.66 0.62 0.65 0.64 0.59 0.56 0.56 0.55 0.56 0.56 0.58 0.59 0.57 0.56 0.57 0.51 0.51 0.56 0.66 0.72 0.61 0.35 0.25 0.21 0.20 0.24 0.30 0.37 0.44 0.56 0.55 0.60 0.64 0.75 0.87 0.91 0.91 1.05 1.52 2.36 3.27 3.86 3.90
0.72 0.69 0.69 0.70 0.69 0.68 0.69 0.68 0.66 0.62 0.63 0.63 0.62 0.63 0.65 0.60 0.57 0.56 0.60 0.74 0.97 0.81 0.40 0.21 0.19 0.21 0.27 0.33 0.42 0.47 0.46 0.55 0.61 0.66 0.76 0.87 0.93 0.98 1.14 1.48 2.20 3.09 3.78
0.74 0.75 0.74 0.70 0.69 0.71 0.77 0.83 0.80 0.73 0.72 0.70 0.69 0.70 0.71 0.68 0.66 0.64 0.64 0.67 0.81 0.97 0.70 0.28 0.23 0.24 0.30 0.35 0.43 0.47 0.46 0.53 0.59 0.64 0.68 0.73 0.84 0.95 1.07 1.21 1.52 2.20 2.97
0.77 0.79 0.79 0.77 0.73 0.72 0.76 0.80 0.81 0.81 0.83 0.81 0.81 0.82 0.76 0.72 0.76 0.73 0.72 0.72 0.73 0.86 0.87 0.38 0.25 0.28 0.39 0.47 0.47 0.47 0.46 0.48 0.50 0.59 0.64 0.67 0.72 0.81 0.94 1.07 1.23 1.61 2.29
0.73 0.79 0.83 0.82 0.78 0.76 0.79 0.84 0.83 0.82 0.87 0.89 0.89 0.89 0.85 0.83 0.83 0.81 0.86 0.84 0.77 0.76 0.86 0.64 0.35 0.32 0.38 0.47 0.51 0.52 0.50 0.49 0.48 0.54 0.61 0.67 0.72 0.78 0.85 0.97 1.12 1.29 1.67
0.86 0.87 0.90 0.93 0.87 0.85 0.88 0.90 0.90 0.89 0.88 0.89 0.91 0.96 0.95 0.95 0.95 0.92 0.93 0.94 0.90 0.81 0.83 0.83 0.54 0.40 0.41 0.48 0.58 0.59 0.57 0.59 0.56 0.59 0.61 0.67 0.76 0.81 0.85 0.92 1.04 1.18 1.30
0.99 1.03 1.02 1.02 1.01 1.02 1.20 1.23 1.11 1.04 0.98 0.93 0.94 0.98 1.02 1.07 1.08 1.10 1.16 1.15 1.12 1.11 1.03 0.99 0.80 0.61 0.57 0.58 0.69 0.71 0.65 0.63 0.67 0.65 0.68 0.67 0.72 0.79 0.82 0.84 0.87 0.94 1.12
1.13 1.12 1.14 1.11 1.11 1.20 1.50 1.62 1.37 1.22 1.14 1.08 1.01 1.00 1.02 1.11 1.25 1.42 1.56 1.49 1.39 1.41 1.35 1.29 1.11 0.90 0.77 0.78 0.86 0.81 0.81 0.72 0.75 0.77 0.74 0.69 0.68 0.67 0.72 0.83 0.92 0.98 1.05
1.19 1.21 1.18 1.14 1.09 1.20 1.57 1.65 1.38 1.17 1.01 0.99 0.97 0.91 0.90 0.97 1.05 1.19 1.38 1.40 1.39 1.54 1.61 1.53 1.36 1.17 0.90 0.82 0.91 1.05 1.12 1.13 1.02 0.84 0.86 0.84 0.80 0.80 0.78 0.80 0.94 1.01 1.10
1.01 1.02 1.04 1.04 0.99 1.01 1.40 1.52 1.27 0.95 0.82 0.82 0.79 0.78 0.76 0.78 0.88 0.84 0.98 1.06 1.11 1.21 1.39 1.53 1.57 1.29 1.07 0.98 1.17 1.35 1.36 1.33 1.07 0.91 1.05 1.16 1.03 0.98 0.91 0.94 1.04 1.01 1.09
0.91 0.88 0.82 0.80 0.80 0.88 1.24 1.48 1.29 0.85 0.74 0.75 0.75 0.74 0.72 0.71 0.77 0.92 1.00 0.97 0.89 0.89 1.06 1.27 1.45 1.35 1.24 1.27 1.52 1.77 1.84 1.84 1.53 1.22 1.19 1.41 1.26 1.20 1.14 1.10 1.11 1.03 1.07
0.73 0.77 0.75 0.70 0.69 0.72 1.03 1.40 1.33 0.95 0.88 0.82 0.80 0.82 0.82 0.73 0.82 1.03 1.10 1.05 0.89 0.81 0.88 1.12 1.34 1.46 1.54 1.71 1.95 2.26 2.35 2.40 2.21 1.76 1.48 1.51 1.42 1.35 1.35 1.30 1.26 1.20 1.13
0.60 0.61 0.66 0.68 0.66 0.65 0.81 1.21 1.38 1.02 0.93 0.86 0.83 0.87 1.00 0.98 0.98 1.05 1.08 1.13 1.09 0.87 0.78 0.85 0.94 1.06 1.17 1.35 1.69 1.94 2.12 2.32 2.26 2.12 1.74 1.64 1.64 1.62 1.75 1.49 1.29 1.20 1.15